<?xml version="1.0" encoding="UTF-8" standalone="no" ?>
<gpx xmlns="http://www.topografix.com/GPX/1/1" xmlns:xsi="http://www.w3.org/2001/XMLSchema-instance" xsi:schemaLocation="http://www.topografix.com/GPX/1/1 http://www.topografix.com/GPX/1/1/gpx.xsd" version="1.1" creator="VisuGPX - https://www.visugpx.com">
  <metadata>
    <name>Millau-Bruniquel par Carmaux</name>
  </metadata>
  <trk>
    <name><![CDATA[millau bruniquel par carmaux-18353658]]></name>
    <trkseg>
      <trkpt lat="44.09912" lon="3.07759">
        <ele>379</ele>
        <time>2024-04-01T09:49:36Z</time>
      </trkpt>
      <trkpt lat="44.09895" lon="3.0772">
        <ele>378</ele>
        <time>2024-04-01T09:49:42Z</time>
      </trkpt>
      <trkpt lat="44.09882" lon="3.07704">
        <ele>378</ele>
        <time>2024-04-01T09:49:45Z</time>
      </trkpt>
      <trkpt lat="44.09864" lon="3.07695">
        <ele>378</ele>
        <time>2024-04-01T09:49:48Z</time>
      </trkpt>
      <trkpt lat="44.09906" lon="3.07563">
        <ele>377</ele>
        <time>2024-04-01T09:50:07Z</time>
      </trkpt>
      <trkpt lat="44.09955" lon="3.07426">
        <ele>378</ele>
        <time>2024-04-01T09:50:26Z</time>
      </trkpt>
      <trkpt lat="44.09989" lon="3.07338">
        <ele>381</ele>
        <time>2024-04-01T09:50:39Z</time>
      </trkpt>
      <trkpt lat="44.0999" lon="3.07328">
        <ele>381</ele>
        <time>2024-04-01T09:50:40Z</time>
      </trkpt>
      <trkpt lat="44.09978" lon="3.07317">
        <ele>382</ele>
        <time>2024-04-01T09:50:43Z</time>
      </trkpt>
      <trkpt lat="44.09956" lon="3.07304">
        <ele>382</ele>
        <time>2024-04-01T09:50:47Z</time>
      </trkpt>
      <trkpt lat="44.09946" lon="3.07295">
        <ele>382</ele>
        <time>2024-04-01T09:50:49Z</time>
      </trkpt>
      <trkpt lat="44.09952" lon="3.07279">
        <ele>383</ele>
        <time>2024-04-01T09:50:52Z</time>
      </trkpt>
      <trkpt lat="44.09957" lon="3.07262">
        <ele>383</ele>
        <time>2024-04-01T09:50:54Z</time>
      </trkpt>
      <trkpt lat="44.0996" lon="3.07253">
        <ele>384</ele>
        <time>2024-04-01T09:50:55Z</time>
      </trkpt>
      <trkpt lat="44.09993" lon="3.07252">
        <ele>386</ele>
        <time>2024-04-01T09:51:01Z</time>
      </trkpt>
      <trkpt lat="44.10017" lon="3.07119">
        <ele>394</ele>
        <time>2024-04-01T09:51:19Z</time>
      </trkpt>
      <trkpt lat="44.10047" lon="3.0699">
        <ele>400</ele>
        <time>2024-04-01T09:51:36Z</time>
      </trkpt>
      <trkpt lat="44.1006" lon="3.06942">
        <ele>402</ele>
        <time>2024-04-01T09:51:43Z</time>
      </trkpt>
      <trkpt lat="44.1008" lon="3.06876">
        <ele>405</ele>
        <time>2024-04-01T09:51:52Z</time>
      </trkpt>
      <trkpt lat="44.10127" lon="3.06764">
        <ele>411</ele>
        <time>2024-04-01T09:52:08Z</time>
      </trkpt>
      <trkpt lat="44.10136" lon="3.06736">
        <ele>412</ele>
        <time>2024-04-01T09:52:12Z</time>
      </trkpt>
      <trkpt lat="44.10143" lon="3.06739">
        <ele>412</ele>
        <time>2024-04-01T09:52:13Z</time>
      </trkpt>
      <trkpt lat="44.10148" lon="3.06736">
        <ele>413</ele>
        <time>2024-04-01T09:52:14Z</time>
      </trkpt>
      <trkpt lat="44.10151" lon="3.06727">
        <ele>414</ele>
        <time>2024-04-01T09:52:16Z</time>
      </trkpt>
      <trkpt lat="44.10151" lon="3.06721">
        <ele>414</ele>
        <time>2024-04-01T09:52:16Z</time>
      </trkpt>
      <trkpt lat="44.10147" lon="3.06714">
        <ele>414</ele>
        <time>2024-04-01T09:52:18Z</time>
      </trkpt>
      <trkpt lat="44.10183" lon="3.06646">
        <ele>419</ele>
        <time>2024-04-01T09:52:28Z</time>
      </trkpt>
      <trkpt lat="44.10249" lon="3.06548">
        <ele>428</ele>
        <time>2024-04-01T09:52:46Z</time>
      </trkpt>
      <trkpt lat="44.10335" lon="3.06454">
        <ele>437</ele>
        <time>2024-04-01T09:53:05Z</time>
      </trkpt>
      <trkpt lat="44.10437" lon="3.06332">
        <ele>450</ele>
        <time>2024-04-01T09:53:29Z</time>
      </trkpt>
      <trkpt lat="44.10505" lon="3.06229">
        <ele>458</ele>
        <time>2024-04-01T09:53:47Z</time>
      </trkpt>
      <trkpt lat="44.1054" lon="3.06181">
        <ele>461</ele>
        <time>2024-04-01T09:53:56Z</time>
      </trkpt>
      <trkpt lat="44.10605" lon="3.06071">
        <ele>467</ele>
        <time>2024-04-01T09:54:14Z</time>
      </trkpt>
      <trkpt lat="44.10629" lon="3.06034">
        <ele>469</ele>
        <time>2024-04-01T09:54:20Z</time>
      </trkpt>
      <trkpt lat="44.10658" lon="3.05981">
        <ele>474</ele>
        <time>2024-04-01T09:54:29Z</time>
      </trkpt>
      <trkpt lat="44.10698" lon="3.05884">
        <ele>478</ele>
        <time>2024-04-01T09:54:43Z</time>
      </trkpt>
      <trkpt lat="44.10705" lon="3.0586">
        <ele>479</ele>
        <time>2024-04-01T09:54:46Z</time>
      </trkpt>
      <trkpt lat="44.10713" lon="3.05826">
        <ele>481</ele>
        <time>2024-04-01T09:54:51Z</time>
      </trkpt>
      <trkpt lat="44.10742" lon="3.05648">
        <ele>485</ele>
        <time>2024-04-01T09:55:14Z</time>
      </trkpt>
      <trkpt lat="44.10746" lon="3.05611">
        <ele>487</ele>
        <time>2024-04-01T09:55:19Z</time>
      </trkpt>
      <trkpt lat="44.10748" lon="3.05506">
        <ele>495</ele>
        <time>2024-04-01T09:55:32Z</time>
      </trkpt>
      <trkpt lat="44.10749" lon="3.05492">
        <ele>496</ele>
        <time>2024-04-01T09:55:34Z</time>
      </trkpt>
      <trkpt lat="44.10776" lon="3.05399">
        <ele>499</ele>
        <time>2024-04-01T09:55:47Z</time>
      </trkpt>
      <trkpt lat="44.10827" lon="3.05264">
        <ele>507</ele>
        <time>2024-04-01T09:56:06Z</time>
      </trkpt>
      <trkpt lat="44.10841" lon="3.05231">
        <ele>509</ele>
        <time>2024-04-01T09:56:11Z</time>
      </trkpt>
      <trkpt lat="44.10859" lon="3.05196">
        <ele>512</ele>
        <time>2024-04-01T09:56:17Z</time>
      </trkpt>
      <trkpt lat="44.10876" lon="3.05169">
        <ele>515</ele>
        <time>2024-04-01T09:56:21Z</time>
      </trkpt>
      <trkpt lat="44.10895" lon="3.05129">
        <ele>519</ele>
        <time>2024-04-01T09:56:28Z</time>
      </trkpt>
      <trkpt lat="44.10909" lon="3.05089">
        <ele>522</ele>
        <time>2024-04-01T09:56:33Z</time>
      </trkpt>
      <trkpt lat="44.10917" lon="3.05062">
        <ele>524</ele>
        <time>2024-04-01T09:56:37Z</time>
      </trkpt>
      <trkpt lat="44.10925" lon="3.05001">
        <ele>528</ele>
        <time>2024-04-01T09:56:45Z</time>
      </trkpt>
      <trkpt lat="44.1093" lon="3.04976">
        <ele>529</ele>
        <time>2024-04-01T09:56:48Z</time>
      </trkpt>
      <trkpt lat="44.10958" lon="3.04909">
        <ele>533</ele>
        <time>2024-04-01T09:56:58Z</time>
      </trkpt>
      <trkpt lat="44.10967" lon="3.0488">
        <ele>535</ele>
        <time>2024-04-01T09:57:02Z</time>
      </trkpt>
      <trkpt lat="44.10971" lon="3.04817">
        <ele>537</ele>
        <time>2024-04-01T09:57:10Z</time>
      </trkpt>
      <trkpt lat="44.10971" lon="3.04753">
        <ele>541</ele>
        <time>2024-04-01T09:57:18Z</time>
      </trkpt>
      <trkpt lat="44.10975" lon="3.0473">
        <ele>543</ele>
        <time>2024-04-01T09:57:21Z</time>
      </trkpt>
      <trkpt lat="44.1098" lon="3.0472">
        <ele>544</ele>
        <time>2024-04-01T09:57:23Z</time>
      </trkpt>
      <trkpt lat="44.10981" lon="3.04708">
        <ele>544</ele>
        <time>2024-04-01T09:57:25Z</time>
      </trkpt>
      <trkpt lat="44.1099" lon="3.0469">
        <ele>546</ele>
        <time>2024-04-01T09:57:27Z</time>
      </trkpt>
      <trkpt lat="44.10998" lon="3.04678">
        <ele>547</ele>
        <time>2024-04-01T09:57:29Z</time>
      </trkpt>
      <trkpt lat="44.11001" lon="3.04669">
        <ele>548</ele>
        <time>2024-04-01T09:57:31Z</time>
      </trkpt>
      <trkpt lat="44.11024" lon="3.04591">
        <ele>552</ele>
        <time>2024-04-01T09:57:41Z</time>
      </trkpt>
      <trkpt lat="44.11067" lon="3.04439">
        <ele>561</ele>
        <time>2024-04-01T09:58:02Z</time>
      </trkpt>
      <trkpt lat="44.11086" lon="3.04378">
        <ele>565</ele>
        <time>2024-04-01T09:58:11Z</time>
      </trkpt>
      <trkpt lat="44.11091" lon="3.04366">
        <ele>566</ele>
        <time>2024-04-01T09:58:13Z</time>
      </trkpt>
      <trkpt lat="44.11115" lon="3.04323">
        <ele>570</ele>
        <time>2024-04-01T09:58:20Z</time>
      </trkpt>
      <trkpt lat="44.11144" lon="3.04279">
        <ele>572</ele>
        <time>2024-04-01T09:58:27Z</time>
      </trkpt>
      <trkpt lat="44.11166" lon="3.04256">
        <ele>575</ele>
        <time>2024-04-01T09:58:32Z</time>
      </trkpt>
      <trkpt lat="44.11175" lon="3.04245">
        <ele>575</ele>
        <time>2024-04-01T09:58:34Z</time>
      </trkpt>
      <trkpt lat="44.11184" lon="3.04226">
        <ele>575</ele>
        <time>2024-04-01T09:58:37Z</time>
      </trkpt>
      <trkpt lat="44.11198" lon="3.04186">
        <ele>576</ele>
        <time>2024-04-01T09:58:43Z</time>
      </trkpt>
      <trkpt lat="44.11214" lon="3.04152">
        <ele>578</ele>
        <time>2024-04-01T09:58:48Z</time>
      </trkpt>
      <trkpt lat="44.11242" lon="3.04111">
        <ele>581</ele>
        <time>2024-04-01T09:58:55Z</time>
      </trkpt>
      <trkpt lat="44.11286" lon="3.04061">
        <ele>585</ele>
        <time>2024-04-01T09:59:05Z</time>
      </trkpt>
      <trkpt lat="44.11316" lon="3.04037">
        <ele>587</ele>
        <time>2024-04-01T09:59:11Z</time>
      </trkpt>
      <trkpt lat="44.11321" lon="3.0404">
        <ele>588</ele>
        <time>2024-04-01T09:59:12Z</time>
      </trkpt>
      <trkpt lat="44.11332" lon="3.0404">
        <ele>588</ele>
        <time>2024-04-01T09:59:14Z</time>
      </trkpt>
      <trkpt lat="44.1134" lon="3.04032">
        <ele>589</ele>
        <time>2024-04-01T09:59:16Z</time>
      </trkpt>
      <trkpt lat="44.11343" lon="3.04026">
        <ele>589</ele>
        <time>2024-04-01T09:59:17Z</time>
      </trkpt>
      <trkpt lat="44.11345" lon="3.04012">
        <ele>590</ele>
        <time>2024-04-01T09:59:19Z</time>
      </trkpt>
      <trkpt lat="44.11344" lon="3.04005">
        <ele>590</ele>
        <time>2024-04-01T09:59:20Z</time>
      </trkpt>
      <trkpt lat="44.11341" lon="3.03997">
        <ele>590</ele>
        <time>2024-04-01T09:59:21Z</time>
      </trkpt>
      <trkpt lat="44.11336" lon="3.03992">
        <ele>591</ele>
        <time>2024-04-01T09:59:22Z</time>
      </trkpt>
      <trkpt lat="44.11338" lon="3.03945">
        <ele>593</ele>
        <time>2024-04-01T09:59:28Z</time>
      </trkpt>
      <trkpt lat="44.11373" lon="3.0376">
        <ele>603</ele>
        <time>2024-04-01T09:59:53Z</time>
      </trkpt>
      <trkpt lat="44.11384" lon="3.03717">
        <ele>605</ele>
        <time>2024-04-01T09:59:58Z</time>
      </trkpt>
      <trkpt lat="44.11405" lon="3.03672">
        <ele>609</ele>
        <time>2024-04-01T10:00:05Z</time>
      </trkpt>
      <trkpt lat="44.11432" lon="3.03628">
        <ele>615</ele>
        <time>2024-04-01T10:00:13Z</time>
      </trkpt>
      <trkpt lat="44.11469" lon="3.03588">
        <ele>622</ele>
        <time>2024-04-01T10:00:21Z</time>
      </trkpt>
      <trkpt lat="44.11504" lon="3.03563">
        <ele>626</ele>
        <time>2024-04-01T10:00:28Z</time>
      </trkpt>
      <trkpt lat="44.11533" lon="3.0354">
        <ele>626</ele>
        <time>2024-04-01T10:00:34Z</time>
      </trkpt>
      <trkpt lat="44.11561" lon="3.0351">
        <ele>628</ele>
        <time>2024-04-01T10:00:40Z</time>
      </trkpt>
      <trkpt lat="44.11616" lon="3.0342">
        <ele>633</ele>
        <time>2024-04-01T10:00:55Z</time>
      </trkpt>
      <trkpt lat="44.11751" lon="3.03181">
        <ele>644</ele>
        <time>2024-04-01T10:01:34Z</time>
      </trkpt>
      <trkpt lat="44.11795" lon="3.03095">
        <ele>651</ele>
        <time>2024-04-01T10:01:48Z</time>
      </trkpt>
      <trkpt lat="44.11824" lon="3.03045">
        <ele>654</ele>
        <time>2024-04-01T10:01:56Z</time>
      </trkpt>
      <trkpt lat="44.11833" lon="3.03022">
        <ele>655</ele>
        <time>2024-04-01T10:01:59Z</time>
      </trkpt>
      <trkpt lat="44.11841" lon="3.02988">
        <ele>658</ele>
        <time>2024-04-01T10:02:04Z</time>
      </trkpt>
      <trkpt lat="44.11843" lon="3.02951">
        <ele>661</ele>
        <time>2024-04-01T10:02:08Z</time>
      </trkpt>
      <trkpt lat="44.11845" lon="3.02893">
        <ele>664</ele>
        <time>2024-04-01T10:02:16Z</time>
      </trkpt>
      <trkpt lat="44.11844" lon="3.02875">
        <ele>665</ele>
        <time>2024-04-01T10:02:18Z</time>
      </trkpt>
      <trkpt lat="44.11841" lon="3.02867">
        <ele>665</ele>
        <time>2024-04-01T10:02:19Z</time>
      </trkpt>
      <trkpt lat="44.11833" lon="3.02859">
        <ele>664</ele>
        <time>2024-04-01T10:02:21Z</time>
      </trkpt>
      <trkpt lat="44.11823" lon="3.02856">
        <ele>664</ele>
        <time>2024-04-01T10:02:23Z</time>
      </trkpt>
      <trkpt lat="44.11774" lon="3.02861">
        <ele>663</ele>
        <time>2024-04-01T10:02:32Z</time>
      </trkpt>
      <trkpt lat="44.11776" lon="3.02851">
        <ele>663</ele>
        <time>2024-04-01T10:02:33Z</time>
      </trkpt>
      <trkpt lat="44.11781" lon="3.02842">
        <ele>664</ele>
        <time>2024-04-01T10:02:34Z</time>
      </trkpt>
      <trkpt lat="44.11791" lon="3.02835">
        <ele>664</ele>
        <time>2024-04-01T10:02:36Z</time>
      </trkpt>
      <trkpt lat="44.11819" lon="3.0283">
        <ele>665</ele>
        <time>2024-04-01T10:02:41Z</time>
      </trkpt>
      <trkpt lat="44.11835" lon="3.0283">
        <ele>665</ele>
        <time>2024-04-01T10:02:44Z</time>
      </trkpt>
      <trkpt lat="44.11848" lon="3.02834">
        <ele>666</ele>
        <time>2024-04-01T10:02:47Z</time>
      </trkpt>
      <trkpt lat="44.11878" lon="3.02853">
        <ele>667</ele>
        <time>2024-04-01T10:02:53Z</time>
      </trkpt>
      <trkpt lat="44.1189" lon="3.02866">
        <ele>667</ele>
        <time>2024-04-01T10:02:55Z</time>
      </trkpt>
      <trkpt lat="44.11895" lon="3.02876">
        <ele>667</ele>
        <time>2024-04-01T10:02:57Z</time>
      </trkpt>
      <trkpt lat="44.11905" lon="3.02883">
        <ele>668</ele>
        <time>2024-04-01T10:02:59Z</time>
      </trkpt>
      <trkpt lat="44.11917" lon="3.02886">
        <ele>668</ele>
        <time>2024-04-01T10:03:01Z</time>
      </trkpt>
      <trkpt lat="44.11941" lon="3.02886">
        <ele>671</ele>
        <time>2024-04-01T10:03:05Z</time>
      </trkpt>
      <trkpt lat="44.11994" lon="3.02892">
        <ele>677</ele>
        <time>2024-04-01T10:03:15Z</time>
      </trkpt>
      <trkpt lat="44.12122" lon="3.02909">
        <ele>685</ele>
        <time>2024-04-01T10:03:38Z</time>
      </trkpt>
      <trkpt lat="44.12147" lon="3.02915">
        <ele>686</ele>
        <time>2024-04-01T10:03:42Z</time>
      </trkpt>
      <trkpt lat="44.12194" lon="3.02932">
        <ele>685</ele>
        <time>2024-04-01T10:03:51Z</time>
      </trkpt>
      <trkpt lat="44.12246" lon="3.02956">
        <ele>684</ele>
        <time>2024-04-01T10:04:00Z</time>
      </trkpt>
      <trkpt lat="44.12291" lon="3.02979">
        <ele>681</ele>
        <time>2024-04-01T10:04:09Z</time>
      </trkpt>
      <trkpt lat="44.12368" lon="3.03001">
        <ele>679</ele>
        <time>2024-04-01T10:04:23Z</time>
      </trkpt>
      <trkpt lat="44.12418" lon="3.03004">
        <ele>680</ele>
        <time>2024-04-01T10:04:32Z</time>
      </trkpt>
      <trkpt lat="44.12478" lon="3.02993">
        <ele>686</ele>
        <time>2024-04-01T10:04:43Z</time>
      </trkpt>
      <trkpt lat="44.12508" lon="3.02997">
        <ele>689</ele>
        <time>2024-04-01T10:04:48Z</time>
      </trkpt>
      <trkpt lat="44.12564" lon="3.03018">
        <ele>693</ele>
        <time>2024-04-01T10:04:58Z</time>
      </trkpt>
      <trkpt lat="44.12627" lon="3.0302">
        <ele>696</ele>
        <time>2024-04-01T10:05:10Z</time>
      </trkpt>
      <trkpt lat="44.12663" lon="3.03017">
        <ele>698</ele>
        <time>2024-04-01T10:05:16Z</time>
      </trkpt>
      <trkpt lat="44.12699" lon="3.03005">
        <ele>699</ele>
        <time>2024-04-01T10:05:23Z</time>
      </trkpt>
      <trkpt lat="44.12795" lon="3.02988">
        <ele>695</ele>
        <time>2024-04-01T10:05:40Z</time>
      </trkpt>
      <trkpt lat="44.1283" lon="3.02979">
        <ele>692</ele>
        <time>2024-04-01T10:05:46Z</time>
      </trkpt>
      <trkpt lat="44.12842" lon="3.02973">
        <ele>690</ele>
        <time>2024-04-01T10:05:48Z</time>
      </trkpt>
      <trkpt lat="44.12886" lon="3.02933">
        <ele>684</ele>
        <time>2024-04-01T10:05:58Z</time>
      </trkpt>
      <trkpt lat="44.12917" lon="3.02901">
        <ele>680</ele>
        <time>2024-04-01T10:06:05Z</time>
      </trkpt>
      <trkpt lat="44.12938" lon="3.02877">
        <ele>678</ele>
        <time>2024-04-01T10:06:09Z</time>
      </trkpt>
      <trkpt lat="44.13008" lon="3.02793">
        <ele>670</ele>
        <time>2024-04-01T10:06:26Z</time>
      </trkpt>
      <trkpt lat="44.13034" lon="3.02769">
        <ele>668</ele>
        <time>2024-04-01T10:06:31Z</time>
      </trkpt>
      <trkpt lat="44.13073" lon="3.02739">
        <ele>665</ele>
        <time>2024-04-01T10:06:39Z</time>
      </trkpt>
      <trkpt lat="44.13107" lon="3.02719">
        <ele>661</ele>
        <time>2024-04-01T10:06:46Z</time>
      </trkpt>
      <trkpt lat="44.13122" lon="3.02715">
        <ele>660</ele>
        <time>2024-04-01T10:06:49Z</time>
      </trkpt>
      <trkpt lat="44.13159" lon="3.02713">
        <ele>656</ele>
        <time>2024-04-01T10:06:55Z</time>
      </trkpt>
      <trkpt lat="44.13174" lon="3.02714">
        <ele>654</ele>
        <time>2024-04-01T10:06:58Z</time>
      </trkpt>
      <trkpt lat="44.13247" lon="3.02504">
        <ele>653</ele>
        <time>2024-04-01T10:07:28Z</time>
      </trkpt>
      <trkpt lat="44.13257" lon="3.02491">
        <ele>652</ele>
        <time>2024-04-01T10:07:30Z</time>
      </trkpt>
      <trkpt lat="44.13273" lon="3.02479">
        <ele>650</ele>
        <time>2024-04-01T10:07:33Z</time>
      </trkpt>
      <trkpt lat="44.13286" lon="3.02475">
        <ele>648</ele>
        <time>2024-04-01T10:07:36Z</time>
      </trkpt>
      <trkpt lat="44.13294" lon="3.02476">
        <ele>647</ele>
        <time>2024-04-01T10:07:37Z</time>
      </trkpt>
      <trkpt lat="44.13316" lon="3.02453">
        <ele>644</ele>
        <time>2024-04-01T10:07:42Z</time>
      </trkpt>
      <trkpt lat="44.13347" lon="3.02413">
        <ele>641</ele>
        <time>2024-04-01T10:07:50Z</time>
      </trkpt>
      <trkpt lat="44.13461" lon="3.02284">
        <ele>637</ele>
        <time>2024-04-01T10:08:16Z</time>
      </trkpt>
      <trkpt lat="44.13498" lon="3.02264">
        <ele>633</ele>
        <time>2024-04-01T10:08:23Z</time>
      </trkpt>
      <trkpt lat="44.1351" lon="3.02252">
        <ele>632</ele>
        <time>2024-04-01T10:08:25Z</time>
      </trkpt>
      <trkpt lat="44.1353" lon="3.02225">
        <ele>632</ele>
        <time>2024-04-01T10:08:30Z</time>
      </trkpt>
      <trkpt lat="44.13574" lon="3.02171">
        <ele>629</ele>
        <time>2024-04-01T10:08:41Z</time>
      </trkpt>
      <trkpt lat="44.13597" lon="3.02155">
        <ele>628</ele>
        <time>2024-04-01T10:08:45Z</time>
      </trkpt>
      <trkpt lat="44.13615" lon="3.02148">
        <ele>629</ele>
        <time>2024-04-01T10:08:49Z</time>
      </trkpt>
      <trkpt lat="44.13627" lon="3.02134">
        <ele>630</ele>
        <time>2024-04-01T10:08:51Z</time>
      </trkpt>
      <trkpt lat="44.13636" lon="3.02111">
        <ele>631</ele>
        <time>2024-04-01T10:08:55Z</time>
      </trkpt>
      <trkpt lat="44.13637" lon="3.02094">
        <ele>631</ele>
        <time>2024-04-01T10:08:57Z</time>
      </trkpt>
      <trkpt lat="44.1363" lon="3.02043">
        <ele>632</ele>
        <time>2024-04-01T10:09:04Z</time>
      </trkpt>
      <trkpt lat="44.1363" lon="3.01984">
        <ele>635</ele>
        <time>2024-04-01T10:09:11Z</time>
      </trkpt>
      <trkpt lat="44.13626" lon="3.01975">
        <ele>635</ele>
        <time>2024-04-01T10:09:12Z</time>
      </trkpt>
      <trkpt lat="44.1362" lon="3.01969">
        <ele>635</ele>
        <time>2024-04-01T10:09:14Z</time>
      </trkpt>
      <trkpt lat="44.13593" lon="3.01957">
        <ele>634</ele>
        <time>2024-04-01T10:09:19Z</time>
      </trkpt>
      <trkpt lat="44.1357" lon="3.01937">
        <ele>633</ele>
        <time>2024-04-01T10:09:24Z</time>
      </trkpt>
      <trkpt lat="44.13565" lon="3.01926">
        <ele>634</ele>
        <time>2024-04-01T10:09:25Z</time>
      </trkpt>
      <trkpt lat="44.13563" lon="3.01909">
        <ele>634</ele>
        <time>2024-04-01T10:09:28Z</time>
      </trkpt>
      <trkpt lat="44.13565" lon="3.01884">
        <ele>635</ele>
        <time>2024-04-01T10:09:31Z</time>
      </trkpt>
      <trkpt lat="44.13573" lon="3.01872">
        <ele>636</ele>
        <time>2024-04-01T10:09:33Z</time>
      </trkpt>
      <trkpt lat="44.13609" lon="3.0185">
        <ele>640</ele>
        <time>2024-04-01T10:09:40Z</time>
      </trkpt>
      <trkpt lat="44.13629" lon="3.01846">
        <ele>641</ele>
        <time>2024-04-01T10:09:43Z</time>
      </trkpt>
      <trkpt lat="44.13672" lon="3.01856">
        <ele>644</ele>
        <time>2024-04-01T10:09:51Z</time>
      </trkpt>
      <trkpt lat="44.1369" lon="3.01853">
        <ele>645</ele>
        <time>2024-04-01T10:09:54Z</time>
      </trkpt>
      <trkpt lat="44.13718" lon="3.01836">
        <ele>647</ele>
        <time>2024-04-01T10:10:00Z</time>
      </trkpt>
      <trkpt lat="44.13734" lon="3.01818">
        <ele>648</ele>
        <time>2024-04-01T10:10:03Z</time>
      </trkpt>
      <trkpt lat="44.13753" lon="3.01774">
        <ele>651</ele>
        <time>2024-04-01T10:10:10Z</time>
      </trkpt>
      <trkpt lat="44.13778" lon="3.01745">
        <ele>653</ele>
        <time>2024-04-01T10:10:16Z</time>
      </trkpt>
      <trkpt lat="44.13829" lon="3.0171">
        <ele>656</ele>
        <time>2024-04-01T10:10:26Z</time>
      </trkpt>
      <trkpt lat="44.13914" lon="3.01625">
        <ele>661</ele>
        <time>2024-04-01T10:10:45Z</time>
      </trkpt>
      <trkpt lat="44.13934" lon="3.01595">
        <ele>662</ele>
        <time>2024-04-01T10:10:50Z</time>
      </trkpt>
      <trkpt lat="44.13952" lon="3.01586">
        <ele>664</ele>
        <time>2024-04-01T10:10:53Z</time>
      </trkpt>
      <trkpt lat="44.13984" lon="3.01581">
        <ele>668</ele>
        <time>2024-04-01T10:10:59Z</time>
      </trkpt>
      <trkpt lat="44.14017" lon="3.01592">
        <ele>672</ele>
        <time>2024-04-01T10:11:05Z</time>
      </trkpt>
      <trkpt lat="44.1405" lon="3.01612">
        <ele>674</ele>
        <time>2024-04-01T10:11:11Z</time>
      </trkpt>
      <trkpt lat="44.14049" lon="3.01477">
        <ele>676</ele>
        <time>2024-04-01T10:11:29Z</time>
      </trkpt>
      <trkpt lat="44.14053" lon="3.0145">
        <ele>675</ele>
        <time>2024-04-01T10:11:32Z</time>
      </trkpt>
      <trkpt lat="44.14133" lon="3.01253">
        <ele>679</ele>
        <time>2024-04-01T10:12:01Z</time>
      </trkpt>
      <trkpt lat="44.14147" lon="3.01231">
        <ele>681</ele>
        <time>2024-04-01T10:12:05Z</time>
      </trkpt>
      <trkpt lat="44.14195" lon="3.0119">
        <ele>684</ele>
        <time>2024-04-01T10:12:15Z</time>
      </trkpt>
      <trkpt lat="44.14235" lon="3.01144">
        <ele>687</ele>
        <time>2024-04-01T10:12:24Z</time>
      </trkpt>
      <trkpt lat="44.14268" lon="3.01189">
        <ele>692</ele>
        <time>2024-04-01T10:12:32Z</time>
      </trkpt>
      <trkpt lat="44.14299" lon="3.01228">
        <ele>697</ele>
        <time>2024-04-01T10:12:40Z</time>
      </trkpt>
      <trkpt lat="44.14331" lon="3.01263">
        <ele>698</ele>
        <time>2024-04-01T10:12:47Z</time>
      </trkpt>
      <trkpt lat="44.14462" lon="3.01399">
        <ele>689</ele>
        <time>2024-04-01T10:13:16Z</time>
      </trkpt>
      <trkpt lat="44.14454" lon="3.01413">
        <ele>689</ele>
        <time>2024-04-01T10:13:18Z</time>
      </trkpt>
      <trkpt lat="44.14439" lon="3.014">
        <ele>690</ele>
        <time>2024-04-01T10:13:21Z</time>
      </trkpt>
      <trkpt lat="44.14434" lon="3.01392">
        <ele>691</ele>
        <time>2024-04-01T10:13:23Z</time>
      </trkpt>
      <trkpt lat="44.14378" lon="3.01338">
        <ele>695</ele>
        <time>2024-04-01T10:13:35Z</time>
      </trkpt>
      <trkpt lat="44.14434" lon="3.01392">
        <ele>691</ele>
        <time>2024-04-01T10:13:47Z</time>
      </trkpt>
      <trkpt lat="44.14439" lon="3.014">
        <ele>690</ele>
        <time>2024-04-01T10:13:48Z</time>
      </trkpt>
      <trkpt lat="44.14454" lon="3.01413">
        <ele>689</ele>
        <time>2024-04-01T10:13:51Z</time>
      </trkpt>
      <trkpt lat="44.14462" lon="3.01399">
        <ele>689</ele>
        <time>2024-04-01T10:13:54Z</time>
      </trkpt>
      <trkpt lat="44.14331" lon="3.01263">
        <ele>698</ele>
        <time>2024-04-01T10:14:23Z</time>
      </trkpt>
      <trkpt lat="44.14299" lon="3.01228">
        <ele>697</ele>
        <time>2024-04-01T10:14:30Z</time>
      </trkpt>
      <trkpt lat="44.14268" lon="3.01189">
        <ele>692</ele>
        <time>2024-04-01T10:14:38Z</time>
      </trkpt>
      <trkpt lat="44.14109" lon="3.00975">
        <ele>692</ele>
        <time>2024-04-01T10:15:17Z</time>
      </trkpt>
      <trkpt lat="44.14081" lon="3.00929">
        <ele>693</ele>
        <time>2024-04-01T10:15:25Z</time>
      </trkpt>
      <trkpt lat="44.14072" lon="3.00906">
        <ele>693</ele>
        <time>2024-04-01T10:15:28Z</time>
      </trkpt>
      <trkpt lat="44.14061" lon="3.00869">
        <ele>692</ele>
        <time>2024-04-01T10:15:33Z</time>
      </trkpt>
      <trkpt lat="44.14057" lon="3.0085">
        <ele>692</ele>
        <time>2024-04-01T10:15:36Z</time>
      </trkpt>
      <trkpt lat="44.14054" lon="3.00814">
        <ele>691</ele>
        <time>2024-04-01T10:15:40Z</time>
      </trkpt>
      <trkpt lat="44.14053" lon="3.00795">
        <ele>690</ele>
        <time>2024-04-01T10:15:43Z</time>
      </trkpt>
      <trkpt lat="44.14055" lon="3.00756">
        <ele>688</ele>
        <time>2024-04-01T10:15:48Z</time>
      </trkpt>
      <trkpt lat="44.14059" lon="3.00728">
        <ele>687</ele>
        <time>2024-04-01T10:15:51Z</time>
      </trkpt>
      <trkpt lat="44.14069" lon="3.0069">
        <ele>685</ele>
        <time>2024-04-01T10:15:56Z</time>
      </trkpt>
      <trkpt lat="44.14075" lon="3.00673">
        <ele>684</ele>
        <time>2024-04-01T10:15:59Z</time>
      </trkpt>
      <trkpt lat="44.14098" lon="3.00623">
        <ele>683</ele>
        <time>2024-04-01T10:16:06Z</time>
      </trkpt>
      <trkpt lat="44.14134" lon="3.00554">
        <ele>682</ele>
        <time>2024-04-01T10:16:17Z</time>
      </trkpt>
      <trkpt lat="44.14242" lon="3.00382">
        <ele>674</ele>
        <time>2024-04-01T10:16:46Z</time>
      </trkpt>
      <trkpt lat="44.14263" lon="3.00343">
        <ele>672</ele>
        <time>2024-04-01T10:16:53Z</time>
      </trkpt>
      <trkpt lat="44.14284" lon="3.00289">
        <ele>671</ele>
        <time>2024-04-01T10:17:01Z</time>
      </trkpt>
      <trkpt lat="44.14291" lon="3.00266">
        <ele>670</ele>
        <time>2024-04-01T10:17:04Z</time>
      </trkpt>
      <trkpt lat="44.14301" lon="3.00217">
        <ele>671</ele>
        <time>2024-04-01T10:17:10Z</time>
      </trkpt>
      <trkpt lat="44.14305" lon="3.00191">
        <ele>672</ele>
        <time>2024-04-01T10:17:14Z</time>
      </trkpt>
      <trkpt lat="44.14308" lon="3.00143">
        <ele>674</ele>
        <time>2024-04-01T10:17:20Z</time>
      </trkpt>
      <trkpt lat="44.14307" lon="3.00113">
        <ele>675</ele>
        <time>2024-04-01T10:17:24Z</time>
      </trkpt>
      <trkpt lat="44.14302" lon="3.00063">
        <ele>677</ele>
        <time>2024-04-01T10:17:30Z</time>
      </trkpt>
      <trkpt lat="44.14292" lon="3.00008">
        <ele>680</ele>
        <time>2024-04-01T10:17:37Z</time>
      </trkpt>
      <trkpt lat="44.14236" lon="2.99781">
        <ele>679</ele>
        <time>2024-04-01T10:18:08Z</time>
      </trkpt>
      <trkpt lat="44.14235" lon="2.99756">
        <ele>678</ele>
        <time>2024-04-01T10:18:11Z</time>
      </trkpt>
      <trkpt lat="44.14238" lon="2.99723">
        <ele>678</ele>
        <time>2024-04-01T10:18:15Z</time>
      </trkpt>
      <trkpt lat="44.14246" lon="2.99677">
        <ele>678</ele>
        <time>2024-04-01T10:18:21Z</time>
      </trkpt>
      <trkpt lat="44.14252" lon="2.99652">
        <ele>679</ele>
        <time>2024-04-01T10:18:25Z</time>
      </trkpt>
      <trkpt lat="44.14263" lon="2.99619">
        <ele>680</ele>
        <time>2024-04-01T10:18:29Z</time>
      </trkpt>
      <trkpt lat="44.14299" lon="2.99529">
        <ele>682</ele>
        <time>2024-04-01T10:18:43Z</time>
      </trkpt>
      <trkpt lat="44.14314" lon="2.99486">
        <ele>684</ele>
        <time>2024-04-01T10:18:49Z</time>
      </trkpt>
      <trkpt lat="44.14332" lon="2.99422">
        <ele>684</ele>
        <time>2024-04-01T10:18:57Z</time>
      </trkpt>
      <trkpt lat="44.14358" lon="2.99248">
        <ele>681</ele>
        <time>2024-04-01T10:19:20Z</time>
      </trkpt>
      <trkpt lat="44.1436" lon="2.9921">
        <ele>678</ele>
        <time>2024-04-01T10:19:25Z</time>
      </trkpt>
      <trkpt lat="44.14359" lon="2.99174">
        <ele>676</ele>
        <time>2024-04-01T10:19:30Z</time>
      </trkpt>
      <trkpt lat="44.14357" lon="2.99159">
        <ele>675</ele>
        <time>2024-04-01T10:19:32Z</time>
      </trkpt>
      <trkpt lat="44.14353" lon="2.99144">
        <ele>674</ele>
        <time>2024-04-01T10:19:34Z</time>
      </trkpt>
      <trkpt lat="44.14331" lon="2.99078">
        <ele>668</ele>
        <time>2024-04-01T10:19:43Z</time>
      </trkpt>
      <trkpt lat="44.14318" lon="2.99054">
        <ele>667</ele>
        <time>2024-04-01T10:19:47Z</time>
      </trkpt>
      <trkpt lat="44.14309" lon="2.99042">
        <ele>667</ele>
        <time>2024-04-01T10:19:49Z</time>
      </trkpt>
      <trkpt lat="44.14278" lon="2.99008">
        <ele>667</ele>
        <time>2024-04-01T10:19:56Z</time>
      </trkpt>
      <trkpt lat="44.14271" lon="2.98997">
        <ele>667</ele>
        <time>2024-04-01T10:19:58Z</time>
      </trkpt>
      <trkpt lat="44.14259" lon="2.98967">
        <ele>664</ele>
        <time>2024-04-01T10:20:02Z</time>
      </trkpt>
      <trkpt lat="44.14243" lon="2.98913">
        <ele>658</ele>
        <time>2024-04-01T10:20:10Z</time>
      </trkpt>
      <trkpt lat="44.14234" lon="2.98894">
        <ele>657</ele>
        <time>2024-04-01T10:20:13Z</time>
      </trkpt>
      <trkpt lat="44.14186" lon="2.98819">
        <ele>653</ele>
        <time>2024-04-01T10:20:25Z</time>
      </trkpt>
      <trkpt lat="44.14179" lon="2.98802">
        <ele>652</ele>
        <time>2024-04-01T10:20:28Z</time>
      </trkpt>
      <trkpt lat="44.14173" lon="2.98784">
        <ele>650</ele>
        <time>2024-04-01T10:20:31Z</time>
      </trkpt>
      <trkpt lat="44.14163" lon="2.98741">
        <ele>645</ele>
        <time>2024-04-01T10:20:36Z</time>
      </trkpt>
      <trkpt lat="44.14152" lon="2.98663">
        <ele>638</ele>
        <time>2024-04-01T10:20:46Z</time>
      </trkpt>
      <trkpt lat="44.14144" lon="2.98639">
        <ele>636</ele>
        <time>2024-04-01T10:20:50Z</time>
      </trkpt>
      <trkpt lat="44.1413" lon="2.98616">
        <ele>636</ele>
        <time>2024-04-01T10:20:54Z</time>
      </trkpt>
      <trkpt lat="44.14087" lon="2.98564">
        <ele>633</ele>
        <time>2024-04-01T10:21:04Z</time>
      </trkpt>
      <trkpt lat="44.14076" lon="2.98549">
        <ele>633</ele>
        <time>2024-04-01T10:21:07Z</time>
      </trkpt>
      <trkpt lat="44.1407" lon="2.98536">
        <ele>633</ele>
        <time>2024-04-01T10:21:09Z</time>
      </trkpt>
      <trkpt lat="44.14065" lon="2.98522">
        <ele>632</ele>
        <time>2024-04-01T10:21:10Z</time>
      </trkpt>
      <trkpt lat="44.14022" lon="2.9839">
        <ele>629</ele>
        <time>2024-04-01T10:21:29Z</time>
      </trkpt>
      <trkpt lat="44.14015" lon="2.9835">
        <ele>625</ele>
        <time>2024-04-01T10:21:34Z</time>
      </trkpt>
      <trkpt lat="44.14011" lon="2.98309">
        <ele>622</ele>
        <time>2024-04-01T10:21:40Z</time>
      </trkpt>
      <trkpt lat="44.14009" lon="2.98286">
        <ele>620</ele>
        <time>2024-04-01T10:21:43Z</time>
      </trkpt>
      <trkpt lat="44.13979" lon="2.97815">
        <ele>608</ele>
        <time>2024-04-01T10:22:43Z</time>
      </trkpt>
      <trkpt lat="44.13976" lon="2.97748">
        <ele>606</ele>
        <time>2024-04-01T10:22:51Z</time>
      </trkpt>
      <trkpt lat="44.13977" lon="2.97708">
        <ele>604</ele>
        <time>2024-04-01T10:22:57Z</time>
      </trkpt>
      <trkpt lat="44.13992" lon="2.97591">
        <ele>600</ele>
        <time>2024-04-01T10:23:12Z</time>
      </trkpt>
      <trkpt lat="44.13992" lon="2.97562">
        <ele>599</ele>
        <time>2024-04-01T10:23:15Z</time>
      </trkpt>
      <trkpt lat="44.13985" lon="2.9753">
        <ele>598</ele>
        <time>2024-04-01T10:23:20Z</time>
      </trkpt>
      <trkpt lat="44.13949" lon="2.97395">
        <ele>595</ele>
        <time>2024-04-01T10:23:38Z</time>
      </trkpt>
      <trkpt lat="44.13942" lon="2.97362">
        <ele>594</ele>
        <time>2024-04-01T10:23:43Z</time>
      </trkpt>
      <trkpt lat="44.13924" lon="2.97237">
        <ele>589</ele>
        <time>2024-04-01T10:23:59Z</time>
      </trkpt>
      <trkpt lat="44.13917" lon="2.97164">
        <ele>585</ele>
        <time>2024-04-01T10:24:08Z</time>
      </trkpt>
      <trkpt lat="44.13916" lon="2.97069">
        <ele>583</ele>
        <time>2024-04-01T10:24:20Z</time>
      </trkpt>
      <trkpt lat="44.13918" lon="2.96973">
        <ele>581</ele>
        <time>2024-04-01T10:24:33Z</time>
      </trkpt>
      <trkpt lat="44.13933" lon="2.96703">
        <ele>578</ele>
        <time>2024-04-01T10:25:07Z</time>
      </trkpt>
      <trkpt lat="44.13935" lon="2.96614">
        <ele>576</ele>
        <time>2024-04-01T10:25:19Z</time>
      </trkpt>
      <trkpt lat="44.13941" lon="2.96564">
        <ele>574</ele>
        <time>2024-04-01T10:25:25Z</time>
      </trkpt>
      <trkpt lat="44.13967" lon="2.96402">
        <ele>548</ele>
        <time>2024-04-01T10:25:46Z</time>
      </trkpt>
      <trkpt lat="44.13971" lon="2.96375">
        <ele>548</ele>
        <time>2024-04-01T10:25:50Z</time>
      </trkpt>
      <trkpt lat="44.13975" lon="2.96368">
        <ele>548</ele>
        <time>2024-04-01T10:25:51Z</time>
      </trkpt>
      <trkpt lat="44.13987" lon="2.96358">
        <ele>548</ele>
        <time>2024-04-01T10:25:53Z</time>
      </trkpt>
      <trkpt lat="44.14023" lon="2.96353">
        <ele>549</ele>
        <time>2024-04-01T10:26:00Z</time>
      </trkpt>
      <trkpt lat="44.14063" lon="2.96338">
        <ele>549</ele>
        <time>2024-04-01T10:26:07Z</time>
      </trkpt>
      <trkpt lat="44.14057" lon="2.96323">
        <ele>550</ele>
        <time>2024-04-01T10:26:09Z</time>
      </trkpt>
      <trkpt lat="44.13989" lon="2.9628">
        <ele>555</ele>
        <time>2024-04-01T10:26:23Z</time>
      </trkpt>
      <trkpt lat="44.13975" lon="2.96269">
        <ele>556</ele>
        <time>2024-04-01T10:26:25Z</time>
      </trkpt>
      <trkpt lat="44.13956" lon="2.96247">
        <ele>559</ele>
        <time>2024-04-01T10:26:30Z</time>
      </trkpt>
      <trkpt lat="44.13933" lon="2.96226">
        <ele>563</ele>
        <time>2024-04-01T10:26:35Z</time>
      </trkpt>
      <trkpt lat="44.13922" lon="2.96219">
        <ele>564</ele>
        <time>2024-04-01T10:26:37Z</time>
      </trkpt>
      <trkpt lat="44.13873" lon="2.96201">
        <ele>566</ele>
        <time>2024-04-01T10:26:46Z</time>
      </trkpt>
      <trkpt lat="44.13855" lon="2.96189">
        <ele>567</ele>
        <time>2024-04-01T10:26:50Z</time>
      </trkpt>
      <trkpt lat="44.13839" lon="2.96175">
        <ele>569</ele>
        <time>2024-04-01T10:26:53Z</time>
      </trkpt>
      <trkpt lat="44.13795" lon="2.96129">
        <ele>570</ele>
        <time>2024-04-01T10:27:03Z</time>
      </trkpt>
      <trkpt lat="44.13754" lon="2.96081">
        <ele>572</ele>
        <time>2024-04-01T10:27:12Z</time>
      </trkpt>
      <trkpt lat="44.13656" lon="2.96">
        <ele>576</ele>
        <time>2024-04-01T10:27:32Z</time>
      </trkpt>
      <trkpt lat="44.13582" lon="2.95944">
        <ele>578</ele>
        <time>2024-04-01T10:27:47Z</time>
      </trkpt>
      <trkpt lat="44.13575" lon="2.95937">
        <ele>578</ele>
        <time>2024-04-01T10:27:49Z</time>
      </trkpt>
      <trkpt lat="44.13549" lon="2.95899">
        <ele>581</ele>
        <time>2024-04-01T10:27:56Z</time>
      </trkpt>
      <trkpt lat="44.13479" lon="2.95825">
        <ele>586</ele>
        <time>2024-04-01T10:28:11Z</time>
      </trkpt>
      <trkpt lat="44.13453" lon="2.95802">
        <ele>591</ele>
        <time>2024-04-01T10:28:17Z</time>
      </trkpt>
      <trkpt lat="44.1344" lon="2.95795">
        <ele>592</ele>
        <time>2024-04-01T10:28:19Z</time>
      </trkpt>
      <trkpt lat="44.1341" lon="2.95786">
        <ele>593</ele>
        <time>2024-04-01T10:28:25Z</time>
      </trkpt>
      <trkpt lat="44.13293" lon="2.95769">
        <ele>594</ele>
        <time>2024-04-01T10:28:46Z</time>
      </trkpt>
      <trkpt lat="44.13262" lon="2.95757">
        <ele>594</ele>
        <time>2024-04-01T10:28:51Z</time>
      </trkpt>
      <trkpt lat="44.13229" lon="2.95739">
        <ele>594</ele>
        <time>2024-04-01T10:28:58Z</time>
      </trkpt>
      <trkpt lat="44.13033" lon="2.95581">
        <ele>605</ele>
        <time>2024-04-01T10:29:38Z</time>
      </trkpt>
      <trkpt lat="44.13013" lon="2.95569">
        <ele>606</ele>
        <time>2024-04-01T10:29:42Z</time>
      </trkpt>
      <trkpt lat="44.12975" lon="2.95563">
        <ele>604</ele>
        <time>2024-04-01T10:29:49Z</time>
      </trkpt>
      <trkpt lat="44.12918" lon="2.9557">
        <ele>597</ele>
        <time>2024-04-01T10:29:59Z</time>
      </trkpt>
      <trkpt lat="44.1291" lon="2.95569">
        <ele>595</ele>
        <time>2024-04-01T10:30:00Z</time>
      </trkpt>
      <trkpt lat="44.12899" lon="2.9556">
        <ele>594</ele>
        <time>2024-04-01T10:30:03Z</time>
      </trkpt>
      <trkpt lat="44.12892" lon="2.95544">
        <ele>594</ele>
        <time>2024-04-01T10:30:05Z</time>
      </trkpt>
      <trkpt lat="44.12889" lon="2.95524">
        <ele>596</ele>
        <time>2024-04-01T10:30:08Z</time>
      </trkpt>
      <trkpt lat="44.12889" lon="2.95511">
        <ele>597</ele>
        <time>2024-04-01T10:30:09Z</time>
      </trkpt>
      <trkpt lat="44.12893" lon="2.9548">
        <ele>599</ele>
        <time>2024-04-01T10:30:13Z</time>
      </trkpt>
      <trkpt lat="44.129" lon="2.95447">
        <ele>600</ele>
        <time>2024-04-01T10:30:18Z</time>
      </trkpt>
      <trkpt lat="44.12951" lon="2.95273">
        <ele>609</ele>
        <time>2024-04-01T10:30:42Z</time>
      </trkpt>
      <trkpt lat="44.12961" lon="2.95246">
        <ele>609</ele>
        <time>2024-04-01T10:30:46Z</time>
      </trkpt>
      <trkpt lat="44.12967" lon="2.95233">
        <ele>608</ele>
        <time>2024-04-01T10:30:47Z</time>
      </trkpt>
      <trkpt lat="44.12984" lon="2.95208">
        <ele>609</ele>
        <time>2024-04-01T10:30:52Z</time>
      </trkpt>
      <trkpt lat="44.13001" lon="2.95189">
        <ele>609</ele>
        <time>2024-04-01T10:30:56Z</time>
      </trkpt>
      <trkpt lat="44.1301" lon="2.95182">
        <ele>609</ele>
        <time>2024-04-01T10:30:58Z</time>
      </trkpt>
      <trkpt lat="44.13035" lon="2.95169">
        <ele>612</ele>
        <time>2024-04-01T10:31:02Z</time>
      </trkpt>
      <trkpt lat="44.13131" lon="2.95138">
        <ele>622</ele>
        <time>2024-04-01T10:31:20Z</time>
      </trkpt>
      <trkpt lat="44.13153" lon="2.95126">
        <ele>623</ele>
        <time>2024-04-01T10:31:24Z</time>
      </trkpt>
      <trkpt lat="44.13187" lon="2.95092">
        <ele>623</ele>
        <time>2024-04-01T10:31:32Z</time>
      </trkpt>
      <trkpt lat="44.13202" lon="2.95071">
        <ele>625</ele>
        <time>2024-04-01T10:31:35Z</time>
      </trkpt>
      <trkpt lat="44.13216" lon="2.95042">
        <ele>627</ele>
        <time>2024-04-01T10:31:40Z</time>
      </trkpt>
      <trkpt lat="44.13219" lon="2.95027">
        <ele>627</ele>
        <time>2024-04-01T10:31:42Z</time>
      </trkpt>
      <trkpt lat="44.13221" lon="2.94988">
        <ele>627</ele>
        <time>2024-04-01T10:31:47Z</time>
      </trkpt>
      <trkpt lat="44.13217" lon="2.94963">
        <ele>626</ele>
        <time>2024-04-01T10:31:50Z</time>
      </trkpt>
      <trkpt lat="44.13193" lon="2.94877">
        <ele>622</ele>
        <time>2024-04-01T10:32:02Z</time>
      </trkpt>
      <trkpt lat="44.13186" lon="2.94839">
        <ele>622</ele>
        <time>2024-04-01T10:32:07Z</time>
      </trkpt>
      <trkpt lat="44.13186" lon="2.94822">
        <ele>622</ele>
        <time>2024-04-01T10:32:09Z</time>
      </trkpt>
      <trkpt lat="44.1319" lon="2.94794">
        <ele>622</ele>
        <time>2024-04-01T10:32:13Z</time>
      </trkpt>
      <trkpt lat="44.13201" lon="2.94769">
        <ele>623</ele>
        <time>2024-04-01T10:32:16Z</time>
      </trkpt>
      <trkpt lat="44.13208" lon="2.94757">
        <ele>624</ele>
        <time>2024-04-01T10:32:18Z</time>
      </trkpt>
      <trkpt lat="44.13226" lon="2.9474">
        <ele>626</ele>
        <time>2024-04-01T10:32:22Z</time>
      </trkpt>
      <trkpt lat="44.13244" lon="2.94729">
        <ele>628</ele>
        <time>2024-04-01T10:32:26Z</time>
      </trkpt>
      <trkpt lat="44.13286" lon="2.94711">
        <ele>633</ele>
        <time>2024-04-01T10:32:34Z</time>
      </trkpt>
      <trkpt lat="44.13312" lon="2.94694">
        <ele>635</ele>
        <time>2024-04-01T10:32:39Z</time>
      </trkpt>
      <trkpt lat="44.13351" lon="2.94655">
        <ele>634</ele>
        <time>2024-04-01T10:32:47Z</time>
      </trkpt>
      <trkpt lat="44.13423" lon="2.9457">
        <ele>632</ele>
        <time>2024-04-01T10:33:04Z</time>
      </trkpt>
      <trkpt lat="44.13443" lon="2.94554">
        <ele>633</ele>
        <time>2024-04-01T10:33:08Z</time>
      </trkpt>
      <trkpt lat="44.1348" lon="2.94537">
        <ele>638</ele>
        <time>2024-04-01T10:33:15Z</time>
      </trkpt>
      <trkpt lat="44.13502" lon="2.9452">
        <ele>639</ele>
        <time>2024-04-01T10:33:19Z</time>
      </trkpt>
      <trkpt lat="44.13568" lon="2.94445">
        <ele>644</ele>
        <time>2024-04-01T10:33:35Z</time>
      </trkpt>
      <trkpt lat="44.13583" lon="2.94423">
        <ele>645</ele>
        <time>2024-04-01T10:33:39Z</time>
      </trkpt>
      <trkpt lat="44.1363" lon="2.94273">
        <ele>646</ele>
        <time>2024-04-01T10:33:59Z</time>
      </trkpt>
      <trkpt lat="44.13661" lon="2.94148">
        <ele>649</ele>
        <time>2024-04-01T10:34:16Z</time>
      </trkpt>
      <trkpt lat="44.13704" lon="2.93997">
        <ele>649</ele>
        <time>2024-04-01T10:34:37Z</time>
      </trkpt>
      <trkpt lat="44.13712" lon="2.93978">
        <ele>649</ele>
        <time>2024-04-01T10:34:40Z</time>
      </trkpt>
      <trkpt lat="44.13719" lon="2.93965">
        <ele>649</ele>
        <time>2024-04-01T10:34:42Z</time>
      </trkpt>
      <trkpt lat="44.13736" lon="2.93948">
        <ele>650</ele>
        <time>2024-04-01T10:34:46Z</time>
      </trkpt>
      <trkpt lat="44.13748" lon="2.93942">
        <ele>652</ele>
        <time>2024-04-01T10:34:48Z</time>
      </trkpt>
      <trkpt lat="44.13789" lon="2.93932">
        <ele>658</ele>
        <time>2024-04-01T10:34:55Z</time>
      </trkpt>
      <trkpt lat="44.13817" lon="2.9392">
        <ele>661</ele>
        <time>2024-04-01T10:35:01Z</time>
      </trkpt>
      <trkpt lat="44.13853" lon="2.93893">
        <ele>663</ele>
        <time>2024-04-01T10:35:08Z</time>
      </trkpt>
      <trkpt lat="44.13891" lon="2.93856">
        <ele>667</ele>
        <time>2024-04-01T10:35:16Z</time>
      </trkpt>
      <trkpt lat="44.139" lon="2.93843">
        <ele>668</ele>
        <time>2024-04-01T10:35:18Z</time>
      </trkpt>
      <trkpt lat="44.13905" lon="2.93831">
        <ele>668</ele>
        <time>2024-04-01T10:35:20Z</time>
      </trkpt>
      <trkpt lat="44.1391" lon="2.93809">
        <ele>670</ele>
        <time>2024-04-01T10:35:23Z</time>
      </trkpt>
      <trkpt lat="44.13909" lon="2.93798">
        <ele>670</ele>
        <time>2024-04-01T10:35:25Z</time>
      </trkpt>
      <trkpt lat="44.13906" lon="2.93784">
        <ele>670</ele>
        <time>2024-04-01T10:35:26Z</time>
      </trkpt>
      <trkpt lat="44.13899" lon="2.93765">
        <ele>668</ele>
        <time>2024-04-01T10:35:29Z</time>
      </trkpt>
      <trkpt lat="44.13892" lon="2.93737">
        <ele>667</ele>
        <time>2024-04-01T10:35:33Z</time>
      </trkpt>
      <trkpt lat="44.13892" lon="2.93725">
        <ele>668</ele>
        <time>2024-04-01T10:35:34Z</time>
      </trkpt>
      <trkpt lat="44.13898" lon="2.9368">
        <ele>673</ele>
        <time>2024-04-01T10:35:40Z</time>
      </trkpt>
      <trkpt lat="44.13898" lon="2.93668">
        <ele>674</ele>
        <time>2024-04-01T10:35:42Z</time>
      </trkpt>
      <trkpt lat="44.13891" lon="2.93631">
        <ele>673</ele>
        <time>2024-04-01T10:35:47Z</time>
      </trkpt>
      <trkpt lat="44.13889" lon="2.93612">
        <ele>672</ele>
        <time>2024-04-01T10:35:49Z</time>
      </trkpt>
      <trkpt lat="44.1389" lon="2.93577">
        <ele>673</ele>
        <time>2024-04-01T10:35:54Z</time>
      </trkpt>
      <trkpt lat="44.13894" lon="2.93561">
        <ele>674</ele>
        <time>2024-04-01T10:35:56Z</time>
      </trkpt>
      <trkpt lat="44.13905" lon="2.93524">
        <ele>676</ele>
        <time>2024-04-01T10:36:01Z</time>
      </trkpt>
      <trkpt lat="44.13917" lon="2.93495">
        <ele>679</ele>
        <time>2024-04-01T10:36:05Z</time>
      </trkpt>
      <trkpt lat="44.13928" lon="2.93474">
        <ele>680</ele>
        <time>2024-04-01T10:36:08Z</time>
      </trkpt>
      <trkpt lat="44.13971" lon="2.93401">
        <ele>689</ele>
        <time>2024-04-01T10:36:21Z</time>
      </trkpt>
      <trkpt lat="44.13985" lon="2.93368">
        <ele>690</ele>
        <time>2024-04-01T10:36:25Z</time>
      </trkpt>
      <trkpt lat="44.1399" lon="2.93349">
        <ele>690</ele>
        <time>2024-04-01T10:36:28Z</time>
      </trkpt>
      <trkpt lat="44.13996" lon="2.93321">
        <ele>689</ele>
        <time>2024-04-01T10:36:32Z</time>
      </trkpt>
      <trkpt lat="44.14003" lon="2.93236">
        <ele>690</ele>
        <time>2024-04-01T10:36:43Z</time>
      </trkpt>
      <trkpt lat="44.14011" lon="2.93213">
        <ele>692</ele>
        <time>2024-04-01T10:36:46Z</time>
      </trkpt>
      <trkpt lat="44.14033" lon="2.93173">
        <ele>701</ele>
        <time>2024-04-01T10:36:52Z</time>
      </trkpt>
      <trkpt lat="44.14036" lon="2.93163">
        <ele>702</ele>
        <time>2024-04-01T10:36:54Z</time>
      </trkpt>
      <trkpt lat="44.14038" lon="2.9315">
        <ele>704</ele>
        <time>2024-04-01T10:36:55Z</time>
      </trkpt>
      <trkpt lat="44.14038" lon="2.93138">
        <ele>704</ele>
        <time>2024-04-01T10:36:57Z</time>
      </trkpt>
      <trkpt lat="44.14027" lon="2.93064">
        <ele>704</ele>
        <time>2024-04-01T10:37:07Z</time>
      </trkpt>
      <trkpt lat="44.1402" lon="2.92998">
        <ele>705</ele>
        <time>2024-04-01T10:37:15Z</time>
      </trkpt>
      <trkpt lat="44.14021" lon="2.92981">
        <ele>706</ele>
        <time>2024-04-01T10:37:17Z</time>
      </trkpt>
      <trkpt lat="44.14023" lon="2.92964">
        <ele>707</ele>
        <time>2024-04-01T10:37:20Z</time>
      </trkpt>
      <trkpt lat="44.14039" lon="2.92893">
        <ele>717</ele>
        <time>2024-04-01T10:37:29Z</time>
      </trkpt>
      <trkpt lat="44.14044" lon="2.92842">
        <ele>722</ele>
        <time>2024-04-01T10:37:36Z</time>
      </trkpt>
      <trkpt lat="44.14044" lon="2.92805">
        <ele>725</ele>
        <time>2024-04-01T10:37:40Z</time>
      </trkpt>
      <trkpt lat="44.14041" lon="2.92792">
        <ele>725</ele>
        <time>2024-04-01T10:37:42Z</time>
      </trkpt>
      <trkpt lat="44.14032" lon="2.92777">
        <ele>724</ele>
        <time>2024-04-01T10:37:45Z</time>
      </trkpt>
      <trkpt lat="44.14025" lon="2.9277">
        <ele>723</ele>
        <time>2024-04-01T10:37:46Z</time>
      </trkpt>
      <trkpt lat="44.14019" lon="2.92767">
        <ele>722</ele>
        <time>2024-04-01T10:37:47Z</time>
      </trkpt>
      <trkpt lat="44.14012" lon="2.92767">
        <ele>721</ele>
        <time>2024-04-01T10:37:48Z</time>
      </trkpt>
      <trkpt lat="44.14003" lon="2.92769">
        <ele>719</ele>
        <time>2024-04-01T10:37:50Z</time>
      </trkpt>
      <trkpt lat="44.1399" lon="2.92781">
        <ele>722</ele>
        <time>2024-04-01T10:37:53Z</time>
      </trkpt>
      <trkpt lat="44.13982" lon="2.92794">
        <ele>723</ele>
        <time>2024-04-01T10:37:55Z</time>
      </trkpt>
      <trkpt lat="44.13932" lon="2.92889">
        <ele>724</ele>
        <time>2024-04-01T10:38:10Z</time>
      </trkpt>
      <trkpt lat="44.13883" lon="2.92971">
        <ele>722</ele>
        <time>2024-04-01T10:38:24Z</time>
      </trkpt>
      <trkpt lat="44.13847" lon="2.93016">
        <ele>726</ele>
        <time>2024-04-01T10:38:32Z</time>
      </trkpt>
      <trkpt lat="44.1384" lon="2.93028">
        <ele>727</ele>
        <time>2024-04-01T10:38:34Z</time>
      </trkpt>
      <trkpt lat="44.13826" lon="2.93059">
        <ele>728</ele>
        <time>2024-04-01T10:38:39Z</time>
      </trkpt>
      <trkpt lat="44.13821" lon="2.93078">
        <ele>727</ele>
        <time>2024-04-01T10:38:42Z</time>
      </trkpt>
      <trkpt lat="44.13814" lon="2.93126">
        <ele>725</ele>
        <time>2024-04-01T10:38:48Z</time>
      </trkpt>
      <trkpt lat="44.13811" lon="2.93145">
        <ele>725</ele>
        <time>2024-04-01T10:38:50Z</time>
      </trkpt>
      <trkpt lat="44.13805" lon="2.93163">
        <ele>726</ele>
        <time>2024-04-01T10:38:53Z</time>
      </trkpt>
      <trkpt lat="44.13798" lon="2.93181">
        <ele>724</ele>
        <time>2024-04-01T10:38:55Z</time>
      </trkpt>
      <trkpt lat="44.13781" lon="2.93207">
        <ele>725</ele>
        <time>2024-04-01T10:39:00Z</time>
      </trkpt>
      <trkpt lat="44.1375" lon="2.9324">
        <ele>729</ele>
        <time>2024-04-01T10:39:07Z</time>
      </trkpt>
      <trkpt lat="44.1373" lon="2.93257">
        <ele>729</ele>
        <time>2024-04-01T10:39:11Z</time>
      </trkpt>
      <trkpt lat="44.13676" lon="2.93298">
        <ele>730</ele>
        <time>2024-04-01T10:39:22Z</time>
      </trkpt>
      <trkpt lat="44.13627" lon="2.9333">
        <ele>724</ele>
        <time>2024-04-01T10:39:32Z</time>
      </trkpt>
      <trkpt lat="44.13601" lon="2.93339">
        <ele>722</ele>
        <time>2024-04-01T10:39:36Z</time>
      </trkpt>
      <trkpt lat="44.13591" lon="2.93339">
        <ele>723</ele>
        <time>2024-04-01T10:39:38Z</time>
      </trkpt>
      <trkpt lat="44.1358" lon="2.93335">
        <ele>723</ele>
        <time>2024-04-01T10:39:40Z</time>
      </trkpt>
      <trkpt lat="44.13566" lon="2.93324">
        <ele>720</ele>
        <time>2024-04-01T10:39:43Z</time>
      </trkpt>
      <trkpt lat="44.13562" lon="2.93315">
        <ele>720</ele>
        <time>2024-04-01T10:39:44Z</time>
      </trkpt>
      <trkpt lat="44.13555" lon="2.93286">
        <ele>722</ele>
        <time>2024-04-01T10:39:48Z</time>
      </trkpt>
      <trkpt lat="44.13544" lon="2.9322">
        <ele>727</ele>
        <time>2024-04-01T10:39:57Z</time>
      </trkpt>
      <trkpt lat="44.13535" lon="2.93141">
        <ele>731</ele>
        <time>2024-04-01T10:40:07Z</time>
      </trkpt>
      <trkpt lat="44.1353" lon="2.9305">
        <ele>734</ele>
        <time>2024-04-01T10:40:19Z</time>
      </trkpt>
      <trkpt lat="44.13533" lon="2.93006">
        <ele>736</ele>
        <time>2024-04-01T10:40:24Z</time>
      </trkpt>
      <trkpt lat="44.13532" lon="2.92983">
        <ele>739</ele>
        <time>2024-04-01T10:40:27Z</time>
      </trkpt>
      <trkpt lat="44.1353" lon="2.92972">
        <ele>740</ele>
        <time>2024-04-01T10:40:29Z</time>
      </trkpt>
      <trkpt lat="44.13525" lon="2.92963">
        <ele>741</ele>
        <time>2024-04-01T10:40:30Z</time>
      </trkpt>
      <trkpt lat="44.13514" lon="2.9295">
        <ele>741</ele>
        <time>2024-04-01T10:40:33Z</time>
      </trkpt>
      <trkpt lat="44.13508" lon="2.92947">
        <ele>741</ele>
        <time>2024-04-01T10:40:34Z</time>
      </trkpt>
      <trkpt lat="44.13439" lon="2.92936">
        <ele>742</ele>
        <time>2024-04-01T10:40:46Z</time>
      </trkpt>
      <trkpt lat="44.13432" lon="2.92938">
        <ele>742</ele>
        <time>2024-04-01T10:40:48Z</time>
      </trkpt>
      <trkpt lat="44.13426" lon="2.92942">
        <ele>742</ele>
        <time>2024-04-01T10:40:49Z</time>
      </trkpt>
      <trkpt lat="44.13419" lon="2.92959">
        <ele>741</ele>
        <time>2024-04-01T10:40:51Z</time>
      </trkpt>
      <trkpt lat="44.13418" lon="2.92972">
        <ele>740</ele>
        <time>2024-04-01T10:40:53Z</time>
      </trkpt>
      <trkpt lat="44.13418" lon="2.93035">
        <ele>738</ele>
        <time>2024-04-01T10:41:01Z</time>
      </trkpt>
      <trkpt lat="44.13413" lon="2.93065">
        <ele>737</ele>
        <time>2024-04-01T10:41:05Z</time>
      </trkpt>
      <trkpt lat="44.13404" lon="2.93088">
        <ele>738</ele>
        <time>2024-04-01T10:41:08Z</time>
      </trkpt>
      <trkpt lat="44.13393" lon="2.93101">
        <ele>739</ele>
        <time>2024-04-01T10:41:11Z</time>
      </trkpt>
      <trkpt lat="44.1335" lon="2.93147">
        <ele>743</ele>
        <time>2024-04-01T10:41:21Z</time>
      </trkpt>
      <trkpt lat="44.13338" lon="2.93157">
        <ele>745</ele>
        <time>2024-04-01T10:41:23Z</time>
      </trkpt>
      <trkpt lat="44.13329" lon="2.93161">
        <ele>746</ele>
        <time>2024-04-01T10:41:25Z</time>
      </trkpt>
      <trkpt lat="44.13276" lon="2.93167">
        <ele>746</ele>
        <time>2024-04-01T10:41:34Z</time>
      </trkpt>
      <trkpt lat="44.1326" lon="2.93165">
        <ele>747</ele>
        <time>2024-04-01T10:41:37Z</time>
      </trkpt>
      <trkpt lat="44.1324" lon="2.93159">
        <ele>748</ele>
        <time>2024-04-01T10:41:41Z</time>
      </trkpt>
      <trkpt lat="44.13231" lon="2.93154">
        <ele>748</ele>
        <time>2024-04-01T10:41:42Z</time>
      </trkpt>
      <trkpt lat="44.1322" lon="2.93161">
        <ele>747</ele>
        <time>2024-04-01T10:41:45Z</time>
      </trkpt>
      <trkpt lat="44.13165" lon="2.93179">
        <ele>745</ele>
        <time>2024-04-01T10:41:55Z</time>
      </trkpt>
      <trkpt lat="44.13141" lon="2.93187">
        <ele>745</ele>
        <time>2024-04-01T10:41:59Z</time>
      </trkpt>
      <trkpt lat="44.13123" lon="2.9319">
        <ele>744</ele>
        <time>2024-04-01T10:42:02Z</time>
      </trkpt>
      <trkpt lat="44.13085" lon="2.93175">
        <ele>745</ele>
        <time>2024-04-01T10:42:09Z</time>
      </trkpt>
      <trkpt lat="44.13078" lon="2.93174">
        <ele>746</ele>
        <time>2024-04-01T10:42:11Z</time>
      </trkpt>
      <trkpt lat="44.13071" lon="2.93177">
        <ele>746</ele>
        <time>2024-04-01T10:42:12Z</time>
      </trkpt>
      <trkpt lat="44.13059" lon="2.93187">
        <ele>746</ele>
        <time>2024-04-01T10:42:14Z</time>
      </trkpt>
      <trkpt lat="44.13046" lon="2.93208">
        <ele>746</ele>
        <time>2024-04-01T10:42:18Z</time>
      </trkpt>
      <trkpt lat="44.1303" lon="2.93252">
        <ele>744</ele>
        <time>2024-04-01T10:42:24Z</time>
      </trkpt>
      <trkpt lat="44.13021" lon="2.93268">
        <ele>744</ele>
        <time>2024-04-01T10:42:27Z</time>
      </trkpt>
      <trkpt lat="44.13019" lon="2.93272">
        <ele>744</ele>
        <time>2024-04-01T10:42:27Z</time>
      </trkpt>
      <trkpt lat="44.13012" lon="2.93312">
        <ele>741</ele>
        <time>2024-04-01T10:42:33Z</time>
      </trkpt>
      <trkpt lat="44.13008" lon="2.93325">
        <ele>741</ele>
        <time>2024-04-01T10:42:34Z</time>
      </trkpt>
      <trkpt lat="44.13006" lon="2.93346">
        <ele>739</ele>
        <time>2024-04-01T10:42:37Z</time>
      </trkpt>
      <trkpt lat="44.12998" lon="2.93355">
        <ele>738</ele>
        <time>2024-04-01T10:42:39Z</time>
      </trkpt>
      <trkpt lat="44.12988" lon="2.93355">
        <ele>737</ele>
        <time>2024-04-01T10:42:41Z</time>
      </trkpt>
      <trkpt lat="44.12968" lon="2.93372">
        <ele>732</ele>
        <time>2024-04-01T10:42:45Z</time>
      </trkpt>
      <trkpt lat="44.12968" lon="2.93348">
        <ele>735</ele>
        <time>2024-04-01T10:42:48Z</time>
      </trkpt>
      <trkpt lat="44.12948" lon="2.93331">
        <ele>734</ele>
        <time>2024-04-01T10:42:52Z</time>
      </trkpt>
      <trkpt lat="44.12935" lon="2.93315">
        <ele>734</ele>
        <time>2024-04-01T10:42:55Z</time>
      </trkpt>
      <trkpt lat="44.12922" lon="2.9329">
        <ele>736</ele>
        <time>2024-04-01T10:42:59Z</time>
      </trkpt>
      <trkpt lat="44.12918" lon="2.9327">
        <ele>738</ele>
        <time>2024-04-01T10:43:02Z</time>
      </trkpt>
      <trkpt lat="44.12922" lon="2.9329">
        <ele>736</ele>
        <time>2024-04-01T10:43:04Z</time>
      </trkpt>
      <trkpt lat="44.12935" lon="2.93315">
        <ele>734</ele>
        <time>2024-04-01T10:43:08Z</time>
      </trkpt>
      <trkpt lat="44.12948" lon="2.93331">
        <ele>734</ele>
        <time>2024-04-01T10:43:12Z</time>
      </trkpt>
      <trkpt lat="44.12968" lon="2.93348">
        <ele>735</ele>
        <time>2024-04-01T10:43:16Z</time>
      </trkpt>
      <trkpt lat="44.12972" lon="2.93347">
        <ele>735</ele>
        <time>2024-04-01T10:43:16Z</time>
      </trkpt>
      <trkpt lat="44.12978" lon="2.93316">
        <ele>740</ele>
        <time>2024-04-01T10:43:20Z</time>
      </trkpt>
      <trkpt lat="44.12978" lon="2.93299">
        <ele>741</ele>
        <time>2024-04-01T10:43:23Z</time>
      </trkpt>
      <trkpt lat="44.1298" lon="2.93287">
        <ele>743</ele>
        <time>2024-04-01T10:43:24Z</time>
      </trkpt>
      <trkpt lat="44.1298" lon="2.93264">
        <ele>745</ele>
        <time>2024-04-01T10:43:27Z</time>
      </trkpt>
      <trkpt lat="44.12984" lon="2.93259">
        <ele>746</ele>
        <time>2024-04-01T10:43:28Z</time>
      </trkpt>
      <trkpt lat="44.12992" lon="2.93245">
        <ele>748</ele>
        <time>2024-04-01T10:43:30Z</time>
      </trkpt>
      <trkpt lat="44.12993" lon="2.93235">
        <ele>748</ele>
        <time>2024-04-01T10:43:32Z</time>
      </trkpt>
      <trkpt lat="44.12982" lon="2.93209">
        <ele>749</ele>
        <time>2024-04-01T10:43:36Z</time>
      </trkpt>
      <trkpt lat="44.12967" lon="2.93182">
        <ele>751</ele>
        <time>2024-04-01T10:43:40Z</time>
      </trkpt>
      <trkpt lat="44.12971" lon="2.93169">
        <ele>752</ele>
        <time>2024-04-01T10:43:42Z</time>
      </trkpt>
      <trkpt lat="44.12968" lon="2.93133">
        <ele>754</ele>
        <time>2024-04-01T10:43:46Z</time>
      </trkpt>
      <trkpt lat="44.12977" lon="2.93099">
        <ele>756</ele>
        <time>2024-04-01T10:43:51Z</time>
      </trkpt>
      <trkpt lat="44.13" lon="2.93063">
        <ele>759</ele>
        <time>2024-04-01T10:43:57Z</time>
      </trkpt>
      <trkpt lat="44.13008" lon="2.93046">
        <ele>760</ele>
        <time>2024-04-01T10:44:00Z</time>
      </trkpt>
      <trkpt lat="44.1303" lon="2.92978">
        <ele>766</ele>
        <time>2024-04-01T10:44:09Z</time>
      </trkpt>
      <trkpt lat="44.13043" lon="2.92957">
        <ele>767</ele>
        <time>2024-04-01T10:44:13Z</time>
      </trkpt>
      <trkpt lat="44.1311" lon="2.92916">
        <ele>770</ele>
        <time>2024-04-01T10:44:26Z</time>
      </trkpt>
      <trkpt lat="44.13182" lon="2.92843">
        <ele>775</ele>
        <time>2024-04-01T10:44:42Z</time>
      </trkpt>
      <trkpt lat="44.13227" lon="2.9279">
        <ele>778</ele>
        <time>2024-04-01T10:44:52Z</time>
      </trkpt>
      <trkpt lat="44.13241" lon="2.92765">
        <ele>780</ele>
        <time>2024-04-01T10:44:56Z</time>
      </trkpt>
      <trkpt lat="44.1325" lon="2.92735">
        <ele>784</ele>
        <time>2024-04-01T10:45:00Z</time>
      </trkpt>
      <trkpt lat="44.13259" lon="2.92719">
        <ele>786</ele>
        <time>2024-04-01T10:45:03Z</time>
      </trkpt>
      <trkpt lat="44.1327" lon="2.92709">
        <ele>787</ele>
        <time>2024-04-01T10:45:05Z</time>
      </trkpt>
      <trkpt lat="44.13286" lon="2.92703">
        <ele>788</ele>
        <time>2024-04-01T10:45:08Z</time>
      </trkpt>
      <trkpt lat="44.13399" lon="2.92684">
        <ele>791</ele>
        <time>2024-04-01T10:45:28Z</time>
      </trkpt>
      <trkpt lat="44.13452" lon="2.92669">
        <ele>797</ele>
        <time>2024-04-01T10:45:38Z</time>
      </trkpt>
      <trkpt lat="44.13472" lon="2.92667">
        <ele>798</ele>
        <time>2024-04-01T10:45:42Z</time>
      </trkpt>
      <trkpt lat="44.13496" lon="2.92653">
        <ele>801</ele>
        <time>2024-04-01T10:45:46Z</time>
      </trkpt>
      <trkpt lat="44.13529" lon="2.92625">
        <ele>805</ele>
        <time>2024-04-01T10:45:53Z</time>
      </trkpt>
      <trkpt lat="44.13586" lon="2.92563">
        <ele>811</ele>
        <time>2024-04-01T10:46:06Z</time>
      </trkpt>
      <trkpt lat="44.13632" lon="2.92486">
        <ele>818</ele>
        <time>2024-04-01T10:46:19Z</time>
      </trkpt>
      <trkpt lat="44.13645" lon="2.92461">
        <ele>821</ele>
        <time>2024-04-01T10:46:23Z</time>
      </trkpt>
      <trkpt lat="44.13669" lon="2.92389">
        <ele>828</ele>
        <time>2024-04-01T10:46:33Z</time>
      </trkpt>
      <trkpt lat="44.13681" lon="2.92345">
        <ele>832</ele>
        <time>2024-04-01T10:46:39Z</time>
      </trkpt>
      <trkpt lat="44.13686" lon="2.92296">
        <ele>835</ele>
        <time>2024-04-01T10:46:45Z</time>
      </trkpt>
      <trkpt lat="44.13687" lon="2.92248">
        <ele>838</ele>
        <time>2024-04-01T10:46:51Z</time>
      </trkpt>
      <trkpt lat="44.13692" lon="2.92215">
        <ele>841</ele>
        <time>2024-04-01T10:46:56Z</time>
      </trkpt>
      <trkpt lat="44.1372" lon="2.92081">
        <ele>850</ele>
        <time>2024-04-01T10:47:14Z</time>
      </trkpt>
      <trkpt lat="44.13727" lon="2.92013">
        <ele>853</ele>
        <time>2024-04-01T10:47:22Z</time>
      </trkpt>
      <trkpt lat="44.13734" lon="2.91938">
        <ele>858</ele>
        <time>2024-04-01T10:47:32Z</time>
      </trkpt>
      <trkpt lat="44.13735" lon="2.91825">
        <ele>867</ele>
        <time>2024-04-01T10:47:46Z</time>
      </trkpt>
      <trkpt lat="44.13741" lon="2.91767">
        <ele>872</ele>
        <time>2024-04-01T10:47:54Z</time>
      </trkpt>
      <trkpt lat="44.13745" lon="2.91691">
        <ele>877</ele>
        <time>2024-04-01T10:48:04Z</time>
      </trkpt>
      <trkpt lat="44.13746" lon="2.91627">
        <ele>880</ele>
        <time>2024-04-01T10:48:12Z</time>
      </trkpt>
      <trkpt lat="44.13742" lon="2.91541">
        <ele>885</ele>
        <time>2024-04-01T10:48:23Z</time>
      </trkpt>
      <trkpt lat="44.13729" lon="2.91423">
        <ele>892</ele>
        <time>2024-04-01T10:48:38Z</time>
      </trkpt>
      <trkpt lat="44.1373" lon="2.91374">
        <ele>894</ele>
        <time>2024-04-01T10:48:44Z</time>
      </trkpt>
      <trkpt lat="44.13742" lon="2.91339">
        <ele>896</ele>
        <time>2024-04-01T10:48:49Z</time>
      </trkpt>
      <trkpt lat="44.13755" lon="2.91319">
        <ele>898</ele>
        <time>2024-04-01T10:48:53Z</time>
      </trkpt>
      <trkpt lat="44.13775" lon="2.91301">
        <ele>899</ele>
        <time>2024-04-01T10:48:57Z</time>
      </trkpt>
      <trkpt lat="44.13805" lon="2.91282">
        <ele>900</ele>
        <time>2024-04-01T10:49:03Z</time>
      </trkpt>
      <trkpt lat="44.1382" lon="2.91268">
        <ele>902</ele>
        <time>2024-04-01T10:49:06Z</time>
      </trkpt>
      <trkpt lat="44.13864" lon="2.91181">
        <ele>907</ele>
        <time>2024-04-01T10:49:20Z</time>
      </trkpt>
      <trkpt lat="44.13869" lon="2.91154">
        <ele>908</ele>
        <time>2024-04-01T10:49:23Z</time>
      </trkpt>
      <trkpt lat="44.13871" lon="2.91107">
        <ele>910</ele>
        <time>2024-04-01T10:49:29Z</time>
      </trkpt>
      <trkpt lat="44.13865" lon="2.91051">
        <ele>912</ele>
        <time>2024-04-01T10:49:36Z</time>
      </trkpt>
      <trkpt lat="44.13868" lon="2.90976">
        <ele>915</ele>
        <time>2024-04-01T10:49:46Z</time>
      </trkpt>
      <trkpt lat="44.1388" lon="2.90931">
        <ele>916</ele>
        <time>2024-04-01T10:49:52Z</time>
      </trkpt>
      <trkpt lat="44.13989" lon="2.90685">
        <ele>920</ele>
        <time>2024-04-01T10:50:29Z</time>
      </trkpt>
      <trkpt lat="44.14002" lon="2.90652">
        <ele>921</ele>
        <time>2024-04-01T10:50:34Z</time>
      </trkpt>
      <trkpt lat="44.14011" lon="2.90596">
        <ele>921</ele>
        <time>2024-04-01T10:50:41Z</time>
      </trkpt>
      <trkpt lat="44.14016" lon="2.90561">
        <ele>922</ele>
        <time>2024-04-01T10:50:46Z</time>
      </trkpt>
      <trkpt lat="44.14015" lon="2.90546">
        <ele>923</ele>
        <time>2024-04-01T10:50:48Z</time>
      </trkpt>
      <trkpt lat="44.14011" lon="2.90535">
        <ele>923</ele>
        <time>2024-04-01T10:50:49Z</time>
      </trkpt>
      <trkpt lat="44.1393" lon="2.90439">
        <ele>922</ele>
        <time>2024-04-01T10:51:08Z</time>
      </trkpt>
      <trkpt lat="44.13879" lon="2.9039">
        <ele>922</ele>
        <time>2024-04-01T10:51:19Z</time>
      </trkpt>
      <trkpt lat="44.1382" lon="2.90306">
        <ele>926</ele>
        <time>2024-04-01T10:51:34Z</time>
      </trkpt>
      <trkpt lat="44.13813" lon="2.90292">
        <ele>926</ele>
        <time>2024-04-01T10:51:36Z</time>
      </trkpt>
      <trkpt lat="44.13778" lon="2.9024">
        <ele>925</ele>
        <time>2024-04-01T10:51:45Z</time>
      </trkpt>
      <trkpt lat="44.13768" lon="2.90208">
        <ele>925</ele>
        <time>2024-04-01T10:51:50Z</time>
      </trkpt>
      <trkpt lat="44.13771" lon="2.90168">
        <ele>925</ele>
        <time>2024-04-01T10:51:55Z</time>
      </trkpt>
      <trkpt lat="44.13783" lon="2.90144">
        <ele>925</ele>
        <time>2024-04-01T10:51:59Z</time>
      </trkpt>
      <trkpt lat="44.13801" lon="2.90099">
        <ele>924</ele>
        <time>2024-04-01T10:52:05Z</time>
      </trkpt>
      <trkpt lat="44.13807" lon="2.90063">
        <ele>923</ele>
        <time>2024-04-01T10:52:10Z</time>
      </trkpt>
      <trkpt lat="44.13847" lon="2.89946">
        <ele>919</ele>
        <time>2024-04-01T10:52:27Z</time>
      </trkpt>
      <trkpt lat="44.13869" lon="2.89898">
        <ele>918</ele>
        <time>2024-04-01T10:52:34Z</time>
      </trkpt>
      <trkpt lat="44.13893" lon="2.89859">
        <ele>921</ele>
        <time>2024-04-01T10:52:40Z</time>
      </trkpt>
      <trkpt lat="44.13899" lon="2.89831">
        <ele>921</ele>
        <time>2024-04-01T10:52:44Z</time>
      </trkpt>
      <trkpt lat="44.13909" lon="2.89744">
        <ele>921</ele>
        <time>2024-04-01T10:52:55Z</time>
      </trkpt>
      <trkpt lat="44.13906" lon="2.89735">
        <ele>922</ele>
        <time>2024-04-01T10:52:57Z</time>
      </trkpt>
      <trkpt lat="44.13897" lon="2.89719">
        <ele>923</ele>
        <time>2024-04-01T10:52:59Z</time>
      </trkpt>
      <trkpt lat="44.13887" lon="2.8971">
        <ele>923</ele>
        <time>2024-04-01T10:53:01Z</time>
      </trkpt>
      <trkpt lat="44.13856" lon="2.89704">
        <ele>923</ele>
        <time>2024-04-01T10:53:07Z</time>
      </trkpt>
      <trkpt lat="44.13832" lon="2.89697">
        <ele>924</ele>
        <time>2024-04-01T10:53:11Z</time>
      </trkpt>
      <trkpt lat="44.13807" lon="2.89682">
        <ele>925</ele>
        <time>2024-04-01T10:53:16Z</time>
      </trkpt>
      <trkpt lat="44.13785" lon="2.89646">
        <ele>927</ele>
        <time>2024-04-01T10:53:22Z</time>
      </trkpt>
      <trkpt lat="44.13778" lon="2.89609">
        <ele>929</ele>
        <time>2024-04-01T10:53:27Z</time>
      </trkpt>
      <trkpt lat="44.13779" lon="2.89566">
        <ele>932</ele>
        <time>2024-04-01T10:53:33Z</time>
      </trkpt>
      <trkpt lat="44.13754" lon="2.89465">
        <ele>934</ele>
        <time>2024-04-01T10:53:46Z</time>
      </trkpt>
      <trkpt lat="44.1374" lon="2.8934">
        <ele>938</ele>
        <time>2024-04-01T10:54:02Z</time>
      </trkpt>
      <trkpt lat="44.13697" lon="2.89247">
        <ele>938</ele>
        <time>2024-04-01T10:54:17Z</time>
      </trkpt>
      <trkpt lat="44.13682" lon="2.89194">
        <ele>937</ele>
        <time>2024-04-01T10:54:24Z</time>
      </trkpt>
      <trkpt lat="44.13682" lon="2.89174">
        <ele>938</ele>
        <time>2024-04-01T10:54:26Z</time>
      </trkpt>
      <trkpt lat="44.13684" lon="2.89156">
        <ele>940</ele>
        <time>2024-04-01T10:54:29Z</time>
      </trkpt>
      <trkpt lat="44.13708" lon="2.89061">
        <ele>946</ele>
        <time>2024-04-01T10:54:42Z</time>
      </trkpt>
      <trkpt lat="44.13715" lon="2.89024">
        <ele>947</ele>
        <time>2024-04-01T10:54:46Z</time>
      </trkpt>
      <trkpt lat="44.13717" lon="2.89007">
        <ele>948</ele>
        <time>2024-04-01T10:54:49Z</time>
      </trkpt>
      <trkpt lat="44.13714" lon="2.88978">
        <ele>948</ele>
        <time>2024-04-01T10:54:52Z</time>
      </trkpt>
      <trkpt lat="44.13697" lon="2.88946">
        <ele>950</ele>
        <time>2024-04-01T10:54:57Z</time>
      </trkpt>
      <trkpt lat="44.13693" lon="2.88934">
        <ele>951</ele>
        <time>2024-04-01T10:54:59Z</time>
      </trkpt>
      <trkpt lat="44.13701" lon="2.88835">
        <ele>956</ele>
        <time>2024-04-01T10:55:12Z</time>
      </trkpt>
      <trkpt lat="44.13702" lon="2.88794">
        <ele>958</ele>
        <time>2024-04-01T10:55:17Z</time>
      </trkpt>
      <trkpt lat="44.13696" lon="2.8874">
        <ele>962</ele>
        <time>2024-04-01T10:55:24Z</time>
      </trkpt>
      <trkpt lat="44.13687" lon="2.8869">
        <ele>965</ele>
        <time>2024-04-01T10:55:31Z</time>
      </trkpt>
      <trkpt lat="44.13679" lon="2.88668">
        <ele>967</ele>
        <time>2024-04-01T10:55:34Z</time>
      </trkpt>
      <trkpt lat="44.13647" lon="2.88616">
        <ele>970</ele>
        <time>2024-04-01T10:55:43Z</time>
      </trkpt>
      <trkpt lat="44.13619" lon="2.8858">
        <ele>973</ele>
        <time>2024-04-01T10:55:49Z</time>
      </trkpt>
      <trkpt lat="44.13585" lon="2.88525">
        <ele>977</ele>
        <time>2024-04-01T10:55:59Z</time>
      </trkpt>
      <trkpt lat="44.13548" lon="2.8846">
        <ele>981</ele>
        <time>2024-04-01T10:56:09Z</time>
      </trkpt>
      <trkpt lat="44.13537" lon="2.8843">
        <ele>982</ele>
        <time>2024-04-01T10:56:13Z</time>
      </trkpt>
      <trkpt lat="44.13531" lon="2.88402">
        <ele>984</ele>
        <time>2024-04-01T10:56:17Z</time>
      </trkpt>
      <trkpt lat="44.13518" lon="2.88235">
        <ele>993</ele>
        <time>2024-04-01T10:56:39Z</time>
      </trkpt>
      <trkpt lat="44.13516" lon="2.88184">
        <ele>995</ele>
        <time>2024-04-01T10:56:45Z</time>
      </trkpt>
      <trkpt lat="44.13507" lon="2.88167">
        <ele>994</ele>
        <time>2024-04-01T10:56:48Z</time>
      </trkpt>
      <trkpt lat="44.13491" lon="2.88158">
        <ele>993</ele>
        <time>2024-04-01T10:56:51Z</time>
      </trkpt>
      <trkpt lat="44.13455" lon="2.88142">
        <ele>990</ele>
        <time>2024-04-01T10:56:58Z</time>
      </trkpt>
      <trkpt lat="44.13504" lon="2.87882">
        <ele>1006</ele>
        <time>2024-04-01T10:57:32Z</time>
      </trkpt>
      <trkpt lat="44.13518" lon="2.87832">
        <ele>1009</ele>
        <time>2024-04-01T10:57:39Z</time>
      </trkpt>
      <trkpt lat="44.13552" lon="2.87743">
        <ele>1015</ele>
        <time>2024-04-01T10:57:52Z</time>
      </trkpt>
      <trkpt lat="44.13566" lon="2.87693">
        <ele>1016</ele>
        <time>2024-04-01T10:57:59Z</time>
      </trkpt>
      <trkpt lat="44.13615" lon="2.87225">
        <ele>1034</ele>
        <time>2024-04-01T10:58:59Z</time>
      </trkpt>
      <trkpt lat="44.13555" lon="2.87245">
        <ele>1033</ele>
        <time>2024-04-01T10:59:10Z</time>
      </trkpt>
      <trkpt lat="44.13517" lon="2.87261">
        <ele>1032</ele>
        <time>2024-04-01T10:59:17Z</time>
      </trkpt>
      <trkpt lat="44.13442" lon="2.87312">
        <ele>1033</ele>
        <time>2024-04-01T10:59:32Z</time>
      </trkpt>
      <trkpt lat="44.13433" lon="2.87311">
        <ele>1033</ele>
        <time>2024-04-01T10:59:33Z</time>
      </trkpt>
      <trkpt lat="44.13425" lon="2.87306">
        <ele>1032</ele>
        <time>2024-04-01T10:59:35Z</time>
      </trkpt>
      <trkpt lat="44.1342" lon="2.87294">
        <ele>1032</ele>
        <time>2024-04-01T10:59:37Z</time>
      </trkpt>
      <trkpt lat="44.13421" lon="2.87271">
        <ele>1032</ele>
        <time>2024-04-01T10:59:40Z</time>
      </trkpt>
      <trkpt lat="44.13435" lon="2.87192">
        <ele>1030</ele>
        <time>2024-04-01T10:59:50Z</time>
      </trkpt>
      <trkpt lat="44.13438" lon="2.87157">
        <ele>1030</ele>
        <time>2024-04-01T10:59:55Z</time>
      </trkpt>
      <trkpt lat="44.13438" lon="2.87101">
        <ele>1029</ele>
        <time>2024-04-01T11:00:02Z</time>
      </trkpt>
      <trkpt lat="44.13431" lon="2.86988">
        <ele>1027</ele>
        <time>2024-04-01T11:00:16Z</time>
      </trkpt>
      <trkpt lat="44.13421" lon="2.86921">
        <ele>1028</ele>
        <time>2024-04-01T11:00:25Z</time>
      </trkpt>
      <trkpt lat="44.13417" lon="2.86844">
        <ele>1026</ele>
        <time>2024-04-01T11:00:35Z</time>
      </trkpt>
      <trkpt lat="44.13417" lon="2.86802">
        <ele>1026</ele>
        <time>2024-04-01T11:00:40Z</time>
      </trkpt>
      <trkpt lat="44.13419" lon="2.86771">
        <ele>1026</ele>
        <time>2024-04-01T11:00:44Z</time>
      </trkpt>
      <trkpt lat="44.13446" lon="2.86684">
        <ele>1026</ele>
        <time>2024-04-01T11:00:56Z</time>
      </trkpt>
      <trkpt lat="44.1345" lon="2.86654">
        <ele>1026</ele>
        <time>2024-04-01T11:01:00Z</time>
      </trkpt>
      <trkpt lat="44.13453" lon="2.86592">
        <ele>1026</ele>
        <time>2024-04-01T11:01:08Z</time>
      </trkpt>
      <trkpt lat="44.13449" lon="2.86459">
        <ele>1027</ele>
        <time>2024-04-01T11:01:25Z</time>
      </trkpt>
      <trkpt lat="44.13452" lon="2.86431">
        <ele>1026</ele>
        <time>2024-04-01T11:01:29Z</time>
      </trkpt>
      <trkpt lat="44.13458" lon="2.86405">
        <ele>1025</ele>
        <time>2024-04-01T11:01:32Z</time>
      </trkpt>
      <trkpt lat="44.13458" lon="2.86371">
        <ele>1025</ele>
        <time>2024-04-01T11:01:37Z</time>
      </trkpt>
      <trkpt lat="44.13453" lon="2.86325">
        <ele>1025</ele>
        <time>2024-04-01T11:01:43Z</time>
      </trkpt>
      <trkpt lat="44.1342" lon="2.86187">
        <ele>1023</ele>
        <time>2024-04-01T11:02:01Z</time>
      </trkpt>
      <trkpt lat="44.13414" lon="2.86145">
        <ele>1022</ele>
        <time>2024-04-01T11:02:07Z</time>
      </trkpt>
      <trkpt lat="44.13416" lon="2.86125">
        <ele>1021</ele>
        <time>2024-04-01T11:02:09Z</time>
      </trkpt>
      <trkpt lat="44.13416" lon="2.86105">
        <ele>1021</ele>
        <time>2024-04-01T11:02:12Z</time>
      </trkpt>
      <trkpt lat="44.13412" lon="2.8609">
        <ele>1021</ele>
        <time>2024-04-01T11:02:14Z</time>
      </trkpt>
      <trkpt lat="44.13393" lon="2.86066">
        <ele>1018</ele>
        <time>2024-04-01T11:02:18Z</time>
      </trkpt>
      <trkpt lat="44.13376" lon="2.86041">
        <ele>1016</ele>
        <time>2024-04-01T11:02:23Z</time>
      </trkpt>
      <trkpt lat="44.13347" lon="2.85941">
        <ele>1007</ele>
        <time>2024-04-01T11:02:37Z</time>
      </trkpt>
      <trkpt lat="44.13342" lon="2.85916">
        <ele>1004</ele>
        <time>2024-04-01T11:02:40Z</time>
      </trkpt>
      <trkpt lat="44.13345" lon="2.8586">
        <ele>1002</ele>
        <time>2024-04-01T11:02:47Z</time>
      </trkpt>
      <trkpt lat="44.13351" lon="2.85817">
        <ele>1001</ele>
        <time>2024-04-01T11:02:53Z</time>
      </trkpt>
      <trkpt lat="44.13363" lon="2.85769">
        <ele>999</ele>
        <time>2024-04-01T11:02:59Z</time>
      </trkpt>
      <trkpt lat="44.13371" lon="2.85699">
        <ele>996</ele>
        <time>2024-04-01T11:03:08Z</time>
      </trkpt>
      <trkpt lat="44.13371" lon="2.85663">
        <ele>994</ele>
        <time>2024-04-01T11:03:13Z</time>
      </trkpt>
      <trkpt lat="44.13366" lon="2.85647">
        <ele>993</ele>
        <time>2024-04-01T11:03:15Z</time>
      </trkpt>
      <trkpt lat="44.13355" lon="2.85645">
        <ele>991</ele>
        <time>2024-04-01T11:03:17Z</time>
      </trkpt>
      <trkpt lat="44.13325" lon="2.85654">
        <ele>988</ele>
        <time>2024-04-01T11:03:22Z</time>
      </trkpt>
      <trkpt lat="44.13311" lon="2.85662">
        <ele>987</ele>
        <time>2024-04-01T11:03:25Z</time>
      </trkpt>
      <trkpt lat="44.13283" lon="2.85666">
        <ele>984</ele>
        <time>2024-04-01T11:03:30Z</time>
      </trkpt>
      <trkpt lat="44.13222" lon="2.85682">
        <ele>983</ele>
        <time>2024-04-01T11:03:41Z</time>
      </trkpt>
      <trkpt lat="44.13205" lon="2.85678">
        <ele>983</ele>
        <time>2024-04-01T11:03:44Z</time>
      </trkpt>
      <trkpt lat="44.13168" lon="2.85626">
        <ele>982</ele>
        <time>2024-04-01T11:03:54Z</time>
      </trkpt>
      <trkpt lat="44.13151" lon="2.85594">
        <ele>983</ele>
        <time>2024-04-01T11:03:59Z</time>
      </trkpt>
      <trkpt lat="44.13141" lon="2.85565">
        <ele>982</ele>
        <time>2024-04-01T11:04:03Z</time>
      </trkpt>
      <trkpt lat="44.13084" lon="2.85325">
        <ele>986</ele>
        <time>2024-04-01T11:04:35Z</time>
      </trkpt>
      <trkpt lat="44.13074" lon="2.85288">
        <ele>987</ele>
        <time>2024-04-01T11:04:40Z</time>
      </trkpt>
      <trkpt lat="44.13" lon="2.85138">
        <ele>983</ele>
        <time>2024-04-01T11:05:03Z</time>
      </trkpt>
      <trkpt lat="44.12988" lon="2.85096">
        <ele>982</ele>
        <time>2024-04-01T11:05:09Z</time>
      </trkpt>
      <trkpt lat="44.1299" lon="2.85087">
        <ele>981</ele>
        <time>2024-04-01T11:05:10Z</time>
      </trkpt>
      <trkpt lat="44.13006" lon="2.85054">
        <ele>980</ele>
        <time>2024-04-01T11:05:15Z</time>
      </trkpt>
      <trkpt lat="44.13025" lon="2.85038">
        <ele>979</ele>
        <time>2024-04-01T11:05:19Z</time>
      </trkpt>
      <trkpt lat="44.13044" lon="2.8503">
        <ele>979</ele>
        <time>2024-04-01T11:05:23Z</time>
      </trkpt>
      <trkpt lat="44.13083" lon="2.85025">
        <ele>978</ele>
        <time>2024-04-01T11:05:30Z</time>
      </trkpt>
      <trkpt lat="44.13103" lon="2.85028">
        <ele>975</ele>
        <time>2024-04-01T11:05:33Z</time>
      </trkpt>
      <trkpt lat="44.13118" lon="2.85024">
        <ele>973</ele>
        <time>2024-04-01T11:05:36Z</time>
      </trkpt>
      <trkpt lat="44.13126" lon="2.85017">
        <ele>972</ele>
        <time>2024-04-01T11:05:38Z</time>
      </trkpt>
      <trkpt lat="44.13189" lon="2.84898">
        <ele>967</ele>
        <time>2024-04-01T11:05:57Z</time>
      </trkpt>
      <trkpt lat="44.13202" lon="2.84852">
        <ele>965</ele>
        <time>2024-04-01T11:06:03Z</time>
      </trkpt>
      <trkpt lat="44.13211" lon="2.84777">
        <ele>962</ele>
        <time>2024-04-01T11:06:13Z</time>
      </trkpt>
      <trkpt lat="44.13218" lon="2.84738">
        <ele>960</ele>
        <time>2024-04-01T11:06:18Z</time>
      </trkpt>
      <trkpt lat="44.13233" lon="2.84688">
        <ele>958</ele>
        <time>2024-04-01T11:06:25Z</time>
      </trkpt>
      <trkpt lat="44.13242" lon="2.84646">
        <ele>956</ele>
        <time>2024-04-01T11:06:30Z</time>
      </trkpt>
      <trkpt lat="44.13243" lon="2.84586">
        <ele>954</ele>
        <time>2024-04-01T11:06:38Z</time>
      </trkpt>
      <trkpt lat="44.13275" lon="2.84436">
        <ele>953</ele>
        <time>2024-04-01T11:06:58Z</time>
      </trkpt>
      <trkpt lat="44.13269" lon="2.84378">
        <ele>954</ele>
        <time>2024-04-01T11:07:06Z</time>
      </trkpt>
      <trkpt lat="44.13241" lon="2.84305">
        <ele>954</ele>
        <time>2024-04-01T11:07:16Z</time>
      </trkpt>
      <trkpt lat="44.13232" lon="2.84271">
        <ele>953</ele>
        <time>2024-04-01T11:07:21Z</time>
      </trkpt>
      <trkpt lat="44.13213" lon="2.84174">
        <ele>953</ele>
        <time>2024-04-01T11:07:34Z</time>
      </trkpt>
      <trkpt lat="44.13311" lon="2.84069">
        <ele>945</ele>
        <time>2024-04-01T11:07:56Z</time>
      </trkpt>
      <trkpt lat="44.134" lon="2.83966">
        <ele>936</ele>
        <time>2024-04-01T11:08:16Z</time>
      </trkpt>
      <trkpt lat="44.13469" lon="2.83869">
        <ele>935</ele>
        <time>2024-04-01T11:08:34Z</time>
      </trkpt>
      <trkpt lat="44.13486" lon="2.83838">
        <ele>936</ele>
        <time>2024-04-01T11:08:39Z</time>
      </trkpt>
      <trkpt lat="44.13502" lon="2.83794">
        <ele>936</ele>
        <time>2024-04-01T11:08:45Z</time>
      </trkpt>
      <trkpt lat="44.13521" lon="2.83752">
        <ele>937</ele>
        <time>2024-04-01T11:08:51Z</time>
      </trkpt>
      <trkpt lat="44.13566" lon="2.83675">
        <ele>935</ele>
        <time>2024-04-01T11:09:04Z</time>
      </trkpt>
      <trkpt lat="44.13613" lon="2.836">
        <ele>935</ele>
        <time>2024-04-01T11:09:17Z</time>
      </trkpt>
      <trkpt lat="44.13625" lon="2.83575">
        <ele>935</ele>
        <time>2024-04-01T11:09:20Z</time>
      </trkpt>
      <trkpt lat="44.13639" lon="2.83533">
        <ele>935</ele>
        <time>2024-04-01T11:09:26Z</time>
      </trkpt>
      <trkpt lat="44.13667" lon="2.83469">
        <ele>933</ele>
        <time>2024-04-01T11:09:36Z</time>
      </trkpt>
      <trkpt lat="44.1368" lon="2.83433">
        <ele>930</ele>
        <time>2024-04-01T11:09:41Z</time>
      </trkpt>
      <trkpt lat="44.13716" lon="2.83394">
        <ele>926</ele>
        <time>2024-04-01T11:09:49Z</time>
      </trkpt>
      <trkpt lat="44.13738" lon="2.83378">
        <ele>924</ele>
        <time>2024-04-01T11:09:54Z</time>
      </trkpt>
      <trkpt lat="44.13767" lon="2.83363">
        <ele>922</ele>
        <time>2024-04-01T11:09:59Z</time>
      </trkpt>
      <trkpt lat="44.13792" lon="2.83354">
        <ele>920</ele>
        <time>2024-04-01T11:10:04Z</time>
      </trkpt>
      <trkpt lat="44.13823" lon="2.83337">
        <ele>917</ele>
        <time>2024-04-01T11:10:10Z</time>
      </trkpt>
      <trkpt lat="44.13844" lon="2.83323">
        <ele>915</ele>
        <time>2024-04-01T11:10:14Z</time>
      </trkpt>
      <trkpt lat="44.13894" lon="2.83307">
        <ele>912</ele>
        <time>2024-04-01T11:10:23Z</time>
      </trkpt>
      <trkpt lat="44.13961" lon="2.83272">
        <ele>911</ele>
        <time>2024-04-01T11:10:36Z</time>
      </trkpt>
      <trkpt lat="44.14007" lon="2.83233">
        <ele>912</ele>
        <time>2024-04-01T11:10:45Z</time>
      </trkpt>
      <trkpt lat="44.14019" lon="2.83231">
        <ele>913</ele>
        <time>2024-04-01T11:10:47Z</time>
      </trkpt>
      <trkpt lat="44.14077" lon="2.83213">
        <ele>916</ele>
        <time>2024-04-01T11:10:58Z</time>
      </trkpt>
      <trkpt lat="44.14143" lon="2.83191">
        <ele>920</ele>
        <time>2024-04-01T11:11:10Z</time>
      </trkpt>
      <trkpt lat="44.14213" lon="2.8317">
        <ele>920</ele>
        <time>2024-04-01T11:11:23Z</time>
      </trkpt>
      <trkpt lat="44.14272" lon="2.83147">
        <ele>918</ele>
        <time>2024-04-01T11:11:34Z</time>
      </trkpt>
      <trkpt lat="44.14282" lon="2.83147">
        <ele>917</ele>
        <time>2024-04-01T11:11:35Z</time>
      </trkpt>
      <trkpt lat="44.14302" lon="2.83112">
        <ele>918</ele>
        <time>2024-04-01T11:11:41Z</time>
      </trkpt>
      <trkpt lat="44.14344" lon="2.83044">
        <ele>918</ele>
        <time>2024-04-01T11:11:53Z</time>
      </trkpt>
      <trkpt lat="44.14443" lon="2.82928">
        <ele>918</ele>
        <time>2024-04-01T11:12:16Z</time>
      </trkpt>
      <trkpt lat="44.14475" lon="2.8288">
        <ele>916</ele>
        <time>2024-04-01T11:12:24Z</time>
      </trkpt>
      <trkpt lat="44.14484" lon="2.82853">
        <ele>916</ele>
        <time>2024-04-01T11:12:28Z</time>
      </trkpt>
      <trkpt lat="44.14488" lon="2.82827">
        <ele>916</ele>
        <time>2024-04-01T11:12:31Z</time>
      </trkpt>
      <trkpt lat="44.14485" lon="2.82788">
        <ele>915</ele>
        <time>2024-04-01T11:12:36Z</time>
      </trkpt>
      <trkpt lat="44.14466" lon="2.82657">
        <ele>913</ele>
        <time>2024-04-01T11:12:53Z</time>
      </trkpt>
      <trkpt lat="44.14454" lon="2.82601">
        <ele>911</ele>
        <time>2024-04-01T11:13:01Z</time>
      </trkpt>
      <trkpt lat="44.14491" lon="2.82589">
        <ele>906</ele>
        <time>2024-04-01T11:13:07Z</time>
      </trkpt>
      <trkpt lat="44.14511" lon="2.82581">
        <ele>906</ele>
        <time>2024-04-01T11:13:11Z</time>
      </trkpt>
      <trkpt lat="44.14607" lon="2.82547">
        <ele>911</ele>
        <time>2024-04-01T11:13:29Z</time>
      </trkpt>
      <trkpt lat="44.14622" lon="2.82536">
        <ele>911</ele>
        <time>2024-04-01T11:13:32Z</time>
      </trkpt>
      <trkpt lat="44.14631" lon="2.82518">
        <ele>911</ele>
        <time>2024-04-01T11:13:35Z</time>
      </trkpt>
      <trkpt lat="44.14631" lon="2.82497">
        <ele>911</ele>
        <time>2024-04-01T11:13:37Z</time>
      </trkpt>
      <trkpt lat="44.14626" lon="2.82477">
        <ele>913</ele>
        <time>2024-04-01T11:13:40Z</time>
      </trkpt>
      <trkpt lat="44.14552" lon="2.8242">
        <ele>915</ele>
        <time>2024-04-01T11:13:55Z</time>
      </trkpt>
      <trkpt lat="44.14526" lon="2.82397">
        <ele>916</ele>
        <time>2024-04-01T11:14:01Z</time>
      </trkpt>
      <trkpt lat="44.1451" lon="2.82359">
        <ele>918</ele>
        <time>2024-04-01T11:14:06Z</time>
      </trkpt>
      <trkpt lat="44.14498" lon="2.82315">
        <ele>921</ele>
        <time>2024-04-01T11:14:12Z</time>
      </trkpt>
      <trkpt lat="44.14496" lon="2.82284">
        <ele>922</ele>
        <time>2024-04-01T11:14:16Z</time>
      </trkpt>
      <trkpt lat="44.14505" lon="2.82227">
        <ele>925</ele>
        <time>2024-04-01T11:14:24Z</time>
      </trkpt>
      <trkpt lat="44.14529" lon="2.82122">
        <ele>932</ele>
        <time>2024-04-01T11:14:38Z</time>
      </trkpt>
      <trkpt lat="44.14546" lon="2.82079">
        <ele>935</ele>
        <time>2024-04-01T11:14:44Z</time>
      </trkpt>
      <trkpt lat="44.14563" lon="2.82059">
        <ele>937</ele>
        <time>2024-04-01T11:14:48Z</time>
      </trkpt>
      <trkpt lat="44.14612" lon="2.82014">
        <ele>941</ele>
        <time>2024-04-01T11:14:58Z</time>
      </trkpt>
      <trkpt lat="44.14627" lon="2.81992">
        <ele>942</ele>
        <time>2024-04-01T11:15:02Z</time>
      </trkpt>
      <trkpt lat="44.1465" lon="2.81926">
        <ele>943</ele>
        <time>2024-04-01T11:15:12Z</time>
      </trkpt>
      <trkpt lat="44.14666" lon="2.81888">
        <ele>944</ele>
        <time>2024-04-01T11:15:17Z</time>
      </trkpt>
      <trkpt lat="44.14691" lon="2.81852">
        <ele>944</ele>
        <time>2024-04-01T11:15:24Z</time>
      </trkpt>
      <trkpt lat="44.14717" lon="2.81824">
        <ele>945</ele>
        <time>2024-04-01T11:15:29Z</time>
      </trkpt>
      <trkpt lat="44.14837" lon="2.81554">
        <ele>957</ele>
        <time>2024-04-01T11:16:10Z</time>
      </trkpt>
      <trkpt lat="44.14836" lon="2.81524">
        <ele>958</ele>
        <time>2024-04-01T11:16:14Z</time>
      </trkpt>
      <trkpt lat="44.14826" lon="2.81494">
        <ele>959</ele>
        <time>2024-04-01T11:16:18Z</time>
      </trkpt>
      <trkpt lat="44.14764" lon="2.81356">
        <ele>959</ele>
        <time>2024-04-01T11:16:39Z</time>
      </trkpt>
      <trkpt lat="44.14761" lon="2.81317">
        <ele>959</ele>
        <time>2024-04-01T11:16:44Z</time>
      </trkpt>
      <trkpt lat="44.14767" lon="2.81267">
        <ele>959</ele>
        <time>2024-04-01T11:16:50Z</time>
      </trkpt>
      <trkpt lat="44.14777" lon="2.81227">
        <ele>958</ele>
        <time>2024-04-01T11:16:56Z</time>
      </trkpt>
      <trkpt lat="44.14793" lon="2.81199">
        <ele>958</ele>
        <time>2024-04-01T11:17:00Z</time>
      </trkpt>
      <trkpt lat="44.14841" lon="2.8117">
        <ele>960</ele>
        <time>2024-04-01T11:17:10Z</time>
      </trkpt>
      <trkpt lat="44.14869" lon="2.81163">
        <ele>961</ele>
        <time>2024-04-01T11:17:15Z</time>
      </trkpt>
      <trkpt lat="44.14891" lon="2.81168">
        <ele>962</ele>
        <time>2024-04-01T11:17:19Z</time>
      </trkpt>
      <trkpt lat="44.14956" lon="2.81125">
        <ele>961</ele>
        <time>2024-04-01T11:17:31Z</time>
      </trkpt>
      <trkpt lat="44.14996" lon="2.81107">
        <ele>960</ele>
        <time>2024-04-01T11:17:39Z</time>
      </trkpt>
      <trkpt lat="44.15033" lon="2.8107">
        <ele>960</ele>
        <time>2024-04-01T11:17:47Z</time>
      </trkpt>
      <trkpt lat="44.15075" lon="2.81025">
        <ele>962</ele>
        <time>2024-04-01T11:17:56Z</time>
      </trkpt>
      <trkpt lat="44.15089" lon="2.81007">
        <ele>964</ele>
        <time>2024-04-01T11:18:00Z</time>
      </trkpt>
      <trkpt lat="44.15107" lon="2.80993">
        <ele>967</ele>
        <time>2024-04-01T11:18:03Z</time>
      </trkpt>
      <trkpt lat="44.1513" lon="2.80982">
        <ele>970</ele>
        <time>2024-04-01T11:18:08Z</time>
      </trkpt>
      <trkpt lat="44.15139" lon="2.80981">
        <ele>971</ele>
        <time>2024-04-01T11:18:09Z</time>
      </trkpt>
      <trkpt lat="44.15168" lon="2.80987">
        <ele>974</ele>
        <time>2024-04-01T11:18:15Z</time>
      </trkpt>
      <trkpt lat="44.15196" lon="2.81">
        <ele>974</ele>
        <time>2024-04-01T11:18:20Z</time>
      </trkpt>
      <trkpt lat="44.15206" lon="2.81002">
        <ele>974</ele>
        <time>2024-04-01T11:18:22Z</time>
      </trkpt>
      <trkpt lat="44.15225" lon="2.81">
        <ele>975</ele>
        <time>2024-04-01T11:18:25Z</time>
      </trkpt>
      <trkpt lat="44.15234" lon="2.81001">
        <ele>975</ele>
        <time>2024-04-01T11:18:27Z</time>
      </trkpt>
      <trkpt lat="44.15253" lon="2.80976">
        <ele>977</ele>
        <time>2024-04-01T11:18:31Z</time>
      </trkpt>
      <trkpt lat="44.1527" lon="2.8096">
        <ele>978</ele>
        <time>2024-04-01T11:18:35Z</time>
      </trkpt>
      <trkpt lat="44.15472" lon="2.80829">
        <ele>980</ele>
        <time>2024-04-01T11:19:15Z</time>
      </trkpt>
      <trkpt lat="44.15489" lon="2.80811">
        <ele>981</ele>
        <time>2024-04-01T11:19:18Z</time>
      </trkpt>
      <trkpt lat="44.155" lon="2.80791">
        <ele>982</ele>
        <time>2024-04-01T11:19:22Z</time>
      </trkpt>
      <trkpt lat="44.15508" lon="2.80773">
        <ele>982</ele>
        <time>2024-04-01T11:19:24Z</time>
      </trkpt>
      <trkpt lat="44.15526" lon="2.80721">
        <ele>983</ele>
        <time>2024-04-01T11:19:32Z</time>
      </trkpt>
      <trkpt lat="44.15538" lon="2.80674">
        <ele>983</ele>
        <time>2024-04-01T11:19:38Z</time>
      </trkpt>
      <trkpt lat="44.15545" lon="2.80633">
        <ele>984</ele>
        <time>2024-04-01T11:19:43Z</time>
      </trkpt>
      <trkpt lat="44.1555" lon="2.80501">
        <ele>989</ele>
        <time>2024-04-01T11:20:00Z</time>
      </trkpt>
      <trkpt lat="44.15557" lon="2.80453">
        <ele>988</ele>
        <time>2024-04-01T11:20:07Z</time>
      </trkpt>
      <trkpt lat="44.15566" lon="2.80422">
        <ele>988</ele>
        <time>2024-04-01T11:20:11Z</time>
      </trkpt>
      <trkpt lat="44.15576" lon="2.80408">
        <ele>987</ele>
        <time>2024-04-01T11:20:13Z</time>
      </trkpt>
      <trkpt lat="44.15588" lon="2.80399">
        <ele>987</ele>
        <time>2024-04-01T11:20:16Z</time>
      </trkpt>
      <trkpt lat="44.15604" lon="2.80393">
        <ele>988</ele>
        <time>2024-04-01T11:20:19Z</time>
      </trkpt>
      <trkpt lat="44.15615" lon="2.80394">
        <ele>988</ele>
        <time>2024-04-01T11:20:21Z</time>
      </trkpt>
      <trkpt lat="44.15626" lon="2.804">
        <ele>989</ele>
        <time>2024-04-01T11:20:23Z</time>
      </trkpt>
      <trkpt lat="44.15643" lon="2.80417">
        <ele>989</ele>
        <time>2024-04-01T11:20:27Z</time>
      </trkpt>
      <trkpt lat="44.15679" lon="2.80487">
        <ele>990</ele>
        <time>2024-04-01T11:20:38Z</time>
      </trkpt>
      <trkpt lat="44.15691" lon="2.80502">
        <ele>990</ele>
        <time>2024-04-01T11:20:40Z</time>
      </trkpt>
      <trkpt lat="44.15703" lon="2.80506">
        <ele>990</ele>
        <time>2024-04-01T11:20:43Z</time>
      </trkpt>
      <trkpt lat="44.15717" lon="2.80506">
        <ele>990</ele>
        <time>2024-04-01T11:20:45Z</time>
      </trkpt>
      <trkpt lat="44.15741" lon="2.80493">
        <ele>991</ele>
        <time>2024-04-01T11:20:50Z</time>
      </trkpt>
      <trkpt lat="44.15762" lon="2.80476">
        <ele>992</ele>
        <time>2024-04-01T11:20:54Z</time>
      </trkpt>
      <trkpt lat="44.15776" lon="2.8046">
        <ele>993</ele>
        <time>2024-04-01T11:20:57Z</time>
      </trkpt>
      <trkpt lat="44.15973" lon="2.8019">
        <ele>998</ele>
        <time>2024-04-01T11:21:46Z</time>
      </trkpt>
      <trkpt lat="44.15966" lon="2.80177">
        <ele>999</ele>
        <time>2024-04-01T11:21:48Z</time>
      </trkpt>
      <trkpt lat="44.15934" lon="2.8013">
        <ele>1000</ele>
        <time>2024-04-01T11:21:57Z</time>
      </trkpt>
      <trkpt lat="44.15923" lon="2.80106">
        <ele>1001</ele>
        <time>2024-04-01T11:22:00Z</time>
      </trkpt>
      <trkpt lat="44.15912" lon="2.80063">
        <ele>1001</ele>
        <time>2024-04-01T11:22:06Z</time>
      </trkpt>
      <trkpt lat="44.159" lon="2.80035">
        <ele>1002</ele>
        <time>2024-04-01T11:22:10Z</time>
      </trkpt>
      <trkpt lat="44.15885" lon="2.80013">
        <ele>1002</ele>
        <time>2024-04-01T11:22:14Z</time>
      </trkpt>
      <trkpt lat="44.15842" lon="2.79958">
        <ele>1003</ele>
        <time>2024-04-01T11:22:25Z</time>
      </trkpt>
      <trkpt lat="44.15829" lon="2.79931">
        <ele>1004</ele>
        <time>2024-04-01T11:22:29Z</time>
      </trkpt>
      <trkpt lat="44.15822" lon="2.79898">
        <ele>1005</ele>
        <time>2024-04-01T11:22:33Z</time>
      </trkpt>
      <trkpt lat="44.15806" lon="2.79849">
        <ele>1006</ele>
        <time>2024-04-01T11:22:40Z</time>
      </trkpt>
      <trkpt lat="44.15784" lon="2.79742">
        <ele>1007</ele>
        <time>2024-04-01T11:22:54Z</time>
      </trkpt>
      <trkpt lat="44.15776" lon="2.79713">
        <ele>1008</ele>
        <time>2024-04-01T11:22:58Z</time>
      </trkpt>
      <trkpt lat="44.15746" lon="2.7963">
        <ele>1008</ele>
        <time>2024-04-01T11:23:10Z</time>
      </trkpt>
      <trkpt lat="44.1574" lon="2.79607">
        <ele>1008</ele>
        <time>2024-04-01T11:23:13Z</time>
      </trkpt>
      <trkpt lat="44.15738" lon="2.79586">
        <ele>1009</ele>
        <time>2024-04-01T11:23:16Z</time>
      </trkpt>
      <trkpt lat="44.15727" lon="2.79453">
        <ele>1005</ele>
        <time>2024-04-01T11:23:33Z</time>
      </trkpt>
      <trkpt lat="44.15724" lon="2.79387">
        <ele>1003</ele>
        <time>2024-04-01T11:23:41Z</time>
      </trkpt>
      <trkpt lat="44.1572" lon="2.79366">
        <ele>1003</ele>
        <time>2024-04-01T11:23:44Z</time>
      </trkpt>
      <trkpt lat="44.15713" lon="2.79349">
        <ele>1002</ele>
        <time>2024-04-01T11:23:47Z</time>
      </trkpt>
      <trkpt lat="44.15679" lon="2.79292">
        <ele>998</ele>
        <time>2024-04-01T11:23:56Z</time>
      </trkpt>
      <trkpt lat="44.15664" lon="2.79253">
        <ele>998</ele>
        <time>2024-04-01T11:24:02Z</time>
      </trkpt>
      <trkpt lat="44.15654" lon="2.79218">
        <ele>996</ele>
        <time>2024-04-01T11:24:07Z</time>
      </trkpt>
      <trkpt lat="44.15641" lon="2.79158">
        <ele>994</ele>
        <time>2024-04-01T11:24:15Z</time>
      </trkpt>
      <trkpt lat="44.15633" lon="2.79096">
        <ele>991</ele>
        <time>2024-04-01T11:24:23Z</time>
      </trkpt>
      <trkpt lat="44.15635" lon="2.79068">
        <ele>992</ele>
        <time>2024-04-01T11:24:26Z</time>
      </trkpt>
      <trkpt lat="44.15635" lon="2.79044">
        <ele>992</ele>
        <time>2024-04-01T11:24:29Z</time>
      </trkpt>
      <trkpt lat="44.1563" lon="2.79008">
        <ele>991</ele>
        <time>2024-04-01T11:24:34Z</time>
      </trkpt>
      <trkpt lat="44.15597" lon="2.7893">
        <ele>990</ele>
        <time>2024-04-01T11:24:46Z</time>
      </trkpt>
      <trkpt lat="44.15523" lon="2.78797">
        <ele>986</ele>
        <time>2024-04-01T11:25:07Z</time>
      </trkpt>
      <trkpt lat="44.15486" lon="2.7871">
        <ele>985</ele>
        <time>2024-04-01T11:25:20Z</time>
      </trkpt>
      <trkpt lat="44.1544" lon="2.78641">
        <ele>982</ele>
        <time>2024-04-01T11:25:32Z</time>
      </trkpt>
      <trkpt lat="44.15396" lon="2.78573">
        <ele>981</ele>
        <time>2024-04-01T11:25:44Z</time>
      </trkpt>
      <trkpt lat="44.15463" lon="2.78564">
        <ele>982</ele>
        <time>2024-04-01T11:25:56Z</time>
      </trkpt>
      <trkpt lat="44.15539" lon="2.78551">
        <ele>981</ele>
        <time>2024-04-01T11:26:09Z</time>
      </trkpt>
      <trkpt lat="44.15557" lon="2.78544">
        <ele>981</ele>
        <time>2024-04-01T11:26:13Z</time>
      </trkpt>
      <trkpt lat="44.15573" lon="2.78529">
        <ele>980</ele>
        <time>2024-04-01T11:26:16Z</time>
      </trkpt>
      <trkpt lat="44.15636" lon="2.78462">
        <ele>976</ele>
        <time>2024-04-01T11:26:30Z</time>
      </trkpt>
      <trkpt lat="44.15657" lon="2.78443">
        <ele>975</ele>
        <time>2024-04-01T11:26:35Z</time>
      </trkpt>
      <trkpt lat="44.15676" lon="2.78431">
        <ele>975</ele>
        <time>2024-04-01T11:26:38Z</time>
      </trkpt>
      <trkpt lat="44.1571" lon="2.78415">
        <ele>973</ele>
        <time>2024-04-01T11:26:45Z</time>
      </trkpt>
      <trkpt lat="44.15818" lon="2.78377">
        <ele>964</ele>
        <time>2024-04-01T11:27:04Z</time>
      </trkpt>
      <trkpt lat="44.15845" lon="2.78362">
        <ele>962</ele>
        <time>2024-04-01T11:27:10Z</time>
      </trkpt>
      <trkpt lat="44.15866" lon="2.78343">
        <ele>960</ele>
        <time>2024-04-01T11:27:14Z</time>
      </trkpt>
      <trkpt lat="44.15882" lon="2.78323">
        <ele>959</ele>
        <time>2024-04-01T11:27:18Z</time>
      </trkpt>
      <trkpt lat="44.15804" lon="2.7826">
        <ele>955</ele>
        <time>2024-04-01T11:27:34Z</time>
      </trkpt>
      <trkpt lat="44.15791" lon="2.78248">
        <ele>954</ele>
        <time>2024-04-01T11:27:37Z</time>
      </trkpt>
      <trkpt lat="44.15774" lon="2.78223">
        <ele>953</ele>
        <time>2024-04-01T11:27:41Z</time>
      </trkpt>
      <trkpt lat="44.15764" lon="2.78198">
        <ele>953</ele>
        <time>2024-04-01T11:27:45Z</time>
      </trkpt>
      <trkpt lat="44.15759" lon="2.78176">
        <ele>953</ele>
        <time>2024-04-01T11:27:48Z</time>
      </trkpt>
      <trkpt lat="44.15758" lon="2.78139">
        <ele>953</ele>
        <time>2024-04-01T11:27:52Z</time>
      </trkpt>
      <trkpt lat="44.15765" lon="2.78041">
        <ele>954</ele>
        <time>2024-04-01T11:28:05Z</time>
      </trkpt>
      <trkpt lat="44.15767" lon="2.77981">
        <ele>954</ele>
        <time>2024-04-01T11:28:13Z</time>
      </trkpt>
      <trkpt lat="44.15762" lon="2.77946">
        <ele>954</ele>
        <time>2024-04-01T11:28:17Z</time>
      </trkpt>
      <trkpt lat="44.15752" lon="2.77907">
        <ele>954</ele>
        <time>2024-04-01T11:28:23Z</time>
      </trkpt>
      <trkpt lat="44.1573" lon="2.7786">
        <ele>956</ele>
        <time>2024-04-01T11:28:30Z</time>
      </trkpt>
      <trkpt lat="44.15701" lon="2.77821">
        <ele>957</ele>
        <time>2024-04-01T11:28:37Z</time>
      </trkpt>
      <trkpt lat="44.15627" lon="2.77732">
        <ele>952</ele>
        <time>2024-04-01T11:28:54Z</time>
      </trkpt>
      <trkpt lat="44.15569" lon="2.77665">
        <ele>951</ele>
        <time>2024-04-01T11:29:08Z</time>
      </trkpt>
      <trkpt lat="44.15536" lon="2.77642">
        <ele>953</ele>
        <time>2024-04-01T11:29:14Z</time>
      </trkpt>
      <trkpt lat="44.15501" lon="2.77621">
        <ele>954</ele>
        <time>2024-04-01T11:29:21Z</time>
      </trkpt>
      <trkpt lat="44.15454" lon="2.77597">
        <ele>952</ele>
        <time>2024-04-01T11:29:30Z</time>
      </trkpt>
      <trkpt lat="44.1539" lon="2.77589">
        <ele>952</ele>
        <time>2024-04-01T11:29:41Z</time>
      </trkpt>
      <trkpt lat="44.15364" lon="2.77578">
        <ele>953</ele>
        <time>2024-04-01T11:29:46Z</time>
      </trkpt>
      <trkpt lat="44.15339" lon="2.77557">
        <ele>952</ele>
        <time>2024-04-01T11:29:51Z</time>
      </trkpt>
      <trkpt lat="44.15315" lon="2.77528">
        <ele>952</ele>
        <time>2024-04-01T11:29:57Z</time>
      </trkpt>
      <trkpt lat="44.15296" lon="2.77509">
        <ele>953</ele>
        <time>2024-04-01T11:30:01Z</time>
      </trkpt>
      <trkpt lat="44.1525" lon="2.77484">
        <ele>957</ele>
        <time>2024-04-01T11:30:10Z</time>
      </trkpt>
      <trkpt lat="44.15234" lon="2.77469">
        <ele>958</ele>
        <time>2024-04-01T11:30:13Z</time>
      </trkpt>
      <trkpt lat="44.15226" lon="2.77451">
        <ele>958</ele>
        <time>2024-04-01T11:30:16Z</time>
      </trkpt>
      <trkpt lat="44.15224" lon="2.77426">
        <ele>958</ele>
        <time>2024-04-01T11:30:19Z</time>
      </trkpt>
      <trkpt lat="44.1523" lon="2.77354">
        <ele>956</ele>
        <time>2024-04-01T11:30:29Z</time>
      </trkpt>
      <trkpt lat="44.15227" lon="2.77326">
        <ele>956</ele>
        <time>2024-04-01T11:30:32Z</time>
      </trkpt>
      <trkpt lat="44.15216" lon="2.77294">
        <ele>956</ele>
        <time>2024-04-01T11:30:37Z</time>
      </trkpt>
      <trkpt lat="44.15195" lon="2.77253">
        <ele>957</ele>
        <time>2024-04-01T11:30:43Z</time>
      </trkpt>
      <trkpt lat="44.15174" lon="2.77222">
        <ele>957</ele>
        <time>2024-04-01T11:30:49Z</time>
      </trkpt>
      <trkpt lat="44.15152" lon="2.77198">
        <ele>957</ele>
        <time>2024-04-01T11:30:54Z</time>
      </trkpt>
      <trkpt lat="44.15099" lon="2.77151">
        <ele>959</ele>
        <time>2024-04-01T11:31:05Z</time>
      </trkpt>
      <trkpt lat="44.15079" lon="2.77126">
        <ele>959</ele>
        <time>2024-04-01T11:31:10Z</time>
      </trkpt>
      <trkpt lat="44.15065" lon="2.77103">
        <ele>958</ele>
        <time>2024-04-01T11:31:13Z</time>
      </trkpt>
      <trkpt lat="44.14887" lon="2.76761">
        <ele>963</ele>
        <time>2024-04-01T11:32:07Z</time>
      </trkpt>
      <trkpt lat="44.14862" lon="2.76719">
        <ele>964</ele>
        <time>2024-04-01T11:32:14Z</time>
      </trkpt>
      <trkpt lat="44.14815" lon="2.76667">
        <ele>965</ele>
        <time>2024-04-01T11:32:25Z</time>
      </trkpt>
      <trkpt lat="44.14748" lon="2.76603">
        <ele>966</ele>
        <time>2024-04-01T11:32:39Z</time>
      </trkpt>
      <trkpt lat="44.14508" lon="2.76366">
        <ele>970</ele>
        <time>2024-04-01T11:33:32Z</time>
      </trkpt>
      <trkpt lat="44.14466" lon="2.76339">
        <ele>970</ele>
        <time>2024-04-01T11:33:40Z</time>
      </trkpt>
      <trkpt lat="44.1436" lon="2.76315">
        <ele>972</ele>
        <time>2024-04-01T11:33:59Z</time>
      </trkpt>
      <trkpt lat="44.14168" lon="2.76209">
        <ele>978</ele>
        <time>2024-04-01T11:34:36Z</time>
      </trkpt>
      <trkpt lat="44.13868" lon="2.76057">
        <ele>975</ele>
        <time>2024-04-01T11:35:33Z</time>
      </trkpt>
      <trkpt lat="44.13846" lon="2.76051">
        <ele>974</ele>
        <time>2024-04-01T11:35:37Z</time>
      </trkpt>
      <trkpt lat="44.13823" lon="2.76057">
        <ele>974</ele>
        <time>2024-04-01T11:35:41Z</time>
      </trkpt>
      <trkpt lat="44.13744" lon="2.76146">
        <ele>966</ele>
        <time>2024-04-01T11:35:59Z</time>
      </trkpt>
      <trkpt lat="44.13721" lon="2.76163">
        <ele>963</ele>
        <time>2024-04-01T11:36:03Z</time>
      </trkpt>
      <trkpt lat="44.13701" lon="2.76163">
        <ele>962</ele>
        <time>2024-04-01T11:36:07Z</time>
      </trkpt>
      <trkpt lat="44.1367" lon="2.76148">
        <ele>962</ele>
        <time>2024-04-01T11:36:13Z</time>
      </trkpt>
      <trkpt lat="44.13637" lon="2.76116">
        <ele>964</ele>
        <time>2024-04-01T11:36:20Z</time>
      </trkpt>
      <trkpt lat="44.13607" lon="2.76092">
        <ele>965</ele>
        <time>2024-04-01T11:36:26Z</time>
      </trkpt>
      <trkpt lat="44.13546" lon="2.76069">
        <ele>965</ele>
        <time>2024-04-01T11:36:37Z</time>
      </trkpt>
      <trkpt lat="44.13493" lon="2.76034">
        <ele>967</ele>
        <time>2024-04-01T11:36:48Z</time>
      </trkpt>
      <trkpt lat="44.13464" lon="2.76025">
        <ele>965</ele>
        <time>2024-04-01T11:36:53Z</time>
      </trkpt>
      <trkpt lat="44.13279" lon="2.76036">
        <ele>952</ele>
        <time>2024-04-01T11:37:26Z</time>
      </trkpt>
      <trkpt lat="44.13228" lon="2.76043">
        <ele>951</ele>
        <time>2024-04-01T11:37:35Z</time>
      </trkpt>
      <trkpt lat="44.13191" lon="2.76058">
        <ele>950</ele>
        <time>2024-04-01T11:37:42Z</time>
      </trkpt>
      <trkpt lat="44.12975" lon="2.76264">
        <ele>941</ele>
        <time>2024-04-01T11:38:29Z</time>
      </trkpt>
      <trkpt lat="44.12919" lon="2.76313">
        <ele>938</ele>
        <time>2024-04-01T11:38:40Z</time>
      </trkpt>
      <trkpt lat="44.12854" lon="2.76358">
        <ele>935</ele>
        <time>2024-04-01T11:38:53Z</time>
      </trkpt>
      <trkpt lat="44.12792" lon="2.76393">
        <ele>932</ele>
        <time>2024-04-01T11:39:05Z</time>
      </trkpt>
      <trkpt lat="44.12756" lon="2.76401">
        <ele>932</ele>
        <time>2024-04-01T11:39:12Z</time>
      </trkpt>
      <trkpt lat="44.12722" lon="2.76399">
        <ele>932</ele>
        <time>2024-04-01T11:39:18Z</time>
      </trkpt>
      <trkpt lat="44.1269" lon="2.76402">
        <ele>932</ele>
        <time>2024-04-01T11:39:23Z</time>
      </trkpt>
      <trkpt lat="44.12682" lon="2.76406">
        <ele>931</ele>
        <time>2024-04-01T11:39:25Z</time>
      </trkpt>
      <trkpt lat="44.12672" lon="2.76415">
        <ele>929</ele>
        <time>2024-04-01T11:39:27Z</time>
      </trkpt>
      <trkpt lat="44.12655" lon="2.76435">
        <ele>925</ele>
        <time>2024-04-01T11:39:31Z</time>
      </trkpt>
      <trkpt lat="44.12647" lon="2.76442">
        <ele>924</ele>
        <time>2024-04-01T11:39:33Z</time>
      </trkpt>
      <trkpt lat="44.12643" lon="2.76444">
        <ele>923</ele>
        <time>2024-04-01T11:39:34Z</time>
      </trkpt>
      <trkpt lat="44.12622" lon="2.76432">
        <ele>923</ele>
        <time>2024-04-01T11:39:38Z</time>
      </trkpt>
      <trkpt lat="44.12612" lon="2.76422">
        <ele>923</ele>
        <time>2024-04-01T11:39:40Z</time>
      </trkpt>
      <trkpt lat="44.12569" lon="2.76372">
        <ele>927</ele>
        <time>2024-04-01T11:39:50Z</time>
      </trkpt>
      <trkpt lat="44.12546" lon="2.76354">
        <ele>930</ele>
        <time>2024-04-01T11:39:54Z</time>
      </trkpt>
      <trkpt lat="44.12531" lon="2.76351">
        <ele>930</ele>
        <time>2024-04-01T11:39:57Z</time>
      </trkpt>
      <trkpt lat="44.12461" lon="2.76368">
        <ele>926</ele>
        <time>2024-04-01T11:40:10Z</time>
      </trkpt>
      <trkpt lat="44.12436" lon="2.76369">
        <ele>927</ele>
        <time>2024-04-01T11:40:14Z</time>
      </trkpt>
      <trkpt lat="44.12355" lon="2.76365">
        <ele>926</ele>
        <time>2024-04-01T11:40:29Z</time>
      </trkpt>
      <trkpt lat="44.12323" lon="2.76359">
        <ele>925</ele>
        <time>2024-04-01T11:40:34Z</time>
      </trkpt>
      <trkpt lat="44.12285" lon="2.76346">
        <ele>923</ele>
        <time>2024-04-01T11:40:41Z</time>
      </trkpt>
      <trkpt lat="44.12262" lon="2.76335">
        <ele>923</ele>
        <time>2024-04-01T11:40:46Z</time>
      </trkpt>
      <trkpt lat="44.12228" lon="2.76312">
        <ele>921</ele>
        <time>2024-04-01T11:40:52Z</time>
      </trkpt>
      <trkpt lat="44.12164" lon="2.76255">
        <ele>919</ele>
        <time>2024-04-01T11:41:06Z</time>
      </trkpt>
      <trkpt lat="44.12131" lon="2.76214">
        <ele>915</ele>
        <time>2024-04-01T11:41:14Z</time>
      </trkpt>
      <trkpt lat="44.12103" lon="2.76129">
        <ele>913</ele>
        <time>2024-04-01T11:41:26Z</time>
      </trkpt>
      <trkpt lat="44.12083" lon="2.7609">
        <ele>912</ele>
        <time>2024-04-01T11:41:32Z</time>
      </trkpt>
      <trkpt lat="44.12063" lon="2.76067">
        <ele>911</ele>
        <time>2024-04-01T11:41:36Z</time>
      </trkpt>
      <trkpt lat="44.1201" lon="2.76015">
        <ele>906</ele>
        <time>2024-04-01T11:41:48Z</time>
      </trkpt>
      <trkpt lat="44.11987" lon="2.75962">
        <ele>904</ele>
        <time>2024-04-01T11:41:56Z</time>
      </trkpt>
      <trkpt lat="44.11973" lon="2.75902">
        <ele>905</ele>
        <time>2024-04-01T11:42:04Z</time>
      </trkpt>
      <trkpt lat="44.11959" lon="2.75864">
        <ele>906</ele>
        <time>2024-04-01T11:42:09Z</time>
      </trkpt>
      <trkpt lat="44.11905" lon="2.75795">
        <ele>900</ele>
        <time>2024-04-01T11:42:22Z</time>
      </trkpt>
      <trkpt lat="44.11891" lon="2.75765">
        <ele>900</ele>
        <time>2024-04-01T11:42:27Z</time>
      </trkpt>
      <trkpt lat="44.11875" lon="2.75715">
        <ele>900</ele>
        <time>2024-04-01T11:42:34Z</time>
      </trkpt>
      <trkpt lat="44.11862" lon="2.75664">
        <ele>900</ele>
        <time>2024-04-01T11:42:41Z</time>
      </trkpt>
      <trkpt lat="44.11858" lon="2.75602">
        <ele>898</ele>
        <time>2024-04-01T11:42:49Z</time>
      </trkpt>
      <trkpt lat="44.1187" lon="2.75542">
        <ele>894</ele>
        <time>2024-04-01T11:42:57Z</time>
      </trkpt>
      <trkpt lat="44.11905" lon="2.75462">
        <ele>886</ele>
        <time>2024-04-01T11:43:09Z</time>
      </trkpt>
      <trkpt lat="44.11968" lon="2.75332">
        <ele>879</ele>
        <time>2024-04-01T11:43:29Z</time>
      </trkpt>
      <trkpt lat="44.11984" lon="2.75296">
        <ele>881</ele>
        <time>2024-04-01T11:43:34Z</time>
      </trkpt>
      <trkpt lat="44.11988" lon="2.75271">
        <ele>883</ele>
        <time>2024-04-01T11:43:37Z</time>
      </trkpt>
      <trkpt lat="44.1199" lon="2.75245">
        <ele>884</ele>
        <time>2024-04-01T11:43:41Z</time>
      </trkpt>
      <trkpt lat="44.11986" lon="2.75218">
        <ele>886</ele>
        <time>2024-04-01T11:43:44Z</time>
      </trkpt>
      <trkpt lat="44.11952" lon="2.75144">
        <ele>884</ele>
        <time>2024-04-01T11:43:56Z</time>
      </trkpt>
      <trkpt lat="44.11946" lon="2.75117">
        <ele>883</ele>
        <time>2024-04-01T11:43:59Z</time>
      </trkpt>
      <trkpt lat="44.11945" lon="2.75091">
        <ele>884</ele>
        <time>2024-04-01T11:44:03Z</time>
      </trkpt>
      <trkpt lat="44.11956" lon="2.74996">
        <ele>884</ele>
        <time>2024-04-01T11:44:15Z</time>
      </trkpt>
      <trkpt lat="44.11953" lon="2.74974">
        <ele>884</ele>
        <time>2024-04-01T11:44:18Z</time>
      </trkpt>
      <trkpt lat="44.11948" lon="2.7495">
        <ele>885</ele>
        <time>2024-04-01T11:44:21Z</time>
      </trkpt>
      <trkpt lat="44.1194" lon="2.74935">
        <ele>885</ele>
        <time>2024-04-01T11:44:23Z</time>
      </trkpt>
      <trkpt lat="44.11927" lon="2.74922">
        <ele>885</ele>
        <time>2024-04-01T11:44:26Z</time>
      </trkpt>
      <trkpt lat="44.11841" lon="2.74861">
        <ele>883</ele>
        <time>2024-04-01T11:44:43Z</time>
      </trkpt>
      <trkpt lat="44.11817" lon="2.74832">
        <ele>884</ele>
        <time>2024-04-01T11:44:49Z</time>
      </trkpt>
      <trkpt lat="44.11802" lon="2.74803">
        <ele>883</ele>
        <time>2024-04-01T11:44:53Z</time>
      </trkpt>
      <trkpt lat="44.11793" lon="2.7474">
        <ele>884</ele>
        <time>2024-04-01T11:45:02Z</time>
      </trkpt>
      <trkpt lat="44.11755" lon="2.74539">
        <ele>881</ele>
        <time>2024-04-01T11:45:28Z</time>
      </trkpt>
      <trkpt lat="44.11713" lon="2.7445">
        <ele>878</ele>
        <time>2024-04-01T11:45:42Z</time>
      </trkpt>
      <trkpt lat="44.11691" lon="2.74395">
        <ele>876</ele>
        <time>2024-04-01T11:45:50Z</time>
      </trkpt>
      <trkpt lat="44.11664" lon="2.74294">
        <ele>873</ele>
        <time>2024-04-01T11:46:04Z</time>
      </trkpt>
      <trkpt lat="44.11635" lon="2.74165">
        <ele>872</ele>
        <time>2024-04-01T11:46:21Z</time>
      </trkpt>
      <trkpt lat="44.11553" lon="2.73826">
        <ele>878</ele>
        <time>2024-04-01T11:47:07Z</time>
      </trkpt>
      <trkpt lat="44.11522" lon="2.73721">
        <ele>879</ele>
        <time>2024-04-01T11:47:21Z</time>
      </trkpt>
      <trkpt lat="44.11505" lon="2.73684">
        <ele>879</ele>
        <time>2024-04-01T11:47:27Z</time>
      </trkpt>
      <trkpt lat="44.11493" lon="2.73664">
        <ele>879</ele>
        <time>2024-04-01T11:47:30Z</time>
      </trkpt>
      <trkpt lat="44.11446" lon="2.73611">
        <ele>880</ele>
        <time>2024-04-01T11:47:41Z</time>
      </trkpt>
      <trkpt lat="44.11423" lon="2.73573">
        <ele>877</ele>
        <time>2024-04-01T11:47:47Z</time>
      </trkpt>
      <trkpt lat="44.11413" lon="2.73534">
        <ele>875</ele>
        <time>2024-04-01T11:47:52Z</time>
      </trkpt>
      <trkpt lat="44.11404" lon="2.73373">
        <ele>871</ele>
        <time>2024-04-01T11:48:13Z</time>
      </trkpt>
      <trkpt lat="44.11399" lon="2.73343">
        <ele>869</ele>
        <time>2024-04-01T11:48:17Z</time>
      </trkpt>
      <trkpt lat="44.11394" lon="2.73323">
        <ele>868</ele>
        <time>2024-04-01T11:48:20Z</time>
      </trkpt>
      <trkpt lat="44.11385" lon="2.73301">
        <ele>868</ele>
        <time>2024-04-01T11:48:23Z</time>
      </trkpt>
      <trkpt lat="44.11358" lon="2.73262">
        <ele>865</ele>
        <time>2024-04-01T11:48:30Z</time>
      </trkpt>
      <trkpt lat="44.11335" lon="2.73245">
        <ele>864</ele>
        <time>2024-04-01T11:48:35Z</time>
      </trkpt>
      <trkpt lat="44.11259" lon="2.73209">
        <ele>859</ele>
        <time>2024-04-01T11:48:49Z</time>
      </trkpt>
      <trkpt lat="44.11237" lon="2.73196">
        <ele>857</ele>
        <time>2024-04-01T11:48:53Z</time>
      </trkpt>
      <trkpt lat="44.11216" lon="2.73174">
        <ele>856</ele>
        <time>2024-04-01T11:48:58Z</time>
      </trkpt>
      <trkpt lat="44.11202" lon="2.7315">
        <ele>854</ele>
        <time>2024-04-01T11:49:02Z</time>
      </trkpt>
      <trkpt lat="44.11186" lon="2.7311">
        <ele>852</ele>
        <time>2024-04-01T11:49:08Z</time>
      </trkpt>
      <trkpt lat="44.11069" lon="2.72737">
        <ele>838</ele>
        <time>2024-04-01T11:50:00Z</time>
      </trkpt>
      <trkpt lat="44.11054" lon="2.72672">
        <ele>837</ele>
        <time>2024-04-01T11:50:08Z</time>
      </trkpt>
      <trkpt lat="44.11052" lon="2.7259">
        <ele>834</ele>
        <time>2024-04-01T11:50:19Z</time>
      </trkpt>
      <trkpt lat="44.11055" lon="2.72535">
        <ele>832</ele>
        <time>2024-04-01T11:50:26Z</time>
      </trkpt>
      <trkpt lat="44.11052" lon="2.7249">
        <ele>831</ele>
        <time>2024-04-01T11:50:32Z</time>
      </trkpt>
      <trkpt lat="44.11043" lon="2.72455">
        <ele>829</ele>
        <time>2024-04-01T11:50:36Z</time>
      </trkpt>
      <trkpt lat="44.11025" lon="2.72421">
        <ele>827</ele>
        <time>2024-04-01T11:50:42Z</time>
      </trkpt>
      <trkpt lat="44.11008" lon="2.724">
        <ele>826</ele>
        <time>2024-04-01T11:50:46Z</time>
      </trkpt>
      <trkpt lat="44.10981" lon="2.72383">
        <ele>824</ele>
        <time>2024-04-01T11:50:51Z</time>
      </trkpt>
      <trkpt lat="44.10947" lon="2.72373">
        <ele>820</ele>
        <time>2024-04-01T11:50:57Z</time>
      </trkpt>
      <trkpt lat="44.10863" lon="2.72373">
        <ele>813</ele>
        <time>2024-04-01T11:51:12Z</time>
      </trkpt>
      <trkpt lat="44.10819" lon="2.72367">
        <ele>809</ele>
        <time>2024-04-01T11:51:20Z</time>
      </trkpt>
      <trkpt lat="44.10757" lon="2.72351">
        <ele>806</ele>
        <time>2024-04-01T11:51:31Z</time>
      </trkpt>
      <trkpt lat="44.1068" lon="2.72318">
        <ele>804</ele>
        <time>2024-04-01T11:51:46Z</time>
      </trkpt>
      <trkpt lat="44.10628" lon="2.72299">
        <ele>802</ele>
        <time>2024-04-01T11:51:55Z</time>
      </trkpt>
      <trkpt lat="44.10556" lon="2.72282">
        <ele>801</ele>
        <time>2024-04-01T11:52:08Z</time>
      </trkpt>
      <trkpt lat="44.10481" lon="2.72268">
        <ele>801</ele>
        <time>2024-04-01T11:52:22Z</time>
      </trkpt>
      <trkpt lat="44.1035" lon="2.72263">
        <ele>799</ele>
        <time>2024-04-01T11:52:45Z</time>
      </trkpt>
      <trkpt lat="44.10215" lon="2.72261">
        <ele>795</ele>
        <time>2024-04-01T11:53:09Z</time>
      </trkpt>
      <trkpt lat="44.10154" lon="2.72254">
        <ele>792</ele>
        <time>2024-04-01T11:53:20Z</time>
      </trkpt>
      <trkpt lat="44.10135" lon="2.7225">
        <ele>792</ele>
        <time>2024-04-01T11:53:23Z</time>
      </trkpt>
      <trkpt lat="44.10114" lon="2.7224">
        <ele>791</ele>
        <time>2024-04-01T11:53:27Z</time>
      </trkpt>
      <trkpt lat="44.10095" lon="2.72228">
        <ele>791</ele>
        <time>2024-04-01T11:53:31Z</time>
      </trkpt>
      <trkpt lat="44.10078" lon="2.72212">
        <ele>790</ele>
        <time>2024-04-01T11:53:35Z</time>
      </trkpt>
      <trkpt lat="44.10049" lon="2.72168">
        <ele>789</ele>
        <time>2024-04-01T11:53:42Z</time>
      </trkpt>
      <trkpt lat="44.09982" lon="2.72034">
        <ele>787</ele>
        <time>2024-04-01T11:54:03Z</time>
      </trkpt>
      <trkpt lat="44.09866" lon="2.71792">
        <ele>781</ele>
        <time>2024-04-01T11:54:40Z</time>
      </trkpt>
      <trkpt lat="44.09748" lon="2.71555">
        <ele>781</ele>
        <time>2024-04-01T11:55:17Z</time>
      </trkpt>
      <trkpt lat="44.09727" lon="2.71521">
        <ele>779</ele>
        <time>2024-04-01T11:55:23Z</time>
      </trkpt>
      <trkpt lat="44.0969" lon="2.71477">
        <ele>777</ele>
        <time>2024-04-01T11:55:31Z</time>
      </trkpt>
      <trkpt lat="44.09613" lon="2.71399">
        <ele>775</ele>
        <time>2024-04-01T11:55:48Z</time>
      </trkpt>
      <trkpt lat="44.09556" lon="2.71336">
        <ele>774</ele>
        <time>2024-04-01T11:56:01Z</time>
      </trkpt>
      <trkpt lat="44.09531" lon="2.71302">
        <ele>772</ele>
        <time>2024-04-01T11:56:08Z</time>
      </trkpt>
      <trkpt lat="44.09465" lon="2.71183">
        <ele>772</ele>
        <time>2024-04-01T11:56:27Z</time>
      </trkpt>
      <trkpt lat="44.09428" lon="2.71128">
        <ele>770</ele>
        <time>2024-04-01T11:56:36Z</time>
      </trkpt>
      <trkpt lat="44.09391" lon="2.71089">
        <ele>768</ele>
        <time>2024-04-01T11:56:45Z</time>
      </trkpt>
      <trkpt lat="44.09345" lon="2.71059">
        <ele>767</ele>
        <time>2024-04-01T11:56:54Z</time>
      </trkpt>
      <trkpt lat="44.09246" lon="2.71027">
        <ele>760</ele>
        <time>2024-04-01T11:57:12Z</time>
      </trkpt>
      <trkpt lat="44.09206" lon="2.71006">
        <ele>758</ele>
        <time>2024-04-01T11:57:19Z</time>
      </trkpt>
      <trkpt lat="44.09188" lon="2.70989">
        <ele>757</ele>
        <time>2024-04-01T11:57:23Z</time>
      </trkpt>
      <trkpt lat="44.09168" lon="2.70956">
        <ele>754</ele>
        <time>2024-04-01T11:57:29Z</time>
      </trkpt>
      <trkpt lat="44.09154" lon="2.70909">
        <ele>752</ele>
        <time>2024-04-01T11:57:35Z</time>
      </trkpt>
      <trkpt lat="44.09151" lon="2.70887">
        <ele>752</ele>
        <time>2024-04-01T11:57:38Z</time>
      </trkpt>
      <trkpt lat="44.09152" lon="2.70849">
        <ele>751</ele>
        <time>2024-04-01T11:57:43Z</time>
      </trkpt>
      <trkpt lat="44.09168" lon="2.70779">
        <ele>747</ele>
        <time>2024-04-01T11:57:52Z</time>
      </trkpt>
      <trkpt lat="44.09163" lon="2.70781">
        <ele>748</ele>
        <time>2024-04-01T11:57:53Z</time>
      </trkpt>
      <trkpt lat="44.09139" lon="2.70779">
        <ele>749</ele>
        <time>2024-04-01T11:57:58Z</time>
      </trkpt>
      <trkpt lat="44.09101" lon="2.70748">
        <ele>750</ele>
        <time>2024-04-01T11:58:05Z</time>
      </trkpt>
      <trkpt lat="44.09011" lon="2.70741">
        <ele>748</ele>
        <time>2024-04-01T11:58:21Z</time>
      </trkpt>
      <trkpt lat="44.0897" lon="2.70732">
        <ele>746</ele>
        <time>2024-04-01T11:58:29Z</time>
      </trkpt>
      <trkpt lat="44.08969" lon="2.70714">
        <ele>744</ele>
        <time>2024-04-01T11:58:31Z</time>
      </trkpt>
      <trkpt lat="44.0896" lon="2.70695">
        <ele>741</ele>
        <time>2024-04-01T11:58:34Z</time>
      </trkpt>
      <trkpt lat="44.08931" lon="2.70651">
        <ele>734</ele>
        <time>2024-04-01T11:58:42Z</time>
      </trkpt>
      <trkpt lat="44.08914" lon="2.70631">
        <ele>732</ele>
        <time>2024-04-01T11:58:46Z</time>
      </trkpt>
      <trkpt lat="44.08871" lon="2.7056">
        <ele>723</ele>
        <time>2024-04-01T11:58:58Z</time>
      </trkpt>
      <trkpt lat="44.08864" lon="2.70567">
        <ele>724</ele>
        <time>2024-04-01T11:58:59Z</time>
      </trkpt>
      <trkpt lat="44.08859" lon="2.70566">
        <ele>723</ele>
        <time>2024-04-01T11:59:00Z</time>
      </trkpt>
      <trkpt lat="44.08851" lon="2.70555">
        <ele>722</ele>
        <time>2024-04-01T11:59:02Z</time>
      </trkpt>
      <trkpt lat="44.08846" lon="2.70543">
        <ele>720</ele>
        <time>2024-04-01T11:59:04Z</time>
      </trkpt>
      <trkpt lat="44.08847" lon="2.70537">
        <ele>720</ele>
        <time>2024-04-01T11:59:05Z</time>
      </trkpt>
      <trkpt lat="44.08842" lon="2.70532">
        <ele>719</ele>
        <time>2024-04-01T11:59:06Z</time>
      </trkpt>
      <trkpt lat="44.08834" lon="2.70521">
        <ele>718</ele>
        <time>2024-04-01T11:59:08Z</time>
      </trkpt>
      <trkpt lat="44.08846" lon="2.70512">
        <ele>718</ele>
        <time>2024-04-01T11:59:10Z</time>
      </trkpt>
      <trkpt lat="44.08857" lon="2.70497">
        <ele>718</ele>
        <time>2024-04-01T11:59:13Z</time>
      </trkpt>
      <trkpt lat="44.08849" lon="2.70486">
        <ele>716</ele>
        <time>2024-04-01T11:59:15Z</time>
      </trkpt>
      <trkpt lat="44.0885" lon="2.70477">
        <ele>716</ele>
        <time>2024-04-01T11:59:16Z</time>
      </trkpt>
      <trkpt lat="44.08853" lon="2.70469">
        <ele>716</ele>
        <time>2024-04-01T11:59:17Z</time>
      </trkpt>
      <trkpt lat="44.08853" lon="2.70464">
        <ele>715</ele>
        <time>2024-04-01T11:59:18Z</time>
      </trkpt>
      <trkpt lat="44.08868" lon="2.70441">
        <ele>715</ele>
        <time>2024-04-01T11:59:22Z</time>
      </trkpt>
      <trkpt lat="44.08819" lon="2.70358">
        <ele>713</ele>
        <time>2024-04-01T11:59:35Z</time>
      </trkpt>
      <trkpt lat="44.08812" lon="2.70346">
        <ele>713</ele>
        <time>2024-04-01T11:59:37Z</time>
      </trkpt>
      <trkpt lat="44.08804" lon="2.70333">
        <ele>713</ele>
        <time>2024-04-01T11:59:40Z</time>
      </trkpt>
      <trkpt lat="44.08802" lon="2.70335">
        <ele>713</ele>
        <time>2024-04-01T11:59:40Z</time>
      </trkpt>
      <trkpt lat="44.08761" lon="2.70272">
        <ele>715</ele>
        <time>2024-04-01T11:59:51Z</time>
      </trkpt>
      <trkpt lat="44.08802" lon="2.70335">
        <ele>713</ele>
        <time>2024-04-01T12:00:02Z</time>
      </trkpt>
      <trkpt lat="44.08819" lon="2.70317">
        <ele>714</ele>
        <time>2024-04-01T12:00:06Z</time>
      </trkpt>
      <trkpt lat="44.08838" lon="2.70303">
        <ele>714</ele>
        <time>2024-04-01T12:00:09Z</time>
      </trkpt>
      <trkpt lat="44.08924" lon="2.70261">
        <ele>716</ele>
        <time>2024-04-01T12:00:26Z</time>
      </trkpt>
      <trkpt lat="44.08942" lon="2.70249">
        <ele>717</ele>
        <time>2024-04-01T12:00:29Z</time>
      </trkpt>
      <trkpt lat="44.08946" lon="2.70243">
        <ele>717</ele>
        <time>2024-04-01T12:00:30Z</time>
      </trkpt>
      <trkpt lat="44.08953" lon="2.70246">
        <ele>717</ele>
        <time>2024-04-01T12:00:32Z</time>
      </trkpt>
      <trkpt lat="44.08959" lon="2.70245">
        <ele>717</ele>
        <time>2024-04-01T12:00:33Z</time>
      </trkpt>
      <trkpt lat="44.08953" lon="2.70235">
        <ele>718</ele>
        <time>2024-04-01T12:00:34Z</time>
      </trkpt>
      <trkpt lat="44.09059" lon="2.70072">
        <ele>726</ele>
        <time>2024-04-01T12:01:02Z</time>
      </trkpt>
      <trkpt lat="44.09055" lon="2.70065">
        <ele>726</ele>
        <time>2024-04-01T12:01:03Z</time>
      </trkpt>
      <trkpt lat="44.09053" lon="2.70053">
        <ele>726</ele>
        <time>2024-04-01T12:01:05Z</time>
      </trkpt>
      <trkpt lat="44.09078" lon="2.69934">
        <ele>738</ele>
        <time>2024-04-01T12:01:21Z</time>
      </trkpt>
      <trkpt lat="44.09085" lon="2.69915">
        <ele>741</ele>
        <time>2024-04-01T12:01:24Z</time>
      </trkpt>
      <trkpt lat="44.09126" lon="2.69852">
        <ele>744</ele>
        <time>2024-04-01T12:01:35Z</time>
      </trkpt>
      <trkpt lat="44.09137" lon="2.69828">
        <ele>746</ele>
        <time>2024-04-01T12:01:38Z</time>
      </trkpt>
      <trkpt lat="44.09142" lon="2.69811">
        <ele>748</ele>
        <time>2024-04-01T12:01:40Z</time>
      </trkpt>
      <trkpt lat="44.09201" lon="2.69548">
        <ele>773</ele>
        <time>2024-04-01T12:02:16Z</time>
      </trkpt>
      <trkpt lat="44.09207" lon="2.69537">
        <ele>774</ele>
        <time>2024-04-01T12:02:17Z</time>
      </trkpt>
      <trkpt lat="44.09213" lon="2.69533">
        <ele>774</ele>
        <time>2024-04-01T12:02:19Z</time>
      </trkpt>
      <trkpt lat="44.0922" lon="2.69534">
        <ele>773</ele>
        <time>2024-04-01T12:02:20Z</time>
      </trkpt>
      <trkpt lat="44.09227" lon="2.69539">
        <ele>772</ele>
        <time>2024-04-01T12:02:21Z</time>
      </trkpt>
      <trkpt lat="44.09255" lon="2.69571">
        <ele>770</ele>
        <time>2024-04-01T12:02:28Z</time>
      </trkpt>
      <trkpt lat="44.09264" lon="2.69574">
        <ele>771</ele>
        <time>2024-04-01T12:02:29Z</time>
      </trkpt>
      <trkpt lat="44.09273" lon="2.69573">
        <ele>772</ele>
        <time>2024-04-01T12:02:31Z</time>
      </trkpt>
      <trkpt lat="44.09284" lon="2.69565">
        <ele>774</ele>
        <time>2024-04-01T12:02:33Z</time>
      </trkpt>
      <trkpt lat="44.09301" lon="2.69548">
        <ele>776</ele>
        <time>2024-04-01T12:02:37Z</time>
      </trkpt>
      <trkpt lat="44.09312" lon="2.6953">
        <ele>778</ele>
        <time>2024-04-01T12:02:40Z</time>
      </trkpt>
      <trkpt lat="44.09329" lon="2.69497">
        <ele>782</ele>
        <time>2024-04-01T12:02:45Z</time>
      </trkpt>
      <trkpt lat="44.09359" lon="2.69418">
        <ele>782</ele>
        <time>2024-04-01T12:02:57Z</time>
      </trkpt>
      <trkpt lat="44.09367" lon="2.69387">
        <ele>784</ele>
        <time>2024-04-01T12:03:01Z</time>
      </trkpt>
      <trkpt lat="44.09381" lon="2.69277">
        <ele>790</ele>
        <time>2024-04-01T12:03:15Z</time>
      </trkpt>
      <trkpt lat="44.09409" lon="2.69094">
        <ele>786</ele>
        <time>2024-04-01T12:03:39Z</time>
      </trkpt>
      <trkpt lat="44.0941" lon="2.69058">
        <ele>784</ele>
        <time>2024-04-01T12:03:44Z</time>
      </trkpt>
      <trkpt lat="44.09401" lon="2.69006">
        <ele>784</ele>
        <time>2024-04-01T12:03:50Z</time>
      </trkpt>
      <trkpt lat="44.09398" lon="2.68977">
        <ele>785</ele>
        <time>2024-04-01T12:03:54Z</time>
      </trkpt>
      <trkpt lat="44.09401" lon="2.68907">
        <ele>784</ele>
        <time>2024-04-01T12:04:03Z</time>
      </trkpt>
      <trkpt lat="44.09401" lon="2.68881">
        <ele>784</ele>
        <time>2024-04-01T12:04:06Z</time>
      </trkpt>
      <trkpt lat="44.09387" lon="2.68807">
        <ele>787</ele>
        <time>2024-04-01T12:04:16Z</time>
      </trkpt>
      <trkpt lat="44.09387" lon="2.68785">
        <ele>788</ele>
        <time>2024-04-01T12:04:19Z</time>
      </trkpt>
      <trkpt lat="44.09393" lon="2.68717">
        <ele>790</ele>
        <time>2024-04-01T12:04:28Z</time>
      </trkpt>
      <trkpt lat="44.09391" lon="2.68661">
        <ele>792</ele>
        <time>2024-04-01T12:04:35Z</time>
      </trkpt>
      <trkpt lat="44.09386" lon="2.68634">
        <ele>793</ele>
        <time>2024-04-01T12:04:38Z</time>
      </trkpt>
      <trkpt lat="44.09373" lon="2.68591">
        <ele>795</ele>
        <time>2024-04-01T12:04:44Z</time>
      </trkpt>
      <trkpt lat="44.09361" lon="2.68539">
        <ele>798</ele>
        <time>2024-04-01T12:04:51Z</time>
      </trkpt>
      <trkpt lat="44.09356" lon="2.68495">
        <ele>799</ele>
        <time>2024-04-01T12:04:57Z</time>
      </trkpt>
      <trkpt lat="44.09353" lon="2.68438">
        <ele>800</ele>
        <time>2024-04-01T12:05:04Z</time>
      </trkpt>
      <trkpt lat="44.09358" lon="2.68389">
        <ele>800</ele>
        <time>2024-04-01T12:05:11Z</time>
      </trkpt>
      <trkpt lat="44.09358" lon="2.6834">
        <ele>800</ele>
        <time>2024-04-01T12:05:17Z</time>
      </trkpt>
      <trkpt lat="44.09366" lon="2.68317">
        <ele>800</ele>
        <time>2024-04-01T12:05:20Z</time>
      </trkpt>
      <trkpt lat="44.09383" lon="2.6828">
        <ele>800</ele>
        <time>2024-04-01T12:05:26Z</time>
      </trkpt>
      <trkpt lat="44.09408" lon="2.6825">
        <ele>800</ele>
        <time>2024-04-01T12:05:32Z</time>
      </trkpt>
      <trkpt lat="44.09433" lon="2.68227">
        <ele>799</ele>
        <time>2024-04-01T12:05:37Z</time>
      </trkpt>
      <trkpt lat="44.09466" lon="2.68189">
        <ele>798</ele>
        <time>2024-04-01T12:05:45Z</time>
      </trkpt>
      <trkpt lat="44.09484" lon="2.68164">
        <ele>798</ele>
        <time>2024-04-01T12:05:49Z</time>
      </trkpt>
      <trkpt lat="44.09577" lon="2.67976">
        <ele>796</ele>
        <time>2024-04-01T12:06:18Z</time>
      </trkpt>
      <trkpt lat="44.09616" lon="2.67901">
        <ele>797</ele>
        <time>2024-04-01T12:06:30Z</time>
      </trkpt>
      <trkpt lat="44.09663" lon="2.67837">
        <ele>798</ele>
        <time>2024-04-01T12:06:42Z</time>
      </trkpt>
      <trkpt lat="44.09669" lon="2.67819">
        <ele>798</ele>
        <time>2024-04-01T12:06:44Z</time>
      </trkpt>
      <trkpt lat="44.09675" lon="2.67701">
        <ele>802</ele>
        <time>2024-04-01T12:07:00Z</time>
      </trkpt>
      <trkpt lat="44.09688" lon="2.67618">
        <ele>802</ele>
        <time>2024-04-01T12:07:10Z</time>
      </trkpt>
      <trkpt lat="44.09684" lon="2.67486">
        <ele>801</ele>
        <time>2024-04-01T12:07:27Z</time>
      </trkpt>
      <trkpt lat="44.09679" lon="2.67435">
        <ele>800</ele>
        <time>2024-04-01T12:07:34Z</time>
      </trkpt>
      <trkpt lat="44.09666" lon="2.6736">
        <ele>797</ele>
        <time>2024-04-01T12:07:44Z</time>
      </trkpt>
      <trkpt lat="44.09662" lon="2.67326">
        <ele>796</ele>
        <time>2024-04-01T12:07:48Z</time>
      </trkpt>
      <trkpt lat="44.09664" lon="2.67299">
        <ele>795</ele>
        <time>2024-04-01T12:07:52Z</time>
      </trkpt>
      <trkpt lat="44.09674" lon="2.67271">
        <ele>794</ele>
        <time>2024-04-01T12:07:56Z</time>
      </trkpt>
      <trkpt lat="44.09709" lon="2.67198">
        <ele>790</ele>
        <time>2024-04-01T12:08:07Z</time>
      </trkpt>
      <trkpt lat="44.09718" lon="2.67174">
        <ele>789</ele>
        <time>2024-04-01T12:08:10Z</time>
      </trkpt>
      <trkpt lat="44.0972" lon="2.67157">
        <ele>788</ele>
        <time>2024-04-01T12:08:13Z</time>
      </trkpt>
      <trkpt lat="44.09718" lon="2.6713">
        <ele>787</ele>
        <time>2024-04-01T12:08:16Z</time>
      </trkpt>
      <trkpt lat="44.09706" lon="2.67087">
        <ele>785</ele>
        <time>2024-04-01T12:08:22Z</time>
      </trkpt>
      <trkpt lat="44.09692" lon="2.67018">
        <ele>781</ele>
        <time>2024-04-01T12:08:31Z</time>
      </trkpt>
      <trkpt lat="44.09661" lon="2.6676">
        <ele>780</ele>
        <time>2024-04-01T12:09:04Z</time>
      </trkpt>
      <trkpt lat="44.09645" lon="2.66655">
        <ele>782</ele>
        <time>2024-04-01T12:09:18Z</time>
      </trkpt>
      <trkpt lat="44.09589" lon="2.66655">
        <ele>784</ele>
        <time>2024-04-01T12:09:28Z</time>
      </trkpt>
      <trkpt lat="44.09549" lon="2.6665">
        <ele>782</ele>
        <time>2024-04-01T12:09:35Z</time>
      </trkpt>
      <trkpt lat="44.09508" lon="2.66641">
        <ele>781</ele>
        <time>2024-04-01T12:09:43Z</time>
      </trkpt>
      <trkpt lat="44.09433" lon="2.66615">
        <ele>777</ele>
        <time>2024-04-01T12:09:56Z</time>
      </trkpt>
      <trkpt lat="44.09372" lon="2.66585">
        <ele>772</ele>
        <time>2024-04-01T12:10:08Z</time>
      </trkpt>
      <trkpt lat="44.09318" lon="2.66563">
        <ele>770</ele>
        <time>2024-04-01T12:10:18Z</time>
      </trkpt>
      <trkpt lat="44.09287" lon="2.66557">
        <ele>770</ele>
        <time>2024-04-01T12:10:24Z</time>
      </trkpt>
      <trkpt lat="44.09198" lon="2.66559">
        <ele>769</ele>
        <time>2024-04-01T12:10:39Z</time>
      </trkpt>
      <trkpt lat="44.09032" lon="2.66558">
        <ele>762</ele>
        <time>2024-04-01T12:11:09Z</time>
      </trkpt>
      <trkpt lat="44.08949" lon="2.6656">
        <ele>758</ele>
        <time>2024-04-01T12:11:24Z</time>
      </trkpt>
      <trkpt lat="44.08907" lon="2.66567">
        <ele>756</ele>
        <time>2024-04-01T12:11:31Z</time>
      </trkpt>
      <trkpt lat="44.08812" lon="2.66592">
        <ele>757</ele>
        <time>2024-04-01T12:11:48Z</time>
      </trkpt>
      <trkpt lat="44.08751" lon="2.66606">
        <ele>756</ele>
        <time>2024-04-01T12:11:59Z</time>
      </trkpt>
      <trkpt lat="44.08715" lon="2.66619">
        <ele>755</ele>
        <time>2024-04-01T12:12:06Z</time>
      </trkpt>
      <trkpt lat="44.08672" lon="2.66656">
        <ele>753</ele>
        <time>2024-04-01T12:12:15Z</time>
      </trkpt>
      <trkpt lat="44.08651" lon="2.66669">
        <ele>751</ele>
        <time>2024-04-01T12:12:19Z</time>
      </trkpt>
      <trkpt lat="44.08632" lon="2.66674">
        <ele>749</ele>
        <time>2024-04-01T12:12:23Z</time>
      </trkpt>
      <trkpt lat="44.08617" lon="2.6667">
        <ele>748</ele>
        <time>2024-04-01T12:12:25Z</time>
      </trkpt>
      <trkpt lat="44.08566" lon="2.66625">
        <ele>748</ele>
        <time>2024-04-01T12:12:36Z</time>
      </trkpt>
      <trkpt lat="44.08539" lon="2.66611">
        <ele>750</ele>
        <time>2024-04-01T12:12:41Z</time>
      </trkpt>
      <trkpt lat="44.08527" lon="2.66609">
        <ele>751</ele>
        <time>2024-04-01T12:12:43Z</time>
      </trkpt>
      <trkpt lat="44.08517" lon="2.66621">
        <ele>750</ele>
        <time>2024-04-01T12:12:46Z</time>
      </trkpt>
      <trkpt lat="44.08484" lon="2.66694">
        <ele>747</ele>
        <time>2024-04-01T12:12:57Z</time>
      </trkpt>
      <trkpt lat="44.08476" lon="2.66715">
        <ele>746</ele>
        <time>2024-04-01T12:13:00Z</time>
      </trkpt>
      <trkpt lat="44.08457" lon="2.6674">
        <ele>745</ele>
        <time>2024-04-01T12:13:04Z</time>
      </trkpt>
      <trkpt lat="44.08416" lon="2.66776">
        <ele>744</ele>
        <time>2024-04-01T12:13:13Z</time>
      </trkpt>
      <trkpt lat="44.08386" lon="2.66808">
        <ele>743</ele>
        <time>2024-04-01T12:13:20Z</time>
      </trkpt>
      <trkpt lat="44.0837" lon="2.66821">
        <ele>742</ele>
        <time>2024-04-01T12:13:23Z</time>
      </trkpt>
      <trkpt lat="44.08358" lon="2.66827">
        <ele>742</ele>
        <time>2024-04-01T12:13:25Z</time>
      </trkpt>
      <trkpt lat="44.08319" lon="2.66832">
        <ele>741</ele>
        <time>2024-04-01T12:13:32Z</time>
      </trkpt>
      <trkpt lat="44.08306" lon="2.66828">
        <ele>739</ele>
        <time>2024-04-01T12:13:35Z</time>
      </trkpt>
      <trkpt lat="44.08287" lon="2.66829">
        <ele>737</ele>
        <time>2024-04-01T12:13:38Z</time>
      </trkpt>
      <trkpt lat="44.08286" lon="2.66814">
        <ele>736</ele>
        <time>2024-04-01T12:13:40Z</time>
      </trkpt>
      <trkpt lat="44.08303" lon="2.66729">
        <ele>734</ele>
        <time>2024-04-01T12:13:51Z</time>
      </trkpt>
      <trkpt lat="44.08318" lon="2.66644">
        <ele>732</ele>
        <time>2024-04-01T12:14:02Z</time>
      </trkpt>
      <trkpt lat="44.08318" lon="2.66624">
        <ele>731</ele>
        <time>2024-04-01T12:14:05Z</time>
      </trkpt>
      <trkpt lat="44.08316" lon="2.666">
        <ele>730</ele>
        <time>2024-04-01T12:14:08Z</time>
      </trkpt>
      <trkpt lat="44.08305" lon="2.66552">
        <ele>726</ele>
        <time>2024-04-01T12:14:14Z</time>
      </trkpt>
      <trkpt lat="44.08303" lon="2.6651">
        <ele>725</ele>
        <time>2024-04-01T12:14:20Z</time>
      </trkpt>
      <trkpt lat="44.08295" lon="2.66491">
        <ele>722</ele>
        <time>2024-04-01T12:14:23Z</time>
      </trkpt>
      <trkpt lat="44.08243" lon="2.66407">
        <ele>711</ele>
        <time>2024-04-01T12:14:37Z</time>
      </trkpt>
      <trkpt lat="44.08201" lon="2.66346">
        <ele>708</ele>
        <time>2024-04-01T12:14:48Z</time>
      </trkpt>
      <trkpt lat="44.08111" lon="2.66231">
        <ele>705</ele>
        <time>2024-04-01T12:15:09Z</time>
      </trkpt>
      <trkpt lat="44.08084" lon="2.6629">
        <ele>703</ele>
        <time>2024-04-01T12:15:18Z</time>
      </trkpt>
      <trkpt lat="44.0802" lon="2.66475">
        <ele>691</ele>
        <time>2024-04-01T12:15:45Z</time>
      </trkpt>
      <trkpt lat="44.07998" lon="2.6649">
        <ele>690</ele>
        <time>2024-04-01T12:15:49Z</time>
      </trkpt>
      <trkpt lat="44.07982" lon="2.66496">
        <ele>690</ele>
        <time>2024-04-01T12:15:52Z</time>
      </trkpt>
      <trkpt lat="44.07963" lon="2.66499">
        <ele>691</ele>
        <time>2024-04-01T12:15:55Z</time>
      </trkpt>
      <trkpt lat="44.07938" lon="2.6651">
        <ele>693</ele>
        <time>2024-04-01T12:16:00Z</time>
      </trkpt>
      <trkpt lat="44.07919" lon="2.66536">
        <ele>696</ele>
        <time>2024-04-01T12:16:05Z</time>
      </trkpt>
      <trkpt lat="44.07895" lon="2.66588">
        <ele>704</ele>
        <time>2024-04-01T12:16:13Z</time>
      </trkpt>
      <trkpt lat="44.07877" lon="2.666">
        <ele>707</ele>
        <time>2024-04-01T12:16:16Z</time>
      </trkpt>
      <trkpt lat="44.0786" lon="2.66598">
        <ele>708</ele>
        <time>2024-04-01T12:16:19Z</time>
      </trkpt>
      <trkpt lat="44.07833" lon="2.66578">
        <ele>707</ele>
        <time>2024-04-01T12:16:25Z</time>
      </trkpt>
      <trkpt lat="44.07815" lon="2.66571">
        <ele>709</ele>
        <time>2024-04-01T12:16:28Z</time>
      </trkpt>
      <trkpt lat="44.07797" lon="2.66573">
        <ele>711</ele>
        <time>2024-04-01T12:16:31Z</time>
      </trkpt>
      <trkpt lat="44.07757" lon="2.666">
        <ele>718</ele>
        <time>2024-04-01T12:16:39Z</time>
      </trkpt>
      <trkpt lat="44.07628" lon="2.66638">
        <ele>727</ele>
        <time>2024-04-01T12:17:02Z</time>
      </trkpt>
      <trkpt lat="44.07601" lon="2.66649">
        <ele>726</ele>
        <time>2024-04-01T12:17:07Z</time>
      </trkpt>
      <trkpt lat="44.07586" lon="2.66667">
        <ele>726</ele>
        <time>2024-04-01T12:17:11Z</time>
      </trkpt>
      <trkpt lat="44.07574" lon="2.667">
        <ele>725</ele>
        <time>2024-04-01T12:17:16Z</time>
      </trkpt>
      <trkpt lat="44.0756" lon="2.66783">
        <ele>722</ele>
        <time>2024-04-01T12:17:27Z</time>
      </trkpt>
      <trkpt lat="44.07533" lon="2.66856">
        <ele>719</ele>
        <time>2024-04-01T12:17:37Z</time>
      </trkpt>
      <trkpt lat="44.07525" lon="2.66887">
        <ele>718</ele>
        <time>2024-04-01T12:17:41Z</time>
      </trkpt>
      <trkpt lat="44.07517" lon="2.66936">
        <ele>717</ele>
        <time>2024-04-01T12:17:48Z</time>
      </trkpt>
      <trkpt lat="44.0751" lon="2.66952">
        <ele>716</ele>
        <time>2024-04-01T12:17:50Z</time>
      </trkpt>
      <trkpt lat="44.07476" lon="2.67005">
        <ele>714</ele>
        <time>2024-04-01T12:17:59Z</time>
      </trkpt>
      <trkpt lat="44.07456" lon="2.67029">
        <ele>712</ele>
        <time>2024-04-01T12:18:04Z</time>
      </trkpt>
      <trkpt lat="44.07402" lon="2.67078">
        <ele>709</ele>
        <time>2024-04-01T12:18:15Z</time>
      </trkpt>
      <trkpt lat="44.07385" lon="2.67101">
        <ele>707</ele>
        <time>2024-04-01T12:18:20Z</time>
      </trkpt>
      <trkpt lat="44.07368" lon="2.67142">
        <ele>705</ele>
        <time>2024-04-01T12:18:26Z</time>
      </trkpt>
      <trkpt lat="44.07354" lon="2.67189">
        <ele>705</ele>
        <time>2024-04-01T12:18:32Z</time>
      </trkpt>
      <trkpt lat="44.07343" lon="2.67207">
        <ele>705</ele>
        <time>2024-04-01T12:18:35Z</time>
      </trkpt>
      <trkpt lat="44.07323" lon="2.67223">
        <ele>705</ele>
        <time>2024-04-01T12:18:39Z</time>
      </trkpt>
      <trkpt lat="44.07308" lon="2.67239">
        <ele>705</ele>
        <time>2024-04-01T12:18:43Z</time>
      </trkpt>
      <trkpt lat="44.07275" lon="2.67264">
        <ele>706</ele>
        <time>2024-04-01T12:18:49Z</time>
      </trkpt>
      <trkpt lat="44.07258" lon="2.67285">
        <ele>708</ele>
        <time>2024-04-01T12:18:53Z</time>
      </trkpt>
      <trkpt lat="44.07238" lon="2.67296">
        <ele>708</ele>
        <time>2024-04-01T12:18:57Z</time>
      </trkpt>
      <trkpt lat="44.07216" lon="2.67301">
        <ele>709</ele>
        <time>2024-04-01T12:19:01Z</time>
      </trkpt>
      <trkpt lat="44.07166" lon="2.67301">
        <ele>709</ele>
        <time>2024-04-01T12:19:10Z</time>
      </trkpt>
      <trkpt lat="44.0715" lon="2.67299">
        <ele>710</ele>
        <time>2024-04-01T12:19:13Z</time>
      </trkpt>
      <trkpt lat="44.07104" lon="2.67252">
        <ele>712</ele>
        <time>2024-04-01T12:19:23Z</time>
      </trkpt>
      <trkpt lat="44.07078" lon="2.67233">
        <ele>714</ele>
        <time>2024-04-01T12:19:28Z</time>
      </trkpt>
      <trkpt lat="44.0705" lon="2.67219">
        <ele>717</ele>
        <time>2024-04-01T12:19:34Z</time>
      </trkpt>
      <trkpt lat="44.07023" lon="2.67211">
        <ele>720</ele>
        <time>2024-04-01T12:19:39Z</time>
      </trkpt>
      <trkpt lat="44.06991" lon="2.67209">
        <ele>723</ele>
        <time>2024-04-01T12:19:44Z</time>
      </trkpt>
      <trkpt lat="44.06929" lon="2.67198">
        <ele>726</ele>
        <time>2024-04-01T12:19:55Z</time>
      </trkpt>
      <trkpt lat="44.06836" lon="2.67148">
        <ele>727</ele>
        <time>2024-04-01T12:20:13Z</time>
      </trkpt>
      <trkpt lat="44.0676" lon="2.67083">
        <ele>724</ele>
        <time>2024-04-01T12:20:29Z</time>
      </trkpt>
      <trkpt lat="44.06733" lon="2.67051">
        <ele>723</ele>
        <time>2024-04-01T12:20:35Z</time>
      </trkpt>
      <trkpt lat="44.06701" lon="2.67003">
        <ele>724</ele>
        <time>2024-04-01T12:20:44Z</time>
      </trkpt>
      <trkpt lat="44.0668" lon="2.66976">
        <ele>726</ele>
        <time>2024-04-01T12:20:49Z</time>
      </trkpt>
      <trkpt lat="44.0664" lon="2.66933">
        <ele>731</ele>
        <time>2024-04-01T12:20:58Z</time>
      </trkpt>
      <trkpt lat="44.06635" lon="2.66925">
        <ele>732</ele>
        <time>2024-04-01T12:20:59Z</time>
      </trkpt>
      <trkpt lat="44.06638" lon="2.66881">
        <ele>733</ele>
        <time>2024-04-01T12:21:05Z</time>
      </trkpt>
      <trkpt lat="44.06634" lon="2.66834">
        <ele>734</ele>
        <time>2024-04-01T12:21:11Z</time>
      </trkpt>
      <trkpt lat="44.06624" lon="2.6679">
        <ele>735</ele>
        <time>2024-04-01T12:21:17Z</time>
      </trkpt>
      <trkpt lat="44.06597" lon="2.66731">
        <ele>737</ele>
        <time>2024-04-01T12:21:26Z</time>
      </trkpt>
      <trkpt lat="44.06572" lon="2.66699">
        <ele>737</ele>
        <time>2024-04-01T12:21:32Z</time>
      </trkpt>
      <trkpt lat="44.06546" lon="2.66679">
        <ele>737</ele>
        <time>2024-04-01T12:21:37Z</time>
      </trkpt>
      <trkpt lat="44.06511" lon="2.66661">
        <ele>738</ele>
        <time>2024-04-01T12:21:44Z</time>
      </trkpt>
      <trkpt lat="44.06328" lon="2.66598">
        <ele>732</ele>
        <time>2024-04-01T12:22:17Z</time>
      </trkpt>
      <trkpt lat="44.06303" lon="2.66582">
        <ele>732</ele>
        <time>2024-04-01T12:22:22Z</time>
      </trkpt>
      <trkpt lat="44.0628" lon="2.66565">
        <ele>732</ele>
        <time>2024-04-01T12:22:27Z</time>
      </trkpt>
      <trkpt lat="44.06198" lon="2.66472">
        <ele>734</ele>
        <time>2024-04-01T12:22:45Z</time>
      </trkpt>
      <trkpt lat="44.06072" lon="2.66322">
        <ele>737</ele>
        <time>2024-04-01T12:23:15Z</time>
      </trkpt>
      <trkpt lat="44.06058" lon="2.66289">
        <ele>739</ele>
        <time>2024-04-01T12:23:20Z</time>
      </trkpt>
      <trkpt lat="44.05952" lon="2.66002">
        <ele>747</ele>
        <time>2024-04-01T12:24:01Z</time>
      </trkpt>
      <trkpt lat="44.05934" lon="2.6602">
        <ele>747</ele>
        <time>2024-04-01T12:24:05Z</time>
      </trkpt>
      <trkpt lat="44.05917" lon="2.65973">
        <ele>750</ele>
        <time>2024-04-01T12:24:12Z</time>
      </trkpt>
      <trkpt lat="44.05917" lon="2.65966">
        <ele>750</ele>
        <time>2024-04-01T12:24:13Z</time>
      </trkpt>
      <trkpt lat="44.05923" lon="2.65959">
        <ele>749</ele>
        <time>2024-04-01T12:24:14Z</time>
      </trkpt>
      <trkpt lat="44.05935" lon="2.65952">
        <ele>748</ele>
        <time>2024-04-01T12:24:16Z</time>
      </trkpt>
      <trkpt lat="44.05897" lon="2.65844">
        <ele>747</ele>
        <time>2024-04-01T12:24:32Z</time>
      </trkpt>
      <trkpt lat="44.05891" lon="2.65818">
        <ele>747</ele>
        <time>2024-04-01T12:24:35Z</time>
      </trkpt>
      <trkpt lat="44.05875" lon="2.65727">
        <ele>747</ele>
        <time>2024-04-01T12:24:47Z</time>
      </trkpt>
      <trkpt lat="44.05857" lon="2.65633">
        <ele>746</ele>
        <time>2024-04-01T12:25:00Z</time>
      </trkpt>
      <trkpt lat="44.05893" lon="2.65602">
        <ele>746</ele>
        <time>2024-04-01T12:25:07Z</time>
      </trkpt>
      <trkpt lat="44.06022" lon="2.65505">
        <ele>741</ele>
        <time>2024-04-01T12:25:33Z</time>
      </trkpt>
      <trkpt lat="44.06051" lon="2.65489">
        <ele>740</ele>
        <time>2024-04-01T12:25:39Z</time>
      </trkpt>
      <trkpt lat="44.06105" lon="2.65478">
        <ele>735</ele>
        <time>2024-04-01T12:25:49Z</time>
      </trkpt>
      <trkpt lat="44.06122" lon="2.65466">
        <ele>733</ele>
        <time>2024-04-01T12:25:52Z</time>
      </trkpt>
      <trkpt lat="44.06182" lon="2.65398">
        <ele>731</ele>
        <time>2024-04-01T12:26:06Z</time>
      </trkpt>
      <trkpt lat="44.06258" lon="2.65319">
        <ele>729</ele>
        <time>2024-04-01T12:26:23Z</time>
      </trkpt>
      <trkpt lat="44.06271" lon="2.65297">
        <ele>729</ele>
        <time>2024-04-01T12:26:26Z</time>
      </trkpt>
      <trkpt lat="44.0628" lon="2.65267">
        <ele>730</ele>
        <time>2024-04-01T12:26:30Z</time>
      </trkpt>
      <trkpt lat="44.06292" lon="2.65197">
        <ele>729</ele>
        <time>2024-04-01T12:26:40Z</time>
      </trkpt>
      <trkpt lat="44.06322" lon="2.65049">
        <ele>724</ele>
        <time>2024-04-01T12:26:59Z</time>
      </trkpt>
      <trkpt lat="44.06326" lon="2.65006">
        <ele>722</ele>
        <time>2024-04-01T12:27:05Z</time>
      </trkpt>
      <trkpt lat="44.06329" lon="2.64894">
        <ele>716</ele>
        <time>2024-04-01T12:27:19Z</time>
      </trkpt>
      <trkpt lat="44.06326" lon="2.64858">
        <ele>715</ele>
        <time>2024-04-01T12:27:24Z</time>
      </trkpt>
      <trkpt lat="44.06318" lon="2.64806">
        <ele>713</ele>
        <time>2024-04-01T12:27:31Z</time>
      </trkpt>
      <trkpt lat="44.0632" lon="2.64776">
        <ele>711</ele>
        <time>2024-04-01T12:27:34Z</time>
      </trkpt>
      <trkpt lat="44.06331" lon="2.64632">
        <ele>704</ele>
        <time>2024-04-01T12:27:53Z</time>
      </trkpt>
      <trkpt lat="44.06347" lon="2.64537">
        <ele>698</ele>
        <time>2024-04-01T12:28:05Z</time>
      </trkpt>
      <trkpt lat="44.06357" lon="2.64463">
        <ele>694</ele>
        <time>2024-04-01T12:28:15Z</time>
      </trkpt>
      <trkpt lat="44.06369" lon="2.64396">
        <ele>691</ele>
        <time>2024-04-01T12:28:24Z</time>
      </trkpt>
      <trkpt lat="44.06369" lon="2.64311">
        <ele>688</ele>
        <time>2024-04-01T12:28:35Z</time>
      </trkpt>
      <trkpt lat="44.06372" lon="2.64267">
        <ele>688</ele>
        <time>2024-04-01T12:28:40Z</time>
      </trkpt>
      <trkpt lat="44.06371" lon="2.64234">
        <ele>687</ele>
        <time>2024-04-01T12:28:45Z</time>
      </trkpt>
      <trkpt lat="44.06373" lon="2.64176">
        <ele>685</ele>
        <time>2024-04-01T12:28:52Z</time>
      </trkpt>
      <trkpt lat="44.06426" lon="2.64047">
        <ele>684</ele>
        <time>2024-04-01T12:29:11Z</time>
      </trkpt>
      <trkpt lat="44.06439" lon="2.64006">
        <ele>683</ele>
        <time>2024-04-01T12:29:17Z</time>
      </trkpt>
      <trkpt lat="44.06462" lon="2.63912">
        <ele>678</ele>
        <time>2024-04-01T12:29:29Z</time>
      </trkpt>
      <trkpt lat="44.06495" lon="2.63818">
        <ele>679</ele>
        <time>2024-04-01T12:29:43Z</time>
      </trkpt>
      <trkpt lat="44.06503" lon="2.63786">
        <ele>679</ele>
        <time>2024-04-01T12:29:47Z</time>
      </trkpt>
      <trkpt lat="44.0652" lon="2.63683">
        <ele>678</ele>
        <time>2024-04-01T12:30:01Z</time>
      </trkpt>
      <trkpt lat="44.06539" lon="2.63586">
        <ele>676</ele>
        <time>2024-04-01T12:30:14Z</time>
      </trkpt>
      <trkpt lat="44.06555" lon="2.63435">
        <ele>674</ele>
        <time>2024-04-01T12:30:33Z</time>
      </trkpt>
      <trkpt lat="44.06582" lon="2.63359">
        <ele>676</ele>
        <time>2024-04-01T12:30:44Z</time>
      </trkpt>
      <trkpt lat="44.06599" lon="2.63299">
        <ele>676</ele>
        <time>2024-04-01T12:30:52Z</time>
      </trkpt>
      <trkpt lat="44.06604" lon="2.6327">
        <ele>676</ele>
        <time>2024-04-01T12:30:56Z</time>
      </trkpt>
      <trkpt lat="44.06617" lon="2.63143">
        <ele>676</ele>
        <time>2024-04-01T12:31:12Z</time>
      </trkpt>
      <trkpt lat="44.06626" lon="2.62961">
        <ele>675</ele>
        <time>2024-04-01T12:31:36Z</time>
      </trkpt>
      <trkpt lat="44.06621" lon="2.62877">
        <ele>674</ele>
        <time>2024-04-01T12:31:46Z</time>
      </trkpt>
      <trkpt lat="44.06621" lon="2.62807">
        <ele>673</ele>
        <time>2024-04-01T12:31:55Z</time>
      </trkpt>
      <trkpt lat="44.06615" lon="2.62788">
        <ele>673</ele>
        <time>2024-04-01T12:31:58Z</time>
      </trkpt>
      <trkpt lat="44.06596" lon="2.62753">
        <ele>673</ele>
        <time>2024-04-01T12:32:04Z</time>
      </trkpt>
      <trkpt lat="44.06559" lon="2.62738">
        <ele>672</ele>
        <time>2024-04-01T12:32:11Z</time>
      </trkpt>
      <trkpt lat="44.0655" lon="2.62731">
        <ele>672</ele>
        <time>2024-04-01T12:32:12Z</time>
      </trkpt>
      <trkpt lat="44.06516" lon="2.62675">
        <ele>671</ele>
        <time>2024-04-01T12:32:22Z</time>
      </trkpt>
      <trkpt lat="44.06503" lon="2.62661">
        <ele>670</ele>
        <time>2024-04-01T12:32:25Z</time>
      </trkpt>
      <trkpt lat="44.06464" lon="2.6264">
        <ele>667</ele>
        <time>2024-04-01T12:32:32Z</time>
      </trkpt>
      <trkpt lat="44.06441" lon="2.62621">
        <ele>665</ele>
        <time>2024-04-01T12:32:37Z</time>
      </trkpt>
      <trkpt lat="44.06416" lon="2.62608">
        <ele>664</ele>
        <time>2024-04-01T12:32:42Z</time>
      </trkpt>
      <trkpt lat="44.06408" lon="2.62601">
        <ele>663</ele>
        <time>2024-04-01T12:32:43Z</time>
      </trkpt>
      <trkpt lat="44.06404" lon="2.62592">
        <ele>663</ele>
        <time>2024-04-01T12:32:45Z</time>
      </trkpt>
      <trkpt lat="44.06403" lon="2.62574">
        <ele>663</ele>
        <time>2024-04-01T12:32:47Z</time>
      </trkpt>
      <trkpt lat="44.06404" lon="2.62539">
        <ele>662</ele>
        <time>2024-04-01T12:32:51Z</time>
      </trkpt>
      <trkpt lat="44.06407" lon="2.62505">
        <ele>662</ele>
        <time>2024-04-01T12:32:56Z</time>
      </trkpt>
      <trkpt lat="44.06421" lon="2.62452">
        <ele>661</ele>
        <time>2024-04-01T12:33:03Z</time>
      </trkpt>
      <trkpt lat="44.06437" lon="2.62364">
        <ele>659</ele>
        <time>2024-04-01T12:33:15Z</time>
      </trkpt>
      <trkpt lat="44.06447" lon="2.6224">
        <ele>654</ele>
        <time>2024-04-01T12:33:31Z</time>
      </trkpt>
      <trkpt lat="44.06442" lon="2.62229">
        <ele>653</ele>
        <time>2024-04-01T12:33:32Z</time>
      </trkpt>
      <trkpt lat="44.06376" lon="2.62189">
        <ele>649</ele>
        <time>2024-04-01T12:33:45Z</time>
      </trkpt>
      <trkpt lat="44.06351" lon="2.62219">
        <ele>649</ele>
        <time>2024-04-01T12:33:51Z</time>
      </trkpt>
      <trkpt lat="44.06344" lon="2.62225">
        <ele>649</ele>
        <time>2024-04-01T12:33:52Z</time>
      </trkpt>
      <trkpt lat="44.06335" lon="2.62227">
        <ele>649</ele>
        <time>2024-04-01T12:33:54Z</time>
      </trkpt>
      <trkpt lat="44.06324" lon="2.62204">
        <ele>647</ele>
        <time>2024-04-01T12:33:58Z</time>
      </trkpt>
      <trkpt lat="44.06312" lon="2.62149">
        <ele>642</ele>
        <time>2024-04-01T12:34:05Z</time>
      </trkpt>
      <trkpt lat="44.06317" lon="2.62057">
        <ele>637</ele>
        <time>2024-04-01T12:34:17Z</time>
      </trkpt>
      <trkpt lat="44.0634" lon="2.61958">
        <ele>634</ele>
        <time>2024-04-01T12:34:30Z</time>
      </trkpt>
      <trkpt lat="44.06348" lon="2.61899">
        <ele>630</ele>
        <time>2024-04-01T12:34:38Z</time>
      </trkpt>
      <trkpt lat="44.06325" lon="2.61872">
        <ele>623</ele>
        <time>2024-04-01T12:34:43Z</time>
      </trkpt>
      <trkpt lat="44.06305" lon="2.61852">
        <ele>616</ele>
        <time>2024-04-01T12:34:47Z</time>
      </trkpt>
      <trkpt lat="44.06272" lon="2.61789">
        <ele>602</ele>
        <time>2024-04-01T12:34:57Z</time>
      </trkpt>
      <trkpt lat="44.06239" lon="2.61834">
        <ele>602</ele>
        <time>2024-04-01T12:35:06Z</time>
      </trkpt>
      <trkpt lat="44.06232" lon="2.61822">
        <ele>601</ele>
        <time>2024-04-01T12:35:08Z</time>
      </trkpt>
      <trkpt lat="44.06239" lon="2.61778">
        <ele>597</ele>
        <time>2024-04-01T12:35:13Z</time>
      </trkpt>
      <trkpt lat="44.06232" lon="2.61775">
        <ele>598</ele>
        <time>2024-04-01T12:35:15Z</time>
      </trkpt>
      <trkpt lat="44.06206" lon="2.61835">
        <ele>603</ele>
        <time>2024-04-01T12:35:24Z</time>
      </trkpt>
      <trkpt lat="44.06194" lon="2.61833">
        <ele>603</ele>
        <time>2024-04-01T12:35:26Z</time>
      </trkpt>
      <trkpt lat="44.06196" lon="2.61729">
        <ele>605</ele>
        <time>2024-04-01T12:35:39Z</time>
      </trkpt>
      <trkpt lat="44.06172" lon="2.61732">
        <ele>610</ele>
        <time>2024-04-01T12:35:43Z</time>
      </trkpt>
      <trkpt lat="44.06138" lon="2.61709">
        <ele>618</ele>
        <time>2024-04-01T12:35:50Z</time>
      </trkpt>
      <trkpt lat="44.06156" lon="2.61658">
        <ele>622</ele>
        <time>2024-04-01T12:35:57Z</time>
      </trkpt>
      <trkpt lat="44.06163" lon="2.61624">
        <ele>626</ele>
        <time>2024-04-01T12:36:02Z</time>
      </trkpt>
      <trkpt lat="44.06249" lon="2.6154">
        <ele>620</ele>
        <time>2024-04-01T12:36:21Z</time>
      </trkpt>
      <trkpt lat="44.06287" lon="2.61495">
        <ele>617</ele>
        <time>2024-04-01T12:36:29Z</time>
      </trkpt>
      <trkpt lat="44.06307" lon="2.61479">
        <ele>613</ele>
        <time>2024-04-01T12:36:34Z</time>
      </trkpt>
      <trkpt lat="44.06352" lon="2.6146">
        <ele>603</ele>
        <time>2024-04-01T12:36:42Z</time>
      </trkpt>
      <trkpt lat="44.06363" lon="2.61448">
        <ele>602</ele>
        <time>2024-04-01T12:36:44Z</time>
      </trkpt>
      <trkpt lat="44.06367" lon="2.61433">
        <ele>602</ele>
        <time>2024-04-01T12:36:46Z</time>
      </trkpt>
      <trkpt lat="44.06368" lon="2.61412">
        <ele>603</ele>
        <time>2024-04-01T12:36:49Z</time>
      </trkpt>
      <trkpt lat="44.06359" lon="2.61362">
        <ele>605</ele>
        <time>2024-04-01T12:36:56Z</time>
      </trkpt>
      <trkpt lat="44.06359" lon="2.61332">
        <ele>605</ele>
        <time>2024-04-01T12:37:00Z</time>
      </trkpt>
      <trkpt lat="44.06363" lon="2.61307">
        <ele>602</ele>
        <time>2024-04-01T12:37:03Z</time>
      </trkpt>
      <trkpt lat="44.0639" lon="2.61229">
        <ele>585</ele>
        <time>2024-04-01T12:37:14Z</time>
      </trkpt>
      <trkpt lat="44.0639" lon="2.61213">
        <ele>582</ele>
        <time>2024-04-01T12:37:16Z</time>
      </trkpt>
      <trkpt lat="44.06382" lon="2.61203">
        <ele>582</ele>
        <time>2024-04-01T12:37:18Z</time>
      </trkpt>
      <trkpt lat="44.06319" lon="2.61181">
        <ele>586</ele>
        <time>2024-04-01T12:37:29Z</time>
      </trkpt>
      <trkpt lat="44.06311" lon="2.61168">
        <ele>584</ele>
        <time>2024-04-01T12:37:32Z</time>
      </trkpt>
      <trkpt lat="44.06332" lon="2.61163">
        <ele>579</ele>
        <time>2024-04-01T12:37:35Z</time>
      </trkpt>
      <trkpt lat="44.06357" lon="2.61167">
        <ele>577</ele>
        <time>2024-04-01T12:37:40Z</time>
      </trkpt>
      <trkpt lat="44.06392" lon="2.61166">
        <ele>574</ele>
        <time>2024-04-01T12:37:46Z</time>
      </trkpt>
      <trkpt lat="44.06396" lon="2.61163">
        <ele>574</ele>
        <time>2024-04-01T12:37:47Z</time>
      </trkpt>
      <trkpt lat="44.06397" lon="2.61158">
        <ele>573</ele>
        <time>2024-04-01T12:37:48Z</time>
      </trkpt>
      <trkpt lat="44.06394" lon="2.61154">
        <ele>573</ele>
        <time>2024-04-01T12:37:48Z</time>
      </trkpt>
      <trkpt lat="44.06362" lon="2.61152">
        <ele>575</ele>
        <time>2024-04-01T12:37:54Z</time>
      </trkpt>
      <trkpt lat="44.06338" lon="2.61141">
        <ele>574</ele>
        <time>2024-04-01T12:37:59Z</time>
      </trkpt>
      <trkpt lat="44.06336" lon="2.61135">
        <ele>573</ele>
        <time>2024-04-01T12:37:59Z</time>
      </trkpt>
      <trkpt lat="44.06338" lon="2.61118">
        <ele>570</ele>
        <time>2024-04-01T12:38:02Z</time>
      </trkpt>
      <trkpt lat="44.06353" lon="2.61084">
        <ele>565</ele>
        <time>2024-04-01T12:38:07Z</time>
      </trkpt>
      <trkpt lat="44.06376" lon="2.61065">
        <ele>569</ele>
        <time>2024-04-01T12:38:11Z</time>
      </trkpt>
      <trkpt lat="44.0639" lon="2.61045">
        <ele>572</ele>
        <time>2024-04-01T12:38:15Z</time>
      </trkpt>
      <trkpt lat="44.06403" lon="2.61017">
        <ele>577</ele>
        <time>2024-04-01T12:38:19Z</time>
      </trkpt>
      <trkpt lat="44.06409" lon="2.60995">
        <ele>581</ele>
        <time>2024-04-01T12:38:22Z</time>
      </trkpt>
      <trkpt lat="44.06396" lon="2.60945">
        <ele>587</ele>
        <time>2024-04-01T12:38:29Z</time>
      </trkpt>
      <trkpt lat="44.06377" lon="2.6091">
        <ele>587</ele>
        <time>2024-04-01T12:38:35Z</time>
      </trkpt>
      <trkpt lat="44.0636" lon="2.60891">
        <ele>584</ele>
        <time>2024-04-01T12:38:39Z</time>
      </trkpt>
      <trkpt lat="44.06338" lon="2.60878">
        <ele>581</ele>
        <time>2024-04-01T12:38:43Z</time>
      </trkpt>
      <trkpt lat="44.06333" lon="2.60861">
        <ele>582</ele>
        <time>2024-04-01T12:38:45Z</time>
      </trkpt>
      <trkpt lat="44.06338" lon="2.60837">
        <ele>586</ele>
        <time>2024-04-01T12:38:48Z</time>
      </trkpt>
      <trkpt lat="44.06353" lon="2.60811">
        <ele>591</ele>
        <time>2024-04-01T12:38:53Z</time>
      </trkpt>
      <trkpt lat="44.06353" lon="2.60796">
        <ele>592</ele>
        <time>2024-04-01T12:38:55Z</time>
      </trkpt>
      <trkpt lat="44.06343" lon="2.60793">
        <ele>592</ele>
        <time>2024-04-01T12:38:56Z</time>
      </trkpt>
      <trkpt lat="44.06307" lon="2.60806">
        <ele>586</ele>
        <time>2024-04-01T12:39:03Z</time>
      </trkpt>
      <trkpt lat="44.0629" lon="2.60805">
        <ele>584</ele>
        <time>2024-04-01T12:39:06Z</time>
      </trkpt>
      <trkpt lat="44.06278" lon="2.60789">
        <ele>584</ele>
        <time>2024-04-01T12:39:09Z</time>
      </trkpt>
      <trkpt lat="44.06275" lon="2.60672">
        <ele>589</ele>
        <time>2024-04-01T12:39:24Z</time>
      </trkpt>
      <trkpt lat="44.06279" lon="2.60631">
        <ele>589</ele>
        <time>2024-04-01T12:39:29Z</time>
      </trkpt>
      <trkpt lat="44.06286" lon="2.60601">
        <ele>589</ele>
        <time>2024-04-01T12:39:33Z</time>
      </trkpt>
      <trkpt lat="44.0631" lon="2.60533">
        <ele>592</ele>
        <time>2024-04-01T12:39:43Z</time>
      </trkpt>
      <trkpt lat="44.06341" lon="2.60434">
        <ele>594</ele>
        <time>2024-04-01T12:39:57Z</time>
      </trkpt>
      <trkpt lat="44.06357" lon="2.60392">
        <ele>594</ele>
        <time>2024-04-01T12:40:03Z</time>
      </trkpt>
      <trkpt lat="44.06399" lon="2.60307">
        <ele>595</ele>
        <time>2024-04-01T12:40:16Z</time>
      </trkpt>
      <trkpt lat="44.06423" lon="2.60247">
        <ele>593</ele>
        <time>2024-04-01T12:40:25Z</time>
      </trkpt>
      <trkpt lat="44.06439" lon="2.60214">
        <ele>596</ele>
        <time>2024-04-01T12:40:30Z</time>
      </trkpt>
      <trkpt lat="44.06466" lon="2.60111">
        <ele>599</ele>
        <time>2024-04-01T12:40:44Z</time>
      </trkpt>
      <trkpt lat="44.06487" lon="2.60058">
        <ele>598</ele>
        <time>2024-04-01T12:40:52Z</time>
      </trkpt>
      <trkpt lat="44.06498" lon="2.60042">
        <ele>598</ele>
        <time>2024-04-01T12:40:54Z</time>
      </trkpt>
      <trkpt lat="44.06538" lon="2.60017">
        <ele>598</ele>
        <time>2024-04-01T12:41:02Z</time>
      </trkpt>
      <trkpt lat="44.06548" lon="2.60015">
        <ele>599</ele>
        <time>2024-04-01T12:41:04Z</time>
      </trkpt>
      <trkpt lat="44.06564" lon="2.60022">
        <ele>601</ele>
        <time>2024-04-01T12:41:07Z</time>
      </trkpt>
      <trkpt lat="44.06575" lon="2.60023">
        <ele>602</ele>
        <time>2024-04-01T12:41:09Z</time>
      </trkpt>
      <trkpt lat="44.06591" lon="2.60013">
        <ele>602</ele>
        <time>2024-04-01T12:41:12Z</time>
      </trkpt>
      <trkpt lat="44.06602" lon="2.6001">
        <ele>602</ele>
        <time>2024-04-01T12:41:14Z</time>
      </trkpt>
      <trkpt lat="44.06636" lon="2.60008">
        <ele>604</ele>
        <time>2024-04-01T12:41:20Z</time>
      </trkpt>
      <trkpt lat="44.0666" lon="2.60011">
        <ele>606</ele>
        <time>2024-04-01T12:41:24Z</time>
      </trkpt>
      <trkpt lat="44.06682" lon="2.60017">
        <ele>608</ele>
        <time>2024-04-01T12:41:28Z</time>
      </trkpt>
      <trkpt lat="44.06699" lon="2.60015">
        <ele>608</ele>
        <time>2024-04-01T12:41:31Z</time>
      </trkpt>
      <trkpt lat="44.06729" lon="2.60001">
        <ele>608</ele>
        <time>2024-04-01T12:41:37Z</time>
      </trkpt>
      <trkpt lat="44.06763" lon="2.59979">
        <ele>611</ele>
        <time>2024-04-01T12:41:44Z</time>
      </trkpt>
      <trkpt lat="44.06805" lon="2.59942">
        <ele>613</ele>
        <time>2024-04-01T12:41:53Z</time>
      </trkpt>
      <trkpt lat="44.06845" lon="2.59913">
        <ele>614</ele>
        <time>2024-04-01T12:42:01Z</time>
      </trkpt>
      <trkpt lat="44.06875" lon="2.599">
        <ele>616</ele>
        <time>2024-04-01T12:42:06Z</time>
      </trkpt>
      <trkpt lat="44.06912" lon="2.59891">
        <ele>617</ele>
        <time>2024-04-01T12:42:13Z</time>
      </trkpt>
      <trkpt lat="44.06919" lon="2.59883">
        <ele>617</ele>
        <time>2024-04-01T12:42:15Z</time>
      </trkpt>
      <trkpt lat="44.06931" lon="2.59864">
        <ele>618</ele>
        <time>2024-04-01T12:42:18Z</time>
      </trkpt>
      <trkpt lat="44.06941" lon="2.59857">
        <ele>618</ele>
        <time>2024-04-01T12:42:20Z</time>
      </trkpt>
      <trkpt lat="44.06994" lon="2.59852">
        <ele>619</ele>
        <time>2024-04-01T12:42:29Z</time>
      </trkpt>
      <trkpt lat="44.07009" lon="2.59848">
        <ele>619</ele>
        <time>2024-04-01T12:42:32Z</time>
      </trkpt>
      <trkpt lat="44.07019" lon="2.59836">
        <ele>620</ele>
        <time>2024-04-01T12:42:34Z</time>
      </trkpt>
      <trkpt lat="44.07042" lon="2.59788">
        <ele>622</ele>
        <time>2024-04-01T12:42:42Z</time>
      </trkpt>
      <trkpt lat="44.07089" lon="2.5968">
        <ele>624</ele>
        <time>2024-04-01T12:42:58Z</time>
      </trkpt>
      <trkpt lat="44.07105" lon="2.59661">
        <ele>624</ele>
        <time>2024-04-01T12:43:02Z</time>
      </trkpt>
      <trkpt lat="44.07235" lon="2.5954">
        <ele>620</ele>
        <time>2024-04-01T12:43:29Z</time>
      </trkpt>
      <trkpt lat="44.07272" lon="2.59512">
        <ele>617</ele>
        <time>2024-04-01T12:43:37Z</time>
      </trkpt>
      <trkpt lat="44.07294" lon="2.5951">
        <ele>616</ele>
        <time>2024-04-01T12:43:41Z</time>
      </trkpt>
      <trkpt lat="44.07315" lon="2.59513">
        <ele>615</ele>
        <time>2024-04-01T12:43:45Z</time>
      </trkpt>
      <trkpt lat="44.07333" lon="2.59509">
        <ele>614</ele>
        <time>2024-04-01T12:43:48Z</time>
      </trkpt>
      <trkpt lat="44.07396" lon="2.59476">
        <ele>615</ele>
        <time>2024-04-01T12:44:00Z</time>
      </trkpt>
      <trkpt lat="44.07433" lon="2.59448">
        <ele>616</ele>
        <time>2024-04-01T12:44:07Z</time>
      </trkpt>
      <trkpt lat="44.07472" lon="2.59376">
        <ele>618</ele>
        <time>2024-04-01T12:44:19Z</time>
      </trkpt>
      <trkpt lat="44.07506" lon="2.59323">
        <ele>621</ele>
        <time>2024-04-01T12:44:28Z</time>
      </trkpt>
      <trkpt lat="44.07574" lon="2.59236">
        <ele>619</ele>
        <time>2024-04-01T12:44:44Z</time>
      </trkpt>
      <trkpt lat="44.0762" lon="2.5919">
        <ele>619</ele>
        <time>2024-04-01T12:44:54Z</time>
      </trkpt>
      <trkpt lat="44.07629" lon="2.5919">
        <ele>619</ele>
        <time>2024-04-01T12:44:56Z</time>
      </trkpt>
      <trkpt lat="44.07669" lon="2.59">
        <ele>621</ele>
        <time>2024-04-01T12:45:21Z</time>
      </trkpt>
      <trkpt lat="44.07707" lon="2.58768">
        <ele>623</ele>
        <time>2024-04-01T12:45:52Z</time>
      </trkpt>
      <trkpt lat="44.0771" lon="2.58731">
        <ele>623</ele>
        <time>2024-04-01T12:45:56Z</time>
      </trkpt>
      <trkpt lat="44.07708" lon="2.58612">
        <ele>623</ele>
        <time>2024-04-01T12:46:12Z</time>
      </trkpt>
      <trkpt lat="44.07706" lon="2.58567">
        <ele>624</ele>
        <time>2024-04-01T12:46:17Z</time>
      </trkpt>
      <trkpt lat="44.07703" lon="2.58535">
        <ele>624</ele>
        <time>2024-04-01T12:46:22Z</time>
      </trkpt>
      <trkpt lat="44.07697" lon="2.58506">
        <ele>625</ele>
        <time>2024-04-01T12:46:25Z</time>
      </trkpt>
      <trkpt lat="44.07675" lon="2.5844">
        <ele>632</ele>
        <time>2024-04-01T12:46:35Z</time>
      </trkpt>
      <trkpt lat="44.07659" lon="2.58374">
        <ele>634</ele>
        <time>2024-04-01T12:46:44Z</time>
      </trkpt>
      <trkpt lat="44.07642" lon="2.58335">
        <ele>634</ele>
        <time>2024-04-01T12:46:49Z</time>
      </trkpt>
      <trkpt lat="44.07615" lon="2.5829">
        <ele>632</ele>
        <time>2024-04-01T12:46:57Z</time>
      </trkpt>
      <trkpt lat="44.07599" lon="2.58271">
        <ele>631</ele>
        <time>2024-04-01T12:47:01Z</time>
      </trkpt>
      <trkpt lat="44.07575" lon="2.58256">
        <ele>630</ele>
        <time>2024-04-01T12:47:05Z</time>
      </trkpt>
      <trkpt lat="44.07552" lon="2.58248">
        <ele>630</ele>
        <time>2024-04-01T12:47:10Z</time>
      </trkpt>
      <trkpt lat="44.07503" lon="2.58205">
        <ele>627</ele>
        <time>2024-04-01T12:47:20Z</time>
      </trkpt>
      <trkpt lat="44.07462" lon="2.58139">
        <ele>624</ele>
        <time>2024-04-01T12:47:31Z</time>
      </trkpt>
      <trkpt lat="44.07439" lon="2.58091">
        <ele>622</ele>
        <time>2024-04-01T12:47:38Z</time>
      </trkpt>
      <trkpt lat="44.07424" lon="2.58068">
        <ele>621</ele>
        <time>2024-04-01T12:47:42Z</time>
      </trkpt>
      <trkpt lat="44.07337" lon="2.5798">
        <ele>616</ele>
        <time>2024-04-01T12:48:02Z</time>
      </trkpt>
      <trkpt lat="44.07292" lon="2.57937">
        <ele>614</ele>
        <time>2024-04-01T12:48:11Z</time>
      </trkpt>
      <trkpt lat="44.07197" lon="2.57858">
        <ele>611</ele>
        <time>2024-04-01T12:48:31Z</time>
      </trkpt>
      <trkpt lat="44.07083" lon="2.57782">
        <ele>607</ele>
        <time>2024-04-01T12:48:53Z</time>
      </trkpt>
      <trkpt lat="44.07006" lon="2.57724">
        <ele>603</ele>
        <time>2024-04-01T12:49:09Z</time>
      </trkpt>
      <trkpt lat="44.06943" lon="2.57673">
        <ele>603</ele>
        <time>2024-04-01T12:49:22Z</time>
      </trkpt>
      <trkpt lat="44.06911" lon="2.57643">
        <ele>603</ele>
        <time>2024-04-01T12:49:29Z</time>
      </trkpt>
      <trkpt lat="44.06872" lon="2.57591">
        <ele>604</ele>
        <time>2024-04-01T12:49:38Z</time>
      </trkpt>
      <trkpt lat="44.06843" lon="2.57559">
        <ele>605</ele>
        <time>2024-04-01T12:49:45Z</time>
      </trkpt>
      <trkpt lat="44.06683" lon="2.57402">
        <ele>608</ele>
        <time>2024-04-01T12:50:20Z</time>
      </trkpt>
      <trkpt lat="44.06629" lon="2.57334">
        <ele>609</ele>
        <time>2024-04-01T12:50:33Z</time>
      </trkpt>
      <trkpt lat="44.06533" lon="2.5722">
        <ele>606</ele>
        <time>2024-04-01T12:50:55Z</time>
      </trkpt>
      <trkpt lat="44.06426" lon="2.57102">
        <ele>604</ele>
        <time>2024-04-01T12:51:20Z</time>
      </trkpt>
      <trkpt lat="44.0638" lon="2.57033">
        <ele>604</ele>
        <time>2024-04-01T12:51:32Z</time>
      </trkpt>
      <trkpt lat="44.06364" lon="2.56994">
        <ele>603</ele>
        <time>2024-04-01T12:51:37Z</time>
      </trkpt>
      <trkpt lat="44.06353" lon="2.56974">
        <ele>603</ele>
        <time>2024-04-01T12:51:41Z</time>
      </trkpt>
      <trkpt lat="44.06316" lon="2.56932">
        <ele>601</ele>
        <time>2024-04-01T12:51:49Z</time>
      </trkpt>
      <trkpt lat="44.06305" lon="2.56911">
        <ele>600</ele>
        <time>2024-04-01T12:51:52Z</time>
      </trkpt>
      <trkpt lat="44.06288" lon="2.56857">
        <ele>599</ele>
        <time>2024-04-01T12:52:00Z</time>
      </trkpt>
      <trkpt lat="44.06273" lon="2.56823">
        <ele>599</ele>
        <time>2024-04-01T12:52:05Z</time>
      </trkpt>
      <trkpt lat="44.06251" lon="2.56791">
        <ele>598</ele>
        <time>2024-04-01T12:52:11Z</time>
      </trkpt>
      <trkpt lat="44.06232" lon="2.56772">
        <ele>598</ele>
        <time>2024-04-01T12:52:15Z</time>
      </trkpt>
      <trkpt lat="44.06177" lon="2.56737">
        <ele>599</ele>
        <time>2024-04-01T12:52:26Z</time>
      </trkpt>
      <trkpt lat="44.0605" lon="2.56666">
        <ele>592</ele>
        <time>2024-04-01T12:52:50Z</time>
      </trkpt>
      <trkpt lat="44.06029" lon="2.56657">
        <ele>590</ele>
        <time>2024-04-01T12:52:54Z</time>
      </trkpt>
      <trkpt lat="44.05993" lon="2.56654">
        <ele>587</ele>
        <time>2024-04-01T12:53:00Z</time>
      </trkpt>
      <trkpt lat="44.05952" lon="2.56648">
        <ele>583</ele>
        <time>2024-04-01T12:53:08Z</time>
      </trkpt>
      <trkpt lat="44.05916" lon="2.56636">
        <ele>580</ele>
        <time>2024-04-01T12:53:14Z</time>
      </trkpt>
      <trkpt lat="44.05867" lon="2.56613">
        <ele>576</ele>
        <time>2024-04-01T12:53:23Z</time>
      </trkpt>
      <trkpt lat="44.0583" lon="2.56587">
        <ele>574</ele>
        <time>2024-04-01T12:53:31Z</time>
      </trkpt>
      <trkpt lat="44.05809" lon="2.56562">
        <ele>573</ele>
        <time>2024-04-01T12:53:36Z</time>
      </trkpt>
      <trkpt lat="44.05786" lon="2.56529">
        <ele>573</ele>
        <time>2024-04-01T12:53:42Z</time>
      </trkpt>
      <trkpt lat="44.05771" lon="2.56519">
        <ele>572</ele>
        <time>2024-04-01T12:53:45Z</time>
      </trkpt>
      <trkpt lat="44.05733" lon="2.56511">
        <ele>572</ele>
        <time>2024-04-01T12:53:51Z</time>
      </trkpt>
      <trkpt lat="44.05693" lon="2.5651">
        <ele>571</ele>
        <time>2024-04-01T12:53:58Z</time>
      </trkpt>
      <trkpt lat="44.0564" lon="2.56525">
        <ele>565</ele>
        <time>2024-04-01T12:54:08Z</time>
      </trkpt>
      <trkpt lat="44.05621" lon="2.56523">
        <ele>564</ele>
        <time>2024-04-01T12:54:12Z</time>
      </trkpt>
      <trkpt lat="44.05605" lon="2.56516">
        <ele>563</ele>
        <time>2024-04-01T12:54:14Z</time>
      </trkpt>
      <trkpt lat="44.05588" lon="2.56493">
        <ele>564</ele>
        <time>2024-04-01T12:54:19Z</time>
      </trkpt>
      <trkpt lat="44.05565" lon="2.56479">
        <ele>561</ele>
        <time>2024-04-01T12:54:23Z</time>
      </trkpt>
      <trkpt lat="44.05505" lon="2.56431">
        <ele>552</ele>
        <time>2024-04-01T12:54:35Z</time>
      </trkpt>
      <trkpt lat="44.05489" lon="2.56398">
        <ele>550</ele>
        <time>2024-04-01T12:54:41Z</time>
      </trkpt>
      <trkpt lat="44.05486" lon="2.56379">
        <ele>550</ele>
        <time>2024-04-01T12:54:43Z</time>
      </trkpt>
      <trkpt lat="44.05486" lon="2.56353">
        <ele>551</ele>
        <time>2024-04-01T12:54:46Z</time>
      </trkpt>
      <trkpt lat="44.05501" lon="2.5628">
        <ele>548</ele>
        <time>2024-04-01T12:54:56Z</time>
      </trkpt>
      <trkpt lat="44.05512" lon="2.56259">
        <ele>548</ele>
        <time>2024-04-01T12:54:59Z</time>
      </trkpt>
      <trkpt lat="44.05526" lon="2.56244">
        <ele>547</ele>
        <time>2024-04-01T12:55:03Z</time>
      </trkpt>
      <trkpt lat="44.05573" lon="2.56228">
        <ele>550</ele>
        <time>2024-04-01T12:55:11Z</time>
      </trkpt>
      <trkpt lat="44.05593" lon="2.56225">
        <ele>552</ele>
        <time>2024-04-01T12:55:15Z</time>
      </trkpt>
      <trkpt lat="44.056" lon="2.56217">
        <ele>552</ele>
        <time>2024-04-01T12:55:16Z</time>
      </trkpt>
      <trkpt lat="44.05598" lon="2.5621">
        <ele>551</ele>
        <time>2024-04-01T12:55:17Z</time>
      </trkpt>
      <trkpt lat="44.05584" lon="2.56206">
        <ele>549</ele>
        <time>2024-04-01T12:55:20Z</time>
      </trkpt>
      <trkpt lat="44.05461" lon="2.56234">
        <ele>542</ele>
        <time>2024-04-01T12:55:42Z</time>
      </trkpt>
      <trkpt lat="44.05406" lon="2.56234">
        <ele>540</ele>
        <time>2024-04-01T12:55:52Z</time>
      </trkpt>
      <trkpt lat="44.05362" lon="2.56221">
        <ele>536</ele>
        <time>2024-04-01T12:56:00Z</time>
      </trkpt>
      <trkpt lat="44.05317" lon="2.56194">
        <ele>530</ele>
        <time>2024-04-01T12:56:09Z</time>
      </trkpt>
      <trkpt lat="44.05244" lon="2.56183">
        <ele>524</ele>
        <time>2024-04-01T12:56:22Z</time>
      </trkpt>
      <trkpt lat="44.05176" lon="2.56155">
        <ele>518</ele>
        <time>2024-04-01T12:56:34Z</time>
      </trkpt>
      <trkpt lat="44.05144" lon="2.56121">
        <ele>507</ele>
        <time>2024-04-01T12:56:41Z</time>
      </trkpt>
      <trkpt lat="44.0511" lon="2.56104">
        <ele>498</ele>
        <time>2024-04-01T12:56:48Z</time>
      </trkpt>
      <trkpt lat="44.05106" lon="2.56094">
        <ele>497</ele>
        <time>2024-04-01T12:56:49Z</time>
      </trkpt>
      <trkpt lat="44.05108" lon="2.56082">
        <ele>497</ele>
        <time>2024-04-01T12:56:51Z</time>
      </trkpt>
      <trkpt lat="44.05115" lon="2.56075">
        <ele>498</ele>
        <time>2024-04-01T12:56:52Z</time>
      </trkpt>
      <trkpt lat="44.05125" lon="2.56079">
        <ele>500</ele>
        <time>2024-04-01T12:56:54Z</time>
      </trkpt>
      <trkpt lat="44.05142" lon="2.56098">
        <ele>505</ele>
        <time>2024-04-01T12:56:58Z</time>
      </trkpt>
      <trkpt lat="44.05179" lon="2.56121">
        <ele>514</ele>
        <time>2024-04-01T12:57:05Z</time>
      </trkpt>
      <trkpt lat="44.05208" lon="2.56125">
        <ele>518</ele>
        <time>2024-04-01T12:57:11Z</time>
      </trkpt>
      <trkpt lat="44.05214" lon="2.5612">
        <ele>518</ele>
        <time>2024-04-01T12:57:12Z</time>
      </trkpt>
      <trkpt lat="44.05215" lon="2.56107">
        <ele>518</ele>
        <time>2024-04-01T12:57:13Z</time>
      </trkpt>
      <trkpt lat="44.05168" lon="2.56082">
        <ele>508</ele>
        <time>2024-04-01T12:57:22Z</time>
      </trkpt>
      <trkpt lat="44.05133" lon="2.56045">
        <ele>500</ele>
        <time>2024-04-01T12:57:30Z</time>
      </trkpt>
      <trkpt lat="44.05102" lon="2.56027">
        <ele>492</ele>
        <time>2024-04-01T12:57:36Z</time>
      </trkpt>
      <trkpt lat="44.05081" lon="2.56026">
        <ele>487</ele>
        <time>2024-04-01T12:57:40Z</time>
      </trkpt>
      <trkpt lat="44.05067" lon="2.56032">
        <ele>488</ele>
        <time>2024-04-01T12:57:43Z</time>
      </trkpt>
      <trkpt lat="44.05057" lon="2.56045">
        <ele>489</ele>
        <time>2024-04-01T12:57:45Z</time>
      </trkpt>
      <trkpt lat="44.0505" lon="2.56071">
        <ele>490</ele>
        <time>2024-04-01T12:57:49Z</time>
      </trkpt>
      <trkpt lat="44.05054" lon="2.56121">
        <ele>489</ele>
        <time>2024-04-01T12:57:55Z</time>
      </trkpt>
      <trkpt lat="44.05075" lon="2.56154">
        <ele>490</ele>
        <time>2024-04-01T12:58:01Z</time>
      </trkpt>
      <trkpt lat="44.05078" lon="2.56165">
        <ele>491</ele>
        <time>2024-04-01T12:58:02Z</time>
      </trkpt>
      <trkpt lat="44.05068" lon="2.56189">
        <ele>489</ele>
        <time>2024-04-01T12:58:06Z</time>
      </trkpt>
      <trkpt lat="44.05061" lon="2.56199">
        <ele>488</ele>
        <time>2024-04-01T12:58:07Z</time>
      </trkpt>
      <trkpt lat="44.05047" lon="2.56215">
        <ele>488</ele>
        <time>2024-04-01T12:58:11Z</time>
      </trkpt>
      <trkpt lat="44.05035" lon="2.56216">
        <ele>487</ele>
        <time>2024-04-01T12:58:13Z</time>
      </trkpt>
      <trkpt lat="44.05045" lon="2.56227">
        <ele>487</ele>
        <time>2024-04-01T12:58:15Z</time>
      </trkpt>
      <trkpt lat="44.0506" lon="2.56238">
        <ele>488</ele>
        <time>2024-04-01T12:58:18Z</time>
      </trkpt>
      <trkpt lat="44.05065" lon="2.56248">
        <ele>488</ele>
        <time>2024-04-01T12:58:20Z</time>
      </trkpt>
      <trkpt lat="44.05066" lon="2.5626">
        <ele>489</ele>
        <time>2024-04-01T12:58:21Z</time>
      </trkpt>
      <trkpt lat="44.05065" lon="2.56274">
        <ele>490</ele>
        <time>2024-04-01T12:58:23Z</time>
      </trkpt>
      <trkpt lat="44.05055" lon="2.5629">
        <ele>490</ele>
        <time>2024-04-01T12:58:26Z</time>
      </trkpt>
      <trkpt lat="44.0505" lon="2.56304">
        <ele>490</ele>
        <time>2024-04-01T12:58:28Z</time>
      </trkpt>
      <trkpt lat="44.05046" lon="2.56305">
        <ele>490</ele>
        <time>2024-04-01T12:58:28Z</time>
      </trkpt>
      <trkpt lat="44.05043" lon="2.56301">
        <ele>489</ele>
        <time>2024-04-01T12:58:29Z</time>
      </trkpt>
      <trkpt lat="44.05041" lon="2.56275">
        <ele>488</ele>
        <time>2024-04-01T12:58:33Z</time>
      </trkpt>
      <trkpt lat="44.05037" lon="2.56259">
        <ele>488</ele>
        <time>2024-04-01T12:58:35Z</time>
      </trkpt>
      <trkpt lat="44.05031" lon="2.56251">
        <ele>487</ele>
        <time>2024-04-01T12:58:36Z</time>
      </trkpt>
      <trkpt lat="44.05023" lon="2.56249">
        <ele>487</ele>
        <time>2024-04-01T12:58:38Z</time>
      </trkpt>
      <trkpt lat="44.04997" lon="2.56255">
        <ele>488</ele>
        <time>2024-04-01T12:58:42Z</time>
      </trkpt>
      <trkpt lat="44.04992" lon="2.5626">
        <ele>489</ele>
        <time>2024-04-01T12:58:43Z</time>
      </trkpt>
      <trkpt lat="44.04985" lon="2.56279">
        <ele>489</ele>
        <time>2024-04-01T12:58:46Z</time>
      </trkpt>
      <trkpt lat="44.04977" lon="2.56288">
        <ele>491</ele>
        <time>2024-04-01T12:58:48Z</time>
      </trkpt>
      <trkpt lat="44.04971" lon="2.56289">
        <ele>493</ele>
        <time>2024-04-01T12:58:49Z</time>
      </trkpt>
      <trkpt lat="44.04964" lon="2.56285">
        <ele>495</ele>
        <time>2024-04-01T12:58:50Z</time>
      </trkpt>
      <trkpt lat="44.04951" lon="2.56265">
        <ele>499</ele>
        <time>2024-04-01T12:58:54Z</time>
      </trkpt>
      <trkpt lat="44.04944" lon="2.56261">
        <ele>501</ele>
        <time>2024-04-01T12:58:55Z</time>
      </trkpt>
      <trkpt lat="44.04922" lon="2.56256">
        <ele>506</ele>
        <time>2024-04-01T12:58:59Z</time>
      </trkpt>
      <trkpt lat="44.04904" lon="2.56256">
        <ele>511</ele>
        <time>2024-04-01T12:59:02Z</time>
      </trkpt>
      <trkpt lat="44.04863" lon="2.56264">
        <ele>523</ele>
        <time>2024-04-01T12:59:10Z</time>
      </trkpt>
      <trkpt lat="44.0486" lon="2.56267">
        <ele>524</ele>
        <time>2024-04-01T12:59:10Z</time>
      </trkpt>
      <trkpt lat="44.04862" lon="2.56271">
        <ele>523</ele>
        <time>2024-04-01T12:59:11Z</time>
      </trkpt>
      <trkpt lat="44.0488" lon="2.56281">
        <ele>518</ele>
        <time>2024-04-01T12:59:14Z</time>
      </trkpt>
      <trkpt lat="44.04886" lon="2.5629">
        <ele>516</ele>
        <time>2024-04-01T12:59:16Z</time>
      </trkpt>
      <trkpt lat="44.04887" lon="2.56296">
        <ele>515</ele>
        <time>2024-04-01T12:59:17Z</time>
      </trkpt>
      <trkpt lat="44.04883" lon="2.56298">
        <ele>517</ele>
        <time>2024-04-01T12:59:18Z</time>
      </trkpt>
      <trkpt lat="44.04868" lon="2.56297">
        <ele>521</ele>
        <time>2024-04-01T12:59:20Z</time>
      </trkpt>
      <trkpt lat="44.04863" lon="2.56298">
        <ele>523</ele>
        <time>2024-04-01T12:59:21Z</time>
      </trkpt>
      <trkpt lat="44.04844" lon="2.56334">
        <ele>528</ele>
        <time>2024-04-01T12:59:27Z</time>
      </trkpt>
      <trkpt lat="44.04835" lon="2.56343">
        <ele>531</ele>
        <time>2024-04-01T12:59:29Z</time>
      </trkpt>
      <trkpt lat="44.04824" lon="2.56348">
        <ele>533</ele>
        <time>2024-04-01T12:59:31Z</time>
      </trkpt>
      <trkpt lat="44.04809" lon="2.56343">
        <ele>537</ele>
        <time>2024-04-01T12:59:34Z</time>
      </trkpt>
      <trkpt lat="44.04802" lon="2.56344">
        <ele>539</ele>
        <time>2024-04-01T12:59:35Z</time>
      </trkpt>
      <trkpt lat="44.04797" lon="2.56354">
        <ele>540</ele>
        <time>2024-04-01T12:59:36Z</time>
      </trkpt>
      <trkpt lat="44.04787" lon="2.5638">
        <ele>541</ele>
        <time>2024-04-01T12:59:40Z</time>
      </trkpt>
      <trkpt lat="44.04775" lon="2.564">
        <ele>545</ele>
        <time>2024-04-01T12:59:44Z</time>
      </trkpt>
      <trkpt lat="44.0476" lon="2.56416">
        <ele>550</ele>
        <time>2024-04-01T12:59:47Z</time>
      </trkpt>
      <trkpt lat="44.04747" lon="2.56443">
        <ele>553</ele>
        <time>2024-04-01T12:59:51Z</time>
      </trkpt>
      <trkpt lat="44.04717" lon="2.56488">
        <ele>559</ele>
        <time>2024-04-01T12:59:59Z</time>
      </trkpt>
      <trkpt lat="44.04693" lon="2.56517">
        <ele>564</ele>
        <time>2024-04-01T13:00:05Z</time>
      </trkpt>
      <trkpt lat="44.04684" lon="2.56525">
        <ele>566</ele>
        <time>2024-04-01T13:00:06Z</time>
      </trkpt>
      <trkpt lat="44.04616" lon="2.56556">
        <ele>577</ele>
        <time>2024-04-01T13:00:19Z</time>
      </trkpt>
      <trkpt lat="44.04519" lon="2.56628">
        <ele>587</ele>
        <time>2024-04-01T13:00:39Z</time>
      </trkpt>
      <trkpt lat="44.04497" lon="2.56651">
        <ele>588</ele>
        <time>2024-04-01T13:00:44Z</time>
      </trkpt>
      <trkpt lat="44.04486" lon="2.56659">
        <ele>589</ele>
        <time>2024-04-01T13:00:46Z</time>
      </trkpt>
      <trkpt lat="44.04465" lon="2.56688">
        <ele>589</ele>
        <time>2024-04-01T13:00:51Z</time>
      </trkpt>
      <trkpt lat="44.04418" lon="2.56741">
        <ele>591</ele>
        <time>2024-04-01T13:01:02Z</time>
      </trkpt>
      <trkpt lat="44.04374" lon="2.56775">
        <ele>591</ele>
        <time>2024-04-01T13:01:11Z</time>
      </trkpt>
      <trkpt lat="44.0434" lon="2.5681">
        <ele>592</ele>
        <time>2024-04-01T13:01:18Z</time>
      </trkpt>
      <trkpt lat="44.04285" lon="2.56877">
        <ele>594</ele>
        <time>2024-04-01T13:01:31Z</time>
      </trkpt>
      <trkpt lat="44.04225" lon="2.56945">
        <ele>597</ele>
        <time>2024-04-01T13:01:45Z</time>
      </trkpt>
      <trkpt lat="44.04175" lon="2.56985">
        <ele>600</ele>
        <time>2024-04-01T13:01:55Z</time>
      </trkpt>
      <trkpt lat="44.04152" lon="2.56997">
        <ele>602</ele>
        <time>2024-04-01T13:02:00Z</time>
      </trkpt>
      <trkpt lat="44.04132" lon="2.56998">
        <ele>603</ele>
        <time>2024-04-01T13:02:03Z</time>
      </trkpt>
      <trkpt lat="44.04077" lon="2.56982">
        <ele>606</ele>
        <time>2024-04-01T13:02:13Z</time>
      </trkpt>
      <trkpt lat="44.04047" lon="2.56977">
        <ele>607</ele>
        <time>2024-04-01T13:02:19Z</time>
      </trkpt>
      <trkpt lat="44.04005" lon="2.56978">
        <ele>608</ele>
        <time>2024-04-01T13:02:26Z</time>
      </trkpt>
      <trkpt lat="44.03959" lon="2.56984">
        <ele>610</ele>
        <time>2024-04-01T13:02:34Z</time>
      </trkpt>
      <trkpt lat="44.03931" lon="2.56981">
        <ele>610</ele>
        <time>2024-04-01T13:02:39Z</time>
      </trkpt>
      <trkpt lat="44.039" lon="2.56973">
        <ele>611</ele>
        <time>2024-04-01T13:02:45Z</time>
      </trkpt>
      <trkpt lat="44.03867" lon="2.56968">
        <ele>612</ele>
        <time>2024-04-01T13:02:51Z</time>
      </trkpt>
      <trkpt lat="44.03823" lon="2.56967">
        <ele>614</ele>
        <time>2024-04-01T13:02:59Z</time>
      </trkpt>
      <trkpt lat="44.03809" lon="2.5696">
        <ele>615</ele>
        <time>2024-04-01T13:03:01Z</time>
      </trkpt>
      <trkpt lat="44.03614" lon="2.56733">
        <ele>624</ele>
        <time>2024-04-01T13:03:47Z</time>
      </trkpt>
      <trkpt lat="44.03563" lon="2.5668">
        <ele>623</ele>
        <time>2024-04-01T13:03:58Z</time>
      </trkpt>
      <trkpt lat="44.03512" lon="2.56654">
        <ele>623</ele>
        <time>2024-04-01T13:04:08Z</time>
      </trkpt>
      <trkpt lat="44.03449" lon="2.56629">
        <ele>622</ele>
        <time>2024-04-01T13:04:19Z</time>
      </trkpt>
      <trkpt lat="44.03417" lon="2.56623">
        <ele>621</ele>
        <time>2024-04-01T13:04:25Z</time>
      </trkpt>
      <trkpt lat="44.03356" lon="2.56622">
        <ele>617</ele>
        <time>2024-04-01T13:04:36Z</time>
      </trkpt>
      <trkpt lat="44.03353" lon="2.56624">
        <ele>617</ele>
        <time>2024-04-01T13:04:36Z</time>
      </trkpt>
      <trkpt lat="44.03349" lon="2.56586">
        <ele>617</ele>
        <time>2024-04-01T13:04:41Z</time>
      </trkpt>
      <trkpt lat="44.03342" lon="2.56556">
        <ele>617</ele>
        <time>2024-04-01T13:04:45Z</time>
      </trkpt>
      <trkpt lat="44.03218" lon="2.56259">
        <ele>609</ele>
        <time>2024-04-01T13:05:29Z</time>
      </trkpt>
      <trkpt lat="44.03175" lon="2.56142">
        <ele>609</ele>
        <time>2024-04-01T13:05:46Z</time>
      </trkpt>
      <trkpt lat="44.03131" lon="2.55921">
        <ele>609</ele>
        <time>2024-04-01T13:06:15Z</time>
      </trkpt>
      <trkpt lat="44.03099" lon="2.55737">
        <ele>611</ele>
        <time>2024-04-01T13:06:40Z</time>
      </trkpt>
      <trkpt lat="44.03096" lon="2.55694">
        <ele>612</ele>
        <time>2024-04-01T13:06:45Z</time>
      </trkpt>
      <trkpt lat="44.03095" lon="2.55552">
        <ele>612</ele>
        <time>2024-04-01T13:07:03Z</time>
      </trkpt>
      <trkpt lat="44.03077" lon="2.55325">
        <ele>605</ele>
        <time>2024-04-01T13:07:33Z</time>
      </trkpt>
      <trkpt lat="44.03059" lon="2.55049">
        <ele>597</ele>
        <time>2024-04-01T13:08:08Z</time>
      </trkpt>
      <trkpt lat="44.03037" lon="2.54785">
        <ele>590</ele>
        <time>2024-04-01T13:08:42Z</time>
      </trkpt>
      <trkpt lat="44.03032" lon="2.54785">
        <ele>590</ele>
        <time>2024-04-01T13:08:43Z</time>
      </trkpt>
      <trkpt lat="44.03027" lon="2.54766">
        <ele>590</ele>
        <time>2024-04-01T13:08:46Z</time>
      </trkpt>
      <trkpt lat="44.03014" lon="2.54741">
        <ele>589</ele>
        <time>2024-04-01T13:08:49Z</time>
      </trkpt>
      <trkpt lat="44.02963" lon="2.54666">
        <ele>588</ele>
        <time>2024-04-01T13:09:03Z</time>
      </trkpt>
      <trkpt lat="44.02955" lon="2.54658">
        <ele>587</ele>
        <time>2024-04-01T13:09:04Z</time>
      </trkpt>
      <trkpt lat="44.02906" lon="2.54636">
        <ele>584</ele>
        <time>2024-04-01T13:09:14Z</time>
      </trkpt>
      <trkpt lat="44.029" lon="2.54628">
        <ele>584</ele>
        <time>2024-04-01T13:09:15Z</time>
      </trkpt>
      <trkpt lat="44.02909" lon="2.5462">
        <ele>584</ele>
        <time>2024-04-01T13:09:17Z</time>
      </trkpt>
      <trkpt lat="44.02918" lon="2.54607">
        <ele>584</ele>
        <time>2024-04-01T13:09:19Z</time>
      </trkpt>
      <trkpt lat="44.02932" lon="2.54597">
        <ele>585</ele>
        <time>2024-04-01T13:09:22Z</time>
      </trkpt>
      <trkpt lat="44.02991" lon="2.54526">
        <ele>585</ele>
        <time>2024-04-01T13:09:36Z</time>
      </trkpt>
      <trkpt lat="44.03009" lon="2.54516">
        <ele>585</ele>
        <time>2024-04-01T13:09:39Z</time>
      </trkpt>
      <trkpt lat="44.03022" lon="2.54514">
        <ele>585</ele>
        <time>2024-04-01T13:09:42Z</time>
      </trkpt>
      <trkpt lat="44.03031" lon="2.54347">
        <ele>580</ele>
        <time>2024-04-01T13:10:03Z</time>
      </trkpt>
      <trkpt lat="44.0304" lon="2.54253">
        <ele>581</ele>
        <time>2024-04-01T13:10:15Z</time>
      </trkpt>
      <trkpt lat="44.03046" lon="2.54219">
        <ele>580</ele>
        <time>2024-04-01T13:10:20Z</time>
      </trkpt>
      <trkpt lat="44.03042" lon="2.5421">
        <ele>580</ele>
        <time>2024-04-01T13:10:21Z</time>
      </trkpt>
      <trkpt lat="44.03042" lon="2.54076">
        <ele>579</ele>
        <time>2024-04-01T13:10:38Z</time>
      </trkpt>
      <trkpt lat="44.03038" lon="2.53977">
        <ele>577</ele>
        <time>2024-04-01T13:10:51Z</time>
      </trkpt>
      <trkpt lat="44.03041" lon="2.5397">
        <ele>577</ele>
        <time>2024-04-01T13:10:52Z</time>
      </trkpt>
      <trkpt lat="44.0308" lon="2.54004">
        <ele>579</ele>
        <time>2024-04-01T13:11:00Z</time>
      </trkpt>
      <trkpt lat="44.03096" lon="2.54015">
        <ele>579</ele>
        <time>2024-04-01T13:11:03Z</time>
      </trkpt>
      <trkpt lat="44.03102" lon="2.53994">
        <ele>578</ele>
        <time>2024-04-01T13:11:06Z</time>
      </trkpt>
      <trkpt lat="44.03103" lon="2.53974">
        <ele>578</ele>
        <time>2024-04-01T13:11:09Z</time>
      </trkpt>
      <trkpt lat="44.03122" lon="2.53869">
        <ele>576</ele>
        <time>2024-04-01T13:11:23Z</time>
      </trkpt>
      <trkpt lat="44.03134" lon="2.53811">
        <ele>575</ele>
        <time>2024-04-01T13:11:30Z</time>
      </trkpt>
      <trkpt lat="44.03148" lon="2.53755">
        <ele>572</ele>
        <time>2024-04-01T13:11:38Z</time>
      </trkpt>
      <trkpt lat="44.03173" lon="2.53657">
        <ele>571</ele>
        <time>2024-04-01T13:11:51Z</time>
      </trkpt>
      <trkpt lat="44.03215" lon="2.53674">
        <ele>570</ele>
        <time>2024-04-01T13:11:59Z</time>
      </trkpt>
      <trkpt lat="44.0322" lon="2.53662">
        <ele>570</ele>
        <time>2024-04-01T13:12:01Z</time>
      </trkpt>
      <trkpt lat="44.03236" lon="2.53615">
        <ele>568</ele>
        <time>2024-04-01T13:12:08Z</time>
      </trkpt>
      <trkpt lat="44.03252" lon="2.53552">
        <ele>567</ele>
        <time>2024-04-01T13:12:16Z</time>
      </trkpt>
      <trkpt lat="44.03325" lon="2.53348">
        <ele>559</ele>
        <time>2024-04-01T13:12:45Z</time>
      </trkpt>
      <trkpt lat="44.03335" lon="2.53325">
        <ele>558</ele>
        <time>2024-04-01T13:12:49Z</time>
      </trkpt>
      <trkpt lat="44.03395" lon="2.53343">
        <ele>557</ele>
        <time>2024-04-01T13:13:00Z</time>
      </trkpt>
      <trkpt lat="44.03427" lon="2.5335">
        <ele>556</ele>
        <time>2024-04-01T13:13:05Z</time>
      </trkpt>
      <trkpt lat="44.03471" lon="2.53278">
        <ele>554</ele>
        <time>2024-04-01T13:13:17Z</time>
      </trkpt>
      <trkpt lat="44.03548" lon="2.53155">
        <ele>551</ele>
        <time>2024-04-01T13:13:38Z</time>
      </trkpt>
      <trkpt lat="44.03616" lon="2.53081">
        <ele>549</ele>
        <time>2024-04-01T13:13:54Z</time>
      </trkpt>
      <trkpt lat="44.03662" lon="2.53023">
        <ele>547</ele>
        <time>2024-04-01T13:14:05Z</time>
      </trkpt>
      <trkpt lat="44.03671" lon="2.53014">
        <ele>546</ele>
        <time>2024-04-01T13:14:07Z</time>
      </trkpt>
      <trkpt lat="44.0367" lon="2.5301">
        <ele>546</ele>
        <time>2024-04-01T13:14:07Z</time>
      </trkpt>
      <trkpt lat="44.03671" lon="2.52998">
        <ele>546</ele>
        <time>2024-04-01T13:14:09Z</time>
      </trkpt>
      <trkpt lat="44.03708" lon="2.52859">
        <ele>547</ele>
        <time>2024-04-01T13:14:28Z</time>
      </trkpt>
      <trkpt lat="44.03715" lon="2.52827">
        <ele>547</ele>
        <time>2024-04-01T13:14:32Z</time>
      </trkpt>
      <trkpt lat="44.03715" lon="2.52813">
        <ele>547</ele>
        <time>2024-04-01T13:14:34Z</time>
      </trkpt>
      <trkpt lat="44.03713" lon="2.52807">
        <ele>547</ele>
        <time>2024-04-01T13:14:35Z</time>
      </trkpt>
      <trkpt lat="44.03645" lon="2.52706">
        <ele>547</ele>
        <time>2024-04-01T13:14:52Z</time>
      </trkpt>
      <trkpt lat="44.03653" lon="2.52686">
        <ele>546</ele>
        <time>2024-04-01T13:14:55Z</time>
      </trkpt>
      <trkpt lat="44.03686" lon="2.52539">
        <ele>544</ele>
        <time>2024-04-01T13:15:15Z</time>
      </trkpt>
      <trkpt lat="44.03688" lon="2.52532">
        <ele>544</ele>
        <time>2024-04-01T13:15:16Z</time>
      </trkpt>
      <trkpt lat="44.03704" lon="2.52522">
        <ele>544</ele>
        <time>2024-04-01T13:15:19Z</time>
      </trkpt>
      <trkpt lat="44.03688" lon="2.52479">
        <ele>544</ele>
        <time>2024-04-01T13:15:25Z</time>
      </trkpt>
      <trkpt lat="44.03629" lon="2.52455">
        <ele>545</ele>
        <time>2024-04-01T13:15:36Z</time>
      </trkpt>
      <trkpt lat="44.03663" lon="2.52292">
        <ele>542</ele>
        <time>2024-04-01T13:15:58Z</time>
      </trkpt>
      <trkpt lat="44.03672" lon="2.52285">
        <ele>542</ele>
        <time>2024-04-01T13:16:00Z</time>
      </trkpt>
      <trkpt lat="44.03675" lon="2.52279">
        <ele>542</ele>
        <time>2024-04-01T13:16:01Z</time>
      </trkpt>
      <trkpt lat="44.03691" lon="2.52227">
        <ele>541</ele>
        <time>2024-04-01T13:16:08Z</time>
      </trkpt>
      <trkpt lat="44.03694" lon="2.52221">
        <ele>541</ele>
        <time>2024-04-01T13:16:09Z</time>
      </trkpt>
      <trkpt lat="44.03698" lon="2.52219">
        <ele>541</ele>
        <time>2024-04-01T13:16:10Z</time>
      </trkpt>
      <trkpt lat="44.03704" lon="2.5222">
        <ele>541</ele>
        <time>2024-04-01T13:16:11Z</time>
      </trkpt>
      <trkpt lat="44.03758" lon="2.52244">
        <ele>539</ele>
        <time>2024-04-01T13:16:21Z</time>
      </trkpt>
      <trkpt lat="44.0377" lon="2.52184">
        <ele>538</ele>
        <time>2024-04-01T13:16:29Z</time>
      </trkpt>
      <trkpt lat="44.03773" lon="2.52177">
        <ele>538</ele>
        <time>2024-04-01T13:16:30Z</time>
      </trkpt>
      <trkpt lat="44.03781" lon="2.52173">
        <ele>538</ele>
        <time>2024-04-01T13:16:31Z</time>
      </trkpt>
      <trkpt lat="44.03792" lon="2.52177">
        <ele>537</ele>
        <time>2024-04-01T13:16:33Z</time>
      </trkpt>
      <trkpt lat="44.03806" lon="2.52104">
        <ele>538</ele>
        <time>2024-04-01T13:16:43Z</time>
      </trkpt>
      <trkpt lat="44.03812" lon="2.52063">
        <ele>538</ele>
        <time>2024-04-01T13:16:48Z</time>
      </trkpt>
      <trkpt lat="44.03815" lon="2.52033">
        <ele>539</ele>
        <time>2024-04-01T13:16:52Z</time>
      </trkpt>
      <trkpt lat="44.03813" lon="2.52007">
        <ele>540</ele>
        <time>2024-04-01T13:16:56Z</time>
      </trkpt>
      <trkpt lat="44.03809" lon="2.51992">
        <ele>540</ele>
        <time>2024-04-01T13:16:58Z</time>
      </trkpt>
      <trkpt lat="44.03802" lon="2.51974">
        <ele>540</ele>
        <time>2024-04-01T13:17:00Z</time>
      </trkpt>
      <trkpt lat="44.03772" lon="2.51932">
        <ele>541</ele>
        <time>2024-04-01T13:17:08Z</time>
      </trkpt>
      <trkpt lat="44.03778" lon="2.51926">
        <ele>541</ele>
        <time>2024-04-01T13:17:09Z</time>
      </trkpt>
      <trkpt lat="44.03801" lon="2.51889">
        <ele>540</ele>
        <time>2024-04-01T13:17:15Z</time>
      </trkpt>
      <trkpt lat="44.03826" lon="2.51856">
        <ele>541</ele>
        <time>2024-04-01T13:17:21Z</time>
      </trkpt>
      <trkpt lat="44.03937" lon="2.5174">
        <ele>534</ele>
        <time>2024-04-01T13:17:46Z</time>
      </trkpt>
      <trkpt lat="44.03963" lon="2.51714">
        <ele>533</ele>
        <time>2024-04-01T13:17:52Z</time>
      </trkpt>
      <trkpt lat="44.04001" lon="2.5169">
        <ele>532</ele>
        <time>2024-04-01T13:17:59Z</time>
      </trkpt>
      <trkpt lat="44.04047" lon="2.5167">
        <ele>533</ele>
        <time>2024-04-01T13:18:08Z</time>
      </trkpt>
      <trkpt lat="44.04082" lon="2.51661">
        <ele>533</ele>
        <time>2024-04-01T13:18:14Z</time>
      </trkpt>
      <trkpt lat="44.04123" lon="2.51646">
        <ele>533</ele>
        <time>2024-04-01T13:18:22Z</time>
      </trkpt>
      <trkpt lat="44.04153" lon="2.51632">
        <ele>533</ele>
        <time>2024-04-01T13:18:27Z</time>
      </trkpt>
      <trkpt lat="44.04172" lon="2.51615">
        <ele>533</ele>
        <time>2024-04-01T13:18:31Z</time>
      </trkpt>
      <trkpt lat="44.04295" lon="2.51476">
        <ele>528</ele>
        <time>2024-04-01T13:19:00Z</time>
      </trkpt>
      <trkpt lat="44.04328" lon="2.51431">
        <ele>528</ele>
        <time>2024-04-01T13:19:08Z</time>
      </trkpt>
      <trkpt lat="44.0437" lon="2.51383">
        <ele>529</ele>
        <time>2024-04-01T13:19:17Z</time>
      </trkpt>
      <trkpt lat="44.04402" lon="2.51353">
        <ele>529</ele>
        <time>2024-04-01T13:19:24Z</time>
      </trkpt>
      <trkpt lat="44.04484" lon="2.51287">
        <ele>527</ele>
        <time>2024-04-01T13:19:41Z</time>
      </trkpt>
      <trkpt lat="44.04524" lon="2.51247">
        <ele>525</ele>
        <time>2024-04-01T13:19:50Z</time>
      </trkpt>
      <trkpt lat="44.04557" lon="2.51201">
        <ele>522</ele>
        <time>2024-04-01T13:19:58Z</time>
      </trkpt>
      <trkpt lat="44.04598" lon="2.51111">
        <ele>519</ele>
        <time>2024-04-01T13:20:12Z</time>
      </trkpt>
      <trkpt lat="44.04624" lon="2.51037">
        <ele>516</ele>
        <time>2024-04-01T13:20:22Z</time>
      </trkpt>
      <trkpt lat="44.0466" lon="2.50971">
        <ele>512</ele>
        <time>2024-04-01T13:20:33Z</time>
      </trkpt>
      <trkpt lat="44.04729" lon="2.50885">
        <ele>505</ele>
        <time>2024-04-01T13:20:49Z</time>
      </trkpt>
      <trkpt lat="44.04739" lon="2.50852">
        <ele>503</ele>
        <time>2024-04-01T13:20:54Z</time>
      </trkpt>
      <trkpt lat="44.04736" lon="2.50815">
        <ele>502</ele>
        <time>2024-04-01T13:20:59Z</time>
      </trkpt>
      <trkpt lat="44.04718" lon="2.50781">
        <ele>502</ele>
        <time>2024-04-01T13:21:04Z</time>
      </trkpt>
      <trkpt lat="44.04711" lon="2.5075">
        <ele>501</ele>
        <time>2024-04-01T13:21:08Z</time>
      </trkpt>
      <trkpt lat="44.04715" lon="2.50721">
        <ele>503</ele>
        <time>2024-04-01T13:21:12Z</time>
      </trkpt>
      <trkpt lat="44.04761" lon="2.50607">
        <ele>511</ele>
        <time>2024-04-01T13:21:29Z</time>
      </trkpt>
      <trkpt lat="44.04768" lon="2.50596">
        <ele>511</ele>
        <time>2024-04-01T13:21:31Z</time>
      </trkpt>
      <trkpt lat="44.0478" lon="2.5059">
        <ele>512</ele>
        <time>2024-04-01T13:21:33Z</time>
      </trkpt>
      <trkpt lat="44.04791" lon="2.50591">
        <ele>513</ele>
        <time>2024-04-01T13:21:35Z</time>
      </trkpt>
      <trkpt lat="44.04861" lon="2.50607">
        <ele>516</ele>
        <time>2024-04-01T13:21:48Z</time>
      </trkpt>
      <trkpt lat="44.04876" lon="2.50608">
        <ele>516</ele>
        <time>2024-04-01T13:21:50Z</time>
      </trkpt>
      <trkpt lat="44.04882" lon="2.50603">
        <ele>516</ele>
        <time>2024-04-01T13:21:52Z</time>
      </trkpt>
      <trkpt lat="44.04892" lon="2.50604">
        <ele>517</ele>
        <time>2024-04-01T13:21:53Z</time>
      </trkpt>
      <trkpt lat="44.04902" lon="2.50585">
        <ele>517</ele>
        <time>2024-04-01T13:21:56Z</time>
      </trkpt>
      <trkpt lat="44.04901" lon="2.50576">
        <ele>517</ele>
        <time>2024-04-01T13:21:57Z</time>
      </trkpt>
      <trkpt lat="44.04903" lon="2.5055">
        <ele>518</ele>
        <time>2024-04-01T13:22:01Z</time>
      </trkpt>
      <trkpt lat="44.04898" lon="2.50539">
        <ele>517</ele>
        <time>2024-04-01T13:22:03Z</time>
      </trkpt>
      <trkpt lat="44.04905" lon="2.50448">
        <ele>518</ele>
        <time>2024-04-01T13:22:14Z</time>
      </trkpt>
      <trkpt lat="44.04917" lon="2.50361">
        <ele>520</ele>
        <time>2024-04-01T13:22:26Z</time>
      </trkpt>
      <trkpt lat="44.04925" lon="2.5034">
        <ele>520</ele>
        <time>2024-04-01T13:22:29Z</time>
      </trkpt>
      <trkpt lat="44.04847" lon="2.50245">
        <ele>519</ele>
        <time>2024-04-01T13:22:47Z</time>
      </trkpt>
      <trkpt lat="44.04763" lon="2.50145">
        <ele>519</ele>
        <time>2024-04-01T13:23:07Z</time>
      </trkpt>
      <trkpt lat="44.04712" lon="2.5008">
        <ele>520</ele>
        <time>2024-04-01T13:23:19Z</time>
      </trkpt>
      <trkpt lat="44.04688" lon="2.50032">
        <ele>520</ele>
        <time>2024-04-01T13:23:26Z</time>
      </trkpt>
      <trkpt lat="44.04654" lon="2.49995">
        <ele>520</ele>
        <time>2024-04-01T13:23:34Z</time>
      </trkpt>
      <trkpt lat="44.04624" lon="2.49958">
        <ele>520</ele>
        <time>2024-04-01T13:23:41Z</time>
      </trkpt>
      <trkpt lat="44.04599" lon="2.499">
        <ele>521</ele>
        <time>2024-04-01T13:23:50Z</time>
      </trkpt>
      <trkpt lat="44.04583" lon="2.49856">
        <ele>522</ele>
        <time>2024-04-01T13:23:56Z</time>
      </trkpt>
      <trkpt lat="44.04515" lon="2.49628">
        <ele>520</ele>
        <time>2024-04-01T13:24:28Z</time>
      </trkpt>
      <trkpt lat="44.04484" lon="2.495">
        <ele>517</ele>
        <time>2024-04-01T13:24:45Z</time>
      </trkpt>
      <trkpt lat="44.04459" lon="2.49422">
        <ele>516</ele>
        <time>2024-04-01T13:24:56Z</time>
      </trkpt>
      <trkpt lat="44.04446" lon="2.49389">
        <ele>515</ele>
        <time>2024-04-01T13:25:01Z</time>
      </trkpt>
      <trkpt lat="44.04434" lon="2.49365">
        <ele>515</ele>
        <time>2024-04-01T13:25:05Z</time>
      </trkpt>
      <trkpt lat="44.04429" lon="2.4936">
        <ele>514</ele>
        <time>2024-04-01T13:25:06Z</time>
      </trkpt>
      <trkpt lat="44.04425" lon="2.4936">
        <ele>514</ele>
        <time>2024-04-01T13:25:06Z</time>
      </trkpt>
      <trkpt lat="44.04408" lon="2.49263">
        <ele>514</ele>
        <time>2024-04-01T13:25:19Z</time>
      </trkpt>
      <trkpt lat="44.04404" lon="2.49235">
        <ele>515</ele>
        <time>2024-04-01T13:25:23Z</time>
      </trkpt>
      <trkpt lat="44.04405" lon="2.49215">
        <ele>515</ele>
        <time>2024-04-01T13:25:25Z</time>
      </trkpt>
      <trkpt lat="44.04406" lon="2.49204">
        <ele>515</ele>
        <time>2024-04-01T13:25:27Z</time>
      </trkpt>
      <trkpt lat="44.04391" lon="2.49191">
        <ele>515</ele>
        <time>2024-04-01T13:25:30Z</time>
      </trkpt>
      <trkpt lat="44.04371" lon="2.49167">
        <ele>516</ele>
        <time>2024-04-01T13:25:35Z</time>
      </trkpt>
      <trkpt lat="44.04371" lon="2.49131">
        <ele>516</ele>
        <time>2024-04-01T13:25:39Z</time>
      </trkpt>
      <trkpt lat="44.04374" lon="2.49092">
        <ele>516</ele>
        <time>2024-04-01T13:25:44Z</time>
      </trkpt>
      <trkpt lat="44.04398" lon="2.49049">
        <ele>515</ele>
        <time>2024-04-01T13:25:51Z</time>
      </trkpt>
      <trkpt lat="44.04416" lon="2.49038">
        <ele>516</ele>
        <time>2024-04-01T13:25:55Z</time>
      </trkpt>
      <trkpt lat="44.04406" lon="2.49026">
        <ele>516</ele>
        <time>2024-04-01T13:25:57Z</time>
      </trkpt>
      <trkpt lat="44.0443" lon="2.48975">
        <ele>515</ele>
        <time>2024-04-01T13:26:05Z</time>
      </trkpt>
      <trkpt lat="44.04446" lon="2.48981">
        <ele>514</ele>
        <time>2024-04-01T13:26:08Z</time>
      </trkpt>
      <trkpt lat="44.04492" lon="2.487">
        <ele>521</ele>
        <time>2024-04-01T13:26:45Z</time>
      </trkpt>
      <trkpt lat="44.04487" lon="2.48697">
        <ele>521</ele>
        <time>2024-04-01T13:26:46Z</time>
      </trkpt>
      <trkpt lat="44.04471" lon="2.48674">
        <ele>523</ele>
        <time>2024-04-01T13:26:50Z</time>
      </trkpt>
      <trkpt lat="44.04459" lon="2.4866">
        <ele>524</ele>
        <time>2024-04-01T13:26:53Z</time>
      </trkpt>
      <trkpt lat="44.04439" lon="2.48656">
        <ele>526</ele>
        <time>2024-04-01T13:26:56Z</time>
      </trkpt>
      <trkpt lat="44.04417" lon="2.48663">
        <ele>526</ele>
        <time>2024-04-01T13:27:00Z</time>
      </trkpt>
      <trkpt lat="44.04396" lon="2.48693">
        <ele>525</ele>
        <time>2024-04-01T13:27:05Z</time>
      </trkpt>
      <trkpt lat="44.0438" lon="2.48707">
        <ele>525</ele>
        <time>2024-04-01T13:27:09Z</time>
      </trkpt>
      <trkpt lat="44.04356" lon="2.48707">
        <ele>527</ele>
        <time>2024-04-01T13:27:13Z</time>
      </trkpt>
      <trkpt lat="44.04282" lon="2.48694">
        <ele>530</ele>
        <time>2024-04-01T13:27:26Z</time>
      </trkpt>
      <trkpt lat="44.04214" lon="2.4865">
        <ele>538</ele>
        <time>2024-04-01T13:27:40Z</time>
      </trkpt>
      <trkpt lat="44.04193" lon="2.48645">
        <ele>539</ele>
        <time>2024-04-01T13:27:44Z</time>
      </trkpt>
      <trkpt lat="44.04127" lon="2.48652">
        <ele>540</ele>
        <time>2024-04-01T13:27:55Z</time>
      </trkpt>
      <trkpt lat="44.04092" lon="2.4865">
        <ele>542</ele>
        <time>2024-04-01T13:28:02Z</time>
      </trkpt>
      <trkpt lat="44.0406" lon="2.48642">
        <ele>542</ele>
        <time>2024-04-01T13:28:07Z</time>
      </trkpt>
      <trkpt lat="44.0404" lon="2.48626">
        <ele>543</ele>
        <time>2024-04-01T13:28:11Z</time>
      </trkpt>
      <trkpt lat="44.0402" lon="2.486">
        <ele>544</ele>
        <time>2024-04-01T13:28:16Z</time>
      </trkpt>
      <trkpt lat="44.04001" lon="2.48567">
        <ele>544</ele>
        <time>2024-04-01T13:28:22Z</time>
      </trkpt>
      <trkpt lat="44.03995" lon="2.48533">
        <ele>544</ele>
        <time>2024-04-01T13:28:26Z</time>
      </trkpt>
      <trkpt lat="44.03999" lon="2.48506">
        <ele>546</ele>
        <time>2024-04-01T13:28:30Z</time>
      </trkpt>
      <trkpt lat="44.04033" lon="2.48421">
        <ele>553</ele>
        <time>2024-04-01T13:28:42Z</time>
      </trkpt>
      <trkpt lat="44.04034" lon="2.48392">
        <ele>555</ele>
        <time>2024-04-01T13:28:46Z</time>
      </trkpt>
      <trkpt lat="44.04026" lon="2.48367">
        <ele>557</ele>
        <time>2024-04-01T13:28:49Z</time>
      </trkpt>
      <trkpt lat="44.04013" lon="2.48356">
        <ele>557</ele>
        <time>2024-04-01T13:28:52Z</time>
      </trkpt>
      <trkpt lat="44.03997" lon="2.48356">
        <ele>555</ele>
        <time>2024-04-01T13:28:55Z</time>
      </trkpt>
      <trkpt lat="44.03981" lon="2.48351">
        <ele>554</ele>
        <time>2024-04-01T13:28:58Z</time>
      </trkpt>
      <trkpt lat="44.03975" lon="2.48342">
        <ele>554</ele>
        <time>2024-04-01T13:28:59Z</time>
      </trkpt>
      <trkpt lat="44.03974" lon="2.48319">
        <ele>554</ele>
        <time>2024-04-01T13:29:02Z</time>
      </trkpt>
      <trkpt lat="44.0398" lon="2.48297">
        <ele>555</ele>
        <time>2024-04-01T13:29:05Z</time>
      </trkpt>
      <trkpt lat="44.04061" lon="2.48096">
        <ele>562</ele>
        <time>2024-04-01T13:29:35Z</time>
      </trkpt>
      <trkpt lat="44.04063" lon="2.48061">
        <ele>562</ele>
        <time>2024-04-01T13:29:39Z</time>
      </trkpt>
      <trkpt lat="44.04061" lon="2.48012">
        <ele>562</ele>
        <time>2024-04-01T13:29:46Z</time>
      </trkpt>
      <trkpt lat="44.0407" lon="2.47961">
        <ele>565</ele>
        <time>2024-04-01T13:29:52Z</time>
      </trkpt>
      <trkpt lat="44.04073" lon="2.47921">
        <ele>566</ele>
        <time>2024-04-01T13:29:57Z</time>
      </trkpt>
      <trkpt lat="44.04061" lon="2.47884">
        <ele>566</ele>
        <time>2024-04-01T13:30:03Z</time>
      </trkpt>
      <trkpt lat="44.04044" lon="2.47845">
        <ele>567</ele>
        <time>2024-04-01T13:30:08Z</time>
      </trkpt>
      <trkpt lat="44.04053" lon="2.4784">
        <ele>568</ele>
        <time>2024-04-01T13:30:10Z</time>
      </trkpt>
      <trkpt lat="44.04082" lon="2.47817">
        <ele>573</ele>
        <time>2024-04-01T13:30:16Z</time>
      </trkpt>
      <trkpt lat="44.04086" lon="2.47796">
        <ele>574</ele>
        <time>2024-04-01T13:30:19Z</time>
      </trkpt>
      <trkpt lat="44.04071" lon="2.47735">
        <ele>576</ele>
        <time>2024-04-01T13:30:27Z</time>
      </trkpt>
      <trkpt lat="44.04066" lon="2.47666">
        <ele>579</ele>
        <time>2024-04-01T13:30:36Z</time>
      </trkpt>
      <trkpt lat="44.04053" lon="2.47632">
        <ele>579</ele>
        <time>2024-04-01T13:30:41Z</time>
      </trkpt>
      <trkpt lat="44.04013" lon="2.47555">
        <ele>582</ele>
        <time>2024-04-01T13:30:53Z</time>
      </trkpt>
      <trkpt lat="44.03953" lon="2.47447">
        <ele>587</ele>
        <time>2024-04-01T13:31:11Z</time>
      </trkpt>
      <trkpt lat="44.039" lon="2.47362">
        <ele>590</ele>
        <time>2024-04-01T13:31:25Z</time>
      </trkpt>
      <trkpt lat="44.03877" lon="2.47305">
        <ele>590</ele>
        <time>2024-04-01T13:31:33Z</time>
      </trkpt>
      <trkpt lat="44.03851" lon="2.47231">
        <ele>591</ele>
        <time>2024-04-01T13:31:44Z</time>
      </trkpt>
      <trkpt lat="44.03825" lon="2.47149">
        <ele>590</ele>
        <time>2024-04-01T13:31:55Z</time>
      </trkpt>
      <trkpt lat="44.03755" lon="2.46957">
        <ele>589</ele>
        <time>2024-04-01T13:32:23Z</time>
      </trkpt>
      <trkpt lat="44.03714" lon="2.46829">
        <ele>587</ele>
        <time>2024-04-01T13:32:41Z</time>
      </trkpt>
      <trkpt lat="44.03708" lon="2.46796">
        <ele>587</ele>
        <time>2024-04-01T13:32:45Z</time>
      </trkpt>
      <trkpt lat="44.03703" lon="2.46702">
        <ele>586</ele>
        <time>2024-04-01T13:32:57Z</time>
      </trkpt>
      <trkpt lat="44.03705" lon="2.46677">
        <ele>585</ele>
        <time>2024-04-01T13:33:00Z</time>
      </trkpt>
      <trkpt lat="44.03709" lon="2.46653">
        <ele>585</ele>
        <time>2024-04-01T13:33:04Z</time>
      </trkpt>
      <trkpt lat="44.03762" lon="2.46469">
        <ele>581</ele>
        <time>2024-04-01T13:33:29Z</time>
      </trkpt>
      <trkpt lat="44.03816" lon="2.46272">
        <ele>574</ele>
        <time>2024-04-01T13:33:56Z</time>
      </trkpt>
      <trkpt lat="44.0383" lon="2.46232">
        <ele>572</ele>
        <time>2024-04-01T13:34:02Z</time>
      </trkpt>
      <trkpt lat="44.03877" lon="2.46153">
        <ele>572</ele>
        <time>2024-04-01T13:34:15Z</time>
      </trkpt>
      <trkpt lat="44.03876" lon="2.46125">
        <ele>573</ele>
        <time>2024-04-01T13:34:18Z</time>
      </trkpt>
      <trkpt lat="44.03868" lon="2.46052">
        <ele>574</ele>
        <time>2024-04-01T13:34:28Z</time>
      </trkpt>
      <trkpt lat="44.03872" lon="2.46009">
        <ele>574</ele>
        <time>2024-04-01T13:34:33Z</time>
      </trkpt>
      <trkpt lat="44.03938" lon="2.45692">
        <ele>560</ele>
        <time>2024-04-01T13:35:15Z</time>
      </trkpt>
      <trkpt lat="44.03943" lon="2.45641">
        <ele>557</ele>
        <time>2024-04-01T13:35:22Z</time>
      </trkpt>
      <trkpt lat="44.03947" lon="2.45506">
        <ele>551</ele>
        <time>2024-04-01T13:35:39Z</time>
      </trkpt>
      <trkpt lat="44.0397" lon="2.45252">
        <ele>551</ele>
        <time>2024-04-01T13:36:12Z</time>
      </trkpt>
      <trkpt lat="44.03973" lon="2.4499">
        <ele>545</ele>
        <time>2024-04-01T13:36:46Z</time>
      </trkpt>
      <trkpt lat="44.03968" lon="2.44951">
        <ele>543</ele>
        <time>2024-04-01T13:36:51Z</time>
      </trkpt>
      <trkpt lat="44.03955" lon="2.44918">
        <ele>541</ele>
        <time>2024-04-01T13:36:55Z</time>
      </trkpt>
      <trkpt lat="44.03889" lon="2.44782">
        <ele>538</ele>
        <time>2024-04-01T13:37:16Z</time>
      </trkpt>
      <trkpt lat="44.03788" lon="2.44531">
        <ele>536</ele>
        <time>2024-04-01T13:37:53Z</time>
      </trkpt>
      <trkpt lat="44.03765" lon="2.44463">
        <ele>534</ele>
        <time>2024-04-01T13:38:03Z</time>
      </trkpt>
      <trkpt lat="44.03753" lon="2.44408">
        <ele>534</ele>
        <time>2024-04-01T13:38:10Z</time>
      </trkpt>
      <trkpt lat="44.03731" lon="2.4425">
        <ele>532</ele>
        <time>2024-04-01T13:38:31Z</time>
      </trkpt>
      <trkpt lat="44.03721" lon="2.44192">
        <ele>532</ele>
        <time>2024-04-01T13:38:38Z</time>
      </trkpt>
      <trkpt lat="44.03718" lon="2.44182">
        <ele>532</ele>
        <time>2024-04-01T13:38:40Z</time>
      </trkpt>
      <trkpt lat="44.03713" lon="2.44146">
        <ele>532</ele>
        <time>2024-04-01T13:38:45Z</time>
      </trkpt>
      <trkpt lat="44.03696" lon="2.44071">
        <ele>531</ele>
        <time>2024-04-01T13:38:55Z</time>
      </trkpt>
      <trkpt lat="44.03675" lon="2.43945">
        <ele>529</ele>
        <time>2024-04-01T13:39:11Z</time>
      </trkpt>
      <trkpt lat="44.03668" lon="2.43911">
        <ele>528</ele>
        <time>2024-04-01T13:39:16Z</time>
      </trkpt>
      <trkpt lat="44.03661" lon="2.43867">
        <ele>529</ele>
        <time>2024-04-01T13:39:21Z</time>
      </trkpt>
      <trkpt lat="44.03623" lon="2.43658">
        <ele>527</ele>
        <time>2024-04-01T13:39:49Z</time>
      </trkpt>
      <trkpt lat="44.03612" lon="2.43618">
        <ele>527</ele>
        <time>2024-04-01T13:39:54Z</time>
      </trkpt>
      <trkpt lat="44.03503" lon="2.43331">
        <ele>520</ele>
        <time>2024-04-01T13:40:36Z</time>
      </trkpt>
      <trkpt lat="44.03463" lon="2.43246">
        <ele>518</ele>
        <time>2024-04-01T13:40:49Z</time>
      </trkpt>
      <trkpt lat="44.03415" lon="2.43152">
        <ele>516</ele>
        <time>2024-04-01T13:41:04Z</time>
      </trkpt>
      <trkpt lat="44.0336" lon="2.43032">
        <ele>513</ele>
        <time>2024-04-01T13:41:22Z</time>
      </trkpt>
      <trkpt lat="44.03337" lon="2.42947">
        <ele>512</ele>
        <time>2024-04-01T13:41:34Z</time>
      </trkpt>
      <trkpt lat="44.03312" lon="2.42848">
        <ele>510</ele>
        <time>2024-04-01T13:41:47Z</time>
      </trkpt>
      <trkpt lat="44.03299" lon="2.42779">
        <ele>507</ele>
        <time>2024-04-01T13:41:56Z</time>
      </trkpt>
      <trkpt lat="44.03279" lon="2.42667">
        <ele>501</ele>
        <time>2024-04-01T13:42:11Z</time>
      </trkpt>
      <trkpt lat="44.03275" lon="2.42626">
        <ele>499</ele>
        <time>2024-04-01T13:42:16Z</time>
      </trkpt>
      <trkpt lat="44.03272" lon="2.42557">
        <ele>495</ele>
        <time>2024-04-01T13:42:25Z</time>
      </trkpt>
      <trkpt lat="44.03267" lon="2.4253">
        <ele>494</ele>
        <time>2024-04-01T13:42:29Z</time>
      </trkpt>
      <trkpt lat="44.03253" lon="2.42488">
        <ele>492</ele>
        <time>2024-04-01T13:42:34Z</time>
      </trkpt>
      <trkpt lat="44.03235" lon="2.42442">
        <ele>491</ele>
        <time>2024-04-01T13:42:41Z</time>
      </trkpt>
      <trkpt lat="44.03213" lon="2.42374">
        <ele>489</ele>
        <time>2024-04-01T13:42:51Z</time>
      </trkpt>
      <trkpt lat="44.03197" lon="2.42338">
        <ele>488</ele>
        <time>2024-04-01T13:42:56Z</time>
      </trkpt>
      <trkpt lat="44.03151" lon="2.42279">
        <ele>487</ele>
        <time>2024-04-01T13:43:07Z</time>
      </trkpt>
      <trkpt lat="44.03115" lon="2.42206">
        <ele>485</ele>
        <time>2024-04-01T13:43:19Z</time>
      </trkpt>
      <trkpt lat="44.03095" lon="2.42159">
        <ele>484</ele>
        <time>2024-04-01T13:43:26Z</time>
      </trkpt>
      <trkpt lat="44.0308" lon="2.42113">
        <ele>481</ele>
        <time>2024-04-01T13:43:32Z</time>
      </trkpt>
      <trkpt lat="44.03063" lon="2.42027">
        <ele>472</ele>
        <time>2024-04-01T13:43:43Z</time>
      </trkpt>
      <trkpt lat="44.03052" lon="2.41923">
        <ele>466</ele>
        <time>2024-04-01T13:43:57Z</time>
      </trkpt>
      <trkpt lat="44.03034" lon="2.41833">
        <ele>460</ele>
        <time>2024-04-01T13:44:09Z</time>
      </trkpt>
      <trkpt lat="44.03034" lon="2.41814">
        <ele>459</ele>
        <time>2024-04-01T13:44:11Z</time>
      </trkpt>
      <trkpt lat="44.03037" lon="2.41797">
        <ele>458</ele>
        <time>2024-04-01T13:44:14Z</time>
      </trkpt>
      <trkpt lat="44.03045" lon="2.41787">
        <ele>459</ele>
        <time>2024-04-01T13:44:15Z</time>
      </trkpt>
      <trkpt lat="44.03054" lon="2.41782">
        <ele>460</ele>
        <time>2024-04-01T13:44:17Z</time>
      </trkpt>
      <trkpt lat="44.03091" lon="2.4178">
        <ele>465</ele>
        <time>2024-04-01T13:44:24Z</time>
      </trkpt>
      <trkpt lat="44.03096" lon="2.41778">
        <ele>466</ele>
        <time>2024-04-01T13:44:25Z</time>
      </trkpt>
      <trkpt lat="44.03102" lon="2.41769">
        <ele>466</ele>
        <time>2024-04-01T13:44:26Z</time>
      </trkpt>
      <trkpt lat="44.03106" lon="2.41756">
        <ele>466</ele>
        <time>2024-04-01T13:44:28Z</time>
      </trkpt>
      <trkpt lat="44.03107" lon="2.41745">
        <ele>465</ele>
        <time>2024-04-01T13:44:29Z</time>
      </trkpt>
      <trkpt lat="44.03105" lon="2.41731">
        <ele>463</ele>
        <time>2024-04-01T13:44:31Z</time>
      </trkpt>
      <trkpt lat="44.03094" lon="2.41708">
        <ele>459</ele>
        <time>2024-04-01T13:44:35Z</time>
      </trkpt>
      <trkpt lat="44.03087" lon="2.4169">
        <ele>455</ele>
        <time>2024-04-01T13:44:37Z</time>
      </trkpt>
      <trkpt lat="44.03084" lon="2.41671">
        <ele>453</ele>
        <time>2024-04-01T13:44:40Z</time>
      </trkpt>
      <trkpt lat="44.03086" lon="2.41649">
        <ele>451</ele>
        <time>2024-04-01T13:44:43Z</time>
      </trkpt>
      <trkpt lat="44.03095" lon="2.4163">
        <ele>450</ele>
        <time>2024-04-01T13:44:46Z</time>
      </trkpt>
      <trkpt lat="44.03106" lon="2.41616">
        <ele>450</ele>
        <time>2024-04-01T13:44:48Z</time>
      </trkpt>
      <trkpt lat="44.03133" lon="2.41601">
        <ele>452</ele>
        <time>2024-04-01T13:44:54Z</time>
      </trkpt>
      <trkpt lat="44.03145" lon="2.41591">
        <ele>452</ele>
        <time>2024-04-01T13:44:56Z</time>
      </trkpt>
      <trkpt lat="44.03175" lon="2.41536">
        <ele>450</ele>
        <time>2024-04-01T13:45:05Z</time>
      </trkpt>
      <trkpt lat="44.03178" lon="2.41524">
        <ele>449</ele>
        <time>2024-04-01T13:45:06Z</time>
      </trkpt>
      <trkpt lat="44.03177" lon="2.41511">
        <ele>447</ele>
        <time>2024-04-01T13:45:08Z</time>
      </trkpt>
      <trkpt lat="44.03168" lon="2.41496">
        <ele>443</ele>
        <time>2024-04-01T13:45:11Z</time>
      </trkpt>
      <trkpt lat="44.03151" lon="2.41476">
        <ele>443</ele>
        <time>2024-04-01T13:45:15Z</time>
      </trkpt>
      <trkpt lat="44.03139" lon="2.41464">
        <ele>444</ele>
        <time>2024-04-01T13:45:17Z</time>
      </trkpt>
      <trkpt lat="44.03127" lon="2.41453">
        <ele>446</ele>
        <time>2024-04-01T13:45:20Z</time>
      </trkpt>
      <trkpt lat="44.03115" lon="2.41454">
        <ele>446</ele>
        <time>2024-04-01T13:45:22Z</time>
      </trkpt>
      <trkpt lat="44.03089" lon="2.41484">
        <ele>446</ele>
        <time>2024-04-01T13:45:28Z</time>
      </trkpt>
      <trkpt lat="44.02966" lon="2.41565">
        <ele>459</ele>
        <time>2024-04-01T13:45:52Z</time>
      </trkpt>
      <trkpt lat="44.02946" lon="2.41586">
        <ele>461</ele>
        <time>2024-04-01T13:45:57Z</time>
      </trkpt>
      <trkpt lat="44.02933" lon="2.41607">
        <ele>462</ele>
        <time>2024-04-01T13:46:00Z</time>
      </trkpt>
      <trkpt lat="44.02902" lon="2.41666">
        <ele>460</ele>
        <time>2024-04-01T13:46:09Z</time>
      </trkpt>
      <trkpt lat="44.02882" lon="2.41694">
        <ele>461</ele>
        <time>2024-04-01T13:46:15Z</time>
      </trkpt>
      <trkpt lat="44.02868" lon="2.41698">
        <ele>463</ele>
        <time>2024-04-01T13:46:17Z</time>
      </trkpt>
      <trkpt lat="44.02779" lon="2.41696">
        <ele>473</ele>
        <time>2024-04-01T13:46:33Z</time>
      </trkpt>
      <trkpt lat="44.02755" lon="2.41703">
        <ele>474</ele>
        <time>2024-04-01T13:46:37Z</time>
      </trkpt>
      <trkpt lat="44.02726" lon="2.41717">
        <ele>471</ele>
        <time>2024-04-01T13:46:43Z</time>
      </trkpt>
      <trkpt lat="44.02688" lon="2.41725">
        <ele>469</ele>
        <time>2024-04-01T13:46:50Z</time>
      </trkpt>
      <trkpt lat="44.02677" lon="2.41721">
        <ele>470</ele>
        <time>2024-04-01T13:46:52Z</time>
      </trkpt>
      <trkpt lat="44.02668" lon="2.41712">
        <ele>471</ele>
        <time>2024-04-01T13:46:54Z</time>
      </trkpt>
      <trkpt lat="44.02653" lon="2.41672">
        <ele>477</ele>
        <time>2024-04-01T13:46:59Z</time>
      </trkpt>
      <trkpt lat="44.02552" lon="2.41553">
        <ele>485</ele>
        <time>2024-04-01T13:47:23Z</time>
      </trkpt>
      <trkpt lat="44.02404" lon="2.4137">
        <ele>484</ele>
        <time>2024-04-01T13:47:58Z</time>
      </trkpt>
      <trkpt lat="44.02293" lon="2.41182">
        <ele>480</ele>
        <time>2024-04-01T13:48:29Z</time>
      </trkpt>
      <trkpt lat="44.02257" lon="2.41137">
        <ele>479</ele>
        <time>2024-04-01T13:48:38Z</time>
      </trkpt>
      <trkpt lat="44.02221" lon="2.41107">
        <ele>478</ele>
        <time>2024-04-01T13:48:45Z</time>
      </trkpt>
      <trkpt lat="44.02187" lon="2.41087">
        <ele>478</ele>
        <time>2024-04-01T13:48:52Z</time>
      </trkpt>
      <trkpt lat="44.02182" lon="2.41089">
        <ele>478</ele>
        <time>2024-04-01T13:48:53Z</time>
      </trkpt>
      <trkpt lat="44.02178" lon="2.41094">
        <ele>478</ele>
        <time>2024-04-01T13:48:54Z</time>
      </trkpt>
      <trkpt lat="44.0213" lon="2.4111">
        <ele>477</ele>
        <time>2024-04-01T13:49:03Z</time>
      </trkpt>
      <trkpt lat="44.02126" lon="2.41104">
        <ele>477</ele>
        <time>2024-04-01T13:49:04Z</time>
      </trkpt>
      <trkpt lat="44.0212" lon="2.41105">
        <ele>477</ele>
        <time>2024-04-01T13:49:05Z</time>
      </trkpt>
      <trkpt lat="44.02082" lon="2.41016">
        <ele>477</ele>
        <time>2024-04-01T13:49:18Z</time>
      </trkpt>
      <trkpt lat="44.02081" lon="2.41002">
        <ele>477</ele>
        <time>2024-04-01T13:49:20Z</time>
      </trkpt>
      <trkpt lat="44.02086" lon="2.40956">
        <ele>477</ele>
        <time>2024-04-01T13:49:26Z</time>
      </trkpt>
      <trkpt lat="44.02065" lon="2.40957">
        <ele>477</ele>
        <time>2024-04-01T13:49:29Z</time>
      </trkpt>
      <trkpt lat="44.02056" lon="2.40943">
        <ele>477</ele>
        <time>2024-04-01T13:49:32Z</time>
      </trkpt>
      <trkpt lat="44.02034" lon="2.40884">
        <ele>476</ele>
        <time>2024-04-01T13:49:40Z</time>
      </trkpt>
      <trkpt lat="44.02043" lon="2.40865">
        <ele>476</ele>
        <time>2024-04-01T13:49:43Z</time>
      </trkpt>
      <trkpt lat="44.02096" lon="2.40839">
        <ele>475</ele>
        <time>2024-04-01T13:49:53Z</time>
      </trkpt>
      <trkpt lat="44.02058" lon="2.40697">
        <ele>472</ele>
        <time>2024-04-01T13:50:13Z</time>
      </trkpt>
      <trkpt lat="44.01963" lon="2.40421">
        <ele>467</ele>
        <time>2024-04-01T13:50:52Z</time>
      </trkpt>
      <trkpt lat="44.0194" lon="2.40361">
        <ele>469</ele>
        <time>2024-04-01T13:51:00Z</time>
      </trkpt>
      <trkpt lat="44.01916" lon="2.40288">
        <ele>468</ele>
        <time>2024-04-01T13:51:11Z</time>
      </trkpt>
      <trkpt lat="44.01955" lon="2.40265">
        <ele>468</ele>
        <time>2024-04-01T13:51:18Z</time>
      </trkpt>
      <trkpt lat="44.0199" lon="2.40247">
        <ele>467</ele>
        <time>2024-04-01T13:51:25Z</time>
      </trkpt>
      <trkpt lat="44.01999" lon="2.40234">
        <ele>467</ele>
        <time>2024-04-01T13:51:27Z</time>
      </trkpt>
      <trkpt lat="44.01993" lon="2.40231">
        <ele>467</ele>
        <time>2024-04-01T13:51:28Z</time>
      </trkpt>
      <trkpt lat="44.01974" lon="2.40231">
        <ele>466</ele>
        <time>2024-04-01T13:51:32Z</time>
      </trkpt>
      <trkpt lat="44.01954" lon="2.40169">
        <ele>465</ele>
        <time>2024-04-01T13:51:40Z</time>
      </trkpt>
      <trkpt lat="44.01939" lon="2.40144">
        <ele>463</ele>
        <time>2024-04-01T13:51:45Z</time>
      </trkpt>
      <trkpt lat="44.01927" lon="2.40127">
        <ele>463</ele>
        <time>2024-04-01T13:51:48Z</time>
      </trkpt>
      <trkpt lat="44.01917" lon="2.40116">
        <ele>462</ele>
        <time>2024-04-01T13:51:50Z</time>
      </trkpt>
      <trkpt lat="44.01843" lon="2.39911">
        <ele>457</ele>
        <time>2024-04-01T13:52:19Z</time>
      </trkpt>
      <trkpt lat="44.01829" lon="2.39848">
        <ele>454</ele>
        <time>2024-04-01T13:52:28Z</time>
      </trkpt>
      <trkpt lat="44.01822" lon="2.39794">
        <ele>454</ele>
        <time>2024-04-01T13:52:35Z</time>
      </trkpt>
      <trkpt lat="44.01751" lon="2.39788">
        <ele>452</ele>
        <time>2024-04-01T13:52:47Z</time>
      </trkpt>
      <trkpt lat="44.01747" lon="2.3979">
        <ele>452</ele>
        <time>2024-04-01T13:52:48Z</time>
      </trkpt>
      <trkpt lat="44.01704" lon="2.39666">
        <ele>452</ele>
        <time>2024-04-01T13:53:06Z</time>
      </trkpt>
      <trkpt lat="44.01575" lon="2.39288">
        <ele>462</ele>
        <time>2024-04-01T13:53:59Z</time>
      </trkpt>
      <trkpt lat="44.01403" lon="2.39341">
        <ele>461</ele>
        <time>2024-04-01T13:54:31Z</time>
      </trkpt>
      <trkpt lat="44.01294" lon="2.39372">
        <ele>456</ele>
        <time>2024-04-01T13:54:50Z</time>
      </trkpt>
      <trkpt lat="44.01269" lon="2.39383">
        <ele>455</ele>
        <time>2024-04-01T13:54:55Z</time>
      </trkpt>
      <trkpt lat="44.01232" lon="2.39407">
        <ele>456</ele>
        <time>2024-04-01T13:55:02Z</time>
      </trkpt>
      <trkpt lat="44.01148" lon="2.39488">
        <ele>454</ele>
        <time>2024-04-01T13:55:21Z</time>
      </trkpt>
      <trkpt lat="44.01118" lon="2.39528">
        <ele>454</ele>
        <time>2024-04-01T13:55:28Z</time>
      </trkpt>
      <trkpt lat="44.01109" lon="2.39551">
        <ele>455</ele>
        <time>2024-04-01T13:55:31Z</time>
      </trkpt>
      <trkpt lat="44.01108" lon="2.39562">
        <ele>455</ele>
        <time>2024-04-01T13:55:33Z</time>
      </trkpt>
      <trkpt lat="44.0109" lon="2.39571">
        <ele>456</ele>
        <time>2024-04-01T13:55:36Z</time>
      </trkpt>
      <trkpt lat="44.01071" lon="2.39588">
        <ele>456</ele>
        <time>2024-04-01T13:55:40Z</time>
      </trkpt>
      <trkpt lat="44.01047" lon="2.39623">
        <ele>456</ele>
        <time>2024-04-01T13:55:46Z</time>
      </trkpt>
      <trkpt lat="44.00825" lon="2.39421">
        <ele>450</ele>
        <time>2024-04-01T13:56:34Z</time>
      </trkpt>
      <trkpt lat="44.00714" lon="2.39334">
        <ele>449</ele>
        <time>2024-04-01T13:56:56Z</time>
      </trkpt>
      <trkpt lat="44.00699" lon="2.39314">
        <ele>449</ele>
        <time>2024-04-01T13:57:00Z</time>
      </trkpt>
      <trkpt lat="44.00679" lon="2.39272">
        <ele>449</ele>
        <time>2024-04-01T13:57:06Z</time>
      </trkpt>
      <trkpt lat="44.00643" lon="2.39222">
        <ele>449</ele>
        <time>2024-04-01T13:57:15Z</time>
      </trkpt>
      <trkpt lat="44.00579" lon="2.39143">
        <ele>450</ele>
        <time>2024-04-01T13:57:31Z</time>
      </trkpt>
      <trkpt lat="44.00569" lon="2.39126">
        <ele>450</ele>
        <time>2024-04-01T13:57:33Z</time>
      </trkpt>
      <trkpt lat="44.00529" lon="2.3895">
        <ele>448</ele>
        <time>2024-04-01T13:57:57Z</time>
      </trkpt>
      <trkpt lat="44.0051" lon="2.38844">
        <ele>448</ele>
        <time>2024-04-01T13:58:11Z</time>
      </trkpt>
      <trkpt lat="44.00459" lon="2.38682">
        <ele>445</ele>
        <time>2024-04-01T13:58:34Z</time>
      </trkpt>
      <trkpt lat="44.00423" lon="2.38524">
        <ele>443</ele>
        <time>2024-04-01T13:58:55Z</time>
      </trkpt>
      <trkpt lat="44.00401" lon="2.38453">
        <ele>443</ele>
        <time>2024-04-01T13:59:05Z</time>
      </trkpt>
      <trkpt lat="44.00337" lon="2.38279">
        <ele>443</ele>
        <time>2024-04-01T13:59:30Z</time>
      </trkpt>
      <trkpt lat="44.00307" lon="2.38202">
        <ele>445</ele>
        <time>2024-04-01T13:59:41Z</time>
      </trkpt>
      <trkpt lat="44.00292" lon="2.38169">
        <ele>446</ele>
        <time>2024-04-01T13:59:46Z</time>
      </trkpt>
      <trkpt lat="44.00256" lon="2.38119">
        <ele>448</ele>
        <time>2024-04-01T13:59:55Z</time>
      </trkpt>
      <trkpt lat="44.00173" lon="2.3801">
        <ele>449</ele>
        <time>2024-04-01T14:00:15Z</time>
      </trkpt>
      <trkpt lat="44.00115" lon="2.37955">
        <ele>451</ele>
        <time>2024-04-01T14:00:28Z</time>
      </trkpt>
      <trkpt lat="43.99996" lon="2.37884">
        <ele>449</ele>
        <time>2024-04-01T14:00:51Z</time>
      </trkpt>
      <trkpt lat="43.99911" lon="2.37843">
        <ele>446</ele>
        <time>2024-04-01T14:01:07Z</time>
      </trkpt>
      <trkpt lat="43.99888" lon="2.37834">
        <ele>445</ele>
        <time>2024-04-01T14:01:11Z</time>
      </trkpt>
      <trkpt lat="43.99841" lon="2.37833">
        <ele>442</ele>
        <time>2024-04-01T14:01:20Z</time>
      </trkpt>
      <trkpt lat="43.99828" lon="2.37819">
        <ele>441</ele>
        <time>2024-04-01T14:01:22Z</time>
      </trkpt>
      <trkpt lat="43.99799" lon="2.37758">
        <ele>441</ele>
        <time>2024-04-01T14:01:32Z</time>
      </trkpt>
      <trkpt lat="43.99779" lon="2.3773">
        <ele>441</ele>
        <time>2024-04-01T14:01:37Z</time>
      </trkpt>
      <trkpt lat="43.99672" lon="2.37602">
        <ele>443</ele>
        <time>2024-04-01T14:02:02Z</time>
      </trkpt>
      <trkpt lat="43.99533" lon="2.37459">
        <ele>439</ele>
        <time>2024-04-01T14:02:33Z</time>
      </trkpt>
      <trkpt lat="43.994" lon="2.37309">
        <ele>437</ele>
        <time>2024-04-01T14:03:03Z</time>
      </trkpt>
      <trkpt lat="43.99223" lon="2.37097">
        <ele>441</ele>
        <time>2024-04-01T14:03:45Z</time>
      </trkpt>
      <trkpt lat="43.99183" lon="2.37036">
        <ele>439</ele>
        <time>2024-04-01T14:03:55Z</time>
      </trkpt>
      <trkpt lat="43.99138" lon="2.36931">
        <ele>436</ele>
        <time>2024-04-01T14:04:11Z</time>
      </trkpt>
      <trkpt lat="43.99104" lon="2.36836">
        <ele>437</ele>
        <time>2024-04-01T14:04:25Z</time>
      </trkpt>
      <trkpt lat="43.98981" lon="2.36626">
        <ele>431</ele>
        <time>2024-04-01T14:04:59Z</time>
      </trkpt>
      <trkpt lat="43.98951" lon="2.36536">
        <ele>433</ele>
        <time>2024-04-01T14:05:12Z</time>
      </trkpt>
      <trkpt lat="43.98935" lon="2.36494">
        <ele>434</ele>
        <time>2024-04-01T14:05:18Z</time>
      </trkpt>
      <trkpt lat="43.98924" lon="2.36481">
        <ele>434</ele>
        <time>2024-04-01T14:05:21Z</time>
      </trkpt>
      <trkpt lat="43.9892" lon="2.36465">
        <ele>434</ele>
        <time>2024-04-01T14:05:23Z</time>
      </trkpt>
      <trkpt lat="43.98937" lon="2.36439">
        <ele>433</ele>
        <time>2024-04-01T14:05:27Z</time>
      </trkpt>
      <trkpt lat="43.99054" lon="2.36297">
        <ele>425</ele>
        <time>2024-04-01T14:05:55Z</time>
      </trkpt>
      <trkpt lat="43.99087" lon="2.36268">
        <ele>423</ele>
        <time>2024-04-01T14:06:02Z</time>
      </trkpt>
      <trkpt lat="43.99168" lon="2.36217">
        <ele>416</ele>
        <time>2024-04-01T14:06:18Z</time>
      </trkpt>
      <trkpt lat="43.99303" lon="2.36035">
        <ele>395</ele>
        <time>2024-04-01T14:06:51Z</time>
      </trkpt>
      <trkpt lat="43.9931" lon="2.36018">
        <ele>393</ele>
        <time>2024-04-01T14:06:54Z</time>
      </trkpt>
      <trkpt lat="43.99312" lon="2.35996">
        <ele>392</ele>
        <time>2024-04-01T14:06:56Z</time>
      </trkpt>
      <trkpt lat="43.99309" lon="2.35972">
        <ele>388</ele>
        <time>2024-04-01T14:07:00Z</time>
      </trkpt>
      <trkpt lat="43.99296" lon="2.35943">
        <ele>384</ele>
        <time>2024-04-01T14:07:04Z</time>
      </trkpt>
      <trkpt lat="43.99235" lon="2.35847">
        <ele>372</ele>
        <time>2024-04-01T14:07:20Z</time>
      </trkpt>
      <trkpt lat="43.99209" lon="2.3581">
        <ele>370</ele>
        <time>2024-04-01T14:07:27Z</time>
      </trkpt>
      <trkpt lat="43.9919" lon="2.35791">
        <ele>369</ele>
        <time>2024-04-01T14:07:31Z</time>
      </trkpt>
      <trkpt lat="43.99126" lon="2.35745">
        <ele>369</ele>
        <time>2024-04-01T14:07:44Z</time>
      </trkpt>
      <trkpt lat="43.99071" lon="2.357">
        <ele>366</ele>
        <time>2024-04-01T14:07:55Z</time>
      </trkpt>
      <trkpt lat="43.99049" lon="2.35657">
        <ele>359</ele>
        <time>2024-04-01T14:08:02Z</time>
      </trkpt>
      <trkpt lat="43.99031" lon="2.35549">
        <ele>364</ele>
        <time>2024-04-01T14:08:16Z</time>
      </trkpt>
      <trkpt lat="43.99022" lon="2.3553">
        <ele>367</ele>
        <time>2024-04-01T14:08:19Z</time>
      </trkpt>
      <trkpt lat="43.99004" lon="2.35518">
        <ele>366</ele>
        <time>2024-04-01T14:08:23Z</time>
      </trkpt>
      <trkpt lat="43.98978" lon="2.35508">
        <ele>365</ele>
        <time>2024-04-01T14:08:28Z</time>
      </trkpt>
      <trkpt lat="43.98955" lon="2.35496">
        <ele>365</ele>
        <time>2024-04-01T14:08:32Z</time>
      </trkpt>
      <trkpt lat="43.98927" lon="2.35488">
        <ele>363</ele>
        <time>2024-04-01T14:08:37Z</time>
      </trkpt>
      <trkpt lat="43.98922" lon="2.35472">
        <ele>366</ele>
        <time>2024-04-01T14:08:39Z</time>
      </trkpt>
      <trkpt lat="43.98925" lon="2.35421">
        <ele>376</ele>
        <time>2024-04-01T14:08:46Z</time>
      </trkpt>
      <trkpt lat="43.98936" lon="2.35353">
        <ele>386</ele>
        <time>2024-04-01T14:08:55Z</time>
      </trkpt>
      <trkpt lat="43.98973" lon="2.35278">
        <ele>392</ele>
        <time>2024-04-01T14:09:06Z</time>
      </trkpt>
      <trkpt lat="43.99037" lon="2.35235">
        <ele>398</ele>
        <time>2024-04-01T14:09:19Z</time>
      </trkpt>
      <trkpt lat="43.99041" lon="2.35228">
        <ele>398</ele>
        <time>2024-04-01T14:09:20Z</time>
      </trkpt>
      <trkpt lat="43.99042" lon="2.35222">
        <ele>398</ele>
        <time>2024-04-01T14:09:21Z</time>
      </trkpt>
      <trkpt lat="43.9904" lon="2.35216">
        <ele>398</ele>
        <time>2024-04-01T14:09:22Z</time>
      </trkpt>
      <trkpt lat="43.99036" lon="2.35212">
        <ele>398</ele>
        <time>2024-04-01T14:09:23Z</time>
      </trkpt>
      <trkpt lat="43.99031" lon="2.35212">
        <ele>397</ele>
        <time>2024-04-01T14:09:24Z</time>
      </trkpt>
      <trkpt lat="43.98997" lon="2.35224">
        <ele>394</ele>
        <time>2024-04-01T14:09:30Z</time>
      </trkpt>
      <trkpt lat="43.98988" lon="2.35223">
        <ele>394</ele>
        <time>2024-04-01T14:09:31Z</time>
      </trkpt>
      <trkpt lat="43.98982" lon="2.3522">
        <ele>394</ele>
        <time>2024-04-01T14:09:33Z</time>
      </trkpt>
      <trkpt lat="43.98977" lon="2.35214">
        <ele>394</ele>
        <time>2024-04-01T14:09:34Z</time>
      </trkpt>
      <trkpt lat="43.98974" lon="2.35206">
        <ele>395</ele>
        <time>2024-04-01T14:09:35Z</time>
      </trkpt>
      <trkpt lat="43.98962" lon="2.35131">
        <ele>400</ele>
        <time>2024-04-01T14:09:45Z</time>
      </trkpt>
      <trkpt lat="43.9895" lon="2.35076">
        <ele>405</ele>
        <time>2024-04-01T14:09:52Z</time>
      </trkpt>
      <trkpt lat="43.98949" lon="2.35065">
        <ele>405</ele>
        <time>2024-04-01T14:09:53Z</time>
      </trkpt>
      <trkpt lat="43.98957" lon="2.34996">
        <ele>408</ele>
        <time>2024-04-01T14:10:02Z</time>
      </trkpt>
      <trkpt lat="43.98966" lon="2.34949">
        <ele>411</ele>
        <time>2024-04-01T14:10:09Z</time>
      </trkpt>
      <trkpt lat="43.98967" lon="2.3493">
        <ele>412</ele>
        <time>2024-04-01T14:10:11Z</time>
      </trkpt>
      <trkpt lat="43.98966" lon="2.34901">
        <ele>413</ele>
        <time>2024-04-01T14:10:15Z</time>
      </trkpt>
      <trkpt lat="43.98968" lon="2.34875">
        <ele>413</ele>
        <time>2024-04-01T14:10:18Z</time>
      </trkpt>
      <trkpt lat="43.98973" lon="2.34858">
        <ele>413</ele>
        <time>2024-04-01T14:10:21Z</time>
      </trkpt>
      <trkpt lat="43.98981" lon="2.3485">
        <ele>413</ele>
        <time>2024-04-01T14:10:22Z</time>
      </trkpt>
      <trkpt lat="43.98986" lon="2.3485">
        <ele>413</ele>
        <time>2024-04-01T14:10:23Z</time>
      </trkpt>
      <trkpt lat="43.98988" lon="2.34855">
        <ele>413</ele>
        <time>2024-04-01T14:10:24Z</time>
      </trkpt>
      <trkpt lat="43.98992" lon="2.34954">
        <ele>412</ele>
        <time>2024-04-01T14:10:37Z</time>
      </trkpt>
      <trkpt lat="43.98995" lon="2.34995">
        <ele>409</ele>
        <time>2024-04-01T14:10:42Z</time>
      </trkpt>
      <trkpt lat="43.99001" lon="2.35025">
        <ele>408</ele>
        <time>2024-04-01T14:10:46Z</time>
      </trkpt>
      <trkpt lat="43.99006" lon="2.35037">
        <ele>407</ele>
        <time>2024-04-01T14:10:48Z</time>
      </trkpt>
      <trkpt lat="43.99013" lon="2.35049">
        <ele>407</ele>
        <time>2024-04-01T14:10:50Z</time>
      </trkpt>
      <trkpt lat="43.99021" lon="2.35057">
        <ele>406</ele>
        <time>2024-04-01T14:10:51Z</time>
      </trkpt>
      <trkpt lat="43.99028" lon="2.35061">
        <ele>406</ele>
        <time>2024-04-01T14:10:53Z</time>
      </trkpt>
      <trkpt lat="43.99037" lon="2.35061">
        <ele>407</ele>
        <time>2024-04-01T14:10:54Z</time>
      </trkpt>
      <trkpt lat="43.99043" lon="2.35059">
        <ele>407</ele>
        <time>2024-04-01T14:10:55Z</time>
      </trkpt>
      <trkpt lat="43.99055" lon="2.35052">
        <ele>408</ele>
        <time>2024-04-01T14:10:58Z</time>
      </trkpt>
      <trkpt lat="43.99065" lon="2.35037">
        <ele>410</ele>
        <time>2024-04-01T14:11:00Z</time>
      </trkpt>
      <trkpt lat="43.99151" lon="2.34893">
        <ele>417</ele>
        <time>2024-04-01T14:11:24Z</time>
      </trkpt>
      <trkpt lat="43.99154" lon="2.34886">
        <ele>417</ele>
        <time>2024-04-01T14:11:25Z</time>
      </trkpt>
      <trkpt lat="43.99158" lon="2.34795">
        <ele>419</ele>
        <time>2024-04-01T14:11:37Z</time>
      </trkpt>
      <trkpt lat="43.99165" lon="2.34609">
        <ele>417</ele>
        <time>2024-04-01T14:12:01Z</time>
      </trkpt>
      <trkpt lat="43.99118" lon="2.34594">
        <ele>416</ele>
        <time>2024-04-01T14:12:09Z</time>
      </trkpt>
      <trkpt lat="43.99075" lon="2.34583">
        <ele>416</ele>
        <time>2024-04-01T14:12:17Z</time>
      </trkpt>
      <trkpt lat="43.9894" lon="2.34543">
        <ele>415</ele>
        <time>2024-04-01T14:12:42Z</time>
      </trkpt>
      <trkpt lat="43.98924" lon="2.34536">
        <ele>415</ele>
        <time>2024-04-01T14:12:45Z</time>
      </trkpt>
      <trkpt lat="43.98753" lon="2.34415">
        <ele>413</ele>
        <time>2024-04-01T14:13:19Z</time>
      </trkpt>
      <trkpt lat="43.98732" lon="2.34396">
        <ele>412</ele>
        <time>2024-04-01T14:13:23Z</time>
      </trkpt>
      <trkpt lat="43.98706" lon="2.3436">
        <ele>411</ele>
        <time>2024-04-01T14:13:30Z</time>
      </trkpt>
      <trkpt lat="43.98596" lon="2.34184">
        <ele>407</ele>
        <time>2024-04-01T14:14:00Z</time>
      </trkpt>
      <trkpt lat="43.98536" lon="2.34084">
        <ele>404</ele>
        <time>2024-04-01T14:14:16Z</time>
      </trkpt>
      <trkpt lat="43.98469" lon="2.33979">
        <ele>402</ele>
        <time>2024-04-01T14:14:34Z</time>
      </trkpt>
      <trkpt lat="43.98444" lon="2.3396">
        <ele>402</ele>
        <time>2024-04-01T14:14:39Z</time>
      </trkpt>
      <trkpt lat="43.98375" lon="2.33954">
        <ele>401</ele>
        <time>2024-04-01T14:14:52Z</time>
      </trkpt>
      <trkpt lat="43.98338" lon="2.33943">
        <ele>400</ele>
        <time>2024-04-01T14:14:58Z</time>
      </trkpt>
      <trkpt lat="43.98216" lon="2.33864">
        <ele>402</ele>
        <time>2024-04-01T14:15:22Z</time>
      </trkpt>
      <trkpt lat="43.98119" lon="2.3381">
        <ele>401</ele>
        <time>2024-04-01T14:15:41Z</time>
      </trkpt>
      <trkpt lat="43.97777" lon="2.33658">
        <ele>394</ele>
        <time>2024-04-01T14:16:45Z</time>
      </trkpt>
      <trkpt lat="43.97708" lon="2.33633">
        <ele>396</ele>
        <time>2024-04-01T14:16:58Z</time>
      </trkpt>
      <trkpt lat="43.97501" lon="2.33588">
        <ele>396</ele>
        <time>2024-04-01T14:17:35Z</time>
      </trkpt>
      <trkpt lat="43.9741" lon="2.3359">
        <ele>394</ele>
        <time>2024-04-01T14:17:51Z</time>
      </trkpt>
      <trkpt lat="43.97334" lon="2.33605">
        <ele>392</ele>
        <time>2024-04-01T14:18:05Z</time>
      </trkpt>
      <trkpt lat="43.97257" lon="2.33628">
        <ele>390</ele>
        <time>2024-04-01T14:18:19Z</time>
      </trkpt>
      <trkpt lat="43.97252" lon="2.33563">
        <ele>389</ele>
        <time>2024-04-01T14:18:27Z</time>
      </trkpt>
      <trkpt lat="43.97255" lon="2.33337">
        <ele>390</ele>
        <time>2024-04-01T14:18:56Z</time>
      </trkpt>
      <trkpt lat="43.97232" lon="2.33219">
        <ele>391</ele>
        <time>2024-04-01T14:19:12Z</time>
      </trkpt>
      <trkpt lat="43.97221" lon="2.33142">
        <ele>389</ele>
        <time>2024-04-01T14:19:22Z</time>
      </trkpt>
      <trkpt lat="43.97202" lon="2.32855">
        <ele>384</ele>
        <time>2024-04-01T14:19:59Z</time>
      </trkpt>
      <trkpt lat="43.97165" lon="2.32605">
        <ele>383</ele>
        <time>2024-04-01T14:20:31Z</time>
      </trkpt>
      <trkpt lat="43.97139" lon="2.32407">
        <ele>383</ele>
        <time>2024-04-01T14:20:57Z</time>
      </trkpt>
      <trkpt lat="43.97133" lon="2.32142">
        <ele>379</ele>
        <time>2024-04-01T14:21:31Z</time>
      </trkpt>
      <trkpt lat="43.97136" lon="2.32026">
        <ele>378</ele>
        <time>2024-04-01T14:21:46Z</time>
      </trkpt>
      <trkpt lat="43.97144" lon="2.31972">
        <ele>379</ele>
        <time>2024-04-01T14:21:53Z</time>
      </trkpt>
      <trkpt lat="43.97227" lon="2.32016">
        <ele>377</ele>
        <time>2024-04-01T14:22:09Z</time>
      </trkpt>
      <trkpt lat="43.973" lon="2.32049">
        <ele>375</ele>
        <time>2024-04-01T14:22:22Z</time>
      </trkpt>
      <trkpt lat="43.97323" lon="2.32047">
        <ele>374</ele>
        <time>2024-04-01T14:22:27Z</time>
      </trkpt>
      <trkpt lat="43.97341" lon="2.3203">
        <ele>374</ele>
        <time>2024-04-01T14:22:30Z</time>
      </trkpt>
      <trkpt lat="43.97449" lon="2.31808">
        <ele>370</ele>
        <time>2024-04-01T14:23:05Z</time>
      </trkpt>
      <trkpt lat="43.97479" lon="2.31751">
        <ele>371</ele>
        <time>2024-04-01T14:23:14Z</time>
      </trkpt>
      <trkpt lat="43.97513" lon="2.31712">
        <ele>371</ele>
        <time>2024-04-01T14:23:22Z</time>
      </trkpt>
      <trkpt lat="43.97548" lon="2.31693">
        <ele>370</ele>
        <time>2024-04-01T14:23:28Z</time>
      </trkpt>
      <trkpt lat="43.97666" lon="2.31642">
        <ele>365</ele>
        <time>2024-04-01T14:23:50Z</time>
      </trkpt>
      <trkpt lat="43.97877" lon="2.31505">
        <ele>348</ele>
        <time>2024-04-01T14:24:32Z</time>
      </trkpt>
      <trkpt lat="43.97914" lon="2.31469">
        <ele>343</ele>
        <time>2024-04-01T14:24:40Z</time>
      </trkpt>
      <trkpt lat="43.97936" lon="2.31412">
        <ele>344</ele>
        <time>2024-04-01T14:24:48Z</time>
      </trkpt>
      <trkpt lat="43.97988" lon="2.31196">
        <ele>336</ele>
        <time>2024-04-01T14:25:17Z</time>
      </trkpt>
      <trkpt lat="43.97999" lon="2.31163">
        <ele>332</ele>
        <time>2024-04-01T14:25:22Z</time>
      </trkpt>
      <trkpt lat="43.98021" lon="2.31126">
        <ele>335</ele>
        <time>2024-04-01T14:25:28Z</time>
      </trkpt>
      <trkpt lat="43.98055" lon="2.31083">
        <ele>334</ele>
        <time>2024-04-01T14:25:36Z</time>
      </trkpt>
      <trkpt lat="43.9807" lon="2.31054">
        <ele>332</ele>
        <time>2024-04-01T14:25:41Z</time>
      </trkpt>
      <trkpt lat="43.98082" lon="2.31019">
        <ele>328</ele>
        <time>2024-04-01T14:25:46Z</time>
      </trkpt>
      <trkpt lat="43.98086" lon="2.30988">
        <ele>326</ele>
        <time>2024-04-01T14:25:50Z</time>
      </trkpt>
      <trkpt lat="43.98086" lon="2.30958">
        <ele>325</ele>
        <time>2024-04-01T14:25:54Z</time>
      </trkpt>
      <trkpt lat="43.98081" lon="2.30934">
        <ele>325</ele>
        <time>2024-04-01T14:25:57Z</time>
      </trkpt>
      <trkpt lat="43.98071" lon="2.30907">
        <ele>325</ele>
        <time>2024-04-01T14:26:01Z</time>
      </trkpt>
      <trkpt lat="43.98056" lon="2.30879">
        <ele>326</ele>
        <time>2024-04-01T14:26:05Z</time>
      </trkpt>
      <trkpt lat="43.98051" lon="2.30865">
        <ele>326</ele>
        <time>2024-04-01T14:26:07Z</time>
      </trkpt>
      <trkpt lat="43.98049" lon="2.3085">
        <ele>326</ele>
        <time>2024-04-01T14:26:09Z</time>
      </trkpt>
      <trkpt lat="43.98048" lon="2.3081">
        <ele>323</ele>
        <time>2024-04-01T14:26:14Z</time>
      </trkpt>
      <trkpt lat="43.98043" lon="2.30784">
        <ele>321</ele>
        <time>2024-04-01T14:26:18Z</time>
      </trkpt>
      <trkpt lat="43.98033" lon="2.30765">
        <ele>319</ele>
        <time>2024-04-01T14:26:21Z</time>
      </trkpt>
      <trkpt lat="43.9803" lon="2.3076">
        <ele>319</ele>
        <time>2024-04-01T14:26:22Z</time>
      </trkpt>
      <trkpt lat="43.98017" lon="2.30731">
        <ele>317</ele>
        <time>2024-04-01T14:26:26Z</time>
      </trkpt>
      <trkpt lat="43.98015" lon="2.30703">
        <ele>317</ele>
        <time>2024-04-01T14:26:29Z</time>
      </trkpt>
      <trkpt lat="43.98033" lon="2.30597">
        <ele>324</ele>
        <time>2024-04-01T14:26:43Z</time>
      </trkpt>
      <trkpt lat="43.98024" lon="2.30538">
        <ele>333</ele>
        <time>2024-04-01T14:26:51Z</time>
      </trkpt>
      <trkpt lat="43.98009" lon="2.30496">
        <ele>340</ele>
        <time>2024-04-01T14:26:57Z</time>
      </trkpt>
      <trkpt lat="43.97992" lon="2.30479">
        <ele>341</ele>
        <time>2024-04-01T14:27:01Z</time>
      </trkpt>
      <trkpt lat="43.97965" lon="2.30475">
        <ele>338</ele>
        <time>2024-04-01T14:27:06Z</time>
      </trkpt>
      <trkpt lat="43.97928" lon="2.30486">
        <ele>328</ele>
        <time>2024-04-01T14:27:12Z</time>
      </trkpt>
      <trkpt lat="43.97901" lon="2.30477">
        <ele>325</ele>
        <time>2024-04-01T14:27:17Z</time>
      </trkpt>
      <trkpt lat="43.97892" lon="2.30438">
        <ele>329</ele>
        <time>2024-04-01T14:27:23Z</time>
      </trkpt>
      <trkpt lat="43.97892" lon="2.30402">
        <ele>333</ele>
        <time>2024-04-01T14:27:27Z</time>
      </trkpt>
      <trkpt lat="43.97902" lon="2.30356">
        <ele>338</ele>
        <time>2024-04-01T14:27:33Z</time>
      </trkpt>
      <trkpt lat="43.97977" lon="2.3022">
        <ele>353</ele>
        <time>2024-04-01T14:27:55Z</time>
      </trkpt>
      <trkpt lat="43.98057" lon="2.30059">
        <ele>358</ele>
        <time>2024-04-01T14:28:20Z</time>
      </trkpt>
      <trkpt lat="43.98076" lon="2.30046">
        <ele>360</ele>
        <time>2024-04-01T14:28:24Z</time>
      </trkpt>
      <trkpt lat="43.98117" lon="2.30035">
        <ele>364</ele>
        <time>2024-04-01T14:28:32Z</time>
      </trkpt>
      <trkpt lat="43.98229" lon="2.29989">
        <ele>373</ele>
        <time>2024-04-01T14:28:52Z</time>
      </trkpt>
      <trkpt lat="43.98286" lon="2.29956">
        <ele>377</ele>
        <time>2024-04-01T14:29:03Z</time>
      </trkpt>
      <trkpt lat="43.98335" lon="2.29943">
        <ele>380</ele>
        <time>2024-04-01T14:29:12Z</time>
      </trkpt>
      <trkpt lat="43.98371" lon="2.29926">
        <ele>382</ele>
        <time>2024-04-01T14:29:19Z</time>
      </trkpt>
      <trkpt lat="43.98379" lon="2.29702">
        <ele>388</ele>
        <time>2024-04-01T14:29:48Z</time>
      </trkpt>
      <trkpt lat="43.98383" lon="2.29692">
        <ele>388</ele>
        <time>2024-04-01T14:29:49Z</time>
      </trkpt>
      <trkpt lat="43.98381" lon="2.29685">
        <ele>388</ele>
        <time>2024-04-01T14:29:50Z</time>
      </trkpt>
      <trkpt lat="43.98363" lon="2.29655">
        <ele>388</ele>
        <time>2024-04-01T14:29:55Z</time>
      </trkpt>
      <trkpt lat="43.98357" lon="2.29636">
        <ele>388</ele>
        <time>2024-04-01T14:29:58Z</time>
      </trkpt>
      <trkpt lat="43.98357" lon="2.29611">
        <ele>388</ele>
        <time>2024-04-01T14:30:01Z</time>
      </trkpt>
      <trkpt lat="43.9836" lon="2.2958">
        <ele>388</ele>
        <time>2024-04-01T14:30:05Z</time>
      </trkpt>
      <trkpt lat="43.98357" lon="2.2956">
        <ele>387</ele>
        <time>2024-04-01T14:30:08Z</time>
      </trkpt>
      <trkpt lat="43.98347" lon="2.29526">
        <ele>387</ele>
        <time>2024-04-01T14:30:12Z</time>
      </trkpt>
      <trkpt lat="43.98341" lon="2.29519">
        <ele>387</ele>
        <time>2024-04-01T14:30:14Z</time>
      </trkpt>
      <trkpt lat="43.98331" lon="2.29486">
        <ele>386</ele>
        <time>2024-04-01T14:30:18Z</time>
      </trkpt>
      <trkpt lat="43.98242" lon="2.29258">
        <ele>379</ele>
        <time>2024-04-01T14:30:52Z</time>
      </trkpt>
      <trkpt lat="43.9824" lon="2.29242">
        <ele>379</ele>
        <time>2024-04-01T14:30:54Z</time>
      </trkpt>
      <trkpt lat="43.98245" lon="2.29221">
        <ele>379</ele>
        <time>2024-04-01T14:30:56Z</time>
      </trkpt>
      <trkpt lat="43.98355" lon="2.29108">
        <ele>372</ele>
        <time>2024-04-01T14:31:21Z</time>
      </trkpt>
      <trkpt lat="43.9842" lon="2.29024">
        <ele>367</ele>
        <time>2024-04-01T14:31:37Z</time>
      </trkpt>
      <trkpt lat="43.98501" lon="2.2895">
        <ele>359</ele>
        <time>2024-04-01T14:31:54Z</time>
      </trkpt>
      <trkpt lat="43.98569" lon="2.28868">
        <ele>351</ele>
        <time>2024-04-01T14:32:10Z</time>
      </trkpt>
      <trkpt lat="43.98602" lon="2.28819">
        <ele>346</ele>
        <time>2024-04-01T14:32:18Z</time>
      </trkpt>
      <trkpt lat="43.98609" lon="2.28789">
        <ele>345</ele>
        <time>2024-04-01T14:32:22Z</time>
      </trkpt>
      <trkpt lat="43.98607" lon="2.28726">
        <ele>345</ele>
        <time>2024-04-01T14:32:31Z</time>
      </trkpt>
      <trkpt lat="43.98609" lon="2.28655">
        <ele>344</ele>
        <time>2024-04-01T14:32:40Z</time>
      </trkpt>
      <trkpt lat="43.98615" lon="2.28611">
        <ele>341</ele>
        <time>2024-04-01T14:32:45Z</time>
      </trkpt>
      <trkpt lat="43.98613" lon="2.28582">
        <ele>339</ele>
        <time>2024-04-01T14:32:49Z</time>
      </trkpt>
      <trkpt lat="43.98598" lon="2.28541">
        <ele>333</ele>
        <time>2024-04-01T14:32:55Z</time>
      </trkpt>
      <trkpt lat="43.98567" lon="2.28552">
        <ele>338</ele>
        <time>2024-04-01T14:33:01Z</time>
      </trkpt>
      <trkpt lat="43.98538" lon="2.28544">
        <ele>340</ele>
        <time>2024-04-01T14:33:06Z</time>
      </trkpt>
      <trkpt lat="43.98518" lon="2.28519">
        <ele>337</ele>
        <time>2024-04-01T14:33:11Z</time>
      </trkpt>
      <trkpt lat="43.98496" lon="2.28485">
        <ele>333</ele>
        <time>2024-04-01T14:33:17Z</time>
      </trkpt>
      <trkpt lat="43.98476" lon="2.28438">
        <ele>328</ele>
        <time>2024-04-01T14:33:24Z</time>
      </trkpt>
      <trkpt lat="43.98452" lon="2.28404">
        <ele>326</ele>
        <time>2024-04-01T14:33:30Z</time>
      </trkpt>
      <trkpt lat="43.98418" lon="2.28382">
        <ele>325</ele>
        <time>2024-04-01T14:33:36Z</time>
      </trkpt>
      <trkpt lat="43.98397" lon="2.28351">
        <ele>322</ele>
        <time>2024-04-01T14:33:42Z</time>
      </trkpt>
      <trkpt lat="43.98402" lon="2.28323">
        <ele>324</ele>
        <time>2024-04-01T14:33:45Z</time>
      </trkpt>
      <trkpt lat="43.98419" lon="2.28307">
        <ele>330</ele>
        <time>2024-04-01T14:33:49Z</time>
      </trkpt>
      <trkpt lat="43.98444" lon="2.28325">
        <ele>328</ele>
        <time>2024-04-01T14:33:54Z</time>
      </trkpt>
      <trkpt lat="43.98508" lon="2.28349">
        <ele>334</ele>
        <time>2024-04-01T14:34:06Z</time>
      </trkpt>
      <trkpt lat="43.98532" lon="2.28388">
        <ele>331</ele>
        <time>2024-04-01T14:34:12Z</time>
      </trkpt>
      <trkpt lat="43.98563" lon="2.28414">
        <ele>327</ele>
        <time>2024-04-01T14:34:19Z</time>
      </trkpt>
      <trkpt lat="43.98598" lon="2.28385">
        <ele>337</ele>
        <time>2024-04-01T14:34:26Z</time>
      </trkpt>
      <trkpt lat="43.98629" lon="2.28349">
        <ele>346</ele>
        <time>2024-04-01T14:34:33Z</time>
      </trkpt>
      <trkpt lat="43.98654" lon="2.28331">
        <ele>350</ele>
        <time>2024-04-01T14:34:38Z</time>
      </trkpt>
      <trkpt lat="43.98691" lon="2.28323">
        <ele>349</ele>
        <time>2024-04-01T14:34:45Z</time>
      </trkpt>
      <trkpt lat="43.98706" lon="2.28303">
        <ele>353</ele>
        <time>2024-04-01T14:34:49Z</time>
      </trkpt>
      <trkpt lat="43.98732" lon="2.28268">
        <ele>358</ele>
        <time>2024-04-01T14:34:55Z</time>
      </trkpt>
      <trkpt lat="43.98752" lon="2.28268">
        <ele>356</ele>
        <time>2024-04-01T14:34:59Z</time>
      </trkpt>
      <trkpt lat="43.98762" lon="2.2829">
        <ele>353</ele>
        <time>2024-04-01T14:35:02Z</time>
      </trkpt>
      <trkpt lat="43.98763" lon="2.28305">
        <ele>350</ele>
        <time>2024-04-01T14:35:04Z</time>
      </trkpt>
      <trkpt lat="43.9875" lon="2.2834">
        <ele>343</ele>
        <time>2024-04-01T14:35:09Z</time>
      </trkpt>
      <trkpt lat="43.98755" lon="2.28369">
        <ele>339</ele>
        <time>2024-04-01T14:35:13Z</time>
      </trkpt>
      <trkpt lat="43.98848" lon="2.28417">
        <ele>347</ele>
        <time>2024-04-01T14:35:31Z</time>
      </trkpt>
      <trkpt lat="43.98881" lon="2.28395">
        <ele>349</ele>
        <time>2024-04-01T14:35:37Z</time>
      </trkpt>
      <trkpt lat="43.98922" lon="2.28345">
        <ele>355</ele>
        <time>2024-04-01T14:35:47Z</time>
      </trkpt>
      <trkpt lat="43.99008" lon="2.28222">
        <ele>359</ele>
        <time>2024-04-01T14:36:09Z</time>
      </trkpt>
      <trkpt lat="43.99018" lon="2.28187">
        <ele>360</ele>
        <time>2024-04-01T14:36:14Z</time>
      </trkpt>
      <trkpt lat="43.99011" lon="2.28147">
        <ele>362</ele>
        <time>2024-04-01T14:36:19Z</time>
      </trkpt>
      <trkpt lat="43.98984" lon="2.28083">
        <ele>365</ele>
        <time>2024-04-01T14:36:28Z</time>
      </trkpt>
      <trkpt lat="43.98923" lon="2.27839">
        <ele>379</ele>
        <time>2024-04-01T14:37:01Z</time>
      </trkpt>
      <trkpt lat="43.98929" lon="2.27753">
        <ele>381</ele>
        <time>2024-04-01T14:37:12Z</time>
      </trkpt>
      <trkpt lat="43.98946" lon="2.27683">
        <ele>378</ele>
        <time>2024-04-01T14:37:22Z</time>
      </trkpt>
      <trkpt lat="43.9897" lon="2.27612">
        <ele>376</ele>
        <time>2024-04-01T14:37:32Z</time>
      </trkpt>
      <trkpt lat="43.98989" lon="2.2755">
        <ele>376</ele>
        <time>2024-04-01T14:37:41Z</time>
      </trkpt>
      <trkpt lat="43.99015" lon="2.27423">
        <ele>375</ele>
        <time>2024-04-01T14:37:57Z</time>
      </trkpt>
      <trkpt lat="43.99027" lon="2.2739">
        <ele>375</ele>
        <time>2024-04-01T14:38:02Z</time>
      </trkpt>
      <trkpt lat="43.99041" lon="2.27361">
        <ele>376</ele>
        <time>2024-04-01T14:38:07Z</time>
      </trkpt>
      <trkpt lat="43.99061" lon="2.2733">
        <ele>378</ele>
        <time>2024-04-01T14:38:12Z</time>
      </trkpt>
      <trkpt lat="43.99086" lon="2.273">
        <ele>378</ele>
        <time>2024-04-01T14:38:18Z</time>
      </trkpt>
      <trkpt lat="43.99166" lon="2.27229">
        <ele>377</ele>
        <time>2024-04-01T14:38:35Z</time>
      </trkpt>
      <trkpt lat="43.99198" lon="2.27197">
        <ele>375</ele>
        <time>2024-04-01T14:38:42Z</time>
      </trkpt>
      <trkpt lat="43.99209" lon="2.27171">
        <ele>375</ele>
        <time>2024-04-01T14:38:46Z</time>
      </trkpt>
      <trkpt lat="43.99225" lon="2.27113">
        <ele>374</ele>
        <time>2024-04-01T14:38:54Z</time>
      </trkpt>
      <trkpt lat="43.99226" lon="2.27081">
        <ele>373</ele>
        <time>2024-04-01T14:38:58Z</time>
      </trkpt>
      <trkpt lat="43.99217" lon="2.2706">
        <ele>372</ele>
        <time>2024-04-01T14:39:01Z</time>
      </trkpt>
      <trkpt lat="43.99191" lon="2.27028">
        <ele>369</ele>
        <time>2024-04-01T14:39:07Z</time>
      </trkpt>
      <trkpt lat="43.99229" lon="2.27025">
        <ele>371</ele>
        <time>2024-04-01T14:39:14Z</time>
      </trkpt>
      <trkpt lat="43.99286" lon="2.26972">
        <ele>373</ele>
        <time>2024-04-01T14:39:26Z</time>
      </trkpt>
      <trkpt lat="43.99312" lon="2.26937">
        <ele>372</ele>
        <time>2024-04-01T14:39:32Z</time>
      </trkpt>
      <trkpt lat="43.99315" lon="2.26931">
        <ele>372</ele>
        <time>2024-04-01T14:39:33Z</time>
      </trkpt>
      <trkpt lat="43.99334" lon="2.2692">
        <ele>373</ele>
        <time>2024-04-01T14:39:37Z</time>
      </trkpt>
      <trkpt lat="43.99349" lon="2.26917">
        <ele>373</ele>
        <time>2024-04-01T14:39:40Z</time>
      </trkpt>
      <trkpt lat="43.99367" lon="2.26919">
        <ele>374</ele>
        <time>2024-04-01T14:39:43Z</time>
      </trkpt>
      <trkpt lat="43.99364" lon="2.26904">
        <ele>373</ele>
        <time>2024-04-01T14:39:45Z</time>
      </trkpt>
      <trkpt lat="43.99375" lon="2.2682">
        <ele>370</ele>
        <time>2024-04-01T14:39:56Z</time>
      </trkpt>
      <trkpt lat="43.99376" lon="2.26796">
        <ele>370</ele>
        <time>2024-04-01T14:39:59Z</time>
      </trkpt>
      <trkpt lat="43.99353" lon="2.26665">
        <ele>368</ele>
        <time>2024-04-01T14:40:16Z</time>
      </trkpt>
      <trkpt lat="43.99347" lon="2.26535">
        <ele>363</ele>
        <time>2024-04-01T14:40:33Z</time>
      </trkpt>
      <trkpt lat="43.99348" lon="2.26505">
        <ele>362</ele>
        <time>2024-04-01T14:40:37Z</time>
      </trkpt>
      <trkpt lat="43.99373" lon="2.26328">
        <ele>357</ele>
        <time>2024-04-01T14:41:00Z</time>
      </trkpt>
      <trkpt lat="43.99397" lon="2.26224">
        <ele>358</ele>
        <time>2024-04-01T14:41:14Z</time>
      </trkpt>
      <trkpt lat="43.99414" lon="2.26143">
        <ele>358</ele>
        <time>2024-04-01T14:41:25Z</time>
      </trkpt>
      <trkpt lat="43.99426" lon="2.26112">
        <ele>358</ele>
        <time>2024-04-01T14:41:29Z</time>
      </trkpt>
      <trkpt lat="43.99437" lon="2.26096">
        <ele>357</ele>
        <time>2024-04-01T14:41:32Z</time>
      </trkpt>
      <trkpt lat="43.99448" lon="2.2609">
        <ele>357</ele>
        <time>2024-04-01T14:41:34Z</time>
      </trkpt>
      <trkpt lat="43.99469" lon="2.26089">
        <ele>356</ele>
        <time>2024-04-01T14:41:38Z</time>
      </trkpt>
      <trkpt lat="43.99526" lon="2.261">
        <ele>352</ele>
        <time>2024-04-01T14:41:48Z</time>
      </trkpt>
      <trkpt lat="43.99549" lon="2.26099">
        <ele>350</ele>
        <time>2024-04-01T14:41:52Z</time>
      </trkpt>
      <trkpt lat="43.99573" lon="2.26091">
        <ele>349</ele>
        <time>2024-04-01T14:41:56Z</time>
      </trkpt>
      <trkpt lat="43.99603" lon="2.26071">
        <ele>347</ele>
        <time>2024-04-01T14:42:02Z</time>
      </trkpt>
      <trkpt lat="43.99675" lon="2.26008">
        <ele>346</ele>
        <time>2024-04-01T14:42:18Z</time>
      </trkpt>
      <trkpt lat="43.99748" lon="2.25931">
        <ele>344</ele>
        <time>2024-04-01T14:42:34Z</time>
      </trkpt>
      <trkpt lat="43.99818" lon="2.25846">
        <ele>344</ele>
        <time>2024-04-01T14:42:50Z</time>
      </trkpt>
      <trkpt lat="43.99855" lon="2.25809">
        <ele>344</ele>
        <time>2024-04-01T14:42:58Z</time>
      </trkpt>
      <trkpt lat="43.99956" lon="2.25719">
        <ele>346</ele>
        <time>2024-04-01T14:43:20Z</time>
      </trkpt>
      <trkpt lat="43.99983" lon="2.25702">
        <ele>345</ele>
        <time>2024-04-01T14:43:25Z</time>
      </trkpt>
      <trkpt lat="44.00024" lon="2.25669">
        <ele>343</ele>
        <time>2024-04-01T14:43:34Z</time>
      </trkpt>
      <trkpt lat="44.00057" lon="2.25634">
        <ele>338</ele>
        <time>2024-04-01T14:43:41Z</time>
      </trkpt>
      <trkpt lat="44.00076" lon="2.25606">
        <ele>335</ele>
        <time>2024-04-01T14:43:46Z</time>
      </trkpt>
      <trkpt lat="44.00101" lon="2.25542">
        <ele>329</ele>
        <time>2024-04-01T14:43:55Z</time>
      </trkpt>
      <trkpt lat="44.0011" lon="2.25502">
        <ele>327</ele>
        <time>2024-04-01T14:44:00Z</time>
      </trkpt>
      <trkpt lat="44.00109" lon="2.25405">
        <ele>320</ele>
        <time>2024-04-01T14:44:13Z</time>
      </trkpt>
      <trkpt lat="44.00081" lon="2.25265">
        <ele>308</ele>
        <time>2024-04-01T14:44:32Z</time>
      </trkpt>
      <trkpt lat="44.00082" lon="2.2524">
        <ele>305</ele>
        <time>2024-04-01T14:44:35Z</time>
      </trkpt>
      <trkpt lat="44.00098" lon="2.25229">
        <ele>303</ele>
        <time>2024-04-01T14:44:38Z</time>
      </trkpt>
      <trkpt lat="44.00121" lon="2.25217">
        <ele>300</ele>
        <time>2024-04-01T14:44:42Z</time>
      </trkpt>
      <trkpt lat="44.00201" lon="2.25238">
        <ele>299</ele>
        <time>2024-04-01T14:44:57Z</time>
      </trkpt>
      <trkpt lat="44.00206" lon="2.25195">
        <ele>302</ele>
        <time>2024-04-01T14:45:02Z</time>
      </trkpt>
      <trkpt lat="44.00204" lon="2.2513">
        <ele>309</ele>
        <time>2024-04-01T14:45:11Z</time>
      </trkpt>
      <trkpt lat="44.00197" lon="2.25107">
        <ele>312</ele>
        <time>2024-04-01T14:45:14Z</time>
      </trkpt>
      <trkpt lat="44.00179" lon="2.25068">
        <ele>315</ele>
        <time>2024-04-01T14:45:20Z</time>
      </trkpt>
      <trkpt lat="44.00123" lon="2.25039">
        <ele>314</ele>
        <time>2024-04-01T14:45:30Z</time>
      </trkpt>
      <trkpt lat="44.00113" lon="2.2503">
        <ele>314</ele>
        <time>2024-04-01T14:45:33Z</time>
      </trkpt>
      <trkpt lat="44.00113" lon="2.25021">
        <ele>315</ele>
        <time>2024-04-01T14:45:34Z</time>
      </trkpt>
      <trkpt lat="44.00119" lon="2.25016">
        <ele>316</ele>
        <time>2024-04-01T14:45:35Z</time>
      </trkpt>
      <trkpt lat="44.00142" lon="2.25012">
        <ele>319</ele>
        <time>2024-04-01T14:45:39Z</time>
      </trkpt>
      <trkpt lat="44.00167" lon="2.25">
        <ele>323</ele>
        <time>2024-04-01T14:45:44Z</time>
      </trkpt>
      <trkpt lat="44.00228" lon="2.24964">
        <ele>328</ele>
        <time>2024-04-01T14:45:56Z</time>
      </trkpt>
      <trkpt lat="44.0028" lon="2.2493">
        <ele>334</ele>
        <time>2024-04-01T14:46:06Z</time>
      </trkpt>
      <trkpt lat="44.00328" lon="2.24885">
        <ele>338</ele>
        <time>2024-04-01T14:46:16Z</time>
      </trkpt>
      <trkpt lat="44.00413" lon="2.24828">
        <ele>344</ele>
        <time>2024-04-01T14:46:33Z</time>
      </trkpt>
      <trkpt lat="44.00487" lon="2.24743">
        <ele>346</ele>
        <time>2024-04-01T14:46:50Z</time>
      </trkpt>
      <trkpt lat="44.0053" lon="2.24731">
        <ele>347</ele>
        <time>2024-04-01T14:46:58Z</time>
      </trkpt>
      <trkpt lat="44.00574" lon="2.24716">
        <ele>347</ele>
        <time>2024-04-01T14:47:06Z</time>
      </trkpt>
      <trkpt lat="44.00619" lon="2.24685">
        <ele>347</ele>
        <time>2024-04-01T14:47:15Z</time>
      </trkpt>
      <trkpt lat="44.00617" lon="2.2467">
        <ele>347</ele>
        <time>2024-04-01T14:47:17Z</time>
      </trkpt>
      <trkpt lat="44.00618" lon="2.24552">
        <ele>343</ele>
        <time>2024-04-01T14:47:32Z</time>
      </trkpt>
      <trkpt lat="44.00622" lon="2.24512">
        <ele>342</ele>
        <time>2024-04-01T14:47:37Z</time>
      </trkpt>
      <trkpt lat="44.0064" lon="2.24411">
        <ele>340</ele>
        <time>2024-04-01T14:47:50Z</time>
      </trkpt>
      <trkpt lat="44.00671" lon="2.24314">
        <ele>338</ele>
        <time>2024-04-01T14:48:04Z</time>
      </trkpt>
      <trkpt lat="44.00687" lon="2.24239">
        <ele>336</ele>
        <time>2024-04-01T14:48:14Z</time>
      </trkpt>
      <trkpt lat="44.00681" lon="2.24181">
        <ele>335</ele>
        <time>2024-04-01T14:48:21Z</time>
      </trkpt>
      <trkpt lat="44.00688" lon="2.24114">
        <ele>334</ele>
        <time>2024-04-01T14:48:30Z</time>
      </trkpt>
      <trkpt lat="44.00696" lon="2.2409">
        <ele>333</ele>
        <time>2024-04-01T14:48:33Z</time>
      </trkpt>
      <trkpt lat="44.00765" lon="2.24023">
        <ele>326</ele>
        <time>2024-04-01T14:48:48Z</time>
      </trkpt>
      <trkpt lat="44.00815" lon="2.23984">
        <ele>323</ele>
        <time>2024-04-01T14:48:59Z</time>
      </trkpt>
      <trkpt lat="44.00839" lon="2.23958">
        <ele>322</ele>
        <time>2024-04-01T14:49:04Z</time>
      </trkpt>
      <trkpt lat="44.00913" lon="2.23863">
        <ele>327</ele>
        <time>2024-04-01T14:49:22Z</time>
      </trkpt>
      <trkpt lat="44.00982" lon="2.23793">
        <ele>334</ele>
        <time>2024-04-01T14:49:37Z</time>
      </trkpt>
      <trkpt lat="44.01099" lon="2.23642">
        <ele>340</ele>
        <time>2024-04-01T14:50:06Z</time>
      </trkpt>
      <trkpt lat="44.01143" lon="2.23582">
        <ele>341</ele>
        <time>2024-04-01T14:50:17Z</time>
      </trkpt>
      <trkpt lat="44.01151" lon="2.23565">
        <ele>341</ele>
        <time>2024-04-01T14:50:19Z</time>
      </trkpt>
      <trkpt lat="44.01165" lon="2.2351">
        <ele>341</ele>
        <time>2024-04-01T14:50:27Z</time>
      </trkpt>
      <trkpt lat="44.01188" lon="2.23417">
        <ele>341</ele>
        <time>2024-04-01T14:50:39Z</time>
      </trkpt>
      <trkpt lat="44.01193" lon="2.23403">
        <ele>341</ele>
        <time>2024-04-01T14:50:41Z</time>
      </trkpt>
      <trkpt lat="44.01189" lon="2.23316">
        <ele>341</ele>
        <time>2024-04-01T14:50:52Z</time>
      </trkpt>
      <trkpt lat="44.01198" lon="2.23313">
        <ele>341</ele>
        <time>2024-04-01T14:50:54Z</time>
      </trkpt>
      <trkpt lat="44.01217" lon="2.23293">
        <ele>342</ele>
        <time>2024-04-01T14:50:58Z</time>
      </trkpt>
      <trkpt lat="44.0122" lon="2.23298">
        <ele>342</ele>
        <time>2024-04-01T14:50:59Z</time>
      </trkpt>
      <trkpt lat="44.01241" lon="2.23273">
        <ele>342</ele>
        <time>2024-04-01T14:51:04Z</time>
      </trkpt>
      <trkpt lat="44.01247" lon="2.2326">
        <ele>343</ele>
        <time>2024-04-01T14:51:06Z</time>
      </trkpt>
      <trkpt lat="44.01247" lon="2.2325">
        <ele>343</ele>
        <time>2024-04-01T14:51:07Z</time>
      </trkpt>
      <trkpt lat="44.01241" lon="2.23232">
        <ele>343</ele>
        <time>2024-04-01T14:51:10Z</time>
      </trkpt>
      <trkpt lat="44.01228" lon="2.23201">
        <ele>342</ele>
        <time>2024-04-01T14:51:14Z</time>
      </trkpt>
      <trkpt lat="44.01232" lon="2.23189">
        <ele>342</ele>
        <time>2024-04-01T14:51:16Z</time>
      </trkpt>
      <trkpt lat="44.01227" lon="2.2318">
        <ele>342</ele>
        <time>2024-04-01T14:51:17Z</time>
      </trkpt>
      <trkpt lat="44.01221" lon="2.23176">
        <ele>342</ele>
        <time>2024-04-01T14:51:19Z</time>
      </trkpt>
      <trkpt lat="44.01212" lon="2.23177">
        <ele>342</ele>
        <time>2024-04-01T14:51:20Z</time>
      </trkpt>
      <trkpt lat="44.01207" lon="2.23175">
        <ele>343</ele>
        <time>2024-04-01T14:51:21Z</time>
      </trkpt>
      <trkpt lat="44.0118" lon="2.23128">
        <ele>342</ele>
        <time>2024-04-01T14:51:29Z</time>
      </trkpt>
      <trkpt lat="44.01205" lon="2.23112">
        <ele>341</ele>
        <time>2024-04-01T14:51:34Z</time>
      </trkpt>
      <trkpt lat="44.01212" lon="2.23103">
        <ele>341</ele>
        <time>2024-04-01T14:51:35Z</time>
      </trkpt>
      <trkpt lat="44.01216" lon="2.2305">
        <ele>339</ele>
        <time>2024-04-01T14:51:42Z</time>
      </trkpt>
      <trkpt lat="44.01214" lon="2.23036">
        <ele>339</ele>
        <time>2024-04-01T14:51:44Z</time>
      </trkpt>
      <trkpt lat="44.01166" lon="2.22957">
        <ele>339</ele>
        <time>2024-04-01T14:51:57Z</time>
      </trkpt>
      <trkpt lat="44.0115" lon="2.22925">
        <ele>339</ele>
        <time>2024-04-01T14:52:02Z</time>
      </trkpt>
      <trkpt lat="44.0112" lon="2.22775">
        <ele>338</ele>
        <time>2024-04-01T14:52:22Z</time>
      </trkpt>
      <trkpt lat="44.01096" lon="2.22773">
        <ele>338</ele>
        <time>2024-04-01T14:52:27Z</time>
      </trkpt>
      <trkpt lat="44.01067" lon="2.22776">
        <ele>338</ele>
        <time>2024-04-01T14:52:32Z</time>
      </trkpt>
      <trkpt lat="44.01009" lon="2.22318">
        <ele>332</ele>
        <time>2024-04-01T14:53:31Z</time>
      </trkpt>
      <trkpt lat="44.01011" lon="2.22244">
        <ele>330</ele>
        <time>2024-04-01T14:53:41Z</time>
      </trkpt>
      <trkpt lat="44.01024" lon="2.22179">
        <ele>330</ele>
        <time>2024-04-01T14:53:49Z</time>
      </trkpt>
      <trkpt lat="44.01057" lon="2.22047">
        <ele>330</ele>
        <time>2024-04-01T14:54:07Z</time>
      </trkpt>
      <trkpt lat="44.01076" lon="2.2198">
        <ele>331</ele>
        <time>2024-04-01T14:54:16Z</time>
      </trkpt>
      <trkpt lat="44.01079" lon="2.21973">
        <ele>331</ele>
        <time>2024-04-01T14:54:18Z</time>
      </trkpt>
      <trkpt lat="44.00993" lon="2.21809">
        <ele>328</ele>
        <time>2024-04-01T14:54:43Z</time>
      </trkpt>
      <trkpt lat="44.00996" lon="2.21786">
        <ele>328</ele>
        <time>2024-04-01T14:54:46Z</time>
      </trkpt>
      <trkpt lat="44.0101" lon="2.21742">
        <ele>329</ele>
        <time>2024-04-01T14:54:53Z</time>
      </trkpt>
      <trkpt lat="44.01032" lon="2.21634">
        <ele>326</ele>
        <time>2024-04-01T14:55:07Z</time>
      </trkpt>
      <trkpt lat="44.01036" lon="2.21622">
        <ele>326</ele>
        <time>2024-04-01T14:55:09Z</time>
      </trkpt>
      <trkpt lat="44.01054" lon="2.21617">
        <ele>327</ele>
        <time>2024-04-01T14:55:12Z</time>
      </trkpt>
      <trkpt lat="44.01073" lon="2.21598">
        <ele>327</ele>
        <time>2024-04-01T14:55:16Z</time>
      </trkpt>
      <trkpt lat="44.01093" lon="2.2158">
        <ele>327</ele>
        <time>2024-04-01T14:55:20Z</time>
      </trkpt>
      <trkpt lat="44.01108" lon="2.21575">
        <ele>327</ele>
        <time>2024-04-01T14:55:23Z</time>
      </trkpt>
      <trkpt lat="44.01126" lon="2.21577">
        <ele>328</ele>
        <time>2024-04-01T14:55:26Z</time>
      </trkpt>
      <trkpt lat="44.01276" lon="2.2163">
        <ele>329</ele>
        <time>2024-04-01T14:55:54Z</time>
      </trkpt>
      <trkpt lat="44.01419" lon="2.21388">
        <ele>329</ele>
        <time>2024-04-01T14:56:34Z</time>
      </trkpt>
      <trkpt lat="44.01441" lon="2.2134">
        <ele>329</ele>
        <time>2024-04-01T14:56:41Z</time>
      </trkpt>
      <trkpt lat="44.01512" lon="2.2114">
        <ele>327</ele>
        <time>2024-04-01T14:57:10Z</time>
      </trkpt>
      <trkpt lat="44.01528" lon="2.21078">
        <ele>326</ele>
        <time>2024-04-01T14:57:18Z</time>
      </trkpt>
      <trkpt lat="44.01598" lon="2.2067">
        <ele>328</ele>
        <time>2024-04-01T14:58:12Z</time>
      </trkpt>
      <trkpt lat="44.01581" lon="2.2064">
        <ele>328</ele>
        <time>2024-04-01T14:58:17Z</time>
      </trkpt>
      <trkpt lat="44.01554" lon="2.20567">
        <ele>326</ele>
        <time>2024-04-01T14:58:27Z</time>
      </trkpt>
      <trkpt lat="44.01548" lon="2.20542">
        <ele>326</ele>
        <time>2024-04-01T14:58:31Z</time>
      </trkpt>
      <trkpt lat="44.01531" lon="2.20443">
        <ele>324</ele>
        <time>2024-04-01T14:58:44Z</time>
      </trkpt>
      <trkpt lat="44.01515" lon="2.20374">
        <ele>322</ele>
        <time>2024-04-01T14:58:53Z</time>
      </trkpt>
      <trkpt lat="44.01495" lon="2.20304">
        <ele>320</ele>
        <time>2024-04-01T14:59:03Z</time>
      </trkpt>
      <trkpt lat="44.01479" lon="2.20249">
        <ele>319</ele>
        <time>2024-04-01T14:59:10Z</time>
      </trkpt>
      <trkpt lat="44.01477" lon="2.20245">
        <ele>319</ele>
        <time>2024-04-01T14:59:11Z</time>
      </trkpt>
      <trkpt lat="44.01554" lon="2.20011">
        <ele>318</ele>
        <time>2024-04-01T14:59:44Z</time>
      </trkpt>
      <trkpt lat="44.01554" lon="2.19985">
        <ele>317</ele>
        <time>2024-04-01T14:59:47Z</time>
      </trkpt>
      <trkpt lat="44.01552" lon="2.19954">
        <ele>316</ele>
        <time>2024-04-01T14:59:51Z</time>
      </trkpt>
      <trkpt lat="44.01533" lon="2.19859">
        <ele>313</ele>
        <time>2024-04-01T15:00:04Z</time>
      </trkpt>
      <trkpt lat="44.01512" lon="2.19778">
        <ele>311</ele>
        <time>2024-04-01T15:00:15Z</time>
      </trkpt>
      <trkpt lat="44.01476" lon="2.19661">
        <ele>309</ele>
        <time>2024-04-01T15:00:31Z</time>
      </trkpt>
      <trkpt lat="44.01464" lon="2.19629">
        <ele>309</ele>
        <time>2024-04-01T15:00:36Z</time>
      </trkpt>
      <trkpt lat="44.01442" lon="2.19575">
        <ele>308</ele>
        <time>2024-04-01T15:00:43Z</time>
      </trkpt>
      <trkpt lat="44.01438" lon="2.19556">
        <ele>308</ele>
        <time>2024-04-01T15:00:46Z</time>
      </trkpt>
      <trkpt lat="44.01434" lon="2.19507">
        <ele>308</ele>
        <time>2024-04-01T15:00:52Z</time>
      </trkpt>
      <trkpt lat="44.01428" lon="2.19339">
        <ele>304</ele>
        <time>2024-04-01T15:01:14Z</time>
      </trkpt>
      <trkpt lat="44.01429" lon="2.19314">
        <ele>303</ele>
        <time>2024-04-01T15:01:17Z</time>
      </trkpt>
      <trkpt lat="44.01434" lon="2.1928">
        <ele>303</ele>
        <time>2024-04-01T15:01:21Z</time>
      </trkpt>
      <trkpt lat="44.01434" lon="2.19251">
        <ele>302</ele>
        <time>2024-04-01T15:01:25Z</time>
      </trkpt>
      <trkpt lat="44.01424" lon="2.19208">
        <ele>302</ele>
        <time>2024-04-01T15:01:31Z</time>
      </trkpt>
      <trkpt lat="44.01398" lon="2.19175">
        <ele>300</ele>
        <time>2024-04-01T15:01:37Z</time>
      </trkpt>
      <trkpt lat="44.01393" lon="2.19166">
        <ele>300</ele>
        <time>2024-04-01T15:01:39Z</time>
      </trkpt>
      <trkpt lat="44.01388" lon="2.19143">
        <ele>299</ele>
        <time>2024-04-01T15:01:42Z</time>
      </trkpt>
      <trkpt lat="44.01388" lon="2.19122">
        <ele>298</ele>
        <time>2024-04-01T15:01:44Z</time>
      </trkpt>
      <trkpt lat="44.01392" lon="2.19101">
        <ele>298</ele>
        <time>2024-04-01T15:01:47Z</time>
      </trkpt>
      <trkpt lat="44.01403" lon="2.19073">
        <ele>297</ele>
        <time>2024-04-01T15:01:51Z</time>
      </trkpt>
      <trkpt lat="44.01427" lon="2.19031">
        <ele>296</ele>
        <time>2024-04-01T15:01:58Z</time>
      </trkpt>
      <trkpt lat="44.01467" lon="2.18971">
        <ele>295</ele>
        <time>2024-04-01T15:02:09Z</time>
      </trkpt>
      <trkpt lat="44.01524" lon="2.1888">
        <ele>295</ele>
        <time>2024-04-01T15:02:24Z</time>
      </trkpt>
      <trkpt lat="44.01531" lon="2.18862">
        <ele>296</ele>
        <time>2024-04-01T15:02:27Z</time>
      </trkpt>
      <trkpt lat="44.01536" lon="2.18802">
        <ele>297</ele>
        <time>2024-04-01T15:02:34Z</time>
      </trkpt>
      <trkpt lat="44.01524" lon="2.18776">
        <ele>295</ele>
        <time>2024-04-01T15:02:38Z</time>
      </trkpt>
      <trkpt lat="44.01509" lon="2.18734">
        <ele>293</ele>
        <time>2024-04-01T15:02:44Z</time>
      </trkpt>
      <trkpt lat="44.01506" lon="2.18674">
        <ele>292</ele>
        <time>2024-04-01T15:02:52Z</time>
      </trkpt>
      <trkpt lat="44.01514" lon="2.18562">
        <ele>288</ele>
        <time>2024-04-01T15:03:07Z</time>
      </trkpt>
      <trkpt lat="44.01538" lon="2.18489">
        <ele>286</ele>
        <time>2024-04-01T15:03:17Z</time>
      </trkpt>
      <trkpt lat="44.01571" lon="2.18446">
        <ele>286</ele>
        <time>2024-04-01T15:03:25Z</time>
      </trkpt>
      <trkpt lat="44.01602" lon="2.18427">
        <ele>287</ele>
        <time>2024-04-01T15:03:31Z</time>
      </trkpt>
      <trkpt lat="44.0164" lon="2.18407">
        <ele>290</ele>
        <time>2024-04-01T15:03:38Z</time>
      </trkpt>
      <trkpt lat="44.01665" lon="2.18386">
        <ele>293</ele>
        <time>2024-04-01T15:03:43Z</time>
      </trkpt>
      <trkpt lat="44.01693" lon="2.18355">
        <ele>297</ele>
        <time>2024-04-01T15:03:50Z</time>
      </trkpt>
      <trkpt lat="44.0172" lon="2.18303">
        <ele>301</ele>
        <time>2024-04-01T15:03:58Z</time>
      </trkpt>
      <trkpt lat="44.01741" lon="2.18213">
        <ele>303</ele>
        <time>2024-04-01T15:04:10Z</time>
      </trkpt>
      <trkpt lat="44.01763" lon="2.18093">
        <ele>299</ele>
        <time>2024-04-01T15:04:26Z</time>
      </trkpt>
      <trkpt lat="44.01764" lon="2.18057">
        <ele>296</ele>
        <time>2024-04-01T15:04:30Z</time>
      </trkpt>
      <trkpt lat="44.01755" lon="2.18021">
        <ele>293</ele>
        <time>2024-04-01T15:04:35Z</time>
      </trkpt>
      <trkpt lat="44.01728" lon="2.17982">
        <ele>289</ele>
        <time>2024-04-01T15:04:42Z</time>
      </trkpt>
      <trkpt lat="44.01594" lon="2.17817">
        <ele>276</ele>
        <time>2024-04-01T15:05:14Z</time>
      </trkpt>
      <trkpt lat="44.01558" lon="2.1775">
        <ele>277</ele>
        <time>2024-04-01T15:05:25Z</time>
      </trkpt>
      <trkpt lat="44.01521" lon="2.17629">
        <ele>287</ele>
        <time>2024-04-01T15:05:42Z</time>
      </trkpt>
      <trkpt lat="44.01501" lon="2.17542">
        <ele>295</ele>
        <time>2024-04-01T15:05:53Z</time>
      </trkpt>
      <trkpt lat="44.01491" lon="2.17481">
        <ele>298</ele>
        <time>2024-04-01T15:06:01Z</time>
      </trkpt>
      <trkpt lat="44.01487" lon="2.17401">
        <ele>303</ele>
        <time>2024-04-01T15:06:12Z</time>
      </trkpt>
      <trkpt lat="44.01495" lon="2.17358">
        <ele>305</ele>
        <time>2024-04-01T15:06:17Z</time>
      </trkpt>
      <trkpt lat="44.0151" lon="2.17311">
        <ele>305</ele>
        <time>2024-04-01T15:06:24Z</time>
      </trkpt>
      <trkpt lat="44.01505" lon="2.17285">
        <ele>305</ele>
        <time>2024-04-01T15:06:27Z</time>
      </trkpt>
      <trkpt lat="44.01521" lon="2.17272">
        <ele>304</ele>
        <time>2024-04-01T15:06:31Z</time>
      </trkpt>
      <trkpt lat="44.01538" lon="2.17266">
        <ele>304</ele>
        <time>2024-04-01T15:06:34Z</time>
      </trkpt>
      <trkpt lat="44.01551" lon="2.17259">
        <ele>303</ele>
        <time>2024-04-01T15:06:36Z</time>
      </trkpt>
      <trkpt lat="44.0156" lon="2.17248">
        <ele>304</ele>
        <time>2024-04-01T15:06:38Z</time>
      </trkpt>
      <trkpt lat="44.0158" lon="2.17212">
        <ele>303</ele>
        <time>2024-04-01T15:06:44Z</time>
      </trkpt>
      <trkpt lat="44.01656" lon="2.17024">
        <ele>299</ele>
        <time>2024-04-01T15:07:12Z</time>
      </trkpt>
      <trkpt lat="44.017" lon="2.16921">
        <ele>298</ele>
        <time>2024-04-01T15:07:27Z</time>
      </trkpt>
      <trkpt lat="44.01722" lon="2.16892">
        <ele>298</ele>
        <time>2024-04-01T15:07:32Z</time>
      </trkpt>
      <trkpt lat="44.01875" lon="2.16769">
        <ele>296</ele>
        <time>2024-04-01T15:08:04Z</time>
      </trkpt>
      <trkpt lat="44.01931" lon="2.16731">
        <ele>297</ele>
        <time>2024-04-01T15:08:15Z</time>
      </trkpt>
      <trkpt lat="44.01979" lon="2.16703">
        <ele>299</ele>
        <time>2024-04-01T15:08:24Z</time>
      </trkpt>
      <trkpt lat="44.02154" lon="2.16618">
        <ele>293</ele>
        <time>2024-04-01T15:08:57Z</time>
      </trkpt>
      <trkpt lat="44.02204" lon="2.1659">
        <ele>294</ele>
        <time>2024-04-01T15:09:07Z</time>
      </trkpt>
      <trkpt lat="44.02232" lon="2.1657">
        <ele>295</ele>
        <time>2024-04-01T15:09:12Z</time>
      </trkpt>
      <trkpt lat="44.02269" lon="2.16529">
        <ele>295</ele>
        <time>2024-04-01T15:09:21Z</time>
      </trkpt>
      <trkpt lat="44.02277" lon="2.16517">
        <ele>296</ele>
        <time>2024-04-01T15:09:23Z</time>
      </trkpt>
      <trkpt lat="44.02283" lon="2.16493">
        <ele>296</ele>
        <time>2024-04-01T15:09:26Z</time>
      </trkpt>
      <trkpt lat="44.02298" lon="2.16339">
        <ele>292</ele>
        <time>2024-04-01T15:09:46Z</time>
      </trkpt>
      <trkpt lat="44.02307" lon="2.1628">
        <ele>291</ele>
        <time>2024-04-01T15:09:54Z</time>
      </trkpt>
      <trkpt lat="44.02334" lon="2.16201">
        <ele>291</ele>
        <time>2024-04-01T15:10:05Z</time>
      </trkpt>
      <trkpt lat="44.0236" lon="2.16131">
        <ele>289</ele>
        <time>2024-04-01T15:10:15Z</time>
      </trkpt>
      <trkpt lat="44.02372" lon="2.16056">
        <ele>284</ele>
        <time>2024-04-01T15:10:25Z</time>
      </trkpt>
      <trkpt lat="44.02376" lon="2.16041">
        <ele>283</ele>
        <time>2024-04-01T15:10:27Z</time>
      </trkpt>
      <trkpt lat="44.02454" lon="2.15873">
        <ele>275</ele>
        <time>2024-04-01T15:10:52Z</time>
      </trkpt>
      <trkpt lat="44.02473" lon="2.15847">
        <ele>273</ele>
        <time>2024-04-01T15:10:57Z</time>
      </trkpt>
      <trkpt lat="44.02558" lon="2.15744">
        <ele>265</ele>
        <time>2024-04-01T15:11:17Z</time>
      </trkpt>
      <trkpt lat="44.02571" lon="2.15737">
        <ele>265</ele>
        <time>2024-04-01T15:11:20Z</time>
      </trkpt>
      <trkpt lat="44.02579" lon="2.15738">
        <ele>265</ele>
        <time>2024-04-01T15:11:21Z</time>
      </trkpt>
      <trkpt lat="44.02596" lon="2.15732">
        <ele>264</ele>
        <time>2024-04-01T15:11:24Z</time>
      </trkpt>
      <trkpt lat="44.02606" lon="2.1572">
        <ele>263</ele>
        <time>2024-04-01T15:11:27Z</time>
      </trkpt>
      <trkpt lat="44.02646" lon="2.15624">
        <ele>259</ele>
        <time>2024-04-01T15:11:41Z</time>
      </trkpt>
      <trkpt lat="44.02652" lon="2.15613">
        <ele>258</ele>
        <time>2024-04-01T15:11:43Z</time>
      </trkpt>
      <trkpt lat="44.02719" lon="2.15434">
        <ele>257</ele>
        <time>2024-04-01T15:12:08Z</time>
      </trkpt>
      <trkpt lat="44.02737" lon="2.15401">
        <ele>258</ele>
        <time>2024-04-01T15:12:14Z</time>
      </trkpt>
      <trkpt lat="44.02753" lon="2.15374">
        <ele>258</ele>
        <time>2024-04-01T15:12:18Z</time>
      </trkpt>
      <trkpt lat="44.02791" lon="2.15323">
        <ele>258</ele>
        <time>2024-04-01T15:12:28Z</time>
      </trkpt>
      <trkpt lat="44.02847" lon="2.15259">
        <ele>260</ele>
        <time>2024-04-01T15:12:41Z</time>
      </trkpt>
      <trkpt lat="44.0289" lon="2.15229">
        <ele>263</ele>
        <time>2024-04-01T15:12:49Z</time>
      </trkpt>
      <trkpt lat="44.02927" lon="2.15196">
        <ele>267</ele>
        <time>2024-04-01T15:12:57Z</time>
      </trkpt>
      <trkpt lat="44.02957" lon="2.15155">
        <ele>268</ele>
        <time>2024-04-01T15:13:04Z</time>
      </trkpt>
      <trkpt lat="44.02973" lon="2.15113">
        <ele>268</ele>
        <time>2024-04-01T15:13:10Z</time>
      </trkpt>
      <trkpt lat="44.02982" lon="2.15065">
        <ele>269</ele>
        <time>2024-04-01T15:13:17Z</time>
      </trkpt>
      <trkpt lat="44.02987" lon="2.1502">
        <ele>271</ele>
        <time>2024-04-01T15:13:23Z</time>
      </trkpt>
      <trkpt lat="44.0299" lon="2.14897">
        <ele>275</ele>
        <time>2024-04-01T15:13:38Z</time>
      </trkpt>
      <trkpt lat="44.02988" lon="2.14819">
        <ele>276</ele>
        <time>2024-04-01T15:13:48Z</time>
      </trkpt>
      <trkpt lat="44.02981" lon="2.14724">
        <ele>279</ele>
        <time>2024-04-01T15:14:01Z</time>
      </trkpt>
      <trkpt lat="44.02974" lon="2.14672">
        <ele>282</ele>
        <time>2024-04-01T15:14:07Z</time>
      </trkpt>
      <trkpt lat="44.02974" lon="2.14627">
        <ele>284</ele>
        <time>2024-04-01T15:14:13Z</time>
      </trkpt>
      <trkpt lat="44.02981" lon="2.14581">
        <ele>286</ele>
        <time>2024-04-01T15:14:19Z</time>
      </trkpt>
      <trkpt lat="44.03006" lon="2.14485">
        <ele>289</ele>
        <time>2024-04-01T15:14:32Z</time>
      </trkpt>
      <trkpt lat="44.03007" lon="2.14461">
        <ele>290</ele>
        <time>2024-04-01T15:14:35Z</time>
      </trkpt>
      <trkpt lat="44.03007" lon="2.14433">
        <ele>290</ele>
        <time>2024-04-01T15:14:39Z</time>
      </trkpt>
      <trkpt lat="44.02988" lon="2.14297">
        <ele>291</ele>
        <time>2024-04-01T15:14:57Z</time>
      </trkpt>
      <trkpt lat="44.02981" lon="2.14249">
        <ele>294</ele>
        <time>2024-04-01T15:15:03Z</time>
      </trkpt>
      <trkpt lat="44.02978" lon="2.14219">
        <ele>295</ele>
        <time>2024-04-01T15:15:07Z</time>
      </trkpt>
      <trkpt lat="44.02978" lon="2.14199">
        <ele>296</ele>
        <time>2024-04-01T15:15:09Z</time>
      </trkpt>
      <trkpt lat="44.02988" lon="2.14163">
        <ele>298</ele>
        <time>2024-04-01T15:15:14Z</time>
      </trkpt>
      <trkpt lat="44.02997" lon="2.14163">
        <ele>297</ele>
        <time>2024-04-01T15:15:16Z</time>
      </trkpt>
      <trkpt lat="44.03002" lon="2.1416">
        <ele>297</ele>
        <time>2024-04-01T15:15:17Z</time>
      </trkpt>
      <trkpt lat="44.03006" lon="2.14154">
        <ele>297</ele>
        <time>2024-04-01T15:15:18Z</time>
      </trkpt>
      <trkpt lat="44.03007" lon="2.14147">
        <ele>297</ele>
        <time>2024-04-01T15:15:19Z</time>
      </trkpt>
      <trkpt lat="44.03008" lon="2.1414">
        <ele>296</ele>
        <time>2024-04-01T15:15:20Z</time>
      </trkpt>
      <trkpt lat="44.03006" lon="2.14133">
        <ele>296</ele>
        <time>2024-04-01T15:15:21Z</time>
      </trkpt>
      <trkpt lat="44.03002" lon="2.14127">
        <ele>296</ele>
        <time>2024-04-01T15:15:22Z</time>
      </trkpt>
      <trkpt lat="44.02998" lon="2.14124">
        <ele>297</ele>
        <time>2024-04-01T15:15:22Z</time>
      </trkpt>
      <trkpt lat="44.02992" lon="2.14122">
        <ele>297</ele>
        <time>2024-04-01T15:15:24Z</time>
      </trkpt>
      <trkpt lat="44.02987" lon="2.14124">
        <ele>297</ele>
        <time>2024-04-01T15:15:24Z</time>
      </trkpt>
      <trkpt lat="44.02982" lon="2.14128">
        <ele>298</ele>
        <time>2024-04-01T15:15:25Z</time>
      </trkpt>
      <trkpt lat="44.02964" lon="2.14094">
        <ele>298</ele>
        <time>2024-04-01T15:15:31Z</time>
      </trkpt>
      <trkpt lat="44.02954" lon="2.14068">
        <ele>298</ele>
        <time>2024-04-01T15:15:35Z</time>
      </trkpt>
      <trkpt lat="44.02937" lon="2.13948">
        <ele>296</ele>
        <time>2024-04-01T15:15:50Z</time>
      </trkpt>
      <trkpt lat="44.02933" lon="2.13906">
        <ele>297</ele>
        <time>2024-04-01T15:15:56Z</time>
      </trkpt>
      <trkpt lat="44.02935" lon="2.1388">
        <ele>297</ele>
        <time>2024-04-01T15:15:59Z</time>
      </trkpt>
      <trkpt lat="44.0294" lon="2.13854">
        <ele>297</ele>
        <time>2024-04-01T15:16:03Z</time>
      </trkpt>
      <trkpt lat="44.02952" lon="2.13825">
        <ele>297</ele>
        <time>2024-04-01T15:16:07Z</time>
      </trkpt>
      <trkpt lat="44.02982" lon="2.13769">
        <ele>299</ele>
        <time>2024-04-01T15:16:16Z</time>
      </trkpt>
      <trkpt lat="44.03026" lon="2.13697">
        <ele>306</ele>
        <time>2024-04-01T15:16:28Z</time>
      </trkpt>
      <trkpt lat="44.03063" lon="2.13638">
        <ele>311</ele>
        <time>2024-04-01T15:16:38Z</time>
      </trkpt>
      <trkpt lat="44.03082" lon="2.13613">
        <ele>313</ele>
        <time>2024-04-01T15:16:42Z</time>
      </trkpt>
      <trkpt lat="44.03124" lon="2.13563">
        <ele>314</ele>
        <time>2024-04-01T15:16:52Z</time>
      </trkpt>
      <trkpt lat="44.03134" lon="2.13546">
        <ele>314</ele>
        <time>2024-04-01T15:16:55Z</time>
      </trkpt>
      <trkpt lat="44.03142" lon="2.13527">
        <ele>315</ele>
        <time>2024-04-01T15:16:58Z</time>
      </trkpt>
      <trkpt lat="44.03148" lon="2.13501">
        <ele>317</ele>
        <time>2024-04-01T15:17:01Z</time>
      </trkpt>
      <trkpt lat="44.03159" lon="2.1342">
        <ele>318</ele>
        <time>2024-04-01T15:17:12Z</time>
      </trkpt>
      <trkpt lat="44.0317" lon="2.13377">
        <ele>324</ele>
        <time>2024-04-01T15:17:18Z</time>
      </trkpt>
      <trkpt lat="44.0318" lon="2.13355">
        <ele>326</ele>
        <time>2024-04-01T15:17:21Z</time>
      </trkpt>
      <trkpt lat="44.03199" lon="2.13322">
        <ele>326</ele>
        <time>2024-04-01T15:17:27Z</time>
      </trkpt>
      <trkpt lat="44.0323" lon="2.13278">
        <ele>324</ele>
        <time>2024-04-01T15:17:34Z</time>
      </trkpt>
      <trkpt lat="44.03233" lon="2.13269">
        <ele>325</ele>
        <time>2024-04-01T15:17:36Z</time>
      </trkpt>
      <trkpt lat="44.03233" lon="2.13258">
        <ele>326</ele>
        <time>2024-04-01T15:17:37Z</time>
      </trkpt>
      <trkpt lat="44.0323" lon="2.13247">
        <ele>327</ele>
        <time>2024-04-01T15:17:39Z</time>
      </trkpt>
      <trkpt lat="44.03221" lon="2.13248">
        <ele>328</ele>
        <time>2024-04-01T15:17:40Z</time>
      </trkpt>
      <trkpt lat="44.0321" lon="2.13245">
        <ele>329</ele>
        <time>2024-04-01T15:17:42Z</time>
      </trkpt>
      <trkpt lat="44.03196" lon="2.13235">
        <ele>331</ele>
        <time>2024-04-01T15:17:45Z</time>
      </trkpt>
      <trkpt lat="44.02989" lon="2.13059">
        <ele>340</ele>
        <time>2024-04-01T15:18:28Z</time>
      </trkpt>
      <trkpt lat="44.02701" lon="2.12872">
        <ele>328</ele>
        <time>2024-04-01T15:19:25Z</time>
      </trkpt>
      <trkpt lat="44.02702" lon="2.12862">
        <ele>328</ele>
        <time>2024-04-01T15:19:26Z</time>
      </trkpt>
      <trkpt lat="44.02701" lon="2.1285">
        <ele>328</ele>
        <time>2024-04-01T15:19:28Z</time>
      </trkpt>
      <trkpt lat="44.02685" lon="2.12768">
        <ele>331</ele>
        <time>2024-04-01T15:19:38Z</time>
      </trkpt>
      <trkpt lat="44.02671" lon="2.12742">
        <ele>333</ele>
        <time>2024-04-01T15:19:43Z</time>
      </trkpt>
      <trkpt lat="44.02617" lon="2.12685">
        <ele>337</ele>
        <time>2024-04-01T15:19:55Z</time>
      </trkpt>
      <trkpt lat="44.02598" lon="2.1266">
        <ele>339</ele>
        <time>2024-04-01T15:19:59Z</time>
      </trkpt>
      <trkpt lat="44.02594" lon="2.12651">
        <ele>339</ele>
        <time>2024-04-01T15:20:01Z</time>
      </trkpt>
      <trkpt lat="44.02587" lon="2.12587">
        <ele>341</ele>
        <time>2024-04-01T15:20:09Z</time>
      </trkpt>
      <trkpt lat="44.0258" lon="2.12556">
        <ele>342</ele>
        <time>2024-04-01T15:20:13Z</time>
      </trkpt>
      <trkpt lat="44.02573" lon="2.12539">
        <ele>342</ele>
        <time>2024-04-01T15:20:16Z</time>
      </trkpt>
      <trkpt lat="44.02534" lon="2.12475">
        <ele>341</ele>
        <time>2024-04-01T15:20:26Z</time>
      </trkpt>
      <trkpt lat="44.02522" lon="2.12441">
        <ele>340</ele>
        <time>2024-04-01T15:20:31Z</time>
      </trkpt>
      <trkpt lat="44.02518" lon="2.1241">
        <ele>338</ele>
        <time>2024-04-01T15:20:35Z</time>
      </trkpt>
      <trkpt lat="44.02514" lon="2.12268">
        <ele>337</ele>
        <time>2024-04-01T15:20:53Z</time>
      </trkpt>
      <trkpt lat="44.02516" lon="2.12073">
        <ele>334</ele>
        <time>2024-04-01T15:21:18Z</time>
      </trkpt>
      <trkpt lat="44.02514" lon="2.12042">
        <ele>335</ele>
        <time>2024-04-01T15:21:22Z</time>
      </trkpt>
      <trkpt lat="44.02508" lon="2.12018">
        <ele>335</ele>
        <time>2024-04-01T15:21:26Z</time>
      </trkpt>
      <trkpt lat="44.02438" lon="2.11825">
        <ele>331</ele>
        <time>2024-04-01T15:21:53Z</time>
      </trkpt>
      <trkpt lat="44.02412" lon="2.11757">
        <ele>333</ele>
        <time>2024-04-01T15:22:03Z</time>
      </trkpt>
      <trkpt lat="44.02403" lon="2.1171">
        <ele>333</ele>
        <time>2024-04-01T15:22:09Z</time>
      </trkpt>
      <trkpt lat="44.02402" lon="2.11678">
        <ele>333</ele>
        <time>2024-04-01T15:22:13Z</time>
      </trkpt>
      <trkpt lat="44.02418" lon="2.11396">
        <ele>336</ele>
        <time>2024-04-01T15:22:50Z</time>
      </trkpt>
      <trkpt lat="44.02416" lon="2.11378">
        <ele>336</ele>
        <time>2024-04-01T15:22:52Z</time>
      </trkpt>
      <trkpt lat="44.02412" lon="2.11361">
        <ele>337</ele>
        <time>2024-04-01T15:22:54Z</time>
      </trkpt>
      <trkpt lat="44.02395" lon="2.11321">
        <ele>337</ele>
        <time>2024-04-01T15:23:00Z</time>
      </trkpt>
      <trkpt lat="44.02371" lon="2.11275">
        <ele>337</ele>
        <time>2024-04-01T15:23:07Z</time>
      </trkpt>
      <trkpt lat="44.02353" lon="2.11216">
        <ele>335</ele>
        <time>2024-04-01T15:23:16Z</time>
      </trkpt>
      <trkpt lat="44.02281" lon="2.10818">
        <ele>328</ele>
        <time>2024-04-01T15:24:08Z</time>
      </trkpt>
      <trkpt lat="44.02164" lon="2.10445">
        <ele>322</ele>
        <time>2024-04-01T15:25:00Z</time>
      </trkpt>
      <trkpt lat="44.0216" lon="2.10415">
        <ele>322</ele>
        <time>2024-04-01T15:25:04Z</time>
      </trkpt>
      <trkpt lat="44.0216" lon="2.10399">
        <ele>324</ele>
        <time>2024-04-01T15:25:06Z</time>
      </trkpt>
      <trkpt lat="44.02162" lon="2.1038">
        <ele>326</ele>
        <time>2024-04-01T15:25:09Z</time>
      </trkpt>
      <trkpt lat="44.02174" lon="2.10341">
        <ele>329</ele>
        <time>2024-04-01T15:25:14Z</time>
      </trkpt>
      <trkpt lat="44.02195" lon="2.10286">
        <ele>330</ele>
        <time>2024-04-01T15:25:22Z</time>
      </trkpt>
      <trkpt lat="44.02207" lon="2.10239">
        <ele>331</ele>
        <time>2024-04-01T15:25:28Z</time>
      </trkpt>
      <trkpt lat="44.0221" lon="2.10212">
        <ele>330</ele>
        <time>2024-04-01T15:25:32Z</time>
      </trkpt>
      <trkpt lat="44.02208" lon="2.10135">
        <ele>330</ele>
        <time>2024-04-01T15:25:42Z</time>
      </trkpt>
      <trkpt lat="44.02204" lon="2.10113">
        <ele>330</ele>
        <time>2024-04-01T15:25:45Z</time>
      </trkpt>
      <trkpt lat="44.02187" lon="2.10076">
        <ele>329</ele>
        <time>2024-04-01T15:25:50Z</time>
      </trkpt>
      <trkpt lat="44.0193" lon="2.09594">
        <ele>331</ele>
        <time>2024-04-01T15:27:07Z</time>
      </trkpt>
      <trkpt lat="44.01904" lon="2.09535">
        <ele>333</ele>
        <time>2024-04-01T15:27:16Z</time>
      </trkpt>
      <trkpt lat="44.01897" lon="2.09494">
        <ele>334</ele>
        <time>2024-04-01T15:27:21Z</time>
      </trkpt>
      <trkpt lat="44.01899" lon="2.09453">
        <ele>336</ele>
        <time>2024-04-01T15:27:27Z</time>
      </trkpt>
      <trkpt lat="44.01923" lon="2.09305">
        <ele>340</ele>
        <time>2024-04-01T15:27:46Z</time>
      </trkpt>
      <trkpt lat="44.01933" lon="2.09262">
        <ele>340</ele>
        <time>2024-04-01T15:27:52Z</time>
      </trkpt>
      <trkpt lat="44.01945" lon="2.09226">
        <ele>341</ele>
        <time>2024-04-01T15:27:57Z</time>
      </trkpt>
      <trkpt lat="44.02027" lon="2.09052">
        <ele>338</ele>
        <time>2024-04-01T15:28:23Z</time>
      </trkpt>
      <trkpt lat="44.02039" lon="2.09015">
        <ele>337</ele>
        <time>2024-04-01T15:28:29Z</time>
      </trkpt>
      <trkpt lat="44.02041" lon="2.08994">
        <ele>337</ele>
        <time>2024-04-01T15:28:31Z</time>
      </trkpt>
      <trkpt lat="44.02052" lon="2.08841">
        <ele>336</ele>
        <time>2024-04-01T15:28:51Z</time>
      </trkpt>
      <trkpt lat="44.02054" lon="2.08787">
        <ele>337</ele>
        <time>2024-04-01T15:28:58Z</time>
      </trkpt>
      <trkpt lat="44.02033" lon="2.08568">
        <ele>336</ele>
        <time>2024-04-01T15:29:26Z</time>
      </trkpt>
      <trkpt lat="44.02017" lon="2.08448">
        <ele>338</ele>
        <time>2024-04-01T15:29:42Z</time>
      </trkpt>
      <trkpt lat="44.01991" lon="2.08207">
        <ele>333</ele>
        <time>2024-04-01T15:30:13Z</time>
      </trkpt>
      <trkpt lat="44.01981" lon="2.0815">
        <ele>331</ele>
        <time>2024-04-01T15:30:21Z</time>
      </trkpt>
      <trkpt lat="44.01962" lon="2.08114">
        <ele>331</ele>
        <time>2024-04-01T15:30:26Z</time>
      </trkpt>
      <trkpt lat="44.01932" lon="2.08082">
        <ele>330</ele>
        <time>2024-04-01T15:30:33Z</time>
      </trkpt>
      <trkpt lat="44.01887" lon="2.08047">
        <ele>329</ele>
        <time>2024-04-01T15:30:42Z</time>
      </trkpt>
      <trkpt lat="44.01852" lon="2.08014">
        <ele>329</ele>
        <time>2024-04-01T15:30:50Z</time>
      </trkpt>
      <trkpt lat="44.01828" lon="2.07986">
        <ele>328</ele>
        <time>2024-04-01T15:30:55Z</time>
      </trkpt>
      <trkpt lat="44.01758" lon="2.07857">
        <ele>327</ele>
        <time>2024-04-01T15:31:16Z</time>
      </trkpt>
      <trkpt lat="44.01607" lon="2.07569">
        <ele>326</ele>
        <time>2024-04-01T15:32:02Z</time>
      </trkpt>
      <trkpt lat="44.01597" lon="2.07542">
        <ele>325</ele>
        <time>2024-04-01T15:32:05Z</time>
      </trkpt>
      <trkpt lat="44.01595" lon="2.07522">
        <ele>325</ele>
        <time>2024-04-01T15:32:08Z</time>
      </trkpt>
      <trkpt lat="44.016" lon="2.07499">
        <ele>324</ele>
        <time>2024-04-01T15:32:11Z</time>
      </trkpt>
      <trkpt lat="44.01625" lon="2.07442">
        <ele>322</ele>
        <time>2024-04-01T15:32:20Z</time>
      </trkpt>
      <trkpt lat="44.01637" lon="2.07396">
        <ele>321</ele>
        <time>2024-04-01T15:32:26Z</time>
      </trkpt>
      <trkpt lat="44.01643" lon="2.07309">
        <ele>318</ele>
        <time>2024-04-01T15:32:37Z</time>
      </trkpt>
      <trkpt lat="44.01641" lon="2.07276">
        <ele>318</ele>
        <time>2024-04-01T15:32:41Z</time>
      </trkpt>
      <trkpt lat="44.01633" lon="2.07237">
        <ele>317</ele>
        <time>2024-04-01T15:32:46Z</time>
      </trkpt>
      <trkpt lat="44.01559" lon="2.0694">
        <ele>313</ele>
        <time>2024-04-01T15:33:27Z</time>
      </trkpt>
      <trkpt lat="44.01551" lon="2.06914">
        <ele>313</ele>
        <time>2024-04-01T15:33:30Z</time>
      </trkpt>
      <trkpt lat="44.01538" lon="2.06889">
        <ele>313</ele>
        <time>2024-04-01T15:33:34Z</time>
      </trkpt>
      <trkpt lat="44.01514" lon="2.06864">
        <ele>313</ele>
        <time>2024-04-01T15:33:40Z</time>
      </trkpt>
      <trkpt lat="44.01485" lon="2.06839">
        <ele>313</ele>
        <time>2024-04-01T15:33:46Z</time>
      </trkpt>
      <trkpt lat="44.01465" lon="2.06802">
        <ele>313</ele>
        <time>2024-04-01T15:33:52Z</time>
      </trkpt>
      <trkpt lat="44.01373" lon="2.06504">
        <ele>310</ele>
        <time>2024-04-01T15:34:33Z</time>
      </trkpt>
      <trkpt lat="44.01238" lon="2.06085">
        <ele>307</ele>
        <time>2024-04-01T15:35:32Z</time>
      </trkpt>
      <trkpt lat="44.01157" lon="2.0582">
        <ele>306</ele>
        <time>2024-04-01T15:36:09Z</time>
      </trkpt>
      <trkpt lat="44.01062" lon="2.05525">
        <ele>304</ele>
        <time>2024-04-01T15:36:50Z</time>
      </trkpt>
      <trkpt lat="44.01033" lon="2.05423">
        <ele>302</ele>
        <time>2024-04-01T15:37:04Z</time>
      </trkpt>
      <trkpt lat="44.01014" lon="2.0533">
        <ele>297</ele>
        <time>2024-04-01T15:37:16Z</time>
      </trkpt>
      <trkpt lat="44.01002" lon="2.05249">
        <ele>298</ele>
        <time>2024-04-01T15:37:27Z</time>
      </trkpt>
      <trkpt lat="44.01005" lon="2.05204">
        <ele>298</ele>
        <time>2024-04-01T15:37:33Z</time>
      </trkpt>
      <trkpt lat="44.01016" lon="2.05145">
        <ele>297</ele>
        <time>2024-04-01T15:37:41Z</time>
      </trkpt>
      <trkpt lat="44.01012" lon="2.05095">
        <ele>295</ele>
        <time>2024-04-01T15:37:47Z</time>
      </trkpt>
      <trkpt lat="44.00992" lon="2.05019">
        <ele>295</ele>
        <time>2024-04-01T15:37:57Z</time>
      </trkpt>
      <trkpt lat="44.00976" lon="2.05011">
        <ele>294</ele>
        <time>2024-04-01T15:38:00Z</time>
      </trkpt>
      <trkpt lat="44.00945" lon="2.05019">
        <ele>290</ele>
        <time>2024-04-01T15:38:06Z</time>
      </trkpt>
      <trkpt lat="44.00929" lon="2.05019">
        <ele>288</ele>
        <time>2024-04-01T15:38:09Z</time>
      </trkpt>
      <trkpt lat="44.00911" lon="2.05005">
        <ele>287</ele>
        <time>2024-04-01T15:38:13Z</time>
      </trkpt>
      <trkpt lat="44.00898" lon="2.04962">
        <ele>287</ele>
        <time>2024-04-01T15:38:19Z</time>
      </trkpt>
      <trkpt lat="44.00893" lon="2.04914">
        <ele>288</ele>
        <time>2024-04-01T15:38:25Z</time>
      </trkpt>
      <trkpt lat="44.00892" lon="2.04889">
        <ele>288</ele>
        <time>2024-04-01T15:38:28Z</time>
      </trkpt>
      <trkpt lat="44.00885" lon="2.04855">
        <ele>288</ele>
        <time>2024-04-01T15:38:32Z</time>
      </trkpt>
      <trkpt lat="44.00875" lon="2.04837">
        <ele>287</ele>
        <time>2024-04-01T15:38:35Z</time>
      </trkpt>
      <trkpt lat="44.00842" lon="2.04819">
        <ele>283</ele>
        <time>2024-04-01T15:38:42Z</time>
      </trkpt>
      <trkpt lat="44.00813" lon="2.04798">
        <ele>279</ele>
        <time>2024-04-01T15:38:48Z</time>
      </trkpt>
      <trkpt lat="44.00791" lon="2.04771">
        <ele>276</ele>
        <time>2024-04-01T15:38:53Z</time>
      </trkpt>
      <trkpt lat="44.00774" lon="2.04724">
        <ele>273</ele>
        <time>2024-04-01T15:38:59Z</time>
      </trkpt>
      <trkpt lat="44.0077" lon="2.04702">
        <ele>272</ele>
        <time>2024-04-01T15:39:02Z</time>
      </trkpt>
      <trkpt lat="44.0077" lon="2.04654">
        <ele>272</ele>
        <time>2024-04-01T15:39:09Z</time>
      </trkpt>
      <trkpt lat="44.00766" lon="2.04639">
        <ele>272</ele>
        <time>2024-04-01T15:39:11Z</time>
      </trkpt>
      <trkpt lat="44.00758" lon="2.04625">
        <ele>272</ele>
        <time>2024-04-01T15:39:13Z</time>
      </trkpt>
      <trkpt lat="44.00743" lon="2.04614">
        <ele>271</ele>
        <time>2024-04-01T15:39:16Z</time>
      </trkpt>
      <trkpt lat="44.00712" lon="2.04601">
        <ele>268</ele>
        <time>2024-04-01T15:39:22Z</time>
      </trkpt>
      <trkpt lat="44.00698" lon="2.04588">
        <ele>266</ele>
        <time>2024-04-01T15:39:25Z</time>
      </trkpt>
      <trkpt lat="44.00589" lon="2.04393">
        <ele>255</ele>
        <time>2024-04-01T15:39:56Z</time>
      </trkpt>
      <trkpt lat="44.00573" lon="2.04352">
        <ele>252</ele>
        <time>2024-04-01T15:40:02Z</time>
      </trkpt>
      <trkpt lat="44.0057" lon="2.04334">
        <ele>252</ele>
        <time>2024-04-01T15:40:05Z</time>
      </trkpt>
      <trkpt lat="44.0057" lon="2.04311">
        <ele>251</ele>
        <time>2024-04-01T15:40:08Z</time>
      </trkpt>
      <trkpt lat="44.00588" lon="2.04195">
        <ele>247</ele>
        <time>2024-04-01T15:40:23Z</time>
      </trkpt>
      <trkpt lat="44.00585" lon="2.04171">
        <ele>245</ele>
        <time>2024-04-01T15:40:26Z</time>
      </trkpt>
      <trkpt lat="44.00577" lon="2.04152">
        <ele>244</ele>
        <time>2024-04-01T15:40:29Z</time>
      </trkpt>
      <trkpt lat="44.00502" lon="2.04055">
        <ele>240</ele>
        <time>2024-04-01T15:40:47Z</time>
      </trkpt>
      <trkpt lat="44.00492" lon="2.04041">
        <ele>240</ele>
        <time>2024-04-01T15:40:49Z</time>
      </trkpt>
      <trkpt lat="44.00461" lon="2.03998">
        <ele>242</ele>
        <time>2024-04-01T15:40:57Z</time>
      </trkpt>
      <trkpt lat="44.00439" lon="2.03972">
        <ele>243</ele>
        <time>2024-04-01T15:41:02Z</time>
      </trkpt>
      <trkpt lat="44.00385" lon="2.03938">
        <ele>246</ele>
        <time>2024-04-01T15:41:13Z</time>
      </trkpt>
      <trkpt lat="44.00351" lon="2.03913">
        <ele>248</ele>
        <time>2024-04-01T15:41:20Z</time>
      </trkpt>
      <trkpt lat="44.00345" lon="2.03906">
        <ele>248</ele>
        <time>2024-04-01T15:41:21Z</time>
      </trkpt>
      <trkpt lat="44.00314" lon="2.03869">
        <ele>249</ele>
        <time>2024-04-01T15:41:28Z</time>
      </trkpt>
      <trkpt lat="44.00312" lon="2.03866">
        <ele>249</ele>
        <time>2024-04-01T15:41:29Z</time>
      </trkpt>
      <trkpt lat="44.00307" lon="2.03853">
        <ele>249</ele>
        <time>2024-04-01T15:41:31Z</time>
      </trkpt>
      <trkpt lat="44.00302" lon="2.03824">
        <ele>251</ele>
        <time>2024-04-01T15:41:35Z</time>
      </trkpt>
      <trkpt lat="44.00307" lon="2.03799">
        <ele>251</ele>
        <time>2024-04-01T15:41:38Z</time>
      </trkpt>
      <trkpt lat="44.00351" lon="2.03681">
        <ele>257</ele>
        <time>2024-04-01T15:41:55Z</time>
      </trkpt>
      <trkpt lat="44.00361" lon="2.03647">
        <ele>257</ele>
        <time>2024-04-01T15:42:00Z</time>
      </trkpt>
      <trkpt lat="44.00366" lon="2.03616">
        <ele>257</ele>
        <time>2024-04-01T15:42:04Z</time>
      </trkpt>
      <trkpt lat="44.00353" lon="2.03504">
        <ele>261</ele>
        <time>2024-04-01T15:42:18Z</time>
      </trkpt>
      <trkpt lat="44.00298" lon="2.03362">
        <ele>271</ele>
        <time>2024-04-01T15:42:39Z</time>
      </trkpt>
      <trkpt lat="44.00268" lon="2.03304">
        <ele>276</ele>
        <time>2024-04-01T15:42:48Z</time>
      </trkpt>
      <trkpt lat="44.00265" lon="2.03294">
        <ele>277</ele>
        <time>2024-04-01T15:42:49Z</time>
      </trkpt>
      <trkpt lat="44.00267" lon="2.03273">
        <ele>278</ele>
        <time>2024-04-01T15:42:52Z</time>
      </trkpt>
      <trkpt lat="44.003" lon="2.03218">
        <ele>275</ele>
        <time>2024-04-01T15:43:01Z</time>
      </trkpt>
      <trkpt lat="44.00306" lon="2.03185">
        <ele>276</ele>
        <time>2024-04-01T15:43:06Z</time>
      </trkpt>
      <trkpt lat="44.00305" lon="2.03161">
        <ele>277</ele>
        <time>2024-04-01T15:43:09Z</time>
      </trkpt>
      <trkpt lat="44.00292" lon="2.03119">
        <ele>280</ele>
        <time>2024-04-01T15:43:15Z</time>
      </trkpt>
      <trkpt lat="44.00252" lon="2.03015">
        <ele>284</ele>
        <time>2024-04-01T15:43:30Z</time>
      </trkpt>
      <trkpt lat="44.00237" lon="2.0293">
        <ele>286</ele>
        <time>2024-04-01T15:43:41Z</time>
      </trkpt>
      <trkpt lat="44.00247" lon="2.02884">
        <ele>286</ele>
        <time>2024-04-01T15:43:47Z</time>
      </trkpt>
      <trkpt lat="44.00236" lon="2.02867">
        <ele>286</ele>
        <time>2024-04-01T15:43:50Z</time>
      </trkpt>
      <trkpt lat="44.00228" lon="2.02861">
        <ele>287</ele>
        <time>2024-04-01T15:43:52Z</time>
      </trkpt>
      <trkpt lat="44.00195" lon="2.02872">
        <ele>288</ele>
        <time>2024-04-01T15:43:58Z</time>
      </trkpt>
      <trkpt lat="44.00132" lon="2.02813">
        <ele>285</ele>
        <time>2024-04-01T15:44:11Z</time>
      </trkpt>
      <trkpt lat="44.00123" lon="2.02797">
        <ele>283</ele>
        <time>2024-04-01T15:44:14Z</time>
      </trkpt>
      <trkpt lat="44.00125" lon="2.02781">
        <ele>281</ele>
        <time>2024-04-01T15:44:16Z</time>
      </trkpt>
      <trkpt lat="44.0011" lon="2.02794">
        <ele>281</ele>
        <time>2024-04-01T15:44:19Z</time>
      </trkpt>
      <trkpt lat="44.00085" lon="2.02803">
        <ele>281</ele>
        <time>2024-04-01T15:44:24Z</time>
      </trkpt>
      <trkpt lat="44.00032" lon="2.02808">
        <ele>275</ele>
        <time>2024-04-01T15:44:33Z</time>
      </trkpt>
      <trkpt lat="43.99999" lon="2.02805">
        <ele>270</ele>
        <time>2024-04-01T15:44:39Z</time>
      </trkpt>
      <trkpt lat="43.99968" lon="2.02816">
        <ele>268</ele>
        <time>2024-04-01T15:44:45Z</time>
      </trkpt>
      <trkpt lat="43.99952" lon="2.02813">
        <ele>266</ele>
        <time>2024-04-01T15:44:47Z</time>
      </trkpt>
      <trkpt lat="43.99925" lon="2.02796">
        <ele>262</ele>
        <time>2024-04-01T15:44:53Z</time>
      </trkpt>
      <trkpt lat="43.99923" lon="2.02794">
        <ele>262</ele>
        <time>2024-04-01T15:44:53Z</time>
      </trkpt>
      <trkpt lat="43.99901" lon="2.02757">
        <ele>263</ele>
        <time>2024-04-01T15:44:59Z</time>
      </trkpt>
      <trkpt lat="43.99897" lon="2.02716">
        <ele>269</ele>
        <time>2024-04-01T15:45:05Z</time>
      </trkpt>
      <trkpt lat="43.99914" lon="2.02667">
        <ele>276</ele>
        <time>2024-04-01T15:45:12Z</time>
      </trkpt>
      <trkpt lat="43.99963" lon="2.02572">
        <ele>278</ele>
        <time>2024-04-01T15:45:26Z</time>
      </trkpt>
      <trkpt lat="43.99975" lon="2.02538">
        <ele>279</ele>
        <time>2024-04-01T15:45:31Z</time>
      </trkpt>
      <trkpt lat="43.99981" lon="2.02499">
        <ele>280</ele>
        <time>2024-04-01T15:45:36Z</time>
      </trkpt>
      <trkpt lat="43.9989" lon="2.02316">
        <ele>287</ele>
        <time>2024-04-01T15:46:05Z</time>
      </trkpt>
      <trkpt lat="43.99835" lon="2.02199">
        <ele>285</ele>
        <time>2024-04-01T15:46:23Z</time>
      </trkpt>
      <trkpt lat="43.99782" lon="2.02033">
        <ele>280</ele>
        <time>2024-04-01T15:46:46Z</time>
      </trkpt>
      <trkpt lat="43.99749" lon="2.01957">
        <ele>278</ele>
        <time>2024-04-01T15:46:57Z</time>
      </trkpt>
      <trkpt lat="43.99577" lon="2.01753">
        <ele>279</ele>
        <time>2024-04-01T15:47:38Z</time>
      </trkpt>
      <trkpt lat="43.99561" lon="2.01739">
        <ele>280</ele>
        <time>2024-04-01T15:47:41Z</time>
      </trkpt>
      <trkpt lat="43.99525" lon="2.01716">
        <ele>283</ele>
        <time>2024-04-01T15:47:48Z</time>
      </trkpt>
      <trkpt lat="43.99428" lon="2.01683">
        <ele>287</ele>
        <time>2024-04-01T15:48:06Z</time>
      </trkpt>
      <trkpt lat="43.99401" lon="2.01669">
        <ele>287</ele>
        <time>2024-04-01T15:48:11Z</time>
      </trkpt>
      <trkpt lat="43.99328" lon="2.01598">
        <ele>287</ele>
        <time>2024-04-01T15:48:27Z</time>
      </trkpt>
      <trkpt lat="43.99306" lon="2.01582">
        <ele>285</ele>
        <time>2024-04-01T15:48:31Z</time>
      </trkpt>
      <trkpt lat="43.99227" lon="2.01539">
        <ele>281</ele>
        <time>2024-04-01T15:48:46Z</time>
      </trkpt>
      <trkpt lat="43.99214" lon="2.01529">
        <ele>280</ele>
        <time>2024-04-01T15:48:49Z</time>
      </trkpt>
      <trkpt lat="43.99191" lon="2.01506">
        <ele>279</ele>
        <time>2024-04-01T15:48:54Z</time>
      </trkpt>
      <trkpt lat="43.99155" lon="2.01443">
        <ele>277</ele>
        <time>2024-04-01T15:49:04Z</time>
      </trkpt>
      <trkpt lat="43.99073" lon="2.01274">
        <ele>275</ele>
        <time>2024-04-01T15:49:30Z</time>
      </trkpt>
      <trkpt lat="43.98881" lon="2.00887">
        <ele>275</ele>
        <time>2024-04-01T15:50:31Z</time>
      </trkpt>
      <trkpt lat="43.98862" lon="2.00846">
        <ele>274</ele>
        <time>2024-04-01T15:50:37Z</time>
      </trkpt>
      <trkpt lat="43.98826" lon="2.00777">
        <ele>274</ele>
        <time>2024-04-01T15:50:48Z</time>
      </trkpt>
      <trkpt lat="43.98752" lon="2.00646">
        <ele>273</ele>
        <time>2024-04-01T15:51:09Z</time>
      </trkpt>
      <trkpt lat="43.98737" lon="2.00605">
        <ele>272</ele>
        <time>2024-04-01T15:51:15Z</time>
      </trkpt>
      <trkpt lat="43.98698" lon="2.00401">
        <ele>265</ele>
        <time>2024-04-01T15:51:42Z</time>
      </trkpt>
      <trkpt lat="43.98692" lon="2.00378">
        <ele>264</ele>
        <time>2024-04-01T15:51:45Z</time>
      </trkpt>
      <trkpt lat="43.98678" lon="2.00344">
        <ele>263</ele>
        <time>2024-04-01T15:51:50Z</time>
      </trkpt>
      <trkpt lat="43.98648" lon="2.00295">
        <ele>264</ele>
        <time>2024-04-01T15:51:58Z</time>
      </trkpt>
      <trkpt lat="43.98634" lon="2.00267">
        <ele>265</ele>
        <time>2024-04-01T15:52:03Z</time>
      </trkpt>
      <trkpt lat="43.98614" lon="2.00199">
        <ele>267</ele>
        <time>2024-04-01T15:52:12Z</time>
      </trkpt>
      <trkpt lat="43.98573" lon="2.00035">
        <ele>267</ele>
        <time>2024-04-01T15:52:34Z</time>
      </trkpt>
      <trkpt lat="43.98551" lon="1.99983">
        <ele>267</ele>
        <time>2024-04-01T15:52:42Z</time>
      </trkpt>
      <trkpt lat="43.98416" lon="1.99762">
        <ele>272</ele>
        <time>2024-04-01T15:53:19Z</time>
      </trkpt>
      <trkpt lat="43.984" lon="1.99719">
        <ele>272</ele>
        <time>2024-04-01T15:53:25Z</time>
      </trkpt>
      <trkpt lat="43.98393" lon="1.99682">
        <ele>271</ele>
        <time>2024-04-01T15:53:30Z</time>
      </trkpt>
      <trkpt lat="43.98392" lon="1.99635">
        <ele>270</ele>
        <time>2024-04-01T15:53:36Z</time>
      </trkpt>
      <trkpt lat="43.98395" lon="1.99501">
        <ele>267</ele>
        <time>2024-04-01T15:53:53Z</time>
      </trkpt>
      <trkpt lat="43.98404" lon="1.99394">
        <ele>264</ele>
        <time>2024-04-01T15:54:07Z</time>
      </trkpt>
      <trkpt lat="43.98425" lon="1.99289">
        <ele>262</ele>
        <time>2024-04-01T15:54:21Z</time>
      </trkpt>
      <trkpt lat="43.98435" lon="1.99223">
        <ele>261</ele>
        <time>2024-04-01T15:54:30Z</time>
      </trkpt>
      <trkpt lat="43.9844" lon="1.99176">
        <ele>261</ele>
        <time>2024-04-01T15:54:36Z</time>
      </trkpt>
      <trkpt lat="43.98442" lon="1.99123">
        <ele>260</ele>
        <time>2024-04-01T15:54:43Z</time>
      </trkpt>
      <trkpt lat="43.9843" lon="1.99002">
        <ele>259</ele>
        <time>2024-04-01T15:54:58Z</time>
      </trkpt>
      <trkpt lat="43.98406" lon="1.9887">
        <ele>257</ele>
        <time>2024-04-01T15:55:16Z</time>
      </trkpt>
      <trkpt lat="43.98398" lon="1.98842">
        <ele>257</ele>
        <time>2024-04-01T15:55:20Z</time>
      </trkpt>
      <trkpt lat="43.98366" lon="1.98769">
        <ele>254</ele>
        <time>2024-04-01T15:55:31Z</time>
      </trkpt>
      <trkpt lat="43.98218" lon="1.98517">
        <ele>252</ele>
        <time>2024-04-01T15:56:12Z</time>
      </trkpt>
      <trkpt lat="43.98172" lon="1.98449">
        <ele>250</ele>
        <time>2024-04-01T15:56:24Z</time>
      </trkpt>
      <trkpt lat="43.98155" lon="1.9843">
        <ele>250</ele>
        <time>2024-04-01T15:56:28Z</time>
      </trkpt>
      <trkpt lat="43.98142" lon="1.98419">
        <ele>250</ele>
        <time>2024-04-01T15:56:31Z</time>
      </trkpt>
      <trkpt lat="43.98082" lon="1.98387">
        <ele>249</ele>
        <time>2024-04-01T15:56:42Z</time>
      </trkpt>
      <trkpt lat="43.98066" lon="1.98385">
        <ele>248</ele>
        <time>2024-04-01T15:56:45Z</time>
      </trkpt>
      <trkpt lat="43.97997" lon="1.9825">
        <ele>249</ele>
        <time>2024-04-01T15:57:06Z</time>
      </trkpt>
      <trkpt lat="43.97992" lon="1.98204">
        <ele>247</ele>
        <time>2024-04-01T15:57:12Z</time>
      </trkpt>
      <trkpt lat="43.97989" lon="1.98117">
        <ele>246</ele>
        <time>2024-04-01T15:57:23Z</time>
      </trkpt>
      <trkpt lat="43.97973" lon="1.97798">
        <ele>241</ele>
        <time>2024-04-01T15:58:04Z</time>
      </trkpt>
      <trkpt lat="43.9797" lon="1.97578">
        <ele>243</ele>
        <time>2024-04-01T15:58:32Z</time>
      </trkpt>
      <trkpt lat="43.97965" lon="1.97422">
        <ele>248</ele>
        <time>2024-04-01T15:58:52Z</time>
      </trkpt>
      <trkpt lat="43.97967" lon="1.97293">
        <ele>252</ele>
        <time>2024-04-01T15:59:09Z</time>
      </trkpt>
      <trkpt lat="43.97972" lon="1.9723">
        <ele>252</ele>
        <time>2024-04-01T15:59:17Z</time>
      </trkpt>
      <trkpt lat="43.97987" lon="1.97179">
        <ele>251</ele>
        <time>2024-04-01T15:59:24Z</time>
      </trkpt>
      <trkpt lat="43.98086" lon="1.96944">
        <ele>252</ele>
        <time>2024-04-01T15:59:59Z</time>
      </trkpt>
      <trkpt lat="43.98109" lon="1.96877">
        <ele>250</ele>
        <time>2024-04-01T16:00:09Z</time>
      </trkpt>
      <trkpt lat="43.9812" lon="1.96812">
        <ele>250</ele>
        <time>2024-04-01T16:00:17Z</time>
      </trkpt>
      <trkpt lat="43.98137" lon="1.96623">
        <ele>247</ele>
        <time>2024-04-01T16:00:41Z</time>
      </trkpt>
      <trkpt lat="43.98139" lon="1.96553">
        <ele>246</ele>
        <time>2024-04-01T16:00:50Z</time>
      </trkpt>
      <trkpt lat="43.98134" lon="1.96377">
        <ele>242</ele>
        <time>2024-04-01T16:01:13Z</time>
      </trkpt>
      <trkpt lat="43.98142" lon="1.96321">
        <ele>241</ele>
        <time>2024-04-01T16:01:20Z</time>
      </trkpt>
      <trkpt lat="43.98149" lon="1.96291">
        <ele>241</ele>
        <time>2024-04-01T16:01:24Z</time>
      </trkpt>
      <trkpt lat="43.98176" lon="1.96231">
        <ele>239</ele>
        <time>2024-04-01T16:01:33Z</time>
      </trkpt>
      <trkpt lat="43.98209" lon="1.96185">
        <ele>238</ele>
        <time>2024-04-01T16:01:42Z</time>
      </trkpt>
      <trkpt lat="43.98278" lon="1.961">
        <ele>236</ele>
        <time>2024-04-01T16:01:58Z</time>
      </trkpt>
      <trkpt lat="43.98291" lon="1.96078">
        <ele>235</ele>
        <time>2024-04-01T16:02:02Z</time>
      </trkpt>
      <trkpt lat="43.98309" lon="1.96036">
        <ele>233</ele>
        <time>2024-04-01T16:02:08Z</time>
      </trkpt>
      <trkpt lat="43.98434" lon="1.95689">
        <ele>229</ele>
        <time>2024-04-01T16:02:58Z</time>
      </trkpt>
      <trkpt lat="43.98468" lon="1.95585">
        <ele>230</ele>
        <time>2024-04-01T16:03:12Z</time>
      </trkpt>
      <trkpt lat="43.9851" lon="1.95428">
        <ele>230</ele>
        <time>2024-04-01T16:03:34Z</time>
      </trkpt>
      <trkpt lat="43.98616" lon="1.95061">
        <ele>236</ele>
        <time>2024-04-01T16:04:24Z</time>
      </trkpt>
      <trkpt lat="43.98631" lon="1.94974">
        <ele>234</ele>
        <time>2024-04-01T16:04:36Z</time>
      </trkpt>
      <trkpt lat="43.98634" lon="1.94924">
        <ele>232</ele>
        <time>2024-04-01T16:04:42Z</time>
      </trkpt>
      <trkpt lat="43.98634" lon="1.94877">
        <ele>230</ele>
        <time>2024-04-01T16:04:48Z</time>
      </trkpt>
      <trkpt lat="43.98621" lon="1.94758">
        <ele>226</ele>
        <time>2024-04-01T16:05:04Z</time>
      </trkpt>
      <trkpt lat="43.98591" lon="1.94515">
        <ele>226</ele>
        <time>2024-04-01T16:05:35Z</time>
      </trkpt>
      <trkpt lat="43.98583" lon="1.94432">
        <ele>226</ele>
        <time>2024-04-01T16:05:46Z</time>
      </trkpt>
      <trkpt lat="43.98585" lon="1.9439">
        <ele>226</ele>
        <time>2024-04-01T16:05:51Z</time>
      </trkpt>
      <trkpt lat="43.98593" lon="1.94339">
        <ele>224</ele>
        <time>2024-04-01T16:05:58Z</time>
      </trkpt>
      <trkpt lat="43.98622" lon="1.94191">
        <ele>221</ele>
        <time>2024-04-01T16:06:18Z</time>
      </trkpt>
      <trkpt lat="43.9863" lon="1.94115">
        <ele>221</ele>
        <time>2024-04-01T16:06:28Z</time>
      </trkpt>
      <trkpt lat="43.98634" lon="1.9404">
        <ele>219</ele>
        <time>2024-04-01T16:06:37Z</time>
      </trkpt>
      <trkpt lat="43.98634" lon="1.93912">
        <ele>217</ele>
        <time>2024-04-01T16:06:54Z</time>
      </trkpt>
      <trkpt lat="43.98619" lon="1.93818">
        <ele>216</ele>
        <time>2024-04-01T16:07:06Z</time>
      </trkpt>
      <trkpt lat="43.98592" lon="1.93707">
        <ele>212</ele>
        <time>2024-04-01T16:07:21Z</time>
      </trkpt>
      <trkpt lat="43.98575" lon="1.93672">
        <ele>209</ele>
        <time>2024-04-01T16:07:26Z</time>
      </trkpt>
      <trkpt lat="43.98538" lon="1.93622">
        <ele>207</ele>
        <time>2024-04-01T16:07:35Z</time>
      </trkpt>
      <trkpt lat="43.98521" lon="1.93591">
        <ele>205</ele>
        <time>2024-04-01T16:07:40Z</time>
      </trkpt>
      <trkpt lat="43.98501" lon="1.9354">
        <ele>202</ele>
        <time>2024-04-01T16:07:48Z</time>
      </trkpt>
      <trkpt lat="43.98462" lon="1.93425">
        <ele>203</ele>
        <time>2024-04-01T16:08:04Z</time>
      </trkpt>
      <trkpt lat="43.98439" lon="1.93339">
        <ele>202</ele>
        <time>2024-04-01T16:08:16Z</time>
      </trkpt>
      <trkpt lat="43.98435" lon="1.93304">
        <ele>201</ele>
        <time>2024-04-01T16:08:20Z</time>
      </trkpt>
      <trkpt lat="43.98434" lon="1.93262">
        <ele>200</ele>
        <time>2024-04-01T16:08:26Z</time>
      </trkpt>
      <trkpt lat="43.98419" lon="1.93176">
        <ele>200</ele>
        <time>2024-04-01T16:08:37Z</time>
      </trkpt>
      <trkpt lat="43.98398" lon="1.93075">
        <ele>206</ele>
        <time>2024-04-01T16:08:51Z</time>
      </trkpt>
      <trkpt lat="43.98375" lon="1.92946">
        <ele>207</ele>
        <time>2024-04-01T16:09:08Z</time>
      </trkpt>
      <trkpt lat="43.98364" lon="1.92901">
        <ele>204</ele>
        <time>2024-04-01T16:09:14Z</time>
      </trkpt>
      <trkpt lat="43.98348" lon="1.92875">
        <ele>203</ele>
        <time>2024-04-01T16:09:18Z</time>
      </trkpt>
      <trkpt lat="43.98332" lon="1.92861">
        <ele>202</ele>
        <time>2024-04-01T16:09:21Z</time>
      </trkpt>
      <trkpt lat="43.98318" lon="1.92857">
        <ele>202</ele>
        <time>2024-04-01T16:09:24Z</time>
      </trkpt>
      <trkpt lat="43.98285" lon="1.92857">
        <ele>202</ele>
        <time>2024-04-01T16:09:30Z</time>
      </trkpt>
      <trkpt lat="43.98207" lon="1.92863">
        <ele>202</ele>
        <time>2024-04-01T16:09:44Z</time>
      </trkpt>
      <trkpt lat="43.98187" lon="1.92859">
        <ele>201</ele>
        <time>2024-04-01T16:09:47Z</time>
      </trkpt>
      <trkpt lat="43.98171" lon="1.92849">
        <ele>200</ele>
        <time>2024-04-01T16:09:50Z</time>
      </trkpt>
      <trkpt lat="43.98153" lon="1.92834">
        <ele>198</ele>
        <time>2024-04-01T16:09:54Z</time>
      </trkpt>
      <trkpt lat="43.98142" lon="1.92821">
        <ele>198</ele>
        <time>2024-04-01T16:09:57Z</time>
      </trkpt>
      <trkpt lat="43.98103" lon="1.9276">
        <ele>198</ele>
        <time>2024-04-01T16:10:07Z</time>
      </trkpt>
      <trkpt lat="43.98084" lon="1.92718">
        <ele>199</ele>
        <time>2024-04-01T16:10:14Z</time>
      </trkpt>
      <trkpt lat="43.98081" lon="1.92702">
        <ele>200</ele>
        <time>2024-04-01T16:10:16Z</time>
      </trkpt>
      <trkpt lat="43.98073" lon="1.92623">
        <ele>201</ele>
        <time>2024-04-01T16:10:26Z</time>
      </trkpt>
      <trkpt lat="43.98073" lon="1.92584">
        <ele>201</ele>
        <time>2024-04-01T16:10:31Z</time>
      </trkpt>
      <trkpt lat="43.98086" lon="1.92534">
        <ele>201</ele>
        <time>2024-04-01T16:10:38Z</time>
      </trkpt>
      <trkpt lat="43.98104" lon="1.92496">
        <ele>204</ele>
        <time>2024-04-01T16:10:44Z</time>
      </trkpt>
      <trkpt lat="43.98171" lon="1.92389">
        <ele>205</ele>
        <time>2024-04-01T16:11:02Z</time>
      </trkpt>
      <trkpt lat="43.98191" lon="1.92361">
        <ele>205</ele>
        <time>2024-04-01T16:11:07Z</time>
      </trkpt>
      <trkpt lat="43.98274" lon="1.92264">
        <ele>207</ele>
        <time>2024-04-01T16:11:26Z</time>
      </trkpt>
      <trkpt lat="43.98312" lon="1.92197">
        <ele>206</ele>
        <time>2024-04-01T16:11:37Z</time>
      </trkpt>
      <trkpt lat="43.98349" lon="1.92113">
        <ele>204</ele>
        <time>2024-04-01T16:11:50Z</time>
      </trkpt>
      <trkpt lat="43.98356" lon="1.92086">
        <ele>203</ele>
        <time>2024-04-01T16:11:53Z</time>
      </trkpt>
      <trkpt lat="43.9836" lon="1.92059">
        <ele>203</ele>
        <time>2024-04-01T16:11:57Z</time>
      </trkpt>
      <trkpt lat="43.98361" lon="1.92008">
        <ele>202</ele>
        <time>2024-04-01T16:12:03Z</time>
      </trkpt>
      <trkpt lat="43.9836" lon="1.91947">
        <ele>201</ele>
        <time>2024-04-01T16:12:11Z</time>
      </trkpt>
      <trkpt lat="43.98355" lon="1.91854">
        <ele>200</ele>
        <time>2024-04-01T16:12:23Z</time>
      </trkpt>
      <trkpt lat="43.98349" lon="1.91773">
        <ele>202</ele>
        <time>2024-04-01T16:12:33Z</time>
      </trkpt>
      <trkpt lat="43.98345" lon="1.91737">
        <ele>202</ele>
        <time>2024-04-01T16:12:38Z</time>
      </trkpt>
      <trkpt lat="43.98295" lon="1.91548">
        <ele>201</ele>
        <time>2024-04-01T16:13:04Z</time>
      </trkpt>
      <trkpt lat="43.98291" lon="1.91523">
        <ele>202</ele>
        <time>2024-04-01T16:13:07Z</time>
      </trkpt>
      <trkpt lat="43.98291" lon="1.91496">
        <ele>202</ele>
        <time>2024-04-01T16:13:11Z</time>
      </trkpt>
      <trkpt lat="43.98295" lon="1.91478">
        <ele>201</ele>
        <time>2024-04-01T16:13:13Z</time>
      </trkpt>
      <trkpt lat="43.98303" lon="1.91459">
        <ele>201</ele>
        <time>2024-04-01T16:13:16Z</time>
      </trkpt>
      <trkpt lat="43.9833" lon="1.91412">
        <ele>200</ele>
        <time>2024-04-01T16:13:24Z</time>
      </trkpt>
      <trkpt lat="43.98348" lon="1.91394">
        <ele>199</ele>
        <time>2024-04-01T16:13:28Z</time>
      </trkpt>
      <trkpt lat="43.98328" lon="1.91319">
        <ele>196</ele>
        <time>2024-04-01T16:13:38Z</time>
      </trkpt>
      <trkpt lat="43.98323" lon="1.91303">
        <ele>196</ele>
        <time>2024-04-01T16:13:40Z</time>
      </trkpt>
      <trkpt lat="43.98318" lon="1.91267">
        <ele>196</ele>
        <time>2024-04-01T16:13:45Z</time>
      </trkpt>
      <trkpt lat="43.98309" lon="1.91122">
        <ele>206</ele>
        <time>2024-04-01T16:14:03Z</time>
      </trkpt>
      <trkpt lat="43.98307" lon="1.91088">
        <ele>209</ele>
        <time>2024-04-01T16:14:08Z</time>
      </trkpt>
      <trkpt lat="43.98299" lon="1.91058">
        <ele>211</ele>
        <time>2024-04-01T16:14:12Z</time>
      </trkpt>
      <trkpt lat="43.98282" lon="1.91063">
        <ele>212</ele>
        <time>2024-04-01T16:14:15Z</time>
      </trkpt>
      <trkpt lat="43.98281" lon="1.91066">
        <ele>212</ele>
        <time>2024-04-01T16:14:15Z</time>
      </trkpt>
      <trkpt lat="43.98282" lon="1.91063">
        <ele>212</ele>
        <time>2024-04-01T16:14:16Z</time>
      </trkpt>
      <trkpt lat="43.98299" lon="1.91058">
        <ele>211</ele>
        <time>2024-04-01T16:14:19Z</time>
      </trkpt>
      <trkpt lat="43.9829" lon="1.9103">
        <ele>212</ele>
        <time>2024-04-01T16:14:23Z</time>
      </trkpt>
      <trkpt lat="43.98295" lon="1.91023">
        <ele>212</ele>
        <time>2024-04-01T16:14:24Z</time>
      </trkpt>
      <trkpt lat="43.98295" lon="1.91003">
        <ele>212</ele>
        <time>2024-04-01T16:14:27Z</time>
      </trkpt>
      <trkpt lat="43.98298" lon="1.90995">
        <ele>212</ele>
        <time>2024-04-01T16:14:28Z</time>
      </trkpt>
      <trkpt lat="43.98331" lon="1.90971">
        <ele>210</ele>
        <time>2024-04-01T16:14:34Z</time>
      </trkpt>
      <trkpt lat="43.98334" lon="1.90963">
        <ele>210</ele>
        <time>2024-04-01T16:14:36Z</time>
      </trkpt>
      <trkpt lat="43.98334" lon="1.90953">
        <ele>210</ele>
        <time>2024-04-01T16:14:37Z</time>
      </trkpt>
      <trkpt lat="43.98331" lon="1.9094">
        <ele>211</ele>
        <time>2024-04-01T16:14:39Z</time>
      </trkpt>
      <trkpt lat="43.98347" lon="1.90869">
        <ele>206</ele>
        <time>2024-04-01T16:14:48Z</time>
      </trkpt>
      <trkpt lat="43.9835" lon="1.90801">
        <ele>201</ele>
        <time>2024-04-01T16:14:57Z</time>
      </trkpt>
      <trkpt lat="43.98353" lon="1.90787">
        <ele>200</ele>
        <time>2024-04-01T16:14:59Z</time>
      </trkpt>
      <trkpt lat="43.98359" lon="1.90782">
        <ele>199</ele>
        <time>2024-04-01T16:15:00Z</time>
      </trkpt>
      <trkpt lat="43.98361" lon="1.90772">
        <ele>198</ele>
        <time>2024-04-01T16:15:01Z</time>
      </trkpt>
      <trkpt lat="43.98444" lon="1.90579">
        <ele>191</ele>
        <time>2024-04-01T16:15:30Z</time>
      </trkpt>
      <trkpt lat="43.98462" lon="1.90536">
        <ele>192</ele>
        <time>2024-04-01T16:15:36Z</time>
      </trkpt>
      <trkpt lat="43.98542" lon="1.90358">
        <ele>196</ele>
        <time>2024-04-01T16:16:03Z</time>
      </trkpt>
      <trkpt lat="43.98556" lon="1.90323">
        <ele>196</ele>
        <time>2024-04-01T16:16:08Z</time>
      </trkpt>
      <trkpt lat="43.98639" lon="1.90064">
        <ele>201</ele>
        <time>2024-04-01T16:16:45Z</time>
      </trkpt>
      <trkpt lat="43.98649" lon="1.90037">
        <ele>201</ele>
        <time>2024-04-01T16:16:49Z</time>
      </trkpt>
      <trkpt lat="43.9868" lon="1.89977">
        <ele>202</ele>
        <time>2024-04-01T16:16:58Z</time>
      </trkpt>
      <trkpt lat="43.98735" lon="1.89838">
        <ele>202</ele>
        <time>2024-04-01T16:17:18Z</time>
      </trkpt>
      <trkpt lat="43.98745" lon="1.89808">
        <ele>201</ele>
        <time>2024-04-01T16:17:23Z</time>
      </trkpt>
      <trkpt lat="43.98767" lon="1.89704">
        <ele>197</ele>
        <time>2024-04-01T16:17:36Z</time>
      </trkpt>
      <trkpt lat="43.98776" lon="1.8968">
        <ele>196</ele>
        <time>2024-04-01T16:17:40Z</time>
      </trkpt>
      <trkpt lat="43.9879" lon="1.89653">
        <ele>196</ele>
        <time>2024-04-01T16:17:44Z</time>
      </trkpt>
      <trkpt lat="43.98861" lon="1.89555">
        <ele>192</ele>
        <time>2024-04-01T16:18:02Z</time>
      </trkpt>
      <trkpt lat="43.98962" lon="1.89413">
        <ele>190</ele>
        <time>2024-04-01T16:18:28Z</time>
      </trkpt>
      <trkpt lat="43.98977" lon="1.89385">
        <ele>193</ele>
        <time>2024-04-01T16:18:32Z</time>
      </trkpt>
      <trkpt lat="43.98984" lon="1.89365">
        <ele>194</ele>
        <time>2024-04-01T16:18:35Z</time>
      </trkpt>
      <trkpt lat="43.98984" lon="1.89349">
        <ele>196</ele>
        <time>2024-04-01T16:18:37Z</time>
      </trkpt>
      <trkpt lat="43.98982" lon="1.8933">
        <ele>197</ele>
        <time>2024-04-01T16:18:39Z</time>
      </trkpt>
      <trkpt lat="43.98965" lon="1.89282">
        <ele>198</ele>
        <time>2024-04-01T16:18:46Z</time>
      </trkpt>
      <trkpt lat="43.98958" lon="1.89256">
        <ele>198</ele>
        <time>2024-04-01T16:18:50Z</time>
      </trkpt>
      <trkpt lat="43.98956" lon="1.89231">
        <ele>198</ele>
        <time>2024-04-01T16:18:53Z</time>
      </trkpt>
      <trkpt lat="43.98959" lon="1.89187">
        <ele>197</ele>
        <time>2024-04-01T16:18:59Z</time>
      </trkpt>
      <trkpt lat="43.98966" lon="1.89145">
        <ele>197</ele>
        <time>2024-04-01T16:19:04Z</time>
      </trkpt>
      <trkpt lat="43.98982" lon="1.89085">
        <ele>195</ele>
        <time>2024-04-01T16:19:12Z</time>
      </trkpt>
      <trkpt lat="43.99001" lon="1.89033">
        <ele>192</ele>
        <time>2024-04-01T16:19:20Z</time>
      </trkpt>
      <trkpt lat="43.99033" lon="1.88954">
        <ele>193</ele>
        <time>2024-04-01T16:19:31Z</time>
      </trkpt>
      <trkpt lat="43.99067" lon="1.88848">
        <ele>192</ele>
        <time>2024-04-01T16:19:46Z</time>
      </trkpt>
      <trkpt lat="43.99124" lon="1.88677">
        <ele>193</ele>
        <time>2024-04-01T16:20:10Z</time>
      </trkpt>
      <trkpt lat="43.99135" lon="1.8865">
        <ele>193</ele>
        <time>2024-04-01T16:20:14Z</time>
      </trkpt>
      <trkpt lat="43.99142" lon="1.88638">
        <ele>193</ele>
        <time>2024-04-01T16:20:16Z</time>
      </trkpt>
      <trkpt lat="43.99172" lon="1.88607">
        <ele>194</ele>
        <time>2024-04-01T16:20:23Z</time>
      </trkpt>
      <trkpt lat="43.99185" lon="1.88586">
        <ele>194</ele>
        <time>2024-04-01T16:20:27Z</time>
      </trkpt>
      <trkpt lat="43.99192" lon="1.88567">
        <ele>195</ele>
        <time>2024-04-01T16:20:29Z</time>
      </trkpt>
      <trkpt lat="43.99196" lon="1.88543">
        <ele>196</ele>
        <time>2024-04-01T16:20:32Z</time>
      </trkpt>
      <trkpt lat="43.99199" lon="1.88489">
        <ele>197</ele>
        <time>2024-04-01T16:20:39Z</time>
      </trkpt>
      <trkpt lat="43.99234" lon="1.88313">
        <ele>196</ele>
        <time>2024-04-01T16:21:03Z</time>
      </trkpt>
      <trkpt lat="43.99237" lon="1.88289">
        <ele>195</ele>
        <time>2024-04-01T16:21:06Z</time>
      </trkpt>
      <trkpt lat="43.99252" lon="1.87992">
        <ele>192</ele>
        <time>2024-04-01T16:21:44Z</time>
      </trkpt>
      <trkpt lat="43.99264" lon="1.87921">
        <ele>191</ele>
        <time>2024-04-01T16:21:53Z</time>
      </trkpt>
      <trkpt lat="43.99262" lon="1.87894">
        <ele>192</ele>
        <time>2024-04-01T16:21:57Z</time>
      </trkpt>
      <trkpt lat="43.99258" lon="1.8787">
        <ele>193</ele>
        <time>2024-04-01T16:22:00Z</time>
      </trkpt>
      <trkpt lat="43.99222" lon="1.87756">
        <ele>194</ele>
        <time>2024-04-01T16:22:16Z</time>
      </trkpt>
      <trkpt lat="43.99197" lon="1.87683">
        <ele>191</ele>
        <time>2024-04-01T16:22:26Z</time>
      </trkpt>
      <trkpt lat="43.9919" lon="1.87656">
        <ele>190</ele>
        <time>2024-04-01T16:22:30Z</time>
      </trkpt>
      <trkpt lat="43.99184" lon="1.87624">
        <ele>190</ele>
        <time>2024-04-01T16:22:34Z</time>
      </trkpt>
      <trkpt lat="43.99182" lon="1.87576">
        <ele>192</ele>
        <time>2024-04-01T16:22:40Z</time>
      </trkpt>
      <trkpt lat="43.99184" lon="1.87542">
        <ele>192</ele>
        <time>2024-04-01T16:22:45Z</time>
      </trkpt>
      <trkpt lat="43.9919" lon="1.875">
        <ele>192</ele>
        <time>2024-04-01T16:22:50Z</time>
      </trkpt>
      <trkpt lat="43.99192" lon="1.87453">
        <ele>190</ele>
        <time>2024-04-01T16:22:56Z</time>
      </trkpt>
      <trkpt lat="43.99204" lon="1.87443">
        <ele>191</ele>
        <time>2024-04-01T16:22:59Z</time>
      </trkpt>
      <trkpt lat="43.99221" lon="1.87417">
        <ele>191</ele>
        <time>2024-04-01T16:23:03Z</time>
      </trkpt>
      <trkpt lat="43.99247" lon="1.87385">
        <ele>191</ele>
        <time>2024-04-01T16:23:09Z</time>
      </trkpt>
      <trkpt lat="43.99286" lon="1.87364">
        <ele>192</ele>
        <time>2024-04-01T16:23:17Z</time>
      </trkpt>
      <trkpt lat="43.9929" lon="1.87353">
        <ele>191</ele>
        <time>2024-04-01T16:23:18Z</time>
      </trkpt>
      <trkpt lat="43.99295" lon="1.87312">
        <ele>193</ele>
        <time>2024-04-01T16:23:24Z</time>
      </trkpt>
      <trkpt lat="43.99294" lon="1.87298">
        <ele>195</ele>
        <time>2024-04-01T16:23:25Z</time>
      </trkpt>
      <trkpt lat="43.99291" lon="1.87291">
        <ele>196</ele>
        <time>2024-04-01T16:23:27Z</time>
      </trkpt>
      <trkpt lat="43.99224" lon="1.87249">
        <ele>194</ele>
        <time>2024-04-01T16:23:40Z</time>
      </trkpt>
      <trkpt lat="43.99203" lon="1.87232">
        <ele>192</ele>
        <time>2024-04-01T16:23:44Z</time>
      </trkpt>
      <trkpt lat="43.99186" lon="1.87213">
        <ele>191</ele>
        <time>2024-04-01T16:23:48Z</time>
      </trkpt>
      <trkpt lat="43.99172" lon="1.87183">
        <ele>190</ele>
        <time>2024-04-01T16:23:52Z</time>
      </trkpt>
      <trkpt lat="43.99165" lon="1.87155">
        <ele>189</ele>
        <time>2024-04-01T16:23:56Z</time>
      </trkpt>
      <trkpt lat="43.99164" lon="1.8711">
        <ele>190</ele>
        <time>2024-04-01T16:24:02Z</time>
      </trkpt>
      <trkpt lat="43.99189" lon="1.86866">
        <ele>187</ele>
        <time>2024-04-01T16:24:33Z</time>
      </trkpt>
      <trkpt lat="43.99198" lon="1.86758">
        <ele>183</ele>
        <time>2024-04-01T16:24:47Z</time>
      </trkpt>
      <trkpt lat="43.99197" lon="1.86713">
        <ele>182</ele>
        <time>2024-04-01T16:24:53Z</time>
      </trkpt>
      <trkpt lat="43.99181" lon="1.86609">
        <ele>180</ele>
        <time>2024-04-01T16:25:07Z</time>
      </trkpt>
      <trkpt lat="43.9918" lon="1.86587">
        <ele>180</ele>
        <time>2024-04-01T16:25:10Z</time>
      </trkpt>
      <trkpt lat="43.9918" lon="1.86581">
        <ele>180</ele>
        <time>2024-04-01T16:25:10Z</time>
      </trkpt>
      <trkpt lat="43.9922" lon="1.86309">
        <ele>188</ele>
        <time>2024-04-01T16:25:46Z</time>
      </trkpt>
      <trkpt lat="43.99221" lon="1.8627">
        <ele>189</ele>
        <time>2024-04-01T16:25:51Z</time>
      </trkpt>
      <trkpt lat="43.99216" lon="1.86197">
        <ele>190</ele>
        <time>2024-04-01T16:26:00Z</time>
      </trkpt>
      <trkpt lat="43.99217" lon="1.86142">
        <ele>191</ele>
        <time>2024-04-01T16:26:07Z</time>
      </trkpt>
      <trkpt lat="43.99212" lon="1.86099">
        <ele>190</ele>
        <time>2024-04-01T16:26:13Z</time>
      </trkpt>
      <trkpt lat="43.99205" lon="1.86078">
        <ele>189</ele>
        <time>2024-04-01T16:26:16Z</time>
      </trkpt>
      <trkpt lat="43.99164" lon="1.86013">
        <ele>185</ele>
        <time>2024-04-01T16:26:27Z</time>
      </trkpt>
      <trkpt lat="43.99154" lon="1.85979">
        <ele>185</ele>
        <time>2024-04-01T16:26:32Z</time>
      </trkpt>
      <trkpt lat="43.99139" lon="1.85904">
        <ele>184</ele>
        <time>2024-04-01T16:26:42Z</time>
      </trkpt>
      <trkpt lat="43.99128" lon="1.8587">
        <ele>183</ele>
        <time>2024-04-01T16:26:46Z</time>
      </trkpt>
      <trkpt lat="43.9912" lon="1.85853">
        <ele>183</ele>
        <time>2024-04-01T16:26:49Z</time>
      </trkpt>
      <trkpt lat="43.99094" lon="1.85823">
        <ele>183</ele>
        <time>2024-04-01T16:26:55Z</time>
      </trkpt>
      <trkpt lat="43.98975" lon="1.85549">
        <ele>186</ele>
        <time>2024-04-01T16:27:36Z</time>
      </trkpt>
      <trkpt lat="43.98952" lon="1.85482">
        <ele>185</ele>
        <time>2024-04-01T16:27:45Z</time>
      </trkpt>
      <trkpt lat="43.98925" lon="1.85396">
        <ele>184</ele>
        <time>2024-04-01T16:27:57Z</time>
      </trkpt>
      <trkpt lat="43.9883" lon="1.85185">
        <ele>184</ele>
        <time>2024-04-01T16:28:29Z</time>
      </trkpt>
      <trkpt lat="43.988" lon="1.85102">
        <ele>183</ele>
        <time>2024-04-01T16:28:41Z</time>
      </trkpt>
      <trkpt lat="43.98781" lon="1.85037">
        <ele>181</ele>
        <time>2024-04-01T16:28:50Z</time>
      </trkpt>
      <trkpt lat="43.9877" lon="1.84962">
        <ele>178</ele>
        <time>2024-04-01T16:29:00Z</time>
      </trkpt>
      <trkpt lat="43.98751" lon="1.84826">
        <ele>175</ele>
        <time>2024-04-01T16:29:18Z</time>
      </trkpt>
      <trkpt lat="43.98682" lon="1.84505">
        <ele>174</ele>
        <time>2024-04-01T16:30:01Z</time>
      </trkpt>
      <trkpt lat="43.98671" lon="1.84458">
        <ele>175</ele>
        <time>2024-04-01T16:30:07Z</time>
      </trkpt>
      <trkpt lat="43.98657" lon="1.84418">
        <ele>176</ele>
        <time>2024-04-01T16:30:13Z</time>
      </trkpt>
      <trkpt lat="43.98649" lon="1.84389">
        <ele>177</ele>
        <time>2024-04-01T16:30:17Z</time>
      </trkpt>
      <trkpt lat="43.98649" lon="1.84356">
        <ele>178</ele>
        <time>2024-04-01T16:30:21Z</time>
      </trkpt>
      <trkpt lat="43.98651" lon="1.84349">
        <ele>178</ele>
        <time>2024-04-01T16:30:22Z</time>
      </trkpt>
      <trkpt lat="43.98672" lon="1.84237">
        <ele>183</ele>
        <time>2024-04-01T16:30:37Z</time>
      </trkpt>
      <trkpt lat="43.98655" lon="1.84183">
        <ele>183</ele>
        <time>2024-04-01T16:30:44Z</time>
      </trkpt>
      <trkpt lat="43.98641" lon="1.84136">
        <ele>180</ele>
        <time>2024-04-01T16:30:51Z</time>
      </trkpt>
      <trkpt lat="43.98615" lon="1.84086">
        <ele>177</ele>
        <time>2024-04-01T16:30:59Z</time>
      </trkpt>
      <trkpt lat="43.98681" lon="1.8399">
        <ele>177</ele>
        <time>2024-04-01T16:31:16Z</time>
      </trkpt>
      <trkpt lat="43.98716" lon="1.83935">
        <ele>176</ele>
        <time>2024-04-01T16:31:25Z</time>
      </trkpt>
      <trkpt lat="43.98791" lon="1.83757">
        <ele>180</ele>
        <time>2024-04-01T16:31:51Z</time>
      </trkpt>
      <trkpt lat="43.98807" lon="1.83701">
        <ele>181</ele>
        <time>2024-04-01T16:31:59Z</time>
      </trkpt>
      <trkpt lat="43.98819" lon="1.83632">
        <ele>181</ele>
        <time>2024-04-01T16:32:08Z</time>
      </trkpt>
      <trkpt lat="43.98855" lon="1.83155">
        <ele>181</ele>
        <time>2024-04-01T16:33:10Z</time>
      </trkpt>
      <trkpt lat="43.98855" lon="1.83101">
        <ele>180</ele>
        <time>2024-04-01T16:33:17Z</time>
      </trkpt>
      <trkpt lat="43.98841" lon="1.83009">
        <ele>178</ele>
        <time>2024-04-01T16:33:29Z</time>
      </trkpt>
      <trkpt lat="43.98833" lon="1.8286">
        <ele>175</ele>
        <time>2024-04-01T16:33:48Z</time>
      </trkpt>
      <trkpt lat="43.98823" lon="1.82815">
        <ele>176</ele>
        <time>2024-04-01T16:33:54Z</time>
      </trkpt>
      <trkpt lat="43.98809" lon="1.8278">
        <ele>176</ele>
        <time>2024-04-01T16:33:59Z</time>
      </trkpt>
      <trkpt lat="43.98786" lon="1.82744">
        <ele>176</ele>
        <time>2024-04-01T16:34:05Z</time>
      </trkpt>
      <trkpt lat="43.98745" lon="1.8269">
        <ele>172</ele>
        <time>2024-04-01T16:34:15Z</time>
      </trkpt>
      <trkpt lat="43.98733" lon="1.82661">
        <ele>171</ele>
        <time>2024-04-01T16:34:19Z</time>
      </trkpt>
      <trkpt lat="43.98722" lon="1.82615">
        <ele>171</ele>
        <time>2024-04-01T16:34:26Z</time>
      </trkpt>
      <trkpt lat="43.98708" lon="1.82489">
        <ele>170</ele>
        <time>2024-04-01T16:34:42Z</time>
      </trkpt>
      <trkpt lat="43.98701" lon="1.82451">
        <ele>170</ele>
        <time>2024-04-01T16:34:47Z</time>
      </trkpt>
      <trkpt lat="43.9867" lon="1.82317">
        <ele>168</ele>
        <time>2024-04-01T16:35:05Z</time>
      </trkpt>
      <trkpt lat="43.98643" lon="1.82159">
        <ele>169</ele>
        <time>2024-04-01T16:35:26Z</time>
      </trkpt>
      <trkpt lat="43.98591" lon="1.81963">
        <ele>170</ele>
        <time>2024-04-01T16:35:52Z</time>
      </trkpt>
      <trkpt lat="43.98582" lon="1.81944">
        <ele>170</ele>
        <time>2024-04-01T16:35:55Z</time>
      </trkpt>
      <trkpt lat="43.98571" lon="1.81932">
        <ele>170</ele>
        <time>2024-04-01T16:35:58Z</time>
      </trkpt>
      <trkpt lat="43.98505" lon="1.81887">
        <ele>170</ele>
        <time>2024-04-01T16:36:11Z</time>
      </trkpt>
      <trkpt lat="43.98443" lon="1.81837">
        <ele>168</ele>
        <time>2024-04-01T16:36:24Z</time>
      </trkpt>
      <trkpt lat="43.98383" lon="1.81775">
        <ele>167</ele>
        <time>2024-04-01T16:36:37Z</time>
      </trkpt>
      <trkpt lat="43.9834" lon="1.81717">
        <ele>167</ele>
        <time>2024-04-01T16:36:48Z</time>
      </trkpt>
      <trkpt lat="43.98323" lon="1.81682">
        <ele>166</ele>
        <time>2024-04-01T16:36:53Z</time>
      </trkpt>
      <trkpt lat="43.98315" lon="1.81637">
        <ele>166</ele>
        <time>2024-04-01T16:36:59Z</time>
      </trkpt>
      <trkpt lat="43.9831" lon="1.81456">
        <ele>167</ele>
        <time>2024-04-01T16:37:22Z</time>
      </trkpt>
      <trkpt lat="43.98307" lon="1.81408">
        <ele>168</ele>
        <time>2024-04-01T16:37:28Z</time>
      </trkpt>
      <trkpt lat="43.98298" lon="1.81395">
        <ele>168</ele>
        <time>2024-04-01T16:37:31Z</time>
      </trkpt>
      <trkpt lat="43.98255" lon="1.81357">
        <ele>168</ele>
        <time>2024-04-01T16:37:40Z</time>
      </trkpt>
      <trkpt lat="43.98252" lon="1.81349">
        <ele>169</ele>
        <time>2024-04-01T16:37:41Z</time>
      </trkpt>
      <trkpt lat="43.98243" lon="1.81307">
        <ele>169</ele>
        <time>2024-04-01T16:37:46Z</time>
      </trkpt>
      <trkpt lat="43.98234" lon="1.81235">
        <ele>169</ele>
        <time>2024-04-01T16:37:56Z</time>
      </trkpt>
      <trkpt lat="43.98233" lon="1.81221">
        <ele>168</ele>
        <time>2024-04-01T16:37:58Z</time>
      </trkpt>
      <trkpt lat="43.9816" lon="1.80589">
        <ele>173</ele>
        <time>2024-04-01T16:39:20Z</time>
      </trkpt>
      <trkpt lat="43.98139" lon="1.80474">
        <ele>174</ele>
        <time>2024-04-01T16:39:35Z</time>
      </trkpt>
      <trkpt lat="43.98109" lon="1.80349">
        <ele>172</ele>
        <time>2024-04-01T16:39:52Z</time>
      </trkpt>
      <trkpt lat="43.98066" lon="1.80218">
        <ele>170</ele>
        <time>2024-04-01T16:40:10Z</time>
      </trkpt>
      <trkpt lat="43.98019" lon="1.80101">
        <ele>169</ele>
        <time>2024-04-01T16:40:27Z</time>
      </trkpt>
      <trkpt lat="43.97765" lon="1.79636">
        <ele>166</ele>
        <time>2024-04-01T16:41:42Z</time>
      </trkpt>
      <trkpt lat="43.97742" lon="1.79587">
        <ele>166</ele>
        <time>2024-04-01T16:41:49Z</time>
      </trkpt>
      <trkpt lat="43.97726" lon="1.7953">
        <ele>168</ele>
        <time>2024-04-01T16:41:57Z</time>
      </trkpt>
      <trkpt lat="43.97701" lon="1.79426">
        <ele>168</ele>
        <time>2024-04-01T16:42:11Z</time>
      </trkpt>
      <trkpt lat="43.97683" lon="1.79372">
        <ele>168</ele>
        <time>2024-04-01T16:42:19Z</time>
      </trkpt>
      <trkpt lat="43.97663" lon="1.79326">
        <ele>168</ele>
        <time>2024-04-01T16:42:26Z</time>
      </trkpt>
      <trkpt lat="43.9764" lon="1.79282">
        <ele>169</ele>
        <time>2024-04-01T16:42:33Z</time>
      </trkpt>
      <trkpt lat="43.97607" lon="1.79239">
        <ele>170</ele>
        <time>2024-04-01T16:42:41Z</time>
      </trkpt>
      <trkpt lat="43.97548" lon="1.79168">
        <ele>169</ele>
        <time>2024-04-01T16:42:55Z</time>
      </trkpt>
      <trkpt lat="43.97509" lon="1.79138">
        <ele>167</ele>
        <time>2024-04-01T16:43:03Z</time>
      </trkpt>
      <trkpt lat="43.97471" lon="1.79116">
        <ele>165</ele>
        <time>2024-04-01T16:43:10Z</time>
      </trkpt>
      <trkpt lat="43.97399" lon="1.79081">
        <ele>163</ele>
        <time>2024-04-01T16:43:24Z</time>
      </trkpt>
      <trkpt lat="43.97382" lon="1.7906">
        <ele>164</ele>
        <time>2024-04-01T16:43:28Z</time>
      </trkpt>
      <trkpt lat="43.97375" lon="1.79057">
        <ele>164</ele>
        <time>2024-04-01T16:43:29Z</time>
      </trkpt>
      <trkpt lat="43.97366" lon="1.79056">
        <ele>164</ele>
        <time>2024-04-01T16:43:31Z</time>
      </trkpt>
      <trkpt lat="43.97361" lon="1.79069">
        <ele>164</ele>
        <time>2024-04-01T16:43:32Z</time>
      </trkpt>
      <trkpt lat="43.97348" lon="1.79097">
        <ele>164</ele>
        <time>2024-04-01T16:43:37Z</time>
      </trkpt>
      <trkpt lat="43.97325" lon="1.79132">
        <ele>163</ele>
        <time>2024-04-01T16:43:43Z</time>
      </trkpt>
      <trkpt lat="43.97294" lon="1.79176">
        <ele>162</ele>
        <time>2024-04-01T16:43:51Z</time>
      </trkpt>
      <trkpt lat="43.97282" lon="1.79193">
        <ele>162</ele>
        <time>2024-04-01T16:43:54Z</time>
      </trkpt>
      <trkpt lat="43.97238" lon="1.79264">
        <ele>162</ele>
        <time>2024-04-01T16:44:06Z</time>
      </trkpt>
      <trkpt lat="43.97181" lon="1.79368">
        <ele>162</ele>
        <time>2024-04-01T16:44:22Z</time>
      </trkpt>
      <trkpt lat="43.97133" lon="1.79472">
        <ele>163</ele>
        <time>2024-04-01T16:44:38Z</time>
      </trkpt>
      <trkpt lat="43.97111" lon="1.79454">
        <ele>162</ele>
        <time>2024-04-01T16:44:43Z</time>
      </trkpt>
      <trkpt lat="43.97095" lon="1.79435">
        <ele>162</ele>
        <time>2024-04-01T16:44:47Z</time>
      </trkpt>
      <trkpt lat="43.97086" lon="1.79413">
        <ele>162</ele>
        <time>2024-04-01T16:44:50Z</time>
      </trkpt>
      <trkpt lat="43.97066" lon="1.79334">
        <ele>163</ele>
        <time>2024-04-01T16:45:01Z</time>
      </trkpt>
      <trkpt lat="43.97057" lon="1.79316">
        <ele>164</ele>
        <time>2024-04-01T16:45:03Z</time>
      </trkpt>
      <trkpt lat="43.97044" lon="1.79302">
        <ele>164</ele>
        <time>2024-04-01T16:45:06Z</time>
      </trkpt>
      <trkpt lat="43.97003" lon="1.79273">
        <ele>166</ele>
        <time>2024-04-01T16:45:14Z</time>
      </trkpt>
      <trkpt lat="43.96965" lon="1.79242">
        <ele>165</ele>
        <time>2024-04-01T16:45:22Z</time>
      </trkpt>
      <trkpt lat="43.96907" lon="1.79164">
        <ele>166</ele>
        <time>2024-04-01T16:45:37Z</time>
      </trkpt>
      <trkpt lat="43.96883" lon="1.79136">
        <ele>167</ele>
        <time>2024-04-01T16:45:42Z</time>
      </trkpt>
      <trkpt lat="43.96808" lon="1.7907">
        <ele>171</ele>
        <time>2024-04-01T16:45:58Z</time>
      </trkpt>
      <trkpt lat="43.96801" lon="1.79055">
        <ele>171</ele>
        <time>2024-04-01T16:46:00Z</time>
      </trkpt>
      <trkpt lat="43.9678" lon="1.78987">
        <ele>167</ele>
        <time>2024-04-01T16:46:10Z</time>
      </trkpt>
      <trkpt lat="43.96746" lon="1.78884">
        <ele>167</ele>
        <time>2024-04-01T16:46:24Z</time>
      </trkpt>
      <trkpt lat="43.96717" lon="1.78806">
        <ele>166</ele>
        <time>2024-04-01T16:46:36Z</time>
      </trkpt>
      <trkpt lat="43.96698" lon="1.78777">
        <ele>165</ele>
        <time>2024-04-01T16:46:41Z</time>
      </trkpt>
      <trkpt lat="43.96664" lon="1.78741">
        <ele>163</ele>
        <time>2024-04-01T16:46:48Z</time>
      </trkpt>
      <trkpt lat="43.96609" lon="1.7869">
        <ele>163</ele>
        <time>2024-04-01T16:47:00Z</time>
      </trkpt>
      <trkpt lat="43.9659" lon="1.78677">
        <ele>163</ele>
        <time>2024-04-01T16:47:04Z</time>
      </trkpt>
      <trkpt lat="43.96557" lon="1.78664">
        <ele>164</ele>
        <time>2024-04-01T16:47:10Z</time>
      </trkpt>
      <trkpt lat="43.96539" lon="1.78661">
        <ele>165</ele>
        <time>2024-04-01T16:47:13Z</time>
      </trkpt>
      <trkpt lat="43.96523" lon="1.78624">
        <ele>165</ele>
        <time>2024-04-01T16:47:19Z</time>
      </trkpt>
      <trkpt lat="43.96499" lon="1.78546">
        <ele>166</ele>
        <time>2024-04-01T16:47:29Z</time>
      </trkpt>
      <trkpt lat="43.96479" lon="1.7845">
        <ele>165</ele>
        <time>2024-04-01T16:47:42Z</time>
      </trkpt>
      <trkpt lat="43.96476" lon="1.78433">
        <ele>165</ele>
        <time>2024-04-01T16:47:44Z</time>
      </trkpt>
      <trkpt lat="43.96471" lon="1.78356">
        <ele>164</ele>
        <time>2024-04-01T16:47:54Z</time>
      </trkpt>
      <trkpt lat="43.9644" lon="1.78211">
        <ele>166</ele>
        <time>2024-04-01T16:48:14Z</time>
      </trkpt>
      <trkpt lat="43.96434" lon="1.78148">
        <ele>167</ele>
        <time>2024-04-01T16:48:22Z</time>
      </trkpt>
      <trkpt lat="43.96435" lon="1.78089">
        <ele>167</ele>
        <time>2024-04-01T16:48:29Z</time>
      </trkpt>
      <trkpt lat="43.96445" lon="1.78038">
        <ele>166</ele>
        <time>2024-04-01T16:48:36Z</time>
      </trkpt>
      <trkpt lat="43.96473" lon="1.77944">
        <ele>163</ele>
        <time>2024-04-01T16:48:49Z</time>
      </trkpt>
      <trkpt lat="43.96493" lon="1.77857">
        <ele>162</ele>
        <time>2024-04-01T16:49:01Z</time>
      </trkpt>
      <trkpt lat="43.96502" lon="1.77812">
        <ele>161</ele>
        <time>2024-04-01T16:49:07Z</time>
      </trkpt>
      <trkpt lat="43.965" lon="1.77751">
        <ele>162</ele>
        <time>2024-04-01T16:49:15Z</time>
      </trkpt>
      <trkpt lat="43.9649" lon="1.77688">
        <ele>164</ele>
        <time>2024-04-01T16:49:23Z</time>
      </trkpt>
      <trkpt lat="43.96477" lon="1.77626">
        <ele>165</ele>
        <time>2024-04-01T16:49:31Z</time>
      </trkpt>
      <trkpt lat="43.96454" lon="1.77544">
        <ele>165</ele>
        <time>2024-04-01T16:49:43Z</time>
      </trkpt>
      <trkpt lat="43.96442" lon="1.77489">
        <ele>166</ele>
        <time>2024-04-01T16:49:50Z</time>
      </trkpt>
      <trkpt lat="43.96439" lon="1.77425">
        <ele>166</ele>
        <time>2024-04-01T16:49:58Z</time>
      </trkpt>
      <trkpt lat="43.96439" lon="1.77366">
        <ele>168</ele>
        <time>2024-04-01T16:50:06Z</time>
      </trkpt>
      <trkpt lat="43.96444" lon="1.77318">
        <ele>168</ele>
        <time>2024-04-01T16:50:12Z</time>
      </trkpt>
      <trkpt lat="43.96449" lon="1.77283">
        <ele>169</ele>
        <time>2024-04-01T16:50:16Z</time>
      </trkpt>
      <trkpt lat="43.96489" lon="1.77166">
        <ele>162</ele>
        <time>2024-04-01T16:50:33Z</time>
      </trkpt>
      <trkpt lat="43.96503" lon="1.77109">
        <ele>160</ele>
        <time>2024-04-01T16:50:41Z</time>
      </trkpt>
      <trkpt lat="43.96512" lon="1.77064">
        <ele>159</ele>
        <time>2024-04-01T16:50:47Z</time>
      </trkpt>
      <trkpt lat="43.96515" lon="1.77026">
        <ele>159</ele>
        <time>2024-04-01T16:50:52Z</time>
      </trkpt>
      <trkpt lat="43.9654" lon="1.76913">
        <ele>160</ele>
        <time>2024-04-01T16:51:07Z</time>
      </trkpt>
      <trkpt lat="43.96544" lon="1.76882">
        <ele>161</ele>
        <time>2024-04-01T16:51:11Z</time>
      </trkpt>
      <trkpt lat="43.96543" lon="1.76857">
        <ele>161</ele>
        <time>2024-04-01T16:51:14Z</time>
      </trkpt>
      <trkpt lat="43.96538" lon="1.76832">
        <ele>162</ele>
        <time>2024-04-01T16:51:17Z</time>
      </trkpt>
      <trkpt lat="43.96526" lon="1.76802">
        <ele>162</ele>
        <time>2024-04-01T16:51:22Z</time>
      </trkpt>
      <trkpt lat="43.96525" lon="1.76782">
        <ele>162</ele>
        <time>2024-04-01T16:51:24Z</time>
      </trkpt>
      <trkpt lat="43.9653" lon="1.76761">
        <ele>161</ele>
        <time>2024-04-01T16:51:27Z</time>
      </trkpt>
      <trkpt lat="43.96547" lon="1.76723">
        <ele>161</ele>
        <time>2024-04-01T16:51:33Z</time>
      </trkpt>
      <trkpt lat="43.96552" lon="1.76696">
        <ele>161</ele>
        <time>2024-04-01T16:51:36Z</time>
      </trkpt>
      <trkpt lat="43.96541" lon="1.76669">
        <ele>161</ele>
        <time>2024-04-01T16:51:40Z</time>
      </trkpt>
      <trkpt lat="43.96526" lon="1.76645">
        <ele>161</ele>
        <time>2024-04-01T16:51:44Z</time>
      </trkpt>
      <trkpt lat="43.9652" lon="1.76623">
        <ele>161</ele>
        <time>2024-04-01T16:51:47Z</time>
      </trkpt>
      <trkpt lat="43.9652" lon="1.76525">
        <ele>160</ele>
        <time>2024-04-01T16:52:00Z</time>
      </trkpt>
      <trkpt lat="43.96507" lon="1.76446">
        <ele>159</ele>
        <time>2024-04-01T16:52:10Z</time>
      </trkpt>
      <trkpt lat="43.96493" lon="1.76379">
        <ele>158</ele>
        <time>2024-04-01T16:52:19Z</time>
      </trkpt>
      <trkpt lat="43.96474" lon="1.76302">
        <ele>157</ele>
        <time>2024-04-01T16:52:30Z</time>
      </trkpt>
      <trkpt lat="43.96442" lon="1.762">
        <ele>156</ele>
        <time>2024-04-01T16:52:44Z</time>
      </trkpt>
      <trkpt lat="43.96404" lon="1.76119">
        <ele>157</ele>
        <time>2024-04-01T16:52:56Z</time>
      </trkpt>
      <trkpt lat="43.96395" lon="1.76092">
        <ele>158</ele>
        <time>2024-04-01T16:53:00Z</time>
      </trkpt>
      <trkpt lat="43.96395" lon="1.76057">
        <ele>159</ele>
        <time>2024-04-01T16:53:05Z</time>
      </trkpt>
      <trkpt lat="43.96422" lon="1.7569">
        <ele>160</ele>
        <time>2024-04-01T16:53:52Z</time>
      </trkpt>
      <trkpt lat="43.96437" lon="1.75555">
        <ele>165</ele>
        <time>2024-04-01T16:54:09Z</time>
      </trkpt>
      <trkpt lat="43.96441" lon="1.7548">
        <ele>165</ele>
        <time>2024-04-01T16:54:19Z</time>
      </trkpt>
      <trkpt lat="43.96435" lon="1.75413">
        <ele>162</ele>
        <time>2024-04-01T16:54:28Z</time>
      </trkpt>
      <trkpt lat="43.96421" lon="1.75373">
        <ele>160</ele>
        <time>2024-04-01T16:54:33Z</time>
      </trkpt>
      <trkpt lat="43.96391" lon="1.75323">
        <ele>159</ele>
        <time>2024-04-01T16:54:42Z</time>
      </trkpt>
      <trkpt lat="43.96312" lon="1.75246">
        <ele>160</ele>
        <time>2024-04-01T16:54:59Z</time>
      </trkpt>
      <trkpt lat="43.96276" lon="1.75204">
        <ele>159</ele>
        <time>2024-04-01T16:55:07Z</time>
      </trkpt>
      <trkpt lat="43.96237" lon="1.75129">
        <ele>156</ele>
        <time>2024-04-01T16:55:19Z</time>
      </trkpt>
      <trkpt lat="43.96213" lon="1.75069">
        <ele>155</ele>
        <time>2024-04-01T16:55:28Z</time>
      </trkpt>
      <trkpt lat="43.9619" lon="1.74973">
        <ele>154</ele>
        <time>2024-04-01T16:55:41Z</time>
      </trkpt>
      <trkpt lat="43.96083" lon="1.74756">
        <ele>153</ele>
        <time>2024-04-01T16:56:15Z</time>
      </trkpt>
      <trkpt lat="43.96084" lon="1.74745">
        <ele>153</ele>
        <time>2024-04-01T16:56:16Z</time>
      </trkpt>
      <trkpt lat="43.96074" lon="1.74697">
        <ele>154</ele>
        <time>2024-04-01T16:56:22Z</time>
      </trkpt>
      <trkpt lat="43.96073" lon="1.74679">
        <ele>154</ele>
        <time>2024-04-01T16:56:25Z</time>
      </trkpt>
      <trkpt lat="43.9608" lon="1.74628">
        <ele>155</ele>
        <time>2024-04-01T16:56:31Z</time>
      </trkpt>
      <trkpt lat="43.96069" lon="1.74381">
        <ele>158</ele>
        <time>2024-04-01T16:57:03Z</time>
      </trkpt>
      <trkpt lat="43.96071" lon="1.74328">
        <ele>159</ele>
        <time>2024-04-01T16:57:10Z</time>
      </trkpt>
      <trkpt lat="43.96075" lon="1.7429">
        <ele>159</ele>
        <time>2024-04-01T16:57:15Z</time>
      </trkpt>
      <trkpt lat="43.96089" lon="1.74237">
        <ele>158</ele>
        <time>2024-04-01T16:57:22Z</time>
      </trkpt>
      <trkpt lat="43.96101" lon="1.74208">
        <ele>157</ele>
        <time>2024-04-01T16:57:26Z</time>
      </trkpt>
      <trkpt lat="43.96126" lon="1.74165">
        <ele>157</ele>
        <time>2024-04-01T16:57:33Z</time>
      </trkpt>
      <trkpt lat="43.96144" lon="1.74143">
        <ele>158</ele>
        <time>2024-04-01T16:57:38Z</time>
      </trkpt>
      <trkpt lat="43.96235" lon="1.74062">
        <ele>156</ele>
        <time>2024-04-01T16:57:57Z</time>
      </trkpt>
      <trkpt lat="43.96248" lon="1.74045">
        <ele>156</ele>
        <time>2024-04-01T16:58:00Z</time>
      </trkpt>
      <trkpt lat="43.96252" lon="1.74034">
        <ele>156</ele>
        <time>2024-04-01T16:58:02Z</time>
      </trkpt>
      <trkpt lat="43.96255" lon="1.74014">
        <ele>157</ele>
        <time>2024-04-01T16:58:04Z</time>
      </trkpt>
      <trkpt lat="43.96255" lon="1.73994">
        <ele>158</ele>
        <time>2024-04-01T16:58:07Z</time>
      </trkpt>
      <trkpt lat="43.96324" lon="1.73953">
        <ele>156</ele>
        <time>2024-04-01T16:58:20Z</time>
      </trkpt>
      <trkpt lat="43.96423" lon="1.73898">
        <ele>150</ele>
        <time>2024-04-01T16:58:39Z</time>
      </trkpt>
      <trkpt lat="43.96449" lon="1.73879">
        <ele>149</ele>
        <time>2024-04-01T16:58:44Z</time>
      </trkpt>
      <trkpt lat="43.96459" lon="1.73867">
        <ele>149</ele>
        <time>2024-04-01T16:58:47Z</time>
      </trkpt>
      <trkpt lat="43.96481" lon="1.73829">
        <ele>149</ele>
        <time>2024-04-01T16:58:53Z</time>
      </trkpt>
      <trkpt lat="43.96523" lon="1.73751">
        <ele>150</ele>
        <time>2024-04-01T16:59:05Z</time>
      </trkpt>
      <trkpt lat="43.96567" lon="1.73693">
        <ele>149</ele>
        <time>2024-04-01T16:59:16Z</time>
      </trkpt>
      <trkpt lat="43.9659" lon="1.73678">
        <ele>148</ele>
        <time>2024-04-01T16:59:21Z</time>
      </trkpt>
      <trkpt lat="43.96607" lon="1.73672">
        <ele>149</ele>
        <time>2024-04-01T16:59:24Z</time>
      </trkpt>
      <trkpt lat="43.96633" lon="1.7367">
        <ele>149</ele>
        <time>2024-04-01T16:59:28Z</time>
      </trkpt>
      <trkpt lat="43.96718" lon="1.73684">
        <ele>150</ele>
        <time>2024-04-01T16:59:44Z</time>
      </trkpt>
      <trkpt lat="43.96768" lon="1.73687">
        <ele>150</ele>
        <time>2024-04-01T16:59:53Z</time>
      </trkpt>
      <trkpt lat="43.96792" lon="1.73681">
        <ele>151</ele>
        <time>2024-04-01T16:59:57Z</time>
      </trkpt>
      <trkpt lat="43.96813" lon="1.73671">
        <ele>151</ele>
        <time>2024-04-01T17:00:01Z</time>
      </trkpt>
      <trkpt lat="43.96805" lon="1.73614">
        <ele>152</ele>
        <time>2024-04-01T17:00:08Z</time>
      </trkpt>
      <trkpt lat="43.96801" lon="1.73595">
        <ele>152</ele>
        <time>2024-04-01T17:00:11Z</time>
      </trkpt>
      <trkpt lat="43.96796" lon="1.7357">
        <ele>152</ele>
        <time>2024-04-01T17:00:14Z</time>
      </trkpt>
      <trkpt lat="43.96786" lon="1.73535">
        <ele>152</ele>
        <time>2024-04-01T17:00:19Z</time>
      </trkpt>
      <trkpt lat="43.96747" lon="1.7345">
        <ele>153</ele>
        <time>2024-04-01T17:00:32Z</time>
      </trkpt>
      <trkpt lat="43.96786" lon="1.73535">
        <ele>152</ele>
        <time>2024-04-01T17:00:45Z</time>
      </trkpt>
      <trkpt lat="43.96796" lon="1.7357">
        <ele>152</ele>
        <time>2024-04-01T17:00:50Z</time>
      </trkpt>
      <trkpt lat="43.96815" lon="1.73557">
        <ele>152</ele>
        <time>2024-04-01T17:00:53Z</time>
      </trkpt>
      <trkpt lat="43.96876" lon="1.73507">
        <ele>153</ele>
        <time>2024-04-01T17:01:06Z</time>
      </trkpt>
      <trkpt lat="43.96885" lon="1.73389">
        <ele>158</ele>
        <time>2024-04-01T17:01:21Z</time>
      </trkpt>
      <trkpt lat="43.9689" lon="1.73369">
        <ele>159</ele>
        <time>2024-04-01T17:01:24Z</time>
      </trkpt>
      <trkpt lat="43.96899" lon="1.7336">
        <ele>159</ele>
        <time>2024-04-01T17:01:26Z</time>
      </trkpt>
      <trkpt lat="43.96942" lon="1.73328">
        <ele>162</ele>
        <time>2024-04-01T17:01:35Z</time>
      </trkpt>
      <trkpt lat="43.96995" lon="1.73297">
        <ele>167</ele>
        <time>2024-04-01T17:01:45Z</time>
      </trkpt>
      <trkpt lat="43.9719" lon="1.73189">
        <ele>187</ele>
        <time>2024-04-01T17:02:22Z</time>
      </trkpt>
      <trkpt lat="43.97207" lon="1.73182">
        <ele>188</ele>
        <time>2024-04-01T17:02:25Z</time>
      </trkpt>
      <trkpt lat="43.97218" lon="1.73183">
        <ele>189</ele>
        <time>2024-04-01T17:02:27Z</time>
      </trkpt>
      <trkpt lat="43.973" lon="1.73217">
        <ele>194</ele>
        <time>2024-04-01T17:02:42Z</time>
      </trkpt>
      <trkpt lat="43.97333" lon="1.73229">
        <ele>196</ele>
        <time>2024-04-01T17:02:49Z</time>
      </trkpt>
      <trkpt lat="43.97379" lon="1.73239">
        <ele>199</ele>
        <time>2024-04-01T17:02:57Z</time>
      </trkpt>
      <trkpt lat="43.97411" lon="1.73249">
        <ele>201</ele>
        <time>2024-04-01T17:03:03Z</time>
      </trkpt>
      <trkpt lat="43.97421" lon="1.7325">
        <ele>201</ele>
        <time>2024-04-01T17:03:04Z</time>
      </trkpt>
      <trkpt lat="43.97433" lon="1.73248">
        <ele>202</ele>
        <time>2024-04-01T17:03:07Z</time>
      </trkpt>
      <trkpt lat="43.97442" lon="1.73244">
        <ele>202</ele>
        <time>2024-04-01T17:03:08Z</time>
      </trkpt>
      <trkpt lat="43.97456" lon="1.73242">
        <ele>203</ele>
        <time>2024-04-01T17:03:11Z</time>
      </trkpt>
      <trkpt lat="43.9751" lon="1.73242">
        <ele>205</ele>
        <time>2024-04-01T17:03:20Z</time>
      </trkpt>
      <trkpt lat="43.97549" lon="1.73225">
        <ele>207</ele>
        <time>2024-04-01T17:03:28Z</time>
      </trkpt>
      <trkpt lat="43.9757" lon="1.73222">
        <ele>208</ele>
        <time>2024-04-01T17:03:31Z</time>
      </trkpt>
      <trkpt lat="43.97681" lon="1.73217">
        <ele>216</ele>
        <time>2024-04-01T17:03:51Z</time>
      </trkpt>
      <trkpt lat="43.97692" lon="1.7321">
        <ele>217</ele>
        <time>2024-04-01T17:03:53Z</time>
      </trkpt>
      <trkpt lat="43.97702" lon="1.73196">
        <ele>217</ele>
        <time>2024-04-01T17:03:56Z</time>
      </trkpt>
      <trkpt lat="43.97713" lon="1.73172">
        <ele>219</ele>
        <time>2024-04-01T17:04:00Z</time>
      </trkpt>
      <trkpt lat="43.97742" lon="1.7309">
        <ele>225</ele>
        <time>2024-04-01T17:04:11Z</time>
      </trkpt>
      <trkpt lat="43.97804" lon="1.72991">
        <ele>233</ele>
        <time>2024-04-01T17:04:28Z</time>
      </trkpt>
      <trkpt lat="43.97825" lon="1.72965">
        <ele>234</ele>
        <time>2024-04-01T17:04:33Z</time>
      </trkpt>
      <trkpt lat="43.97843" lon="1.72953">
        <ele>235</ele>
        <time>2024-04-01T17:04:37Z</time>
      </trkpt>
      <trkpt lat="43.97864" lon="1.72944">
        <ele>237</ele>
        <time>2024-04-01T17:04:40Z</time>
      </trkpt>
      <trkpt lat="43.97886" lon="1.72943">
        <ele>238</ele>
        <time>2024-04-01T17:04:44Z</time>
      </trkpt>
      <trkpt lat="43.98105" lon="1.72962">
        <ele>253</ele>
        <time>2024-04-01T17:05:23Z</time>
      </trkpt>
      <trkpt lat="43.98139" lon="1.72963">
        <ele>255</ele>
        <time>2024-04-01T17:05:29Z</time>
      </trkpt>
      <trkpt lat="43.98167" lon="1.72959">
        <ele>257</ele>
        <time>2024-04-01T17:05:34Z</time>
      </trkpt>
      <trkpt lat="43.98404" lon="1.72851">
        <ele>269</ele>
        <time>2024-04-01T17:06:19Z</time>
      </trkpt>
      <trkpt lat="43.98434" lon="1.72829">
        <ele>270</ele>
        <time>2024-04-01T17:06:25Z</time>
      </trkpt>
      <trkpt lat="43.98565" lon="1.72722">
        <ele>274</ele>
        <time>2024-04-01T17:06:52Z</time>
      </trkpt>
      <trkpt lat="43.98599" lon="1.72692">
        <ele>275</ele>
        <time>2024-04-01T17:06:59Z</time>
      </trkpt>
      <trkpt lat="43.98616" lon="1.72674">
        <ele>277</ele>
        <time>2024-04-01T17:07:03Z</time>
      </trkpt>
      <trkpt lat="43.98653" lon="1.72613">
        <ele>279</ele>
        <time>2024-04-01T17:07:13Z</time>
      </trkpt>
      <trkpt lat="43.98712" lon="1.72503">
        <ele>280</ele>
        <time>2024-04-01T17:07:31Z</time>
      </trkpt>
      <trkpt lat="43.98724" lon="1.72468">
        <ele>281</ele>
        <time>2024-04-01T17:07:36Z</time>
      </trkpt>
      <trkpt lat="43.98733" lon="1.72415">
        <ele>282</ele>
        <time>2024-04-01T17:07:43Z</time>
      </trkpt>
      <trkpt lat="43.98738" lon="1.72396">
        <ele>282</ele>
        <time>2024-04-01T17:07:45Z</time>
      </trkpt>
      <trkpt lat="43.98746" lon="1.7238">
        <ele>283</ele>
        <time>2024-04-01T17:07:48Z</time>
      </trkpt>
      <trkpt lat="43.98765" lon="1.72357">
        <ele>284</ele>
        <time>2024-04-01T17:07:52Z</time>
      </trkpt>
      <trkpt lat="43.9884" lon="1.72292">
        <ele>282</ele>
        <time>2024-04-01T17:08:08Z</time>
      </trkpt>
      <trkpt lat="43.98849" lon="1.72277">
        <ele>282</ele>
        <time>2024-04-01T17:08:10Z</time>
      </trkpt>
      <trkpt lat="43.98855" lon="1.72263">
        <ele>282</ele>
        <time>2024-04-01T17:08:13Z</time>
      </trkpt>
      <trkpt lat="43.98861" lon="1.72247">
        <ele>282</ele>
        <time>2024-04-01T17:08:15Z</time>
      </trkpt>
      <trkpt lat="43.98882" lon="1.72074">
        <ele>273</ele>
        <time>2024-04-01T17:08:37Z</time>
      </trkpt>
      <trkpt lat="43.98888" lon="1.72051">
        <ele>271</ele>
        <time>2024-04-01T17:08:40Z</time>
      </trkpt>
      <trkpt lat="43.98906" lon="1.72013">
        <ele>269</ele>
        <time>2024-04-01T17:08:46Z</time>
      </trkpt>
      <trkpt lat="43.9893" lon="1.71976">
        <ele>265</ele>
        <time>2024-04-01T17:08:53Z</time>
      </trkpt>
      <trkpt lat="43.99028" lon="1.71903">
        <ele>256</ele>
        <time>2024-04-01T17:09:12Z</time>
      </trkpt>
      <trkpt lat="43.9904" lon="1.71898">
        <ele>255</ele>
        <time>2024-04-01T17:09:15Z</time>
      </trkpt>
      <trkpt lat="43.99055" lon="1.71898">
        <ele>255</ele>
        <time>2024-04-01T17:09:17Z</time>
      </trkpt>
      <trkpt lat="43.99066" lon="1.71901">
        <ele>256</ele>
        <time>2024-04-01T17:09:19Z</time>
      </trkpt>
      <trkpt lat="43.99127" lon="1.7193">
        <ele>261</ele>
        <time>2024-04-01T17:09:31Z</time>
      </trkpt>
      <trkpt lat="43.99144" lon="1.71931">
        <ele>261</ele>
        <time>2024-04-01T17:09:34Z</time>
      </trkpt>
      <trkpt lat="43.99154" lon="1.71927">
        <ele>260</ele>
        <time>2024-04-01T17:09:36Z</time>
      </trkpt>
      <trkpt lat="43.99278" lon="1.71822">
        <ele>244</ele>
        <time>2024-04-01T17:10:01Z</time>
      </trkpt>
      <trkpt lat="43.99315" lon="1.71772">
        <ele>239</ele>
        <time>2024-04-01T17:10:11Z</time>
      </trkpt>
      <trkpt lat="43.99318" lon="1.71755">
        <ele>237</ele>
        <time>2024-04-01T17:10:13Z</time>
      </trkpt>
      <trkpt lat="43.9933" lon="1.7175">
        <ele>238</ele>
        <time>2024-04-01T17:10:15Z</time>
      </trkpt>
      <trkpt lat="43.99338" lon="1.71741">
        <ele>238</ele>
        <time>2024-04-01T17:10:17Z</time>
      </trkpt>
      <trkpt lat="43.99345" lon="1.71723">
        <ele>239</ele>
        <time>2024-04-01T17:10:20Z</time>
      </trkpt>
      <trkpt lat="43.99355" lon="1.71685">
        <ele>239</ele>
        <time>2024-04-01T17:10:25Z</time>
      </trkpt>
      <trkpt lat="43.99364" lon="1.71639">
        <ele>241</ele>
        <time>2024-04-01T17:10:31Z</time>
      </trkpt>
      <trkpt lat="43.99367" lon="1.71599">
        <ele>243</ele>
        <time>2024-04-01T17:10:36Z</time>
      </trkpt>
      <trkpt lat="43.99372" lon="1.71456">
        <ele>244</ele>
        <time>2024-04-01T17:10:54Z</time>
      </trkpt>
      <trkpt lat="43.99374" lon="1.71439">
        <ele>245</ele>
        <time>2024-04-01T17:10:57Z</time>
      </trkpt>
      <trkpt lat="43.9938" lon="1.7142">
        <ele>246</ele>
        <time>2024-04-01T17:10:59Z</time>
      </trkpt>
      <trkpt lat="43.99388" lon="1.71402">
        <ele>247</ele>
        <time>2024-04-01T17:11:02Z</time>
      </trkpt>
      <trkpt lat="43.99401" lon="1.71388">
        <ele>248</ele>
        <time>2024-04-01T17:11:05Z</time>
      </trkpt>
      <trkpt lat="43.99404" lon="1.7139">
        <ele>248</ele>
        <time>2024-04-01T17:11:05Z</time>
      </trkpt>
      <trkpt lat="43.99407" lon="1.7139">
        <ele>249</ele>
        <time>2024-04-01T17:11:06Z</time>
      </trkpt>
      <trkpt lat="43.9941" lon="1.71384">
        <ele>249</ele>
        <time>2024-04-01T17:11:07Z</time>
      </trkpt>
      <trkpt lat="43.99407" lon="1.71379">
        <ele>248</ele>
        <time>2024-04-01T17:11:08Z</time>
      </trkpt>
      <trkpt lat="43.99419" lon="1.71342">
        <ele>248</ele>
        <time>2024-04-01T17:11:13Z</time>
      </trkpt>
      <trkpt lat="43.99424" lon="1.71313">
        <ele>248</ele>
        <time>2024-04-01T17:11:17Z</time>
      </trkpt>
      <trkpt lat="43.99423" lon="1.71285">
        <ele>250</ele>
        <time>2024-04-01T17:11:20Z</time>
      </trkpt>
      <trkpt lat="43.99412" lon="1.71286">
        <ele>251</ele>
        <time>2024-04-01T17:11:22Z</time>
      </trkpt>
      <trkpt lat="43.99366" lon="1.71275">
        <ele>250</ele>
        <time>2024-04-01T17:11:31Z</time>
      </trkpt>
      <trkpt lat="43.99358" lon="1.7128">
        <ele>249</ele>
        <time>2024-04-01T17:11:32Z</time>
      </trkpt>
      <trkpt lat="43.99354" lon="1.71286">
        <ele>249</ele>
        <time>2024-04-01T17:11:33Z</time>
      </trkpt>
      <trkpt lat="43.9934" lon="1.71341">
        <ele>243</ele>
        <time>2024-04-01T17:11:41Z</time>
      </trkpt>
      <trkpt lat="43.99335" lon="1.71348">
        <ele>243</ele>
        <time>2024-04-01T17:11:42Z</time>
      </trkpt>
      <trkpt lat="43.99322" lon="1.71356">
        <ele>241</ele>
        <time>2024-04-01T17:11:44Z</time>
      </trkpt>
      <trkpt lat="43.9921" lon="1.71362">
        <ele>224</ele>
        <time>2024-04-01T17:12:04Z</time>
      </trkpt>
      <trkpt lat="43.99163" lon="1.7137">
        <ele>214</ele>
        <time>2024-04-01T17:12:13Z</time>
      </trkpt>
      <trkpt lat="43.99155" lon="1.71381">
        <ele>212</ele>
        <time>2024-04-01T17:12:15Z</time>
      </trkpt>
      <trkpt lat="43.9914" lon="1.71435">
        <ele>205</ele>
        <time>2024-04-01T17:12:22Z</time>
      </trkpt>
      <trkpt lat="43.99132" lon="1.7144">
        <ele>203</ele>
        <time>2024-04-01T17:12:24Z</time>
      </trkpt>
      <trkpt lat="43.9912" lon="1.71439">
        <ele>201</ele>
        <time>2024-04-01T17:12:26Z</time>
      </trkpt>
      <trkpt lat="43.99091" lon="1.71407">
        <ele>197</ele>
        <time>2024-04-01T17:12:33Z</time>
      </trkpt>
      <trkpt lat="43.99076" lon="1.71394">
        <ele>194</ele>
        <time>2024-04-01T17:12:36Z</time>
      </trkpt>
      <trkpt lat="43.9905" lon="1.71386">
        <ele>190</ele>
        <time>2024-04-01T17:12:40Z</time>
      </trkpt>
      <trkpt lat="43.99018" lon="1.71362">
        <ele>184</ele>
        <time>2024-04-01T17:12:47Z</time>
      </trkpt>
      <trkpt lat="43.98959" lon="1.71309">
        <ele>174</ele>
        <time>2024-04-01T17:12:59Z</time>
      </trkpt>
      <trkpt lat="43.98905" lon="1.71277">
        <ele>167</ele>
        <time>2024-04-01T17:13:10Z</time>
      </trkpt>
      <trkpt lat="43.98894" lon="1.71263">
        <ele>167</ele>
        <time>2024-04-01T17:13:12Z</time>
      </trkpt>
      <trkpt lat="43.98886" lon="1.71244">
        <ele>167</ele>
        <time>2024-04-01T17:13:15Z</time>
      </trkpt>
      <trkpt lat="43.98842" lon="1.71065">
        <ele>154</ele>
        <time>2024-04-01T17:13:40Z</time>
      </trkpt>
      <trkpt lat="43.98828" lon="1.71015">
        <ele>149</ele>
        <time>2024-04-01T17:13:46Z</time>
      </trkpt>
      <trkpt lat="43.9885" lon="1.70987">
        <ele>152</ele>
        <time>2024-04-01T17:13:52Z</time>
      </trkpt>
      <trkpt lat="43.98983" lon="1.70771">
        <ele>148</ele>
        <time>2024-04-01T17:14:28Z</time>
      </trkpt>
      <trkpt lat="43.99078" lon="1.70616">
        <ele>145</ele>
        <time>2024-04-01T17:14:54Z</time>
      </trkpt>
      <trkpt lat="43.99103" lon="1.70567">
        <ele>146</ele>
        <time>2024-04-01T17:15:02Z</time>
      </trkpt>
      <trkpt lat="43.99114" lon="1.7053">
        <ele>145</ele>
        <time>2024-04-01T17:15:07Z</time>
      </trkpt>
      <trkpt lat="43.9912" lon="1.705">
        <ele>143</ele>
        <time>2024-04-01T17:15:11Z</time>
      </trkpt>
      <trkpt lat="43.99119" lon="1.7046">
        <ele>142</ele>
        <time>2024-04-01T17:15:16Z</time>
      </trkpt>
      <trkpt lat="43.99113" lon="1.70403">
        <ele>140</ele>
        <time>2024-04-01T17:15:23Z</time>
      </trkpt>
      <trkpt lat="43.99111" lon="1.70388">
        <ele>140</ele>
        <time>2024-04-01T17:15:25Z</time>
      </trkpt>
      <trkpt lat="43.99091" lon="1.70192">
        <ele>141</ele>
        <time>2024-04-01T17:15:51Z</time>
      </trkpt>
      <trkpt lat="43.99093" lon="1.7017">
        <ele>142</ele>
        <time>2024-04-01T17:15:54Z</time>
      </trkpt>
      <trkpt lat="43.99098" lon="1.70149">
        <ele>142</ele>
        <time>2024-04-01T17:15:56Z</time>
      </trkpt>
      <trkpt lat="43.99111" lon="1.70118">
        <ele>142</ele>
        <time>2024-04-01T17:16:01Z</time>
      </trkpt>
      <trkpt lat="43.99154" lon="1.70067">
        <ele>142</ele>
        <time>2024-04-01T17:16:11Z</time>
      </trkpt>
      <trkpt lat="43.99196" lon="1.70032">
        <ele>143</ele>
        <time>2024-04-01T17:16:20Z</time>
      </trkpt>
      <trkpt lat="43.99227" lon="1.70016">
        <ele>145</ele>
        <time>2024-04-01T17:16:26Z</time>
      </trkpt>
      <trkpt lat="43.994" lon="1.69954">
        <ele>146</ele>
        <time>2024-04-01T17:16:57Z</time>
      </trkpt>
      <trkpt lat="43.99535" lon="1.69895">
        <ele>144</ele>
        <time>2024-04-01T17:17:23Z</time>
      </trkpt>
      <trkpt lat="43.9956" lon="1.69881">
        <ele>143</ele>
        <time>2024-04-01T17:17:27Z</time>
      </trkpt>
      <trkpt lat="43.9958" lon="1.69863">
        <ele>141</ele>
        <time>2024-04-01T17:17:32Z</time>
      </trkpt>
      <trkpt lat="43.99604" lon="1.69834">
        <ele>140</ele>
        <time>2024-04-01T17:17:37Z</time>
      </trkpt>
      <trkpt lat="43.99627" lon="1.69791">
        <ele>140</ele>
        <time>2024-04-01T17:17:44Z</time>
      </trkpt>
      <trkpt lat="43.99646" lon="1.6975">
        <ele>138</ele>
        <time>2024-04-01T17:17:50Z</time>
      </trkpt>
      <trkpt lat="43.99663" lon="1.69726">
        <ele>137</ele>
        <time>2024-04-01T17:17:55Z</time>
      </trkpt>
      <trkpt lat="43.99696" lon="1.69697">
        <ele>137</ele>
        <time>2024-04-01T17:18:02Z</time>
      </trkpt>
      <trkpt lat="43.99717" lon="1.69683">
        <ele>136</ele>
        <time>2024-04-01T17:18:06Z</time>
      </trkpt>
      <trkpt lat="43.99749" lon="1.69675">
        <ele>135</ele>
        <time>2024-04-01T17:18:12Z</time>
      </trkpt>
      <trkpt lat="43.99829" lon="1.69667">
        <ele>144</ele>
        <time>2024-04-01T17:18:26Z</time>
      </trkpt>
      <trkpt lat="43.99853" lon="1.69656">
        <ele>147</ele>
        <time>2024-04-01T17:18:30Z</time>
      </trkpt>
      <trkpt lat="43.99876" lon="1.69631">
        <ele>148</ele>
        <time>2024-04-01T17:18:36Z</time>
      </trkpt>
      <trkpt lat="43.99898" lon="1.69603">
        <ele>146</ele>
        <time>2024-04-01T17:18:41Z</time>
      </trkpt>
      <trkpt lat="43.9991" lon="1.69577">
        <ele>143</ele>
        <time>2024-04-01T17:18:45Z</time>
      </trkpt>
      <trkpt lat="43.99934" lon="1.69505">
        <ele>140</ele>
        <time>2024-04-01T17:18:55Z</time>
      </trkpt>
      <trkpt lat="43.99947" lon="1.69476">
        <ele>140</ele>
        <time>2024-04-01T17:18:59Z</time>
      </trkpt>
      <trkpt lat="43.9996" lon="1.69455">
        <ele>140</ele>
        <time>2024-04-01T17:19:03Z</time>
      </trkpt>
      <trkpt lat="44.00014" lon="1.69386">
        <ele>138</ele>
        <time>2024-04-01T17:19:16Z</time>
      </trkpt>
      <trkpt lat="44.00047" lon="1.6935">
        <ele>139</ele>
        <time>2024-04-01T17:19:23Z</time>
      </trkpt>
      <trkpt lat="44.00071" lon="1.69333">
        <ele>138</ele>
        <time>2024-04-01T17:19:28Z</time>
      </trkpt>
      <trkpt lat="44.00149" lon="1.6931">
        <ele>142</ele>
        <time>2024-04-01T17:19:42Z</time>
      </trkpt>
      <trkpt lat="44.00163" lon="1.69304">
        <ele>142</ele>
        <time>2024-04-01T17:19:45Z</time>
      </trkpt>
      <trkpt lat="44.00176" lon="1.69298">
        <ele>143</ele>
        <time>2024-04-01T17:19:47Z</time>
      </trkpt>
      <trkpt lat="44.00197" lon="1.69285">
        <ele>143</ele>
        <time>2024-04-01T17:19:52Z</time>
      </trkpt>
      <trkpt lat="44.00225" lon="1.6926">
        <ele>141</ele>
        <time>2024-04-01T17:19:57Z</time>
      </trkpt>
      <trkpt lat="44.00244" lon="1.6924">
        <ele>139</ele>
        <time>2024-04-01T17:20:02Z</time>
      </trkpt>
      <trkpt lat="44.00226" lon="1.69215">
        <ele>138</ele>
        <time>2024-04-01T17:20:06Z</time>
      </trkpt>
      <trkpt lat="44.00213" lon="1.69191">
        <ele>137</ele>
        <time>2024-04-01T17:20:10Z</time>
      </trkpt>
      <trkpt lat="44.00204" lon="1.69184">
        <ele>137</ele>
        <time>2024-04-01T17:20:12Z</time>
      </trkpt>
      <trkpt lat="44.00192" lon="1.6918">
        <ele>136</ele>
        <time>2024-04-01T17:20:14Z</time>
      </trkpt>
      <trkpt lat="44.00181" lon="1.69182">
        <ele>136</ele>
        <time>2024-04-01T17:20:16Z</time>
      </trkpt>
      <trkpt lat="44.00152" lon="1.69194">
        <ele>137</ele>
        <time>2024-04-01T17:20:21Z</time>
      </trkpt>
      <trkpt lat="44.00137" lon="1.69195">
        <ele>138</ele>
        <time>2024-04-01T17:20:24Z</time>
      </trkpt>
      <trkpt lat="44.00126" lon="1.69189">
        <ele>138</ele>
        <time>2024-04-01T17:20:26Z</time>
      </trkpt>
      <trkpt lat="44.00104" lon="1.69168">
        <ele>140</ele>
        <time>2024-04-01T17:20:31Z</time>
      </trkpt>
      <trkpt lat="44.00061" lon="1.69148">
        <ele>143</ele>
        <time>2024-04-01T17:20:39Z</time>
      </trkpt>
      <trkpt lat="44.00064" lon="1.69094">
        <ele>144</ele>
        <time>2024-04-01T17:20:46Z</time>
      </trkpt>
      <trkpt lat="44.00055" lon="1.6907">
        <ele>144</ele>
        <time>2024-04-01T17:20:49Z</time>
      </trkpt>
      <trkpt lat="44.00054" lon="1.69058">
        <ele>144</ele>
        <time>2024-04-01T17:20:51Z</time>
      </trkpt>
      <trkpt lat="44.00054" lon="1.69045">
        <ele>144</ele>
        <time>2024-04-01T17:20:53Z</time>
      </trkpt>
      <trkpt lat="44.00056" lon="1.69032">
        <ele>144</ele>
        <time>2024-04-01T17:20:54Z</time>
      </trkpt>
      <trkpt lat="44.00094" lon="1.68881">
        <ele>139</ele>
        <time>2024-04-01T17:21:15Z</time>
      </trkpt>
      <trkpt lat="44.00096" lon="1.68855">
        <ele>139</ele>
        <time>2024-04-01T17:21:18Z</time>
      </trkpt>
      <trkpt lat="44.00098" lon="1.68733">
        <ele>141</ele>
        <time>2024-04-01T17:21:34Z</time>
      </trkpt>
      <trkpt lat="44.00096" lon="1.68719">
        <ele>141</ele>
        <time>2024-04-01T17:21:36Z</time>
      </trkpt>
      <trkpt lat="44.00093" lon="1.68708">
        <ele>141</ele>
        <time>2024-04-01T17:21:37Z</time>
      </trkpt>
      <trkpt lat="44.00083" lon="1.68685">
        <ele>141</ele>
        <time>2024-04-01T17:21:41Z</time>
      </trkpt>
      <trkpt lat="44.00078" lon="1.68663">
        <ele>141</ele>
        <time>2024-04-01T17:21:44Z</time>
      </trkpt>
      <trkpt lat="44.00059" lon="1.68618">
        <ele>144</ele>
        <time>2024-04-01T17:21:50Z</time>
      </trkpt>
      <trkpt lat="44.00055" lon="1.68603">
        <ele>144</ele>
        <time>2024-04-01T17:21:52Z</time>
      </trkpt>
      <trkpt lat="44.00047" lon="1.68541">
        <ele>145</ele>
        <time>2024-04-01T17:22:00Z</time>
      </trkpt>
      <trkpt lat="44.00037" lon="1.685">
        <ele>148</ele>
        <time>2024-04-01T17:22:06Z</time>
      </trkpt>
      <trkpt lat="44.00031" lon="1.6846">
        <ele>153</ele>
        <time>2024-04-01T17:22:11Z</time>
      </trkpt>
      <trkpt lat="44.00029" lon="1.68419">
        <ele>158</ele>
        <time>2024-04-01T17:22:16Z</time>
      </trkpt>
      <trkpt lat="44.00031" lon="1.68396">
        <ele>160</ele>
        <time>2024-04-01T17:22:19Z</time>
      </trkpt>
      <trkpt lat="44.00054" lon="1.68299">
        <ele>154</ele>
        <time>2024-04-01T17:22:32Z</time>
      </trkpt>
      <trkpt lat="44.00078" lon="1.68208">
        <ele>142</ele>
        <time>2024-04-01T17:22:45Z</time>
      </trkpt>
      <trkpt lat="44.00082" lon="1.68184">
        <ele>141</ele>
        <time>2024-04-01T17:22:48Z</time>
      </trkpt>
      <trkpt lat="44.0008" lon="1.68112">
        <ele>142</ele>
        <time>2024-04-01T17:22:57Z</time>
      </trkpt>
      <trkpt lat="44.00081" lon="1.68099">
        <ele>142</ele>
        <time>2024-04-01T17:22:59Z</time>
      </trkpt>
      <trkpt lat="44.00087" lon="1.68087">
        <ele>141</ele>
        <time>2024-04-01T17:23:01Z</time>
      </trkpt>
      <trkpt lat="44.00112" lon="1.68051">
        <ele>139</ele>
        <time>2024-04-01T17:23:07Z</time>
      </trkpt>
      <trkpt lat="44.00117" lon="1.68033">
        <ele>139</ele>
        <time>2024-04-01T17:23:10Z</time>
      </trkpt>
      <trkpt lat="44.0012" lon="1.68013">
        <ele>139</ele>
        <time>2024-04-01T17:23:12Z</time>
      </trkpt>
      <trkpt lat="44.00121" lon="1.67966">
        <ele>140</ele>
        <time>2024-04-01T17:23:18Z</time>
      </trkpt>
      <trkpt lat="44.00144" lon="1.6789">
        <ele>140</ele>
        <time>2024-04-01T17:23:29Z</time>
      </trkpt>
      <trkpt lat="44.00218" lon="1.67722">
        <ele>142</ele>
        <time>2024-04-01T17:23:54Z</time>
      </trkpt>
      <trkpt lat="44.0026" lon="1.67643">
        <ele>140</ele>
        <time>2024-04-01T17:24:07Z</time>
      </trkpt>
      <trkpt lat="44.00285" lon="1.67609">
        <ele>140</ele>
        <time>2024-04-01T17:24:13Z</time>
      </trkpt>
      <trkpt lat="44.00299" lon="1.67587">
        <ele>139</ele>
        <time>2024-04-01T17:24:17Z</time>
      </trkpt>
      <trkpt lat="44.0031" lon="1.67562">
        <ele>139</ele>
        <time>2024-04-01T17:24:20Z</time>
      </trkpt>
      <trkpt lat="44.00333" lon="1.67495">
        <ele>140</ele>
        <time>2024-04-01T17:24:30Z</time>
      </trkpt>
      <trkpt lat="44.0034" lon="1.6749">
        <ele>140</ele>
        <time>2024-04-01T17:24:31Z</time>
      </trkpt>
      <trkpt lat="44.00361" lon="1.67495">
        <ele>140</ele>
        <time>2024-04-01T17:24:35Z</time>
      </trkpt>
      <trkpt lat="44.00382" lon="1.67497">
        <ele>139</ele>
        <time>2024-04-01T17:24:39Z</time>
      </trkpt>
      <trkpt lat="44.004" lon="1.67494">
        <ele>140</ele>
        <time>2024-04-01T17:24:42Z</time>
      </trkpt>
      <trkpt lat="44.00428" lon="1.67502">
        <ele>139</ele>
        <time>2024-04-01T17:24:47Z</time>
      </trkpt>
      <trkpt lat="44.00449" lon="1.6752">
        <ele>138</ele>
        <time>2024-04-01T17:24:51Z</time>
      </trkpt>
      <trkpt lat="44.00458" lon="1.67518">
        <ele>138</ele>
        <time>2024-04-01T17:24:53Z</time>
      </trkpt>
      <trkpt lat="44.00429" lon="1.67479">
        <ele>142</ele>
        <time>2024-04-01T17:25:00Z</time>
      </trkpt>
      <trkpt lat="44.00412" lon="1.67449">
        <ele>145</ele>
        <time>2024-04-01T17:25:05Z</time>
      </trkpt>
      <trkpt lat="44.00409" lon="1.67433">
        <ele>147</ele>
        <time>2024-04-01T17:25:07Z</time>
      </trkpt>
      <trkpt lat="44.00389" lon="1.67372">
        <ele>152</ele>
        <time>2024-04-01T17:25:16Z</time>
      </trkpt>
      <trkpt lat="44.00384" lon="1.67341">
        <ele>154</ele>
        <time>2024-04-01T17:25:20Z</time>
      </trkpt>
      <trkpt lat="44.00383" lon="1.67316">
        <ele>156</ele>
        <time>2024-04-01T17:25:23Z</time>
      </trkpt>
      <trkpt lat="44.00397" lon="1.67212">
        <ele>160</ele>
        <time>2024-04-01T17:25:37Z</time>
      </trkpt>
      <trkpt lat="44.00398" lon="1.67124">
        <ele>162</ele>
        <time>2024-04-01T17:25:48Z</time>
      </trkpt>
      <trkpt lat="44.00389" lon="1.67062">
        <ele>166</ele>
        <time>2024-04-01T17:25:56Z</time>
      </trkpt>
      <trkpt lat="44.00388" lon="1.67038">
        <ele>168</ele>
        <time>2024-04-01T17:25:59Z</time>
      </trkpt>
      <trkpt lat="44.00392" lon="1.67024">
        <ele>168</ele>
        <time>2024-04-01T17:26:01Z</time>
      </trkpt>
      <trkpt lat="44.00401" lon="1.67016">
        <ele>167</ele>
        <time>2024-04-01T17:26:03Z</time>
      </trkpt>
      <trkpt lat="44.00413" lon="1.67015">
        <ele>166</ele>
        <time>2024-04-01T17:26:05Z</time>
      </trkpt>
      <trkpt lat="44.00423" lon="1.67025">
        <ele>166</ele>
        <time>2024-04-01T17:26:07Z</time>
      </trkpt>
      <trkpt lat="44.00454" lon="1.67096">
        <ele>165</ele>
        <time>2024-04-01T17:26:18Z</time>
      </trkpt>
      <trkpt lat="44.00465" lon="1.67115">
        <ele>165</ele>
        <time>2024-04-01T17:26:21Z</time>
      </trkpt>
      <trkpt lat="44.00474" lon="1.67121">
        <ele>166</ele>
        <time>2024-04-01T17:26:23Z</time>
      </trkpt>
      <trkpt lat="44.00484" lon="1.67121">
        <ele>167</ele>
        <time>2024-04-01T17:26:25Z</time>
      </trkpt>
      <trkpt lat="44.00496" lon="1.67113">
        <ele>169</ele>
        <time>2024-04-01T17:26:27Z</time>
      </trkpt>
      <trkpt lat="44.00531" lon="1.67062">
        <ele>179</ele>
        <time>2024-04-01T17:26:36Z</time>
      </trkpt>
      <trkpt lat="44.00553" lon="1.67035">
        <ele>183</ele>
        <time>2024-04-01T17:26:41Z</time>
      </trkpt>
      <trkpt lat="44.00584" lon="1.67007">
        <ele>186</ele>
        <time>2024-04-01T17:26:48Z</time>
      </trkpt>
      <trkpt lat="44.00687" lon="1.6693">
        <ele>194</ele>
        <time>2024-04-01T17:27:09Z</time>
      </trkpt>
      <trkpt lat="44.00719" lon="1.669">
        <ele>196</ele>
        <time>2024-04-01T17:27:15Z</time>
      </trkpt>
      <trkpt lat="44.0078" lon="1.6683">
        <ele>198</ele>
        <time>2024-04-01T17:27:29Z</time>
      </trkpt>
      <trkpt lat="44.00837" lon="1.66763">
        <ele>202</ele>
        <time>2024-04-01T17:27:43Z</time>
      </trkpt>
      <trkpt lat="44.00851" lon="1.66743">
        <ele>203</ele>
        <time>2024-04-01T17:27:46Z</time>
      </trkpt>
      <trkpt lat="44.00862" lon="1.66716">
        <ele>204</ele>
        <time>2024-04-01T17:27:50Z</time>
      </trkpt>
      <trkpt lat="44.00886" lon="1.66619">
        <ele>206</ele>
        <time>2024-04-01T17:28:03Z</time>
      </trkpt>
      <trkpt lat="44.00897" lon="1.66594">
        <ele>207</ele>
        <time>2024-04-01T17:28:07Z</time>
      </trkpt>
      <trkpt lat="44.00948" lon="1.6653">
        <ele>211</ele>
        <time>2024-04-01T17:28:19Z</time>
      </trkpt>
      <trkpt lat="44.01019" lon="1.66421">
        <ele>208</ele>
        <time>2024-04-01T17:28:38Z</time>
      </trkpt>
      <trkpt lat="44.01051" lon="1.66424">
        <ele>210</ele>
        <time>2024-04-01T17:28:44Z</time>
      </trkpt>
      <trkpt lat="44.01098" lon="1.66437">
        <ele>212</ele>
        <time>2024-04-01T17:28:52Z</time>
      </trkpt>
      <trkpt lat="44.01128" lon="1.66449">
        <ele>213</ele>
        <time>2024-04-01T17:28:58Z</time>
      </trkpt>
      <trkpt lat="44.01156" lon="1.66465">
        <ele>214</ele>
        <time>2024-04-01T17:29:03Z</time>
      </trkpt>
      <trkpt lat="44.01205" lon="1.66496">
        <ele>215</ele>
        <time>2024-04-01T17:29:13Z</time>
      </trkpt>
      <trkpt lat="44.01231" lon="1.66509">
        <ele>215</ele>
        <time>2024-04-01T17:29:18Z</time>
      </trkpt>
      <trkpt lat="44.01243" lon="1.6651">
        <ele>214</ele>
        <time>2024-04-01T17:29:20Z</time>
      </trkpt>
      <trkpt lat="44.01254" lon="1.6651">
        <ele>214</ele>
        <time>2024-04-01T17:29:22Z</time>
      </trkpt>
      <trkpt lat="44.01374" lon="1.66476">
        <ele>215</ele>
        <time>2024-04-01T17:29:44Z</time>
      </trkpt>
      <trkpt lat="44.01559" lon="1.66437">
        <ele>219</ele>
        <time>2024-04-01T17:30:17Z</time>
      </trkpt>
      <trkpt lat="44.01584" lon="1.66427">
        <ele>220</ele>
        <time>2024-04-01T17:30:22Z</time>
      </trkpt>
      <trkpt lat="44.01596" lon="1.6642">
        <ele>220</ele>
        <time>2024-04-01T17:30:24Z</time>
      </trkpt>
      <trkpt lat="44.01611" lon="1.66408">
        <ele>219</ele>
        <time>2024-04-01T17:30:27Z</time>
      </trkpt>
      <trkpt lat="44.01697" lon="1.66322">
        <ele>218</ele>
        <time>2024-04-01T17:30:46Z</time>
      </trkpt>
      <trkpt lat="44.01827" lon="1.66206">
        <ele>212</ele>
        <time>2024-04-01T17:31:13Z</time>
      </trkpt>
      <trkpt lat="44.01837" lon="1.66195">
        <ele>211</ele>
        <time>2024-04-01T17:31:16Z</time>
      </trkpt>
      <trkpt lat="44.01878" lon="1.66135">
        <ele>209</ele>
        <time>2024-04-01T17:31:26Z</time>
      </trkpt>
      <trkpt lat="44.01898" lon="1.66109">
        <ele>208</ele>
        <time>2024-04-01T17:31:31Z</time>
      </trkpt>
      <trkpt lat="44.01925" lon="1.66078">
        <ele>207</ele>
        <time>2024-04-01T17:31:37Z</time>
      </trkpt>
      <trkpt lat="44.01972" lon="1.66041">
        <ele>208</ele>
        <time>2024-04-01T17:31:47Z</time>
      </trkpt>
      <trkpt lat="44.01984" lon="1.66022">
        <ele>209</ele>
        <time>2024-04-01T17:31:50Z</time>
      </trkpt>
      <trkpt lat="44.01988" lon="1.66008">
        <ele>208</ele>
        <time>2024-04-01T17:31:52Z</time>
      </trkpt>
      <trkpt lat="44.01994" lon="1.65971">
        <ele>207</ele>
        <time>2024-04-01T17:31:57Z</time>
      </trkpt>
      <trkpt lat="44.02001" lon="1.65936">
        <ele>207</ele>
        <time>2024-04-01T17:32:02Z</time>
      </trkpt>
      <trkpt lat="44.02006" lon="1.65923">
        <ele>207</ele>
        <time>2024-04-01T17:32:04Z</time>
      </trkpt>
      <trkpt lat="44.02036" lon="1.65871">
        <ele>208</ele>
        <time>2024-04-01T17:32:12Z</time>
      </trkpt>
      <trkpt lat="44.0208" lon="1.65804">
        <ele>211</ele>
        <time>2024-04-01T17:32:24Z</time>
      </trkpt>
      <trkpt lat="44.02101" lon="1.65767">
        <ele>212</ele>
        <time>2024-04-01T17:32:30Z</time>
      </trkpt>
      <trkpt lat="44.02175" lon="1.65624">
        <ele>210</ele>
        <time>2024-04-01T17:32:52Z</time>
      </trkpt>
      <trkpt lat="44.02311" lon="1.65781">
        <ele>253</ele>
        <time>2024-04-01T17:33:24Z</time>
      </trkpt>
      <trkpt lat="44.02329" lon="1.65787">
        <ele>257</ele>
        <time>2024-04-01T17:33:27Z</time>
      </trkpt>
      <trkpt lat="44.02368" lon="1.65807">
        <ele>261</ele>
        <time>2024-04-01T17:33:34Z</time>
      </trkpt>
      <trkpt lat="44.02592" lon="1.65832">
        <ele>265</ele>
        <time>2024-04-01T17:34:14Z</time>
      </trkpt>
      <trkpt lat="44.02583" lon="1.65865">
        <ele>266</ele>
        <time>2024-04-01T17:34:19Z</time>
      </trkpt>
      <trkpt lat="44.02579" lon="1.65898">
        <ele>267</ele>
        <time>2024-04-01T17:34:23Z</time>
      </trkpt>
      <trkpt lat="44.02576" lon="1.65983">
        <ele>268</ele>
        <time>2024-04-01T17:34:34Z</time>
      </trkpt>
      <trkpt lat="44.0258" lon="1.65994">
        <ele>268</ele>
        <time>2024-04-01T17:34:36Z</time>
      </trkpt>
      <trkpt lat="44.02509" lon="1.66104">
        <ele>258</ele>
        <time>2024-04-01T17:34:55Z</time>
      </trkpt>
      <trkpt lat="44.02503" lon="1.66123">
        <ele>257</ele>
        <time>2024-04-01T17:34:57Z</time>
      </trkpt>
      <trkpt lat="44.02501" lon="1.66144">
        <ele>255</ele>
        <time>2024-04-01T17:35:00Z</time>
      </trkpt>
      <trkpt lat="44.02513" lon="1.66199">
        <ele>252</ele>
        <time>2024-04-01T17:35:07Z</time>
      </trkpt>
      <trkpt lat="44.02503" lon="1.66228">
        <ele>252</ele>
        <time>2024-04-01T17:35:11Z</time>
      </trkpt>
      <trkpt lat="44.02504" lon="1.66263">
        <ele>251</ele>
        <time>2024-04-01T17:35:16Z</time>
      </trkpt>
      <trkpt lat="44.02509" lon="1.66288">
        <ele>250</ele>
        <time>2024-04-01T17:35:19Z</time>
      </trkpt>
      <trkpt lat="44.02518" lon="1.66299">
        <ele>249</ele>
        <time>2024-04-01T17:35:21Z</time>
      </trkpt>
      <trkpt lat="44.02521" lon="1.66343">
        <ele>247</ele>
        <time>2024-04-01T17:35:27Z</time>
      </trkpt>
      <trkpt lat="44.02538" lon="1.66339">
        <ele>247</ele>
        <time>2024-04-01T17:35:30Z</time>
      </trkpt>
      <trkpt lat="44.02604" lon="1.66332">
        <ele>246</ele>
        <time>2024-04-01T17:35:42Z</time>
      </trkpt>
      <trkpt lat="44.02633" lon="1.66323">
        <ele>247</ele>
        <time>2024-04-01T17:35:47Z</time>
      </trkpt>
      <trkpt lat="44.02654" lon="1.66327">
        <ele>247</ele>
        <time>2024-04-01T17:35:51Z</time>
      </trkpt>
      <trkpt lat="44.02699" lon="1.66375">
        <ele>243</ele>
        <time>2024-04-01T17:36:01Z</time>
      </trkpt>
      <trkpt lat="44.02754" lon="1.66429">
        <ele>238</ele>
        <time>2024-04-01T17:36:13Z</time>
      </trkpt>
      <trkpt lat="44.0277" lon="1.66429">
        <ele>237</ele>
        <time>2024-04-01T17:36:16Z</time>
      </trkpt>
      <trkpt lat="44.02815" lon="1.66413">
        <ele>235</ele>
        <time>2024-04-01T17:36:24Z</time>
      </trkpt>
      <trkpt lat="44.02841" lon="1.66398">
        <ele>237</ele>
        <time>2024-04-01T17:36:29Z</time>
      </trkpt>
      <trkpt lat="44.02856" lon="1.66398">
        <ele>239</ele>
        <time>2024-04-01T17:36:32Z</time>
      </trkpt>
      <trkpt lat="44.02874" lon="1.66458">
        <ele>237</ele>
        <time>2024-04-01T17:36:40Z</time>
      </trkpt>
      <trkpt lat="44.02896" lon="1.66543">
        <ele>237</ele>
        <time>2024-04-01T17:36:52Z</time>
      </trkpt>
      <trkpt lat="44.02893" lon="1.66606">
        <ele>231</ele>
        <time>2024-04-01T17:37:00Z</time>
      </trkpt>
      <trkpt lat="44.02891" lon="1.66626">
        <ele>229</ele>
        <time>2024-04-01T17:37:02Z</time>
      </trkpt>
      <trkpt lat="44.02893" lon="1.66664">
        <ele>227</ele>
        <time>2024-04-01T17:37:07Z</time>
      </trkpt>
      <trkpt lat="44.02899" lon="1.6668">
        <ele>226</ele>
        <time>2024-04-01T17:37:09Z</time>
      </trkpt>
      <trkpt lat="44.02908" lon="1.66687">
        <ele>226</ele>
        <time>2024-04-01T17:37:11Z</time>
      </trkpt>
      <trkpt lat="44.02936" lon="1.66685">
        <ele>226</ele>
        <time>2024-04-01T17:37:16Z</time>
      </trkpt>
      <trkpt lat="44.02985" lon="1.66678">
        <ele>222</ele>
        <time>2024-04-01T17:37:25Z</time>
      </trkpt>
      <trkpt lat="44.03073" lon="1.66652">
        <ele>213</ele>
        <time>2024-04-01T17:37:41Z</time>
      </trkpt>
      <trkpt lat="44.03167" lon="1.66634">
        <ele>201</ele>
        <time>2024-04-01T17:37:58Z</time>
      </trkpt>
      <trkpt lat="44.03225" lon="1.6661">
        <ele>198</ele>
        <time>2024-04-01T17:38:09Z</time>
      </trkpt>
      <trkpt lat="44.03296" lon="1.66578">
        <ele>195</ele>
        <time>2024-04-01T17:38:22Z</time>
      </trkpt>
      <trkpt lat="44.03369" lon="1.66554">
        <ele>191</ele>
        <time>2024-04-01T17:38:35Z</time>
      </trkpt>
      <trkpt lat="44.0345" lon="1.66564">
        <ele>184</ele>
        <time>2024-04-01T17:38:50Z</time>
      </trkpt>
      <trkpt lat="44.0352" lon="1.66577">
        <ele>183</ele>
        <time>2024-04-01T17:39:02Z</time>
      </trkpt>
      <trkpt lat="44.0353" lon="1.66581">
        <ele>183</ele>
        <time>2024-04-01T17:39:04Z</time>
      </trkpt>
      <trkpt lat="44.03543" lon="1.66589">
        <ele>184</ele>
        <time>2024-04-01T17:39:07Z</time>
      </trkpt>
      <trkpt lat="44.03581" lon="1.66621">
        <ele>185</ele>
        <time>2024-04-01T17:39:15Z</time>
      </trkpt>
      <trkpt lat="44.03588" lon="1.66623">
        <ele>184</ele>
        <time>2024-04-01T17:39:16Z</time>
      </trkpt>
      <trkpt lat="44.03596" lon="1.66622">
        <ele>183</ele>
        <time>2024-04-01T17:39:17Z</time>
      </trkpt>
      <trkpt lat="44.03626" lon="1.66595">
        <ele>181</ele>
        <time>2024-04-01T17:39:24Z</time>
      </trkpt>
      <trkpt lat="44.03672" lon="1.66498">
        <ele>179</ele>
        <time>2024-04-01T17:39:39Z</time>
      </trkpt>
      <trkpt lat="44.03711" lon="1.66453">
        <ele>180</ele>
        <time>2024-04-01T17:39:48Z</time>
      </trkpt>
      <trkpt lat="44.03714" lon="1.66444">
        <ele>181</ele>
        <time>2024-04-01T17:39:49Z</time>
      </trkpt>
      <trkpt lat="44.03726" lon="1.66393">
        <ele>189</ele>
        <time>2024-04-01T17:39:56Z</time>
      </trkpt>
      <trkpt lat="44.03729" lon="1.66388">
        <ele>189</ele>
        <time>2024-04-01T17:39:57Z</time>
      </trkpt>
      <trkpt lat="44.03732" lon="1.66387">
        <ele>189</ele>
        <time>2024-04-01T17:39:57Z</time>
      </trkpt>
      <trkpt lat="44.03735" lon="1.66389">
        <ele>188</ele>
        <time>2024-04-01T17:39:58Z</time>
      </trkpt>
      <trkpt lat="44.03753" lon="1.66427">
        <ele>179</ele>
        <time>2024-04-01T17:40:03Z</time>
      </trkpt>
      <trkpt lat="44.03761" lon="1.6644">
        <ele>180</ele>
        <time>2024-04-01T17:40:06Z</time>
      </trkpt>
      <trkpt lat="44.03773" lon="1.66469">
        <ele>179</ele>
        <time>2024-04-01T17:40:10Z</time>
      </trkpt>
      <trkpt lat="44.03781" lon="1.66501">
        <ele>174</ele>
        <time>2024-04-01T17:40:14Z</time>
      </trkpt>
      <trkpt lat="44.03786" lon="1.66525">
        <ele>173</ele>
        <time>2024-04-01T17:40:17Z</time>
      </trkpt>
      <trkpt lat="44.03786" lon="1.66546">
        <ele>170</ele>
        <time>2024-04-01T17:40:20Z</time>
      </trkpt>
      <trkpt lat="44.03779" lon="1.6659">
        <ele>163</ele>
        <time>2024-04-01T17:40:26Z</time>
      </trkpt>
      <trkpt lat="44.03778" lon="1.66616">
        <ele>161</ele>
        <time>2024-04-01T17:40:29Z</time>
      </trkpt>
      <trkpt lat="44.03786" lon="1.66683">
        <ele>156</ele>
        <time>2024-04-01T17:40:38Z</time>
      </trkpt>
      <trkpt lat="44.03791" lon="1.66696">
        <ele>155</ele>
        <time>2024-04-01T17:40:40Z</time>
      </trkpt>
      <trkpt lat="44.03799" lon="1.66713">
        <ele>153</ele>
        <time>2024-04-01T17:40:42Z</time>
      </trkpt>
      <trkpt lat="44.03808" lon="1.66723">
        <ele>152</ele>
        <time>2024-04-01T17:40:44Z</time>
      </trkpt>
      <trkpt lat="44.03841" lon="1.66754">
        <ele>148</ele>
        <time>2024-04-01T17:40:52Z</time>
      </trkpt>
      <trkpt lat="44.03857" lon="1.66771">
        <ele>146</ele>
        <time>2024-04-01T17:40:55Z</time>
      </trkpt>
      <trkpt lat="44.03873" lon="1.66792">
        <ele>143</ele>
        <time>2024-04-01T17:40:59Z</time>
      </trkpt>
      <trkpt lat="44.03897" lon="1.66815">
        <ele>140</ele>
        <time>2024-04-01T17:41:04Z</time>
      </trkpt>
      <trkpt lat="44.03901" lon="1.66823">
        <ele>139</ele>
        <time>2024-04-01T17:41:05Z</time>
      </trkpt>
      <trkpt lat="44.03902" lon="1.6684">
        <ele>136</ele>
        <time>2024-04-01T17:41:08Z</time>
      </trkpt>
      <trkpt lat="44.03904" lon="1.66849">
        <ele>134</ele>
        <time>2024-04-01T17:41:09Z</time>
      </trkpt>
      <trkpt lat="44.03906" lon="1.66855">
        <ele>133</ele>
        <time>2024-04-01T17:41:10Z</time>
      </trkpt>
      <trkpt lat="44.03932" lon="1.66887">
        <ele>129</ele>
        <time>2024-04-01T17:41:16Z</time>
      </trkpt>
      <trkpt lat="44.03941" lon="1.66901">
        <ele>127</ele>
        <time>2024-04-01T17:41:18Z</time>
      </trkpt>
      <trkpt lat="44.03954" lon="1.6693">
        <ele>124</ele>
        <time>2024-04-01T17:41:23Z</time>
      </trkpt>
      <trkpt lat="44.03963" lon="1.66938">
        <ele>123</ele>
        <time>2024-04-01T17:41:25Z</time>
      </trkpt>
      <trkpt lat="44.03975" lon="1.6694">
        <ele>123</ele>
        <time>2024-04-01T17:41:27Z</time>
      </trkpt>
      <trkpt lat="44.04042" lon="1.66941">
        <ele>122</ele>
        <time>2024-04-01T17:41:39Z</time>
      </trkpt>
      <trkpt lat="44.04049" lon="1.66938">
        <ele>122</ele>
        <time>2024-04-01T17:41:40Z</time>
      </trkpt>
      <trkpt lat="44.04096" lon="1.6691">
        <ele>120</ele>
        <time>2024-04-01T17:41:49Z</time>
      </trkpt>
      <trkpt lat="44.0412" lon="1.66891">
        <ele>119</ele>
        <time>2024-04-01T17:41:54Z</time>
      </trkpt>
      <trkpt lat="44.04129" lon="1.66879">
        <ele>119</ele>
        <time>2024-04-01T17:41:56Z</time>
      </trkpt>
      <trkpt lat="44.04141" lon="1.6686">
        <ele>118</ele>
        <time>2024-04-01T17:41:59Z</time>
      </trkpt>
      <trkpt lat="44.04149" lon="1.66842">
        <ele>118</ele>
        <time>2024-04-01T17:42:02Z</time>
      </trkpt>
      <trkpt lat="44.04156" lon="1.66818">
        <ele>120</ele>
        <time>2024-04-01T17:42:05Z</time>
      </trkpt>
      <trkpt lat="44.04161" lon="1.6681">
        <ele>121</ele>
        <time>2024-04-01T17:42:07Z</time>
      </trkpt>
      <trkpt lat="44.04176" lon="1.66798">
        <ele>122</ele>
        <time>2024-04-01T17:42:10Z</time>
      </trkpt>
      <trkpt lat="44.04188" lon="1.66794">
        <ele>123</ele>
        <time>2024-04-01T17:42:12Z</time>
      </trkpt>
      <trkpt lat="44.04233" lon="1.66786">
        <ele>122</ele>
        <time>2024-04-01T17:42:20Z</time>
      </trkpt>
      <trkpt lat="44.04297" lon="1.66801">
        <ele>118</ele>
        <time>2024-04-01T17:42:32Z</time>
      </trkpt>
      <trkpt lat="44.04317" lon="1.66797">
        <ele>119</ele>
        <time>2024-04-01T17:42:35Z</time>
      </trkpt>
      <trkpt lat="44.04334" lon="1.66788">
        <ele>121</ele>
        <time>2024-04-01T17:42:39Z</time>
      </trkpt>
      <trkpt lat="44.04351" lon="1.66785">
        <ele>122</ele>
        <time>2024-04-01T17:42:42Z</time>
      </trkpt>
      <trkpt lat="44.04377" lon="1.66794">
        <ele>121</ele>
        <time>2024-04-01T17:42:46Z</time>
      </trkpt>
      <trkpt lat="44.04392" lon="1.66805">
        <ele>119</ele>
        <time>2024-04-01T17:42:49Z</time>
      </trkpt>
      <trkpt lat="44.04409" lon="1.66825">
        <ele>115</ele>
        <time>2024-04-01T17:42:53Z</time>
      </trkpt>
      <trkpt lat="44.04434" lon="1.66873">
        <ele>112</ele>
        <time>2024-04-01T17:43:01Z</time>
      </trkpt>
      <trkpt lat="44.04451" lon="1.66899">
        <ele>112</ele>
        <time>2024-04-01T17:43:05Z</time>
      </trkpt>
      <trkpt lat="44.04463" lon="1.66911">
        <ele>112</ele>
        <time>2024-04-01T17:43:08Z</time>
      </trkpt>
      <trkpt lat="44.04483" lon="1.66923">
        <ele>113</ele>
        <time>2024-04-01T17:43:12Z</time>
      </trkpt>
      <trkpt lat="44.04499" lon="1.66938">
        <ele>114</ele>
        <time>2024-04-01T17:43:15Z</time>
      </trkpt>
      <trkpt lat="44.04514" lon="1.66956">
        <ele>115</ele>
        <time>2024-04-01T17:43:19Z</time>
      </trkpt>
      <trkpt lat="44.04533" lon="1.66986">
        <ele>114</ele>
        <time>2024-04-01T17:43:24Z</time>
      </trkpt>
      <trkpt lat="44.04616" lon="1.67088">
        <ele>114</ele>
        <time>2024-04-01T17:43:44Z</time>
      </trkpt>
      <trkpt lat="44.04641" lon="1.67127">
        <ele>115</ele>
        <time>2024-04-01T17:43:50Z</time>
      </trkpt>
      <trkpt lat="44.04676" lon="1.67194">
        <ele>114</ele>
        <time>2024-04-01T17:44:01Z</time>
      </trkpt>
      <trkpt lat="44.04744" lon="1.67307">
        <ele>113</ele>
        <time>2024-04-01T17:44:20Z</time>
      </trkpt>
      <trkpt lat="44.04762" lon="1.67331">
        <ele>112</ele>
        <time>2024-04-01T17:44:24Z</time>
      </trkpt>
      <trkpt lat="44.0478" lon="1.67343">
        <ele>112</ele>
        <time>2024-04-01T17:44:28Z</time>
      </trkpt>
      <trkpt lat="44.0482" lon="1.67364">
        <ele>113</ele>
        <time>2024-04-01T17:44:35Z</time>
      </trkpt>
      <trkpt lat="44.04832" lon="1.67374">
        <ele>113</ele>
        <time>2024-04-01T17:44:38Z</time>
      </trkpt>
      <trkpt lat="44.04845" lon="1.67378">
        <ele>112</ele>
        <time>2024-04-01T17:44:40Z</time>
      </trkpt>
      <trkpt lat="44.04861" lon="1.67376">
        <ele>111</ele>
        <time>2024-04-01T17:44:43Z</time>
      </trkpt>
      <trkpt lat="44.04905" lon="1.67352">
        <ele>110</ele>
        <time>2024-04-01T17:44:52Z</time>
      </trkpt>
      <trkpt lat="44.04931" lon="1.67341">
        <ele>109</ele>
        <time>2024-04-01T17:44:56Z</time>
      </trkpt>
      <trkpt lat="44.04942" lon="1.6733">
        <ele>109</ele>
        <time>2024-04-01T17:44:59Z</time>
      </trkpt>
      <trkpt lat="44.05001" lon="1.67243">
        <ele>112</ele>
        <time>2024-04-01T17:45:14Z</time>
      </trkpt>
      <trkpt lat="44.05056" lon="1.67154">
        <ele>114</ele>
        <time>2024-04-01T17:45:29Z</time>
      </trkpt>
      <trkpt lat="44.05063" lon="1.67144">
        <ele>114</ele>
        <time>2024-04-01T17:45:31Z</time>
      </trkpt>
      <trkpt lat="44.0507" lon="1.67139">
        <ele>114</ele>
        <time>2024-04-01T17:45:32Z</time>
      </trkpt>
      <trkpt lat="44.05072" lon="1.67153">
        <ele>112</ele>
        <time>2024-04-01T17:45:34Z</time>
      </trkpt>
      <trkpt lat="44.05075" lon="1.67163">
        <ele>110</ele>
        <time>2024-04-01T17:45:35Z</time>
      </trkpt>
      <trkpt lat="44.05091" lon="1.67189">
        <ele>107</ele>
        <time>2024-04-01T17:45:40Z</time>
      </trkpt>
      <trkpt lat="44.05111" lon="1.6722">
        <ele>107</ele>
        <time>2024-04-01T17:45:45Z</time>
      </trkpt>
      <trkpt lat="44.05117" lon="1.67237">
        <ele>107</ele>
        <time>2024-04-01T17:45:48Z</time>
      </trkpt>
      <trkpt lat="44.05122" lon="1.67252">
        <ele>108</ele>
        <time>2024-04-01T17:45:50Z</time>
      </trkpt>
      <trkpt lat="44.05124" lon="1.67272">
        <ele>111</ele>
        <time>2024-04-01T17:45:52Z</time>
      </trkpt>
      <trkpt lat="44.05145" lon="1.67258">
        <ele>110</ele>
        <time>2024-04-01T17:45:56Z</time>
      </trkpt>
      <trkpt lat="44.05175" lon="1.67248">
        <ele>109</ele>
        <time>2024-04-01T17:46:02Z</time>
      </trkpt>
      <trkpt lat="44.05425" lon="1.6719">
        <ele>109</ele>
        <time>2024-04-01T17:46:47Z</time>
      </trkpt>
      <trkpt lat="44.0545" lon="1.67181">
        <ele>111</ele>
        <time>2024-04-01T17:46:52Z</time>
      </trkpt>
      <trkpt lat="44.05473" lon="1.67168">
        <ele>112</ele>
        <time>2024-04-01T17:46:56Z</time>
      </trkpt>
      <trkpt lat="44.05585" lon="1.67095">
        <ele>110</ele>
        <time>2024-04-01T17:47:18Z</time>
      </trkpt>
      <trkpt lat="44.05603" lon="1.67089">
        <ele>109</ele>
        <time>2024-04-01T17:47:21Z</time>
      </trkpt>
      <trkpt lat="44.05622" lon="1.67086">
        <ele>108</ele>
        <time>2024-04-01T17:47:25Z</time>
      </trkpt>
      <trkpt lat="44.05632" lon="1.67084">
        <ele>108</ele>
        <time>2024-04-01T17:47:27Z</time>
      </trkpt>
      <trkpt lat="44.05645" lon="1.6709">
        <ele>109</ele>
        <time>2024-04-01T17:47:29Z</time>
      </trkpt>
      <trkpt lat="44.05657" lon="1.67128">
        <ele>115</ele>
        <time>2024-04-01T17:47:34Z</time>
      </trkpt>
      <trkpt lat="44.05672" lon="1.67162">
        <ele>118</ele>
        <time>2024-04-01T17:47:39Z</time>
      </trkpt>
      <trkpt lat="44.05696" lon="1.67209">
        <ele>130</ele>
        <time>2024-04-01T17:47:47Z</time>
      </trkpt>
      <trkpt lat="44.05715" lon="1.67236">
        <ele>132</ele>
        <time>2024-04-01T17:47:52Z</time>
      </trkpt>
      <trkpt lat="44.05758" lon="1.6728">
        <ele>132</ele>
        <time>2024-04-01T17:48:01Z</time>
      </trkpt>
      <trkpt lat="44.05781" lon="1.67299">
        <ele>132</ele>
        <time>2024-04-01T17:48:06Z</time>
      </trkpt>
      <trkpt lat="44.05813" lon="1.67318">
        <ele>125</ele>
        <time>2024-04-01T17:48:12Z</time>
      </trkpt>
      <trkpt lat="44.05847" lon="1.67334">
        <ele>116</ele>
        <time>2024-04-01T17:48:18Z</time>
      </trkpt>
      <trkpt lat="44.05884" lon="1.67347">
        <ele>115</ele>
        <time>2024-04-01T17:48:25Z</time>
      </trkpt>
      <trkpt lat="44.05883" lon="1.67354">
        <ele>118</ele>
        <time>2024-04-01T17:48:26Z</time>
      </trkpt>
      <trkpt lat="44.05885" lon="1.67363">
        <ele>120</ele>
        <time>2024-04-01T17:48:27Z</time>
      </trkpt>
      <trkpt lat="44.05893" lon="1.67372">
        <ele>123</ele>
        <time>2024-04-01T17:48:29Z</time>
      </trkpt>
      <trkpt lat="44.05942" lon="1.67402">
        <ele>127</ele>
        <time>2024-04-01T17:48:39Z</time>
      </trkpt>
      <trkpt lat="44.05961" lon="1.67411">
        <ele>126</ele>
        <time>2024-04-01T17:48:42Z</time>
      </trkpt>
      <trkpt lat="44.06011" lon="1.67423">
        <ele>123</ele>
        <time>2024-04-01T17:48:51Z</time>
      </trkpt>
      <trkpt lat="44.06061" lon="1.67428">
        <ele>122</ele>
        <time>2024-04-01T17:49:00Z</time>
      </trkpt>
      <trkpt lat="44.06136" lon="1.67446">
        <ele>124</ele>
        <time>2024-04-01T17:49:14Z</time>
      </trkpt>
      <trkpt lat="44.06156" lon="1.67451">
        <ele>124</ele>
        <time>2024-04-01T17:49:17Z</time>
      </trkpt>
      <trkpt lat="44.06173" lon="1.67459">
        <ele>124</ele>
        <time>2024-04-01T17:49:21Z</time>
      </trkpt>
      <trkpt lat="44.06187" lon="1.67474">
        <ele>126</ele>
        <time>2024-04-01T17:49:24Z</time>
      </trkpt>
      <trkpt lat="44.06294" lon="1.67597">
        <ele>139</ele>
        <time>2024-04-01T17:49:48Z</time>
      </trkpt>
      <trkpt lat="44.06338" lon="1.6763">
        <ele>137</ele>
        <time>2024-04-01T17:49:57Z</time>
      </trkpt>
      <trkpt lat="44.0635" lon="1.67643">
        <ele>138</ele>
        <time>2024-04-01T17:50:00Z</time>
      </trkpt>
      <trkpt lat="44.06355" lon="1.67652">
        <ele>139</ele>
        <time>2024-04-01T17:50:01Z</time>
      </trkpt>
      <trkpt lat="44.06355" lon="1.67662">
        <ele>141</ele>
        <time>2024-04-01T17:50:03Z</time>
      </trkpt>
      <trkpt lat="44.06353" lon="1.67671">
        <ele>143</ele>
        <time>2024-04-01T17:50:04Z</time>
      </trkpt>
      <trkpt lat="44.06341" lon="1.67686">
        <ele>146</ele>
        <time>2024-04-01T17:50:07Z</time>
      </trkpt>
      <trkpt lat="44.06337" lon="1.67697">
        <ele>148</ele>
        <time>2024-04-01T17:50:08Z</time>
      </trkpt>
      <trkpt lat="44.06339" lon="1.67709">
        <ele>150</ele>
        <time>2024-04-01T17:50:10Z</time>
      </trkpt>
      <trkpt lat="44.06342" lon="1.67717">
        <ele>150</ele>
        <time>2024-04-01T17:50:11Z</time>
      </trkpt>
      <trkpt lat="44.06349" lon="1.67723">
        <ele>151</ele>
        <time>2024-04-01T17:50:13Z</time>
      </trkpt>
      <trkpt lat="44.06359" lon="1.67724">
        <ele>150</ele>
        <time>2024-04-01T17:50:14Z</time>
      </trkpt>
      <trkpt lat="44.06385" lon="1.67718">
        <ele>146</ele>
        <time>2024-04-01T17:50:19Z</time>
      </trkpt>
      <trkpt lat="44.06407" lon="1.67705">
        <ele>143</ele>
        <time>2024-04-01T17:50:23Z</time>
      </trkpt>
      <trkpt lat="44.06417" lon="1.67704">
        <ele>141</ele>
        <time>2024-04-01T17:50:25Z</time>
      </trkpt>
      <trkpt lat="44.06423" lon="1.6771">
        <ele>141</ele>
        <time>2024-04-01T17:50:26Z</time>
      </trkpt>
      <trkpt lat="44.06426" lon="1.67722">
        <ele>142</ele>
        <time>2024-04-01T17:50:28Z</time>
      </trkpt>
      <trkpt lat="44.06426" lon="1.67729">
        <ele>142</ele>
        <time>2024-04-01T17:50:29Z</time>
      </trkpt>
      <trkpt lat="44.06421" lon="1.67749">
        <ele>146</ele>
        <time>2024-04-01T17:50:32Z</time>
      </trkpt>
      <trkpt lat="44.06402" lon="1.67806">
        <ele>149</ele>
        <time>2024-04-01T17:50:40Z</time>
      </trkpt>
    </trkseg>
  </trk>
</gpx>